# Wetter Temperatur Luftdruck Luftfeuchtigkeit Sichtweite Windgeschwindigkeit Windrichtung Zeit
1 Clouds 14 1020 66 10000 4.12 110 14:22 01.02.2023
2 Clouds 14 1021 67 10000 3.09 90 13:20 01.02.2023
3 Clouds 14 1021 66 10000 2.57 90 12:47 01.02.2023
4 Clouds 13 1022 63 10000 4.12 330 11:56 01.02.2023
5 Clear 8 1021 69 10000 5.14 330 08:43 01.02.2023
6 Clear 9 1022 72 10000 4.12 330 00:42 01.02.2023
7 Clear 8 1022 77 10000 4.12 330 21:36 31.01.2023
8 Clear 11 1022 77 10000 5.14 220 19:48 31.01.2023
9 Clear 11 1022 78 10000 1.67 214 18:37 31.01.2023
10 Clear 14 1022 64 10000 5.14 200 15:36 31.01.2023
11 Clear 14 1022 64 10000 5.14 200 15:18 31.01.2023
12 Clear 14 1022 66 10000 4.12 190 14:18 31.01.2023
13 Clouds 13 1023 61 10000 3.09 320 12:19 31.01.2023
14 Clouds 11 1023 75 10000 0.71 38 10:47 31.01.2023
15 Clouds 10 1022 72 10000 6.17 330 09:51 31.01.2023
16 Clouds 8 1021 78 10000 7.2 320 08:59 31.01.2023
17 Clouds 7 1021 78 10000 6.69 330 08:34 31.01.2023
18 Clouds 6 1018 81 10000 6.17 330 05:36 31.01.2023
19 Clouds 6 1016 81 10000 4.63 330 23:55 30.01.2023
20 Clouds 6 1016 83 10000 5.66 320 22:50 30.01.2023
21 Clear 7 1016 82 10000 5.14 320 22:22 30.01.2023
22 Clear 6 1015 82 10000 3.09 330 20:48 30.01.2023
23 Clouds 6 1015 84 10000 2.22 48 19:53 30.01.2023
24 Clear 10 1015 68 10000 6.17 90 17:30 30.01.2023
25 Clear 11 1015 62 10000 3.6 100 16:26 30.01.2023
26 Clear 12 1016 59 10000 2.06 140 14:27 30.01.2023
27 Clear 11 1019 60 10000 2.06 110 12:26 30.01.2023
28 Clear 9 1020 58 10000 3.09 330 10:55 30.01.2023
29 Clear 7 1020 62 10000 5.66 330 09:54 30.01.2023
30 Clear 6 1020 65 10000 6.69 330 08:48 30.01.2023
31 Clear 5 1020 67 10000 6.69 320 06:46 30.01.2023
32 Clear 6 1022 71 10000 4.12 340 01:38 30.01.2023
33 Clear 6 1023 72 10000 3.6 340 23:35 29.01.2023
34 Clear 6 1023 72 10000 4.12 330 22:37 29.01.2023
35 Clear 6 1023 73 10000 3.09 340 21:35 29.01.2023
36 Clear 7 1023 74 10000 4.63 320 20:36 29.01.2023
37 Clear 7 1023 71 10000 3.09 310 19:34 29.01.2023
38 Clear 8 1022 68 10000 1.54 0 18:44 29.01.2023
39 Clear 10 1022 63 10000 3.6 130 17:35 29.01.2023
40 Clear 12 1022 54 10000 2.06 170 16:21 29.01.2023
41 Clear 12 1022 53 10000 4.63 170 14:48 29.01.2023
42 Clear 12 1022 50 10000 4.12 200 13:30 29.01.2023
43 Clear 11 1023 45 10000 2.57 320 12:42 29.01.2023
44 Clear 11 1023 45 10000 2.57 320 12:22 29.01.2023
45 Clear 11 1023 45 10000 4.63 320 11:48 29.01.2023
46 Clear 10 1023 47 10000 5.14 330 11:26 29.01.2023
47 Clear 8 1022 52 10000 6.17 330 09:57 29.01.2023
48 Clear 5 1021 64 10000 6.17 330 07:19 29.01.2023
49 Clear 5 1020 63 10000 5.66 330 03:39 29.01.2023
50 Clear 5 1019 66 10000 4.63 330 23:27 28.01.2023
51 Clouds 7 1018 61 10000 3.6 330 20:38 28.01.2023
52 Clouds 7 1017 61 10000 4.12 320 19:52 28.01.2023
53 Clouds 7 1016 64 10000 0.42 319 18:32 28.01.2023
54 Clouds 9 1016 55 10000 9.26 110 17:20 28.01.2023
55 Clouds 10 1015 53 10000 10.29 110 16:20 28.01.2023
56 Clouds 10 1015 52 10000 9.77 100 15:49 28.01.2023
57 Clouds 11 1014 46 10000 1.54 0 14:35 28.01.2023
58 Clouds 11 1015 49 10000 2.57 220 13:30 28.01.2023
59 Clouds 9 1015 58 10000 4.12 320 11:55 28.01.2023
60 Clouds 7 1015 65 10000 6.17 330 10:34 28.01.2023
61 Clouds 5 1014 72 10000 4.12 330 08:39 28.01.2023
62 Clouds 7 1012 71 10000 5.14 330 01:45 28.01.2023
63 Clouds 7 1012 71 10000 2.57 310 00:26 28.01.2023
64 Clouds 8 1011 73 10000 0.41 168 21:48 27.01.2023
65 Clouds 9 1010 64 10000 6.17 110 18:54 27.01.2023
66 Clouds 9 1010 64 10000 5.14 120 17:58 27.01.2023
67 Clouds 9 1009 68 10000 2.51 167 17:19 27.01.2023
68 Clouds 9 1009 70 10000 2.53 169 16:35 27.01.2023
69 Clouds 10 1009 65 10000 4.63 150 15:24 27.01.2023
70 Clouds 11 1009 63 10000 3.6 150 14:25 27.01.2023
71 Clouds 11 1009 62 10000 3.09 180 13:32 27.01.2023
72 Clear 6 1008 68 10000 6.69 330 08:48 27.01.2023
73 Clear 6 1008 69 10000 5.14 340 06:29 27.01.2023
74 Clear 6 1009 73 10000 4.63 330 00:27 27.01.2023
75 Clear 7 1009 77 10000 3.09 330 21:57 26.01.2023
76 Clear 7 1009 77 10000 4.12 320 20:55 26.01.2023
77 Clear 8 1009 74 10000 2.57 290 19:59 26.01.2023
78 Clear 10 1009 69 10000 5.14 230 17:57 26.01.2023
79 Clear 12 1008 65 10000 5.66 220 16:50 26.01.2023
80 Clear 12 1009 63 10000 6.69 210 16:20 26.01.2023
81 Clear 12 1009 64 10000 6.69 220 15:42 26.01.2023
82 Clouds 12 1009 60 10000 6.17 220 15:24 26.01.2023
83 Clouds 12 1010 64 10000 5.66 220 13:53 26.01.2023
84 Clouds 11 1011 57 10000 2.57 330 12:31 26.01.2023
85 Clear 9 1012 60 10000 6.17 330 10:56 26.01.2023
86 Clear 8 1012 63 10000 6.69 320 10:26 26.01.2023
87 Clear 8 1012 67 10000 7.2 330 09:42 26.01.2023
88 Clear 5 1012 68 10000 6.69 330 06:57 26.01.2023
89 Clear 8 1016 64 10000 5.66 320 23:55 25.01.2023
90 Clear 8 1016 65 10000 5.14 320 23:36 25.01.2023
91 Clear 8 1017 68 10000 4.12 320 21:53 25.01.2023
92 Clear 8 1017 69 10000 3.6 330 21:20 25.01.2023
93 Clear 10 1018 63 10000 2.06 330 18:31 25.01.2023
94 Clear 12 1018 60 10000 2.06 230 17:22 25.01.2023
95 Clouds 14 1019 48 10000 1.54 270 15:37 25.01.2023
96 Clouds 12 1021 51 10000 5.14 320 12:48 25.01.2023
97 Rain 11 1022 52 10000 4.63 320 10:46 25.01.2023
98 Rain 10 1022 52 10000 5.66 330 09:41 25.01.2023
99 Clear 8 1022 49 10000 7.72 330 06:57 25.01.2023
100 Clear 7 1024 55 10000 6.69 330 01:26 25.01.2023
101 Clear 7 1025 55 10000 6.69 320 00:21 25.01.2023
102 Clear 8 1025 56 10000 4.12 330 21:32 24.01.2023
103 Clear 9 1025 53 10000 3.09 40 20:19 24.01.2023
104 Clear 11 1024 55 10000 7.72 80 18:42 24.01.2023
105 Clear 13 1023 55 10000 12.86 90 17:20 24.01.2023
106 Clouds 13 1023 57 10000 13.38 90 16:52 24.01.2023
107 Clouds 14 1023 57 10000 13.38 100 15:21 24.01.2023
108 Clouds 13 1023 56 10000 13.89 100 13:22 24.01.2023
109 Clear 12 1025 56 10000 13.38 90 11:21 24.01.2023
110 Clouds 9 1023 66 10000 10.29 80 08:23 24.01.2023
111 Clouds 10 1023 66 10000 12.35 90 07:54 24.01.2023
112 Clouds 10 1023 66 10000 12.35 90 07:54 24.01.2023
113 Clouds 10 1023 68 10000 13.89 90 07:25 24.01.2023
114 Rain 9 1021 69 10000 13.89 90 02:38 24.01.2023
115 Rain 9 1019 76 10000 12.35 80 00:35 24.01.2023
116 Clouds 8 1018 65 10000 5.14 310 22:28 23.01.2023
117 Rain 8 1017 69 10000 2.06 320 19:58 23.01.2023
118 Rain 7 1016 72 10000 3.6 300 18:58 23.01.2023
119 Rain 8 1015 63 10000 3.6 340 16:40 23.01.2023
120 Rain 9 1015 57 10000 2.57 320 15:26 23.01.2023
121 Rain 9 1015 52 10000 3.09 310 13:55 23.01.2023
122 Rain 10 1015 49 10000 3.6 320 12:55 23.01.2023
123 Rain 9 1016 47 10000 4.63 330 11:46 23.01.2023
124 Rain 9 1016 46 10000 4.63 340 10:55 23.01.2023
125 Clouds 6 1015 47 10000 7.2 330 08:24 23.01.2023
126 Clouds 6 1016 45 10000 4.12 340 23:53 22.01.2023
127 Clear 7 1016 44 10000 4.63 330 21:51 22.01.2023
128 Clouds 7 1016 43 10000 4.12 330 21:19 22.01.2023
129 Clouds 8 1015 42 10000 2.57 330 19:56 22.01.2023
130 Clouds 8 1015 41 10000 3.6 330 19:37 22.01.2023
131 Clear 8 1015 39 10000 3.6 330 18:37 22.01.2023
132 Clouds 8 1015 39 10000 2.06 330 17:55 22.01.2023
133 Clouds 9 1014 39 10000 2.06 320 17:24 22.01.2023
134 Clouds 10 1014 42 10000 3.6 320 15:26 22.01.2023
135 Clouds 10 1014 38 10000 3.09 330 14:41 22.01.2023
136 Clouds 10 1013 34 10000 4.12 320 13:27 22.01.2023
137 Clouds 11 1014 30 10000 4.63 320 12:31 22.01.2023
138 Clouds 9 1014 31 10000 5.66 330 11:33 22.01.2023
139 Clouds 7 1013 41 10000 7.2 330 09:35 22.01.2023
140 Clear 6 1012 34 10000 6.17 330 05:41 22.01.2023
141 Clouds 5 1012 37 10000 5.66 330 23:49 21.01.2023
142 Clear 6 1012 39 10000 5.14 330 23:29 21.01.2023
143 Clear 6 1011 40 10000 5.66 330 21:40 21.01.2023
144 Clear 7 1010 44 10000 2.57 310 19:23 21.01.2023
145 Clear 9 1009 38 10000 3.6 220 16:55 21.01.2023
146 Clear 11 1008 26 10000 3.09 240 14:24 21.01.2023
147 Clear 10 1009 27 10000 4.12 320 12:57 21.01.2023
148 Clear 8 1010 29 10000 6.17 320 11:42 21.01.2023
149 Clear 7 1010 33 10000 6.17 330 10:56 21.01.2023
150 Clear 4 1009 38 10000 4.12 340 08:57 21.01.2023
151 Clouds 4 1009 31 10000 4.12 330 04:34 21.01.2023
152 Clear 5 1009 48 10000 5.14 330 22:29 20.01.2023
153 Clear 6 1009 52 10000 4.12 340 21:38 20.01.2023
154 Clear 6 1009 55 10000 4.12 340 20:57 20.01.2023
155 Clear 6 1008 56 10000 4.63 330 19:45 20.01.2023
156 Clear 10 1006 47 10000 1.33 173 16:47 20.01.2023
157 Clouds 11 1006 47 10000 5.14 220 14:47 20.01.2023
158 Clouds 11 1006 50 10000 4.63 220 13:51 20.01.2023
159 Clouds 7 1007 52 10000 4.12 330 10:25 20.01.2023
160 Clouds 5 1005 56 10000 5.14 330 08:57 20.01.2023
161 Clouds 4 1003 59 10000 4.12 330 06:38 20.01.2023
162 Clouds 6 1003 67 10000 7.2 20 02:31 20.01.2023
163 Clouds 7 1003 58 10000 4.63 340 22:36 19.01.2023
164 Clouds 7 1003 59 10000 4.63 330 21:31 19.01.2023
165 Clear 7 1003 56 10000 3.09 10 19:29 19.01.2023
166 Clouds 9 1002 47 10000 4.12 120 17:20 19.01.2023
167 Clear 11 1001 34 10000 1.54 170 13:47 19.01.2023
168 Clouds 5 1000 48 10000 5.14 320 10:19 19.01.2023
169 Clouds 5 1000 55 10000 4.12 330 08:49 19.01.2023
170 Clouds 8 996 41 10000 4.12 300 22:40 18.01.2023
171 Clouds 8 994 47 10000 3.09 350 20:21 18.01.2023
172 Clouds 9 994 53 10000 3.6 20 19:41 18.01.2023
173 Clouds 9 994 58 10000 3.6 20 19:23 18.01.2023
174 Clouds 12 991 40 10000 2.06 170 16:19 18.01.2023
175 Clear 13 990 42 10000 5.14 250 14:20 18.01.2023
176 Clear 11 991 47 10000 1.54 0 12:24 18.01.2023
177 Clear 7 990 57 10000 5.14 320 09:32 18.01.2023
178 Clear 6 988 63 10000 4.12 310 06:44 18.01.2023
179 Clear 8 987 67 10000 2.57 310 00:59 18.01.2023
180 Clear 9 986 61 10000 4.63 270 21:38 17.01.2023
181 Clear 10 985 66 10000 6.69 270 19:43 17.01.2023
182 Clear 10 985 61 10000 6.69 260 18:53 17.01.2023
183 Clear 11 984 66 10000 8.23 260 17:41 17.01.2023
184 Clear 12 984 64 10000 8.75 250 15:27 17.01.2023
185 Clear 12 984 58 10000 10.29 250 14:45 17.01.2023
186 Clouds 8 986 72 10000 2.21 359 13:33 17.01.2023
187 Clouds 11 987 72 10000 6.17 260 11:47 17.01.2023
188 Clouds 10 987 63 10000 5.14 300 10:33 17.01.2023
189 Clouds 8 986 67 10000 4.63 320 08:55 17.01.2023
190 Clouds 8 987 61 10000 4.12 330 07:33 17.01.2023
191 Clouds 8 992 69 10000 3.09 320 03:49 17.01.2023
192 Clear 8 994 69 10000 5.14 290 00:48 17.01.2023
193 Clear 10 994 69 10000 8.23 250 22:38 16.01.2023
194 Clear 9 994 75 10000 6.69 260 21:44 16.01.2023
195 Clear 10 994 64 10000 7.72 280 19:55 16.01.2023
196 Clear 10 994 63 10000 9.77 280 19:18 16.01.2023
197 Clear 10 995 64 10000 9.26 260 18:48 16.01.2023
198 Clear 10 995 65 10000 9.26 260 18:18 16.01.2023
199 Clouds 11 994 58 10000 10.29 240 17:20 16.01.2023
200 Clouds 11 996 70 10000 4.12 310 14:27 16.01.2023
201 Clouds 11 997 75 10000 5.14 250 13:36 16.01.2023
202 Clouds 10 1001 61 10000 7.2 260 10:26 16.01.2023
203 Clear 8 1002 59 10000 7.2 250 08:32 16.01.2023
204 Clear 10 1006 82 10000 2.57 330 22:49 15.01.2023
205 Clear 11 1006 77 10000 2.06 330 21:24 15.01.2023
206 Clear 12 1006 72 10000 3.09 330 20:31 15.01.2023
207 Clouds 12 1007 79 10000 1.03 330 19:34 15.01.2023
208 Clouds 13 1008 82 10000 2.06 20 17:38 15.01.2023
209 Clouds 14 1009 78 10000 2.06 70 14:59 15.01.2023
210 Clouds 13 1012 76 10000 0.7 145 12:25 15.01.2023
211 Clouds 12 1014 72 10000 6.17 320 11:29 15.01.2023
212 Clouds 11 1014 75 10000 6.69 320 10:27 15.01.2023
213 Clouds 10 1014 77 10000 5.14 330 08:54 15.01.2023
214 Clouds 10 1018 81 10000 6.17 320 00:35 15.01.2023
215 Clear 9 1019 81 10000 6.17 320 22:44 14.01.2023
216 Clouds 10 1019 79 10000 5.66 320 21:55 14.01.2023
217 Clear 10 1019 80 10000 5.66 320 21:36 14.01.2023
218 Clear 10 1019 80 10000 5.66 320 21:36 14.01.2023
219 Clear 10 1019 80 10000 5.66 320 21:18 14.01.2023
220 Clear 10 1019 80 10000 5.66 320 21:18 14.01.2023
221 Clouds 10 1019 82 10000 4.12 330 20:28 14.01.2023
222 Clouds 11 1019 80 10000 2.22 50 18:19 14.01.2023
223 Clear 15 1018 61 10000 1.54 150 15:48 14.01.2023
224 Clear 15 1018 59 10000 1.54 0 15:26 14.01.2023
225 Clear 15 1019 55 10000 2.06 190 14:24 14.01.2023
226 Clear 15 1020 58 10000 3.09 250 13:33 14.01.2023
227 Clear 13 1021 55 10000 5.14 330 10:51 14.01.2023
228 Clear 11 1021 61 10000 6.17 320 09:56 14.01.2023
229 Clear 9 1020 65 10000 5.66 340 04:56 14.01.2023
230 Clear 10 1020 83 10000 5.14 330 23:21 13.01.2023
231 Clear 10 1019 82 10000 5.66 330 22:45 13.01.2023
232 Clouds 9 1019 86 10000 6.17 320 21:58 13.01.2023
233 Clouds 10 1019 84 10000 5.14 330 21:23 13.01.2023
234 Clear 10 1018 86 10000 3.09 320 19:36 13.01.2023
235 Clear 11 1016 86 10000 2.06 70 17:59 13.01.2023
236 Clouds 14 1016 75 10000 2.06 250 16:24 13.01.2023
237 Clouds 13 1017 73 10000 1.02 191 12:51 13.01.2023
238 Clear 12 1017 66 10000 5.14 320 12:19 13.01.2023
239 Clear 11 1017 67 10000 3.09 330 10:24 13.01.2023
240 Clear 10 1017 68 10000 2.57 330 09:45 13.01.2023
241 Clear 10 1016 65 10000 4.63 330 08:52 13.01.2023
242 Clear 9 1016 66 10000 4.63 330 08:20 13.01.2023
243 Clear 9 1016 61 10000 6.17 330 06:52 13.01.2023
244 Clear 9 1018 70 10000 5.66 330 03:56 13.01.2023
245 Clear 10 1020 72 10000 5.14 330 23:58 12.01.2023
246 Clear 10 1021 75 10000 4.63 330 22:41 12.01.2023
247 Clear 11 1021 75 10000 4.12 330 20:55 12.01.2023
248 Clear 11 1021 73 10000 3.6 320 19:38 12.01.2023
249 Clear 13 1021 75 10000 0.51 0 17:34 12.01.2023
250 Clear 14 1021 68 10000 2.57 160 16:18 12.01.2023
251 Clear 16 1021 57 10000 1.54 0 14:44 12.01.2023
252 Clear 16 1021 57 10000 1.54 0 14:22 12.01.2023
253 Clear 14 1022 60 10000 5.14 330 12:50 12.01.2023
254 Clear 11 1022 62 10000 6.69 330 10:38 12.01.2023
255 Clear 10 1021 61 10000 5.66 330 08:31 12.01.2023
256 Clear 9 1019 76 10000 5.14 340 03:58 12.01.2023
257 Clear 10 1018 79 10000 4.63 330 23:59 11.01.2023
258 Clear 10 1018 78 10000 4.63 330 23:41 11.01.2023
259 Clear 10 1018 79 10000 4.63 330 23:21 11.01.2023
260 Clear 10 1017 81 10000 4.63 320 21:46 11.01.2023
261 Clear 10 1017 82 10000 2.57 330 20:26 11.01.2023
262 Clouds 11 1017 82 10000 0.83 12 18:39 11.01.2023
263 Clouds 12 1017 77 10000 3.09 80 17:23 11.01.2023
264 Clouds 14 1017 66 10000 1.03 0 15:21 11.01.2023
265 Clear 14 1018 60 10000 1.54 310 13:51 11.01.2023
266 Clear 13 1019 60 10000 5.14 320 12:20 11.01.2023
267 Clear 11 1019 57 10000 5.66 330 10:43 11.01.2023
268 Clear 9 1019 56 10000 6.17 330 08:21 11.01.2023
269 Clear 9 1019 54 10000 5.66 330 07:26 11.01.2023
270 Clear 10 1020 54 10000 6.69 340 01:46 11.01.2023
271 Clear 9 1021 43 10000 4.63 340 22:46 10.01.2023
272 Clear 9 1021 43 10000 4.63 340 22:46 10.01.2023
273 Clear 11 1020 40 10000 5.66 330 21:44 10.01.2023
274 Clear 11 1020 42 10000 5.66 330 20:43 10.01.2023
275 Clear 11 1020 40 10000 3.6 330 19:48 10.01.2023
276 Clear 12 1020 45 10000 5.14 320 18:48 10.01.2023
277 Clear 12 1019 48 10000 3.6 310 17:59 10.01.2023
278 Clear 15 1019 50 10000 3.6 240 16:47 10.01.2023
279 Clear 16 1019 52 10000 1.54 190 15:31 10.01.2023
280 Clear 16 1018 46 10000 2.57 290 14:33 10.01.2023
281 Clear 15 1018 33 10000 3.1 334 12:31 10.01.2023
282 Clear 11 1016 32 10000 4.12 310 09:42 10.01.2023
283 Clear 11 1016 35 10000 4.12 300 08:35 10.01.2023
284 Clear 11 1015 31 10000 8.75 310 07:34 10.01.2023
285 Clear 11 1013 37 10000 10.29 330 04:59 10.01.2023
286 Clear 12 1010 33 10000 4.63 280 23:57 09.01.2023
287 Clear 12 1009 39 10000 7.72 290 21:55 09.01.2023
288 Clear 12 1009 42 10000 10.8 290 20:46 09.01.2023
289 Clear 12 1008 45 10000 8.23 290 19:50 09.01.2023
290 Clouds 12 1006 45 10000 10.8 270 18:21 09.01.2023
291 Clouds 13 1005 42 10000 10.29 270 17:49 09.01.2023
292 Clouds 15 1004 37 10000 9.77 260 16:33 09.01.2023
293 Clouds 16 1004 34 10000 10.8 280 15:31 09.01.2023
294 Clear 16 1004 40 10000 8.75 270 14:53 09.01.2023
295 Clear 16 1003 34 10000 8.75 270 14:33 09.01.2023
296 Clear 17 1004 26 10000 2.24 191 12:54 09.01.2023
297 Clear 16 1004 37 10000 3.6 300 11:51 09.01.2023
298 Clear 14 1004 49 10000 4.63 310 11:19 09.01.2023
299 Clear 13 1002 67 10000 7.72 230 06:56 09.01.2023
300 Clear 12 1004 79 10000 5.66 330 02:55 09.01.2023
301 Clouds 11 1005 89 10000 4.63 320 00:59 09.01.2023
302 Clouds 11 1005 89 10000 5.66 320 22:19 08.01.2023
303 Clouds 11 1006 88 10000 5.14 340 21:22 08.01.2023
304 Clouds 11 1007 90 6000 5.14 340 20:33 08.01.2023
305 Rain 11 1008 89 9557 1.85 359 18:45 08.01.2023
306 Rain 11 1009 90 5000 3.6 350 17:21 08.01.2023
307 Rain 11 1010 89 3600 4.12 350 16:43 08.01.2023
308 Rain 11 1011 88 6000 4.12 340 15:36 08.01.2023
309 Rain 11 1013 90 3000 6.17 340 13:58 08.01.2023
310 Rain 11 1013 88 4500 5.14 350 13:30 08.01.2023
311 Rain 11 1013 87 7000 5.14 350 12:46 08.01.2023
312 Rain 11 1015 91 10000 4.63 350 10:28 08.01.2023
313 Rain 11 1016 91 10000 4.63 340 09:36 08.01.2023
314 Rain 11 1016 89 10000 4.63 330 07:48 08.01.2023
315 Clouds 12 1020 82 10000 3.09 330 00:24 08.01.2023
316 Clouds 12 1020 87 10000 4.12 320 22:48 07.01.2023
317 Clouds 12 1020 87 10000 4.12 330 22:24 07.01.2023
318 Clouds 12 1020 85 10000 3.6 320 21:48 07.01.2023
319 Clouds 13 1020 83 10000 4.12 310 20:46 07.01.2023
320 Clouds 13 1020 83 10000 4.12 310 20:22 07.01.2023
321 Clouds 13 1020 83 10000 3.09 270 18:52 07.01.2023
322 Clouds 14 1020 83 10000 3.6 260 17:53 07.01.2023
323 Clouds 14 1020 85 10000 0.45 221 17:33 07.01.2023
324 Clouds 14 1020 83 10000 0.45 229 16:37 07.01.2023
325 Clouds 14 1020 77 10000 4.12 220 15:50 07.01.2023
326 Clouds 15 1020 73 10000 4.63 220 15:29 07.01.2023
327 Clouds 16 1020 69 10000 4.12 210 14:30 07.01.2023
328 Clouds 15 1021 68 10000 3.09 210 13:54 07.01.2023
329 Clouds 15 1021 68 10000 1.54 290 13:26 07.01.2023
330 Clouds 15 1022 66 10000 4.12 330 12:23 07.01.2023
331 Clouds 14 1022 70 10000 3.6 320 11:51 07.01.2023
332 Clouds 13 1022 69 10000 2.06 350 10:25 07.01.2023
333 Clouds 12 1022 70 10000 4.12 330 08:46 07.01.2023
334 Clouds 12 1022 72 10000 3.09 340 07:46 07.01.2023
335 Clouds 12 1022 71 10000 4.63 340 07:20 07.01.2023
336 Clouds 13 1022 72 10000 5.66 330 04:49 07.01.2023
337 Clouds 13 1023 76 10000 3.6 330 22:44 06.01.2023
338 Clouds 13 1024 77 10000 4.12 320 22:19 06.01.2023
339 Clouds 13 1024 76 10000 3.09 320 21:28 06.01.2023
340 Clouds 13 1023 77 10000 2.57 330 19:58 06.01.2023
341 Clouds 13 1023 78 10000 2.57 330 19:40 06.01.2023
342 Clouds 13 1023 78 10000 2.06 330 19:22 06.01.2023
343 Clouds 13 1023 79 10000 2.57 330 18:50 06.01.2023
344 Clouds 14 1023 77 10000 0.51 0 17:31 06.01.2023
345 Clouds 14 1023 75 10000 0.51 0 16:50 06.01.2023
346 Clouds 14 1023 77 10000 0 0 16:20 06.01.2023
347 Clouds 15 1023 75 10000 1.54 320 15:50 06.01.2023
348 Clouds 15 1023 75 10000 3.09 320 14:55 06.01.2023
349 Clouds 15 1023 81 10000 1.68 105 12:50 06.01.2023
350 Clouds 13 1024 77 10000 6.69 330 10:59 06.01.2023
351 Clouds 12 1024 81 10000 6.17 330 09:32 06.01.2023
352 Clouds 11 1023 81 10000 6.69 330 07:57 06.01.2023
353 Clouds 11 1023 83 10000 4.63 330 01:52 06.01.2023
354 Clouds 11 1023 83 10000 4.63 330 22:55 05.01.2023
355 Clouds 11 1023 83 10000 4.63 330 22:55 05.01.2023
356 Clouds 12 1023 84 10000 4.12 330 21:55 05.01.2023
357 Clouds 14 1022 84 10000 6.17 80 19:49 05.01.2023
358 Clouds 14 1021 84 10000 5.14 90 17:28 05.01.2023
359 Clouds 15 1022 81 10000 4.12 100 16:30 05.01.2023
360 Clouds 15 1022 78 10000 5.14 100 15:48 05.01.2023
361 Clouds 16 1022 75 10000 3.6 80 14:53 05.01.2023
362 Clear 16 1022 74 10000 3.6 90 13:19 05.01.2023
363 Clear 15 1023 71 10000 3.09 320 12:33 05.01.2023
364 Clouds 11 1023 79 10000 5.66 330 09:55 05.01.2023
365 Clouds 11 1023 82 10000 6.17 330 09:32 05.01.2023
366 Clouds 11 1023 82 10000 4.63 330 07:21 05.01.2023
367 Clouds 11 1023 83 10000 5.14 330 06:36 05.01.2023
368 Clouds 11 1026 86 10000 3.6 320 00:25 05.01.2023
369 Clouds 12 1027 87 10000 2.06 340 22:18 04.01.2023
370 Clouds 12 1027 87 10000 2.57 320 21:29 04.01.2023
371 Clouds 13 1027 90 10000 2.06 290 19:57 04.01.2023
372 Clouds 13 1027 90 10000 3.6 240 19:34 04.01.2023
373 Clouds 13 1027 90 10000 4.12 240 18:59 04.01.2023
374 Clouds 15 1027 81 10000 5.66 220 16:32 04.01.2023
375 Clouds 16 1027 79 10000 5.14 210 15:56 04.01.2023
376 Clouds 16 1028 76 10000 2.57 190 14:49 04.01.2023
377 Clouds 14 1030 78 10000 5.66 320 11:45 04.01.2023
378 Clouds 14 1030 79 10000 5.66 330 11:22 04.01.2023
379 Clouds 13 1030 83 10000 5.66 330 10:43 04.01.2023
380 Clouds 13 1030 83 10000 5.66 330 10:24 04.01.2023
381 Clouds 12 1030 84 10000 5.14 340 09:19 04.01.2023
382 Clouds 12 1028 85 10000 3.09 330 05:37 04.01.2023
383 Clouds 13 1029 90 10000 3.09 320 00:40 04.01.2023
384 Clouds 13 1029 91 10000 0.51 350 23:37 03.01.2023
385 Clouds 13 1028 92 10000 0 0 22:55 03.01.2023
386 Clouds 14 1028 92 10000 1.03 260 21:36 03.01.2023
387 Clouds 15 1028 91 10000 1.54 200 19:57 03.01.2023
388 Clouds 15 1027 90 10000 1.54 140 18:22 03.01.2023
389 Clouds 15 1026 90 10000 3.09 130 16:39 03.01.2023
390 Clouds 17 1026 80 10000 1.54 110 14:21 03.01.2023
391 Clouds 17 1027 76 10000 2.06 270 13:32 03.01.2023
392 Clouds 16 1027 78 10000 1.54 0 12:58 03.01.2023
393 Clouds 16 1027 77 10000 2.06 320 12:31 03.01.2023
394 Clouds 16 1027 75 10000 3.09 320 11:53 03.01.2023
395 Clouds 13 1026 80 10000 3.6 350 08:23 03.01.2023
396 Clear 13 1026 82 10000 3.6 340 04:26 03.01.2023
397 Clouds 13 1026 84 10000 4.12 340 03:47 03.01.2023
398 Clouds 13 1026 85 10000 3.09 340 03:27 03.01.2023
399 Clouds 13 1026 85 10000 4.63 330 23:19 02.01.2023
400 Clouds 13 1026 85 10000 3.6 320 22:26 02.01.2023
401 Clouds 13 1026 87 10000 1.54 0 20:51 02.01.2023
402 Clouds 13 1026 87 10000 3.09 330 20:31 02.01.2023
403 Clouds 14 1026 89 10000 7.2 90 18:45 02.01.2023
404 Clouds 16 1026 83 10000 6.17 80 15:43 02.01.2023
405 Clouds 16 1026 79 10000 7.2 90 14:26 02.01.2023
406 Clouds 16 1027 77 10000 5.14 70 12:38 02.01.2023
407 Clouds 15 1028 77 10000 2.57 20 11:25 02.01.2023
408 Clouds 12 1027 86 10000 3.6 340 08:38 02.01.2023
409 Clouds 11 1027 87 10000 3.09 340 04:38 02.01.2023
410 Clouds 13 1028 90 10000 4.12 100 23:28 01.01.2023
411 Clouds 14 1028 91 10000 4.12 80 21:54 01.01.2023
412 Clouds 14 1029 91 10000 3.6 70 20:49 01.01.2023
413 Clouds 15 1029 91 10000 2.57 80 20:18 01.01.2023
414 Clouds 15 1028 90 10000 2.57 100 18:52 01.01.2023
415 Clouds 15 1028 90 10000 3.09 90 17:24 01.01.2023
416 Clouds 15 1028 90 10000 3.09 90 17:24 01.01.2023
417 Clouds 15 1028 88 10000 2.57 100 16:57 01.01.2023
418 Clouds 16 1028 86 10000 3.09 100 15:38 01.01.2023
419 Clouds 16 1028 82 10000 1.03 0 13:49 01.01.2023
420 Clouds 15 1029 82 10000 3.6 330 12:57 01.01.2023
421 Clouds 15 1030 80 10000 4.12 320 11:41 01.01.2023
422 Clouds 15 1030 82 10000 3.6 330 11:21 01.01.2023
423 Clouds 14 1030 83 10000 4.12 340 09:35 01.01.2023
424 Clouds 13 1029 84 10000 4.12 330 08:25 01.01.2023
425 Clouds 13 1029 84 10000 4.12 330 07:57 01.01.2023
426 Clouds 13 1029 87 10000 3.6 330 06:42 01.01.2023
427 Clouds 13 1030 86 10000 1.03 10 23:46 31.12.2022
428 Clouds 13 1030 86 10000 1.54 340 23:26 31.12.2022
429 Clouds 13 1030 86 10000 1.03 330 22:22 31.12.2022
430 Clouds 14 1029 87 10000 1.54 0 21:24 31.12.2022
431 Clouds 14 1030 87 10000 3.6 70 20:24 31.12.2022
432 Clouds 14 1029 89 10000 1.91 20 18:57 31.12.2022
433 Clouds 14 1029 87 10000 4.12 100 18:38 31.12.2022
434 Clouds 14 1029 87 10000 4.12 100 17:57 31.12.2022
435 Clouds 14 1029 85 10000 4.12 90 17:32 31.12.2022
436 Clouds 15 1028 82 10000 5.66 110 16:32 31.12.2022
437 Clouds 16 1027 78 10000 3.6 80 15:36 31.12.2022
438 Clouds 16 1027 74 10000 2.06 120 13:59 31.12.2022
439 Clouds 17 1028 73 10000 1.03 0 13:27 31.12.2022
440 Clouds 15 1028 77 10000 3.09 330 12:24 31.12.2022
441 Clouds 15 1028 77 10000 4.12 330 11:55 31.12.2022
442 Clouds 14 1028 81 10000 4.12 330 11:37 31.12.2022
443 Clouds 12 1028 85 10000 4.63 330 09:57 31.12.2022
444 Clouds 12 1028 85 10000 5.14 330 09:39 31.12.2022
445 Clouds 11 1027 87 10000 4.63 320 08:22 31.12.2022
446 Clouds 11 1025 87 10000 4.12 320 04:52 31.12.2022
447 Clouds 12 1024 86 10000 4.63 330 00:33 31.12.2022
448 Clouds 11 1023 85 10000 3.6 330 23:20 30.12.2022
449 Clear 12 1022 88 10000 4.12 330 22:19 30.12.2022
450 Clear 12 1022 88 10000 2.57 330 21:38 30.12.2022
451 Clear 12 1022 89 10000 2.57 330 21:19 30.12.2022
452 Clouds 14 1020 89 10000 2.57 250 18:28 30.12.2022
453 Clouds 15 1020 87 10000 5.14 230 17:35 30.12.2022
454 Clouds 15 1019 87 10000 5.14 220 16:48 30.12.2022
455 Clouds 16 1019 84 10000 5.14 200 14:55 30.12.2022
456 Clouds 16 1019 73 10000 1.54 310 12:56 30.12.2022
457 Clouds 11 1018 85 10000 4.12 340 08:24 30.12.2022
458 Clouds 12 1017 86 10000 4.63 330 04:24 30.12.2022
459 Clouds 12 1018 87 10000 4.12 330 02:27 30.12.2022
460 Clouds 12 1019 85 10000 4.12 330 23:46 29.12.2022
461 Clouds 13 1019 81 10000 4.63 330 22:28 29.12.2022
462 Clouds 13 1019 79 10000 5.14 320 21:28 29.12.2022
463 Clouds 13 1019 80 10000 4.12 320 20:53 29.12.2022
464 Clouds 13 1019 78 10000 4.12 330 19:22 29.12.2022
465 Clouds 13 1019 78 10000 3.6 330 17:53 29.12.2022
466 Clouds 13 1019 79 10000 3.6 330 17:27 29.12.2022
467 Clouds 14 1019 75 10000 3.6 330 16:54 29.12.2022
468 Clouds 15 1019 75 10000 3.09 320 15:57 29.12.2022
469 Clouds 15 1019 70 10000 3.6 320 13:42 29.12.2022
470 Clouds 14 1021 72 10000 5.14 330 11:57 29.12.2022
471 Clouds 13 1021 77 10000 5.14 330 10:19 29.12.2022
472 Clouds 11 1020 77 10000 6.69 330 05:20 29.12.2022
473 Clouds 11 1022 79 10000 6.17 330 23:29 28.12.2022
474 Clouds 11 1022 82 10000 5.14 330 22:21 28.12.2022
475 Clouds 11 1023 81 10000 5.66 330 21:20 28.12.2022
476 Clouds 11 1023 83 10000 5.14 330 20:20 28.12.2022
477 Clouds 12 1022 84 10000 3.09 30 18:47 28.12.2022
478 Clouds 15 1023 76 10000 1.54 190 16:22 28.12.2022
479 Clouds 15 1023 64 10000 1.54 290 14:27 28.12.2022
480 Clear 15 1024 57 10000 5.14 330 12:49 28.12.2022
481 Clouds 14 1025 77 10000 1.63 325 11:34 28.12.2022
482 Clouds 12 1025 71 10000 7.2 330 10:31 28.12.2022
483 Clouds 10 1024 77 10000 6.69 330 07:48 28.12.2022
484 Clouds 10 1024 78 10000 7.72 330 06:47 28.12.2022
485 Clouds 10 1025 84 10000 5.66 330 01:25 28.12.2022
486 Clouds 12 1024 87 10000 5.14 330 22:33 27.12.2022
487 Clouds 12 1024 87 10000 4.63 320 19:52 27.12.2022
488 Clouds 13 1024 89 10000 2.57 340 18:59 27.12.2022
489 Clouds 14 1023 87 10000 1.54 120 17:20 27.12.2022
490 Clouds 15 1023 85 10000 1.03 100 16:33 27.12.2022
491 Clouds 16 1023 84 10000 1.54 160 14:53 27.12.2022
492 Clouds 16 1024 76 10000 3.09 320 12:27 27.12.2022
493 Clouds 13 1024 82 10000 5.14 330 10:31 27.12.2022
494 Clouds 13 1024 82 10000 5.14 330 10:31 27.12.2022
495 Clouds 12 1024 83 10000 6.17 320 09:44 27.12.2022
496 Clouds 12 1024 84 10000 6.17 320 09:22 27.12.2022
497 Clear 12 1022 73 10000 4.12 330 04:59 27.12.2022
498 Clouds 12 1022 76 10000 4.63 310 00:23 27.12.2022
499 Clouds 13 1023 83 10000 5.66 330 21:53 26.12.2022
500 Clouds 12 1023 85 10000 5.14 330 20:45 26.12.2022
501 Clouds 13 1023 86 10000 4.12 320 19:56 26.12.2022
502 Clouds 14 1023 88 10000 2.57 240 18:42 26.12.2022
503 Clouds 15 1023 87 10000 4.12 230 17:25 26.12.2022
504 Clouds 16 1023 84 10000 4.63 210 15:40 26.12.2022
505 Clouds 17 1024 72 10000 2.57 330 12:59 26.12.2022
506 Clouds 17 1024 72 10000 2.57 330 12:59 26.12.2022
507 Clouds 15 1025 75 10000 4.63 330 11:45 26.12.2022
508 Clouds 12 1024 87 10000 5.14 330 05:47 26.12.2022
509 Clouds 13 1024 86 10000 2.57 330 23:43 25.12.2022
510 Clouds 13 1024 86 10000 2.06 30 22:56 25.12.2022
511 Clouds 14 1023 85 10000 3.09 60 22:26 25.12.2022
512 Clouds 14 1023 86 10000 4.12 80 19:58 25.12.2022
513 Clouds 14 1022 89 10000 4.63 90 17:59 25.12.2022
514 Clouds 14 1022 89 10000 4.63 90 17:41 25.12.2022
515 Clouds 14 1022 88 10000 4.12 90 17:23 25.12.2022
516 Clouds 16 1021 83 10000 3.6 120 14:29 25.12.2022
517 Clouds 15 1022 78 10000 4.63 330 11:48 25.12.2022
518 Clouds 12 1020 86 10000 4.63 330 06:18 25.12.2022
519 Clouds 12 1018 90 10000 4.63 330 22:57 24.12.2022
520 Clear 12 1016 89 10000 4.63 320 19:54 24.12.2022
521 Clear 14 1015 88 10000 4.63 90 17:40 24.12.2022
522 Clear 16 1014 83 10000 3.09 80 15:45 24.12.2022
523 Clear 17 1014 81 10000 1.54 110 14:35 24.12.2022
524 Clear 15 1015 81 10000 3.6 320 12:34 24.12.2022
525 Clouds 13 1015 88 10000 5.66 320 10:27 24.12.2022
526 Clouds 12 1014 87 10000 5.14 330 09:47 24.12.2022
527 Clouds 11 1014 89 10000 5.66 320 09:19 24.12.2022
528 Clear 11 1013 88 10000 5.14 330 03:52 24.12.2022
529 Clear 11 1014 89 10000 4.63 330 00:43 24.12.2022
530 Clear 12 1013 91 10000 5.14 320 23:22 23.12.2022
531 Clear 12 1014 89 10000 4.63 320 21:44 23.12.2022
532 Clear 12 1013 89 10000 3.09 330 20:20 23.12.2022
533 Clear 12 1013 91 10000 3.09 320 19:39 23.12.2022
534 Clear 12 1013 91 10000 3.09 320 19:39 23.12.2022
535 Clear 12 1013 91 10000 3.09 320 19:21 23.12.2022
536 Clear 12 1013 90 10000 2.06 30 18:38 23.12.2022
537 Clear 12 1013 90 10000 2.06 30 18:18 23.12.2022
538 Clear 16 1013 80 10000 1.54 120 15:55 23.12.2022
539 Clouds 16 1013 77 10000 3.09 100 14:37 23.12.2022
540 Clear 13 1015 81 10000 4.63 330 10:56 23.12.2022
541 Clear 12 1014 86 10000 5.66 330 09:36 23.12.2022
542 Clear 10 1013 86 10000 5.14 330 07:45 23.12.2022
543 Clear 11 1013 87 10000 4.63 330 06:50 23.12.2022
544 Clear 10 1013 83 10000 4.63 330 05:19 23.12.2022
545 Clear 11 1014 87 10000 4.63 330 23:20 22.12.2022
546 Clouds 11 1015 89 10000 4.12 330 21:57 22.12.2022
547 Clouds 11 1015 89 10000 5.66 320 20:25 22.12.2022
548 Clouds 12 1016 88 10000 4.63 330 19:22 22.12.2022
549 Clouds 13 1016 87 10000 4.12 330 18:25 22.12.2022
550 Clouds 14 1015 87 10000 3.6 110 16:58 22.12.2022
551 Clouds 14 1015 87 10000 2.57 90 16:37 22.12.2022
552 Clouds 16 1014 82 10000 1.54 70 15:32 22.12.2022
553 Clouds 16 1015 80 10000 1.03 0 14:45 22.12.2022
554 Clouds 15 1015 79 10000 3.09 320 13:32 22.12.2022
555 Clouds 15 1015 79 10000 4.63 320 12:40 22.12.2022
556 Clouds 12 1016 83 10000 4.63 330 10:32 22.12.2022
557 Clouds 11 1016 84 10000 4.63 340 09:59 22.12.2022
558 Clouds 10 1016 85 10000 5.66 330 09:19 22.12.2022
559 Clouds 10 1015 85 10000 5.14 330 07:54 22.12.2022
560 Clouds 11 1016 87 10000 6.17 330 05:18 22.12.2022
561 Clouds 11 1016 86 10000 5.66 330 04:18 22.12.2022
562 Clouds 11 1017 86 10000 3.6 330 22:56 21.12.2022
563 Clouds 12 1017 86 10000 3.6 330 21:53 21.12.2022
564 Clouds 11 1017 85 10000 2.57 330 21:21 21.12.2022
565 Clouds 11 1017 89 10000 3.6 330 20:48 21.12.2022
566 Clouds 12 1016 86 10000 4.63 330 19:59 21.12.2022
567 Clouds 12 1016 86 10000 4.63 330 19:40 21.12.2022
568 Clouds 12 1017 86 10000 4.63 330 19:21 21.12.2022
569 Clouds 12 1016 85 10000 5.14 320 18:44 21.12.2022
570 Clouds 12 1016 85 10000 5.14 320 18:44 21.12.2022
571 Clouds 13 1016 87 10000 3.6 330 17:35 21.12.2022
572 Clouds 14 1016 89 10000 1.55 349 14:32 21.12.2022
573 Clouds 13 1017 88 10000 4.63 350 12:49 21.12.2022
574 Rain 13 1018 89 10000 2.16 4 11:41 21.12.2022
575 Rain 13 1018 89 10000 2.59 8 11:19 21.12.2022
576 Rain 13 1019 87 10000 5.14 350 11:19 21.12.2022
577 Clouds 13 1019 93 10000 2.76 345 08:53 21.12.2022
578 Rain 13 1019 92 10000 2.07 328 06:59 21.12.2022
579 Clouds 13 1022 85 10000 5.14 320 01:27 21.12.2022
580 Clouds 13 1023 83 10000 5.14 330 22:42 20.12.2022
581 Clouds 13 1024 83 10000 5.14 330 21:20 20.12.2022
582 Clouds 12 1024 84 10000 5.14 330 20:22 20.12.2022
583 Clouds 13 1024 81 10000 5.14 320 18:50 20.12.2022
584 Clouds 13 1024 86 10000 0.45 211 18:28 20.12.2022
585 Clouds 13 1024 82 10000 4.12 320 17:52 20.12.2022
586 Clouds 14 1024 88 10000 4.63 240 17:32 20.12.2022
587 Clouds 15 1024 85 10000 5.14 240 16:32 20.12.2022
588 Clouds 15 1024 86 10000 5.14 230 15:29 20.12.2022
589 Clouds 15 1025 81 10000 2.06 300 14:37 20.12.2022
590 Clouds 15 1025 77 10000 3.6 320 13:58 20.12.2022
591 Clouds 14 1026 74 10000 4.12 320 12:44 20.12.2022
592 Clouds 14 1026 74 10000 4.12 320 12:23 20.12.2022
593 Clouds 14 1027 75 10000 5.14 330 11:31 20.12.2022
594 Clouds 12 1027 79 10000 6.17 330 08:27 20.12.2022
595 Clouds 11 1029 86 10000 6.17 320 00:32 20.12.2022
596 Clouds 11 1030 85 10000 4.63 330 22:36 19.12.2022
597 Clouds 11 1030 85 10000 4.12 330 21:41 19.12.2022
598 Clouds 12 1030 83 10000 4.63 330 19:56 19.12.2022
599 Clouds 12 1030 83 10000 4.63 330 19:38 19.12.2022
600 Clouds 12 1030 83 10000 3.6 320 18:24 19.12.2022
601 Clouds 13 1030 82 10000 1.54 350 16:43 19.12.2022
602 Clouds 13 1031 72 10000 4.12 320 13:27 19.12.2022
603 Clouds 12 1032 73 10000 5.66 330 11:56 19.12.2022
604 Clouds 12 1032 75 10000 5.66 330 10:41 19.12.2022
605 Clouds 10 1031 79 10000 6.17 330 07:41 19.12.2022
606 Clouds 9 1031 78 10000 5.14 340 03:31 19.12.2022
607 Clouds 10 1031 79 10000 5.66 330 22:35 18.12.2022
608 Clouds 11 1032 79 10000 5.66 330 21:46 18.12.2022
609 Clouds 11 1031 79 10000 5.14 330 21:22 18.12.2022
610 Clouds 11 1031 78 10000 4.63 320 19:52 18.12.2022
611 Clouds 10 1031 79 10000 5.14 320 19:34 18.12.2022
612 Clouds 11 1030 77 10000 2.57 100 17:53 18.12.2022
613 Clouds 13 1029 69 10000 3.6 100 16:32 18.12.2022
614 Clouds 14 1029 62 10000 1.54 50 15:40 18.12.2022
615 Clouds 14 1029 62 10000 1.54 50 15:40 18.12.2022
616 Clouds 14 1029 63 10000 1.54 50 15:19 18.12.2022
617 Clouds 14 1029 60 10000 3.09 330 13:40 18.12.2022
618 Clouds 13 1029 57 10000 4.63 330 12:57 18.12.2022
619 Clouds 13 1029 58 10000 4.63 330 12:20 18.12.2022
620 Clouds 11 1029 64 10000 7.72 330 10:38 18.12.2022
621 Clouds 9 1027 73 10000 6.69 330 08:47 18.12.2022
622 Clouds 9 1027 75 10000 7.2 330 07:43 18.12.2022
623 Clouds 9 1026 74 10000 6.69 330 06:21 18.12.2022
624 Clouds 10 1024 77 10000 6.17 330 03:40 18.12.2022
625 Clouds 10 1023 79 10000 4.63 330 01:48 18.12.2022
626 Clouds 10 1021 85 10000 5.14 330 22:21 17.12.2022
627 Clouds 11 1019 86 10000 4.63 100 19:42 17.12.2022
628 Clouds 14 1017 82 10000 6.17 80 17:18 17.12.2022
629 Clouds 15 1015 78 10000 4.12 110 14:44 17.12.2022
630 Clouds 14 1015 81 10000 1.89 70 12:28 17.12.2022
631 Clouds 11 1014 80 10000 6.69 330 10:50 17.12.2022
632 Clouds 10 1013 80 10000 5.66 340 09:48 17.12.2022
633 Clouds 9 1012 82 10000 5.66 340 08:35 17.12.2022
634 Clouds 10 1010 82 10000 5.66 330 06:46 17.12.2022
635 Clouds 10 1007 88 10000 3.6 340 23:59 16.12.2022
636 Clouds 11 1006 90 10000 3.6 330 21:38 16.12.2022
637 Clouds 11 1005 91 10000 3.09 330 20:24 16.12.2022
638 Clouds 13 1003 86 10000 1.54 270 17:20 16.12.2022
639 Clouds 14 1002 81 10000 2.06 160 14:51 16.12.2022
640 Clouds 14 1002 82 10000 1.03 0 13:50 16.12.2022
641 Clouds 13 1002 85 10000 2.06 320 12:21 16.12.2022
642 Clouds 12 1003 87 10000 3.6 330 10:58 16.12.2022
643 Clouds 11 1002 89 10000 4.12 320 09:39 16.12.2022
644 Drizzle 11 1001 89 10000 4.12 320 08:27 16.12.2022
645 Drizzle 11 1000 89 10000 3.6 320 07:54 16.12.2022
646 Clouds 11 999 89 10000 3.6 80 00:18 16.12.2022
647 Clouds 11 999 87 10000 3.48 65 22:33 15.12.2022
648 Clouds 12 999 87 10000 3.51 36 21:24 15.12.2022
649 Clouds 12 998 86 10000 2.7 24 19:41 15.12.2022
650 Rain 12 997 86 6496 2.45 22 18:51 15.12.2022
651 Rain 12 996 85 6267 2.95 89 17:27 15.12.2022
652 Rain 12 997 91 2000 4.63 50 15:45 15.12.2022
653 Rain 12 998 86 3000 5.14 40 14:38 15.12.2022
654 Mist 11 1000 86 4000 6.69 20 12:51 15.12.2022
655 Rain 11 1000 86 4000 6.69 20 12:22 15.12.2022
656 Clouds 11 1002 82 10000 5.66 340 08:55 15.12.2022
657 Clouds 11 1002 82 10000 5.66 340 08:55 15.12.2022
658 Clouds 10 1003 86 10000 5.66 340 08:18 15.12.2022
659 Clouds 9 1003 85 10000 5.66 330 05:43 15.12.2022
660 Clouds 10 1003 83 10000 5.14 330 22:59 14.12.2022
661 Clouds 10 1002 84 10000 4.63 320 21:24 14.12.2022
662 Clouds 10 1002 86 10000 3.6 340 20:44 14.12.2022
663 Clouds 10 1002 85 10000 3.09 320 19:51 14.12.2022
664 Clouds 12 1002 81 10000 2.57 270 17:19 14.12.2022
665 Clouds 12 1002 80 10000 2.57 270 16:53 14.12.2022
666 Clouds 12 1002 78 10000 3.09 240 14:55 14.12.2022
667 Clouds 11 1002 77 10000 1.54 320 13:19 14.12.2022
668 Clouds 10 1002 84 10000 3.09 330 10:55 14.12.2022
669 Clouds 9 1002 82 10000 4.63 330 10:23 14.12.2022
670 Rain 8 1001 85 10000 4.12 340 07:44 14.12.2022
671 Clouds 7 1006 91 9000 3.09 330 22:19 13.12.2022
672 Clouds 7 1006 85 9000 3.09 330 21:45 13.12.2022
673 Clouds 7 1007 82 10000 4.12 330 20:48 13.12.2022
674 Clouds 7 1006 86 10000 3.09 320 19:25 13.12.2022
675 Clouds 8 1006 83 10000 3.6 320 16:42 13.12.2022
676 Clouds 8 1006 83 10000 3.6 330 14:59 13.12.2022
677 Clouds 8 1006 85 10000 3.09 320 13:42 13.12.2022
678 Clouds 7 1006 85 10000 5.14 330 10:55 13.12.2022
679 Clouds 7 1006 85 10000 4.63 340 10:35 13.12.2022
680 Rain 6 1004 86 10000 4.63 340 08:45 13.12.2022
681 Rain 6 1006 88 10000 3.6 320 22:42 12.12.2022
682 Rain 7 1006 85 10000 3.09 330 22:20 12.12.2022
683 Rain 9 1005 71 10000 3.09 340 20:41 12.12.2022
684 Rain 9 1005 68 10000 4.12 330 20:41 12.12.2022
685 Clouds 9 1005 69 10000 4.63 320 18:32 12.12.2022
686 Clear 12 1005 60 10000 3.09 110 15:46 12.12.2022
687 Clear 12 1005 49 10000 2.57 310 14:26 12.12.2022
688 Clear 12 1005 49 10000 2.57 310 14:26 12.12.2022
689 Clear 8 1006 44 10000 5.14 340 10:19 12.12.2022
690 Clear 6 1006 45 10000 5.14 340 09:18 12.12.2022
691 Clouds 7 1004 59 10000 5.14 340 04:53 12.12.2022
692 Clouds 6 1004 63 10000 6.69 330 01:52 12.12.2022
693 Clouds 7 1003 60 10000 5.14 340 22:19 11.12.2022
694 Clear 7 1003 65 10000 5.14 340 20:41 11.12.2022
695 Clear 7 1003 64 10000 5.66 330 19:41 11.12.2022
696 Clear 7 1002 65 10000 5.66 330 18:55 11.12.2022
697 Clear 7 1002 65 10000 5.66 330 18:55 11.12.2022
698 Clouds 8 1001 63 10000 4.63 320 17:57 11.12.2022
699 Clouds 9 1001 63 10000 4.63 320 17:29 11.12.2022
700 Clouds 10 1001 59 10000 3.6 320 16:49 11.12.2022
701 Clouds 11 1000 49 10000 2.57 320 15:46 11.12.2022
702 Clouds 11 999 54 10000 2.57 260 13:55 11.12.2022
703 Clouds 11 999 49 10000 4.12 280 12:43 11.12.2022
704 Clouds 10 999 49 10000 3.09 300 11:29 11.12.2022
705 Clear 8 997 56 10000 3.6 300 04:54 11.12.2022
706 Clouds 8 996 74 10000 3.6 320 00:32 11.12.2022
707 Clouds 9 996 80 10000 5.14 330 22:53 10.12.2022
708 Clouds 9 996 81 10000 5.14 330 22:32 10.12.2022
709 Clouds 10 996 85 10000 4.12 340 21:19 10.12.2022
710 Clouds 10 996 87 10000 5.14 310 20:24 10.12.2022
711 Clouds 11 996 86 10000 4.63 320 18:37 10.12.2022
712 Clouds 13 995 85 10000 1.54 0 16:47 10.12.2022
713 Clouds 14 995 83 10000 2.57 110 15:57 10.12.2022
714 Clouds 14 995 84 10000 3.6 100 15:35 10.12.2022
715 Clouds 14 995 82 10000 4.12 90 14:21 10.12.2022
716 Clouds 14 995 80 10000 4.12 320 12:49 10.12.2022
717 Clouds 12 996 83 10000 5.66 320 11:35 10.12.2022
718 Clouds 11 996 82 10000 4.12 340 10:34 10.12.2022
719 Clouds 10 996 81 10000 7.2 330 08:37 10.12.2022
720 Clouds 10 996 82 10000 4.63 330 07:19 10.12.2022
721 Clouds 11 999 81 10000 4.63 330 00:18 10.12.2022
722 Clouds 10 999 91 10000 5.66 330 22:46 09.12.2022
723 Clouds 11 998 84 10000 5.14 320 21:48 09.12.2022
724 Clouds 11 998 84 10000 5.14 320 21:24 09.12.2022
725 Clouds 11 998 85 10000 5.14 330 20:41 09.12.2022
726 Clouds 11 998 86 10000 4.12 320 18:42 09.12.2022
727 Clouds 11 998 86 10000 4.12 330 17:51 09.12.2022
728 Clouds 12 998 86 10000 3.09 320 16:30 09.12.2022
729 Clouds 12 998 86 10000 3.6 330 15:34 09.12.2022
730 Clouds 12 997 86 10000 4.12 330 14:40 09.12.2022
731 Rain 11 999 87 4000 5.14 340 11:32 09.12.2022
732 Clouds 11 999 87 10000 2.32 84 10:34 09.12.2022
733 Rain 10 1000 88 5000 5.14 330 08:36 09.12.2022
734 Rain 10 1003 86 10000 4.63 10 03:19 09.12.2022
735 Rain 10 1005 87 7000 6.17 360 00:25 09.12.2022
736 Rain 10 1006 88 10000 4.12 330 21:54 08.12.2022
737 Rain 11 1006 81 10000 3.09 340 20:21 08.12.2022
738 Clouds 11 1007 76 10000 3.09 320 17:32 08.12.2022
739 Clouds 12 1007 70 10000 2.57 320 15:36 08.12.2022
740 Clouds 13 1008 66 10000 3.6 320 14:25 08.12.2022
741 Clouds 12 1009 64 10000 4.63 330 11:19 08.12.2022
742 Clouds 10 1009 70 10000 6.17 330 09:51 08.12.2022
743 Clouds 9 1009 69 10000 6.69 330 09:21 08.12.2022
744 Clouds 10 1009 69 10000 4.12 340 02:26 08.12.2022
745 Clouds 10 1010 76 10000 5.14 330 22:19 07.12.2022
746 Clouds 10 1010 76 10000 5.14 330 21:49 07.12.2022
747 Clouds 10 1009 79 10000 5.66 330 21:29 07.12.2022
748 Clouds 11 1009 78 10000 5.66 320 19:35 07.12.2022
749 Clouds 12 1009 76 10000 1.54 0 17:27 07.12.2022
750 Clouds 14 1009 64 10000 2.57 320 14:41 07.12.2022
751 Clouds 13 1010 77 10000 1.22 66 11:43 07.12.2022
752 Clouds 11 1011 71 10000 7.72 330 10:40 07.12.2022
753 Clouds 9 1011 72 10000 7.72 330 09:48 07.12.2022
754 Clouds 8 1010 78 10000 7.2 330 08:47 07.12.2022
755 Clouds 8 1010 74 10000 7.72 330 06:48 07.12.2022
756 Clouds 8 1010 75 10000 7.2 330 05:23 07.12.2022
757 Clouds 9 1012 77 10000 6.17 330 22:40 06.12.2022
758 Clouds 10 1012 76 10000 5.66 330 20:48 06.12.2022
759 Clouds 11 1012 77 10000 4.63 320 18:21 06.12.2022
760 Clouds 13 1012 75 10000 1.54 110 16:42 06.12.2022
761 Clouds 14 1012 74 10000 1.54 120 16:20 06.12.2022
762 Clouds 14 1012 72 10000 2.06 130 15:34 06.12.2022
763 Clouds 14 1012 63 10000 2.06 330 14:28 06.12.2022
764 Clouds 14 1013 69 10000 0.4 116 12:59 06.12.2022
765 Clouds 13 1013 61 10000 5.66 320 12:40 06.12.2022
766 Clouds 9 1014 64 10000 6.17 330 09:41 06.12.2022
767 Clear 8 1014 62 10000 6.69 330 06:32 06.12.2022
768 Clear 9 1015 59 10000 4.63 350 01:26 06.12.2022
769 Clear 10 1016 54 10000 6.69 330 22:36 05.12.2022
770 Clear 9 1016 62 10000 3.09 340 21:19 05.12.2022
771 Clear 10 1016 64 10000 3.09 330 20:36 05.12.2022
772 Clear 10 1015 69 10000 5.14 330 19:46 05.12.2022
773 Clouds 11 1015 75 10000 5.66 330 18:37 05.12.2022
774 Clouds 14 1016 64 10000 3.09 230 16:49 05.12.2022
775 Clouds 15 1015 67 10000 4.12 220 15:24 05.12.2022
776 Clouds 14 1016 65 10000 2.06 330 13:27 05.12.2022
777 Clouds 14 1016 66 10000 3.09 330 12:52 05.12.2022
778 Clouds 13 1017 67 10000 4.63 320 12:34 05.12.2022
779 Clouds 12 1017 72 10000 4.12 340 10:59 05.12.2022
780 Clouds 9 1015 85 10000 4.12 340 05:22 05.12.2022
781 Clouds 10 1015 84 10000 4.63 20 23:33 04.12.2022
782 Clouds 10 1014 84 10000 5.14 20 22:40 04.12.2022
783 Clouds 10 1015 87 10000 4.63 20 22:18 04.12.2022
784 Rain 10 1014 87 10000 3.6 360 21:29 04.12.2022
785 Rain 10 1013 83 10000 4.63 340 19:49 04.12.2022
786 Rain 10 1013 83 10000 4.63 340 19:23 04.12.2022
787 Rain 11 1012 82 10000 2.57 360 17:58 04.12.2022
788 Clouds 11 1012 84 10000 3.6 10 17:21 04.12.2022
789 Clouds 11 1012 85 10000 3.09 360 16:36 04.12.2022
790 Clouds 11 1012 86 10000 4.63 350 16:18 04.12.2022
791 Thunderstorm 11 1012 90 10000 1.54 0 14:54 04.12.2022
792 Thunderstorm 11 1011 89 7000 4.12 340 13:51 04.12.2022
793 Rain 11 1011 86 7000 5.14 340 12:46 04.12.2022
794 Clouds 11 1011 87 10000 4.12 340 12:21 04.12.2022
795 Clouds 11 1012 88 10000 4.63 330 11:19 04.12.2022
796 Clouds 10 1009 84 10000 5.66 330 07:34 04.12.2022
797 Clouds 11 1008 70 10000 5.66 330 02:51 04.12.2022
798 Clouds 12 1009 74 10000 5.66 330 23:44 03.12.2022
799 Clouds 11 1009 76 10000 5.66 330 22:24 03.12.2022
800 Clouds 11 1009 77 10000 6.69 330 21:45 03.12.2022
801 Rain 11 1010 85 10000 7.2 310 20:36 03.12.2022
802 Rain 12 1009 75 10000 5.14 310 18:40 03.12.2022
803 Rain 12 1008 74 10000 4.63 10 17:33 03.12.2022
804 Clouds 11 1010 71 10000 6.69 10 15:49 03.12.2022
805 Rain 10 1009 85 10000 8.23 10 13:19 03.12.2022
806 Rain 10 1010 85 10000 8.23 360 12:41 03.12.2022
807 Rain 10 1010 81 10000 9.26 360 11:21 03.12.2022
808 Rain 9 1009 82 10000 8.23 360 07:59 03.12.2022
809 Rain 11 1011 65 10000 8.23 10 02:48 03.12.2022
810 Rain 10 1012 63 10000 4.63 330 23:32 02.12.2022
811 Clear 9 1013 72 10000 4.63 330 21:42 02.12.2022
812 Clouds 10 1013 72 10000 3.6 20 19:45 02.12.2022
813 Clouds 12 1014 65 10000 6.69 90 16:26 02.12.2022
814 Clouds 13 1014 66 10000 6.17 90 15:53 02.12.2022
815 Clouds 13 1014 68 10000 5.66 90 14:29 02.12.2022
816 Clouds 13 1014 67 10000 5.14 90 13:43 02.12.2022
817 Clouds 12 1015 63 10000 4.63 330 11:49 02.12.2022
818 Clouds 10 1016 67 10000 4.63 340 10:30 02.12.2022
819 Clouds 8 1016 67 10000 5.14 340 07:50 02.12.2022
820 Clouds 8 1016 67 10000 5.14 340 07:22 02.12.2022
821 Clouds 10 1016 72 10000 5.66 320 22:50 01.12.2022
822 Clouds 11 1015 73 10000 5.14 330 21:41 01.12.2022
823 Clouds 11 1015 73 10000 4.63 320 20:48 01.12.2022
824 Clouds 11 1015 74 10000 2.57 310 18:59 01.12.2022
825 Clouds 12 1015 68 10000 1.54 200 17:21 01.12.2022
826 Clouds 13 1015 63 10000 3.09 200 14:39 01.12.2022
827 Clouds 11 1016 70 10000 5.14 330 11:20 01.12.2022
828 Clouds 10 1016 71 10000 6.69 330 09:55 01.12.2022
829 Clouds 10 1016 72 10000 7.2 330 09:36 01.12.2022
830 Clouds 8 1015 74 10000 5.66 330 06:44 01.12.2022
831 Clouds 10 1015 77 10000 6.17 320 22:44 30.11.2022
832 Clouds 10 1015 78 10000 5.66 320 21:54 30.11.2022
833 Clouds 10 1015 81 10000 5.14 320 21:19 30.11.2022
834 Clouds 10 1014 82 10000 3.6 330 20:23 30.11.2022
835 Clouds 10 1014 82 10000 3.6 330 20:23 30.11.2022
836 Clouds 11 1014 78 10000 1.54 80 19:28 30.11.2022
837 Clouds 12 1014 72 10000 1.54 0 18:32 30.11.2022
838 Clouds 13 1014 71 10000 3.6 170 16:53 30.11.2022
839 Clouds 15 1013 61 10000 4.12 190 14:46 30.11.2022
840 Clouds 15 1013 62 10000 3.6 180 14:26 30.11.2022
841 Clouds 14 1013 56 10000 4.63 320 12:21 30.11.2022
842 Clouds 11 1014 57 10000 7.72 320 09:52 30.11.2022
843 Clouds 9 1013 64 10000 6.69 330 08:38 30.11.2022
844 Clear 9 1013 66 10000 7.2 330 06:43 30.11.2022
845 Clear 9 1013 75 10000 6.69 330 23:30 29.11.2022
846 Clear 9 1013 74 10000 6.17 330 22:20 29.11.2022
847 Clear 9 1012 74 10000 5.14 330 20:52 29.11.2022
848 Clear 9 1012 75 10000 5.14 330 20:32 29.11.2022
849 Clear 10 1012 78 10000 2.57 330 18:56 29.11.2022
850 Rain 11 1011 73 10000 2.57 310 16:58 29.11.2022
851 Rain 11 1011 76 10000 2.57 320 16:22 29.11.2022
852 Clouds 12 1011 74 10000 4.12 320 14:49 29.11.2022
853 Rain 11 1011 82 10000 4.12 320 12:45 29.11.2022
854 Rain 10 1012 84 10000 2.57 360 11:32 29.11.2022
855 Rain 9 1012 90 10000 4.63 320 10:52 29.11.2022
856 Rain 9 1012 88 10000 4.12 310 09:37 29.11.2022
857 Rain 9 1012 88 10000 2.06 320 08:34 29.11.2022
858 Rain 9 1013 84 10000 5.14 330 00:36 29.11.2022
859 Rain 9 1014 83 10000 4.63 330 23:34 28.11.2022
860 Rain 10 1014 83 10000 5.14 330 22:32 28.11.2022
861 Rain 10 1014 79 10000 5.66 320 21:43 28.11.2022
862 Rain 11 1014 71 10000 3.09 340 20:37 28.11.2022
863 Rain 12 1014 66 10000 5.66 350 19:38 28.11.2022
864 Rain 12 1013 67 10000 4.12 10 18:29 28.11.2022
865 Clouds 12 1013 67 10000 6.17 360 17:50 28.11.2022
866 Clouds 12 1014 73 10000 4.63 330 15:31 28.11.2022
867 Rain 12 1014 76 10000 4.12 330 14:24 28.11.2022
868 Rain 12 1014 72 10000 4.63 330 13:49 28.11.2022
869 Rain 12 1015 66 10000 5.14 330 12:35 28.11.2022
870 Clouds 11 1016 71 10000 5.14 330 09:27 28.11.2022
871 Clouds 11 1017 70 10000 4.63 340 06:29 28.11.2022
872 Clouds 11 1018 69 10000 5.66 330 04:42 28.11.2022
873 Clouds 11 1019 69 10000 5.14 330 03:23 28.11.2022
874 Clouds 12 1020 67 10000 5.14 330 01:27 28.11.2022
875 Clouds 12 1020 67 10000 5.14 330 01:27 28.11.2022
876 Clouds 11 1021 70 10000 4.63 330 22:35 27.11.2022
877 Clouds 11 1021 69 10000 4.63 330 21:28 27.11.2022
878 Clouds 12 1022 69 10000 3.09 320 19:30 27.11.2022
879 Clouds 14 1023 62 10000 2.57 120 16:47 27.11.2022
880 Clouds 16 1024 50 10000 2.57 190 14:30 27.11.2022
881 Clear 16 1025 47 10000 4.12 320 12:32 27.11.2022
882 Clear 13 1026 48 10000 7.2 320 10:44 27.11.2022
883 Clear 10 1025 51 10000 5.66 340 07:57 27.11.2022
884 Clear 12 1026 49 10000 6.69 330 00:36 27.11.2022
885 Clear 12 1025 57 10000 4.63 330 21:58 26.11.2022
886 Clear 13 1025 60 10000 4.63 330 20:51 26.11.2022
887 Clear 13 1024 61 10000 3.6 330 19:22 26.11.2022
888 Clear 17 1023 51 10000 3.09 230 16:59 26.11.2022
889 Clear 18 1022 51 10000 2.57 220 15:39 26.11.2022
890 Clear 18 1022 52 10000 2.06 200 13:31 26.11.2022
891 Clear 16 1023 48 10000 6.17 320 11:24 26.11.2022
892 Clear 13 1021 57 10000 7.2 330 09:45 26.11.2022
893 Clear 11 1021 69 10000 6.69 330 08:49 26.11.2022
894 Clear 12 1018 73 10000 5.14 330 01:30 26.11.2022
895 Clear 13 1016 76 10000 5.66 330 21:42 25.11.2022
896 Clouds 13 1016 77 10000 2.57 330 21:20 25.11.2022
897 Clouds 14 1015 77 10000 2.57 320 19:56 25.11.2022
898 Clouds 15 1015 81 10000 6.17 120 16:46 25.11.2022
899 Clouds 17 1015 73 10000 6.17 100 13:50 25.11.2022
900 Clear 12 1016 65 10000 5.14 330 09:21 25.11.2022
901 Clear 12 1016 65 10000 5.14 330 08:40 25.11.2022
902 Clear 12 1015 61 10000 5.14 330 06:53 25.11.2022
903 Clear 13 1015 60 10000 5.14 330 05:40 25.11.2022
904 Rain 13 1015 61 10000 5.66 330 23:53 24.11.2022
905 Clear 13 1015 59 10000 5.66 320 22:50 24.11.2022
906 Rain 13 1015 58 10000 4.63 340 21:58 24.11.2022
907 Clear 13 1014 61 10000 4.63 330 20:19 24.11.2022
908 Clear 15 1014 68 10000 4.63 230 18:19 24.11.2022
909 Clear 16 1014 67 10000 5.66 210 17:38 24.11.2022
910 Clear 17 1014 65 10000 4.63 220 17:20 24.11.2022
911 Clear 18 1013 67 10000 3.09 210 14:37 24.11.2022
912 Clear 18 1013 44 10000 3.09 310 13:45 24.11.2022
913 Clear 16 1014 54 10000 5.14 330 11:54 24.11.2022
914 Clear 16 1014 54 10000 5.14 330 11:53 24.11.2022
915 Clear 14 1013 56 10000 6.17 320 10:34 24.11.2022
916 Clear 11 1011 60 10000 7.2 330 07:44 24.11.2022
917 Clear 11 1008 66 10000 4.12 350 01:56 24.11.2022
918 Clear 11 1006 70 10000 4.12 330 23:32 23.11.2022
919 Clear 11 1004 64 10000 3.09 330 21:55 23.11.2022
920 Clear 12 1003 61 10000 4.12 340 21:19 23.11.2022
921 Clear 12 1003 61 10000 3.6 340 19:58 23.11.2022
922 Clear 12 1003 63 10000 4.12 330 18:58 23.11.2022
923 Clear 13 1003 63 10000 3.09 330 18:33 23.11.2022
924 Clear 16 1002 50 10000 1.03 0 16:22 23.11.2022
925 Clear 16 1001 45 10000 2.06 270 13:26 23.11.2022
926 Clear 16 1002 43 10000 3.6 320 12:58 23.11.2022
927 Clear 15 1002 46 10000 5.14 330 11:54 23.11.2022
928 Clear 13 1002 45 10000 5.14 330 11:19 23.11.2022
929 Clear 13 1002 51 10000 5.14 330 10:42 23.11.2022
930 Clear 12 1001 48 10000 6.69 320 09:41 23.11.2022
931 Clear 11 1001 43 10000 4.63 340 09:23 23.11.2022
932 Clear 11 1000 42 10000 3.6 330 08:36 23.11.2022
933 Clear 11 999 39 10000 5.14 330 05:22 23.11.2022
934 Clear 12 999 38 10000 5.14 330 02:56 23.11.2022
935 Clear 12 998 39 10000 1.54 0 22:59 22.11.2022
936 Clear 12 997 35 10000 2.57 30 22:18 22.11.2022
937 Clear 12 997 37 10000 2.57 350 21:33 22.11.2022
938 Clear 13 997 35 10000 1.03 0 20:45 22.11.2022
939 Clear 14 996 34 10000 2.57 300 19:52 22.11.2022
940 Clear 15 994 35 10000 5.66 300 17:55 22.11.2022
941 Clear 17 993 28 10000 7.72 290 16:48 22.11.2022
942 Clear 18 992 31 10000 7.2 300 15:50 22.11.2022
943 Clear 17 992 37 10000 7.72 270 13:41 22.11.2022
944 Clear 14 992 72 10000 1.54 330 11:40 22.11.2022
945 Clouds 11 991 85 10000 3.09 330 09:18 22.11.2022
946 Clouds 10 991 86 10000 4.63 320 07:18 22.11.2022
947 Rain 10 994 87 4000 2.06 300 01:40 22.11.2022
948 Rain 11 997 84 10000 3.6 320 23:40 21.11.2022
949 Clouds 11 997 84 10000 3.6 10 22:40 21.11.2022
950 Clouds 11 998 84 10000 4.12 10 21:58 21.11.2022
951 Rain 11 1000 85 10000 6.69 20 20:49 21.11.2022
952 Rain 11 1001 84 9000 6.17 360 19:41 21.11.2022
953 Rain 11 1001 89 9000 4.12 10 18:54 21.11.2022
954 Rain 11 1003 87 10000 2.06 310 17:51 21.11.2022
955 Rain 12 1004 84 10000 5.14 260 16:55 21.11.2022
956 Rain 13 1004 80 10000 8.23 250 16:37 21.11.2022
957 Rain 14 1004 68 10000 4.63 230 15:37 21.11.2022
958 Rain 15 1005 66 10000 3.6 220 14:28 21.11.2022
959 Clouds 15 1007 56 10000 2.57 230 13:43 21.11.2022
960 Clouds 13 1009 58 10000 5.66 330 10:48 21.11.2022
961 Clouds 11 1009 57 10000 5.66 330 08:59 21.11.2022
962 Clear 11 1009 59 10000 6.17 340 07:39 21.11.2022
963 Clear 11 1009 61 10000 5.14 330 22:34 20.11.2022
964 Clear 12 1009 62 10000 5.14 340 21:34 20.11.2022
965 Clear 12 1010 61 10000 4.12 320 20:24 20.11.2022
966 Clear 14 1009 61 10000 4.63 250 18:26 20.11.2022
967 Clouds 16 1009 61 10000 5.66 220 16:24 20.11.2022
968 Clouds 17 1009 64 10000 5.14 210 15:29 20.11.2022
969 Clouds 17 1010 60 10000 3.09 200 14:41 20.11.2022
970 Clouds 17 1010 54 10000 2.06 270 13:34 20.11.2022
971 Clouds 16 1010 51 10000 4.63 320 12:38 20.11.2022
972 Clouds 15 1010 53 10000 5.14 330 11:25 20.11.2022
973 Clouds 14 1010 55 10000 5.14 330 10:40 20.11.2022
974 Clouds 12 1009 59 10000 5.14 330 09:23 20.11.2022
975 Clouds 12 1009 63 10000 5.14 340 08:35 20.11.2022
976 Clouds 11 1008 63 10000 5.14 340 07:30 20.11.2022
977 Clouds 11 1008 63 10000 5.14 340 07:30 20.11.2022
978 Clouds 11 1008 63 10000 5.14 340 07:30 20.11.2022
979 Clear 11 1007 59 10000 5.66 340 04:26 20.11.2022
980 Clear 12 1006 57 10000 4.63 340 01:21 20.11.2022
981 Clear 12 1006 60 10000 6.17 330 00:42 20.11.2022
982 Clear 12 1006 60 10000 6.17 330 00:42 20.11.2022
983 Clear 12 1006 60 10000 4.63 340 00:23 20.11.2022
984 Clear 13 1006 59 10000 3.6 340 23:51 19.11.2022
985 Clear 13 1006 60 10000 4.12 340 23:24 19.11.2022
986 Clear 13 1005 62 10000 4.63 340 22:39 19.11.2022
987 Clear 13 1005 64 10000 4.12 340 21:32 19.11.2022
988 Clear 13 1005 66 10000 5.14 330 20:57 19.11.2022
989 Clear 13 1005 69 10000 4.63 330 20:33 19.11.2022
990 Clear 13 1004 71 10000 4.63 320 19:22 19.11.2022
991 Clear 15 1003 66 10000 3.6 230 17:41 19.11.2022
992 Clouds 16 1003 64 10000 3.09 210 17:20 19.11.2022
993 Clouds 16 1003 61 10000 3.09 190 15:59 19.11.2022
994 Clouds 17 1002 60 10000 7.2 110 14:38 19.11.2022
995 Clouds 17 1003 44 10000 5.66 320 12:23 19.11.2022
996 Clouds 15 1003 50 10000 7.72 330 10:57 19.11.2022
997 Clouds 12 1003 54 10000 6.69 330 08:43 19.11.2022
998 Clouds 12 1001 55 10000 5.66 330 04:59 19.11.2022
999 Clear 13 1001 55 10000 6.17 330 02:56 19.11.2022
1000 Clear 14 1001 48 10000 5.14 330 00:18 19.11.2022
1001 Clear 14 1001 55 10000 4.63 330 23:19 18.11.2022
1002 Clear 14 1001 62 10000 5.66 330 21:54 18.11.2022
1003 Clear 14 1001 67 10000 4.63 330 21:33 18.11.2022
1004 Clear 14 1001 73 10000 3.6 330 20:38 18.11.2022
1005 Clear 15 1001 74 10000 3.6 330 19:47 18.11.2022
1006 Clear 15 1000 78 10000 3.09 20 18:49 18.11.2022
1007 Clouds 15 1000 83 10000 1.64 12 17:44 18.11.2022
1008 Clouds 19 999 64 10000 3.6 110 14:33 18.11.2022
1009 Clear 19 1000 51 10000 3.09 90 11:41 18.11.2022
1010 Clear 19 1000 51 10000 3.09 90 11:41 18.11.2022
1011 Clear 15 999 51 10000 4.12 290 09:19 18.11.2022
1012 Clear 15 998 58 10000 5.14 270 07:51 18.11.2022
1013 Clouds 16 997 75 10000 2.24 179 05:26 18.11.2022
1014 Clouds 16 997 75 10000 2.24 179 05:26 18.11.2022
1015 Rain 18 999 59 10000 8.23 240 01:42 18.11.2022
1016 Clear 17 999 63 10000 5.14 270 22:28 17.11.2022
1017 Clear 17 999 61 10000 5.14 270 20:46 17.11.2022
1018 Clouds 19 999 57 10000 5.14 280 19:51 17.11.2022
1019 Clouds 19 999 54 10000 5.14 290 18:50 17.11.2022
1020 Clouds 21 999 53 10000 6.69 260 17:35 17.11.2022
1021 Clouds 21 1000 56 10000 5.14 270 16:54 17.11.2022
1022 Clear 22 998 55 10000 9.26 220 15:20 17.11.2022
1023 Clear 18 1000 68 10000 2.06 360 11:25 17.11.2022
1024 Clear 16 1000 67 10000 3.6 320 09:53 17.11.2022
1025 Clear 13 1000 77 10000 5.14 330 05:47 17.11.2022
1026 Clear 13 1001 79 10000 3.09 330 00:48 17.11.2022
1027 Clear 13 1001 82 10000 2.57 320 22:31 16.11.2022
1028 Clear 15 1001 83 10000 4.12 330 21:19 16.11.2022
1029 Clear 14 1001 85 10000 3.6 330 19:54 16.11.2022
1030 Clear 14 1000 85 10000 4.63 310 18:47 16.11.2022
1031 Clear 16 1000 83 10000 4.12 80 17:53 16.11.2022
1032 Clouds 18 1001 76 10000 1.03 0 14:23 16.11.2022
1033 Clouds 16 1003 85 10000 2.06 330 10:24 16.11.2022
1034 Clouds 14 1003 89 10000 2.06 340 06:39 16.11.2022
1035 Clouds 14 1006 89 10000 3.09 320 01:32 16.11.2022
1036 Clouds 14 1008 90 10000 2.06 10 22:43 15.11.2022
1037 Rain 15 1008 89 6000 3.09 330 20:55 15.11.2022
1038 Rain 15 1009 89 7000 2.06 0 19:42 15.11.2022
1039 Clouds 15 1009 87 10000 5.14 80 18:50 15.11.2022
1040 Clouds 15 1009 88 10000 6.17 100 17:32 15.11.2022
1041 Clouds 15 1010 87 10000 6.17 110 16:20 15.11.2022
1042 Clouds 16 1010 84 10000 4.12 80 15:21 15.11.2022
1043 Clouds 16 1012 83 10000 4.63 70 13:39 15.11.2022
1044 Clouds 16 1014 83 10000 1.54 0 11:48 15.11.2022
1045 Clouds 15 1014 84 10000 2.06 360 11:21 15.11.2022
1046 Clouds 14 1014 84 10000 3.09 20 09:28 15.11.2022
1047 Rain 14 1018 88 8000 4.63 20 00:40 15.11.2022
1048 Rain 14 1018 86 9000 3.09 360 00:22 15.11.2022
1049 Rain 15 1019 79 10000 3.6 350 21:51 14.11.2022
1050 Clouds 15 1019 81 10000 2.74 68 20:43 14.11.2022
1051 Clouds 15 1019 81 10000 2.4 82 18:58 14.11.2022
1052 Clouds 16 1019 76 10000 5.66 100 17:28 14.11.2022
1053 Clouds 17 1021 64 10000 3.09 320 12:55 14.11.2022
1054 Clouds 16 1021 66 10000 4.12 320 11:45 14.11.2022
1055 Clouds 15 1021 67 10000 4.63 330 10:49 14.11.2022
1056 Clouds 13 1020 75 10000 5.14 330 08:29 14.11.2022
1057 Clouds 12 1020 75 10000 4.63 330 07:50 14.11.2022
1058 Clouds 15 1020 68 10000 9.26 80 00:19 14.11.2022
1059 Clouds 15 1020 69 10000 9.26 90 00:19 14.11.2022
1060 Clouds 15 1020 68 10000 9.26 80 00:19 14.11.2022
1061 Clouds 16 1020 69 10000 10.8 90 22:43 13.11.2022
1062 Clouds 15 1020 70 10000 4.12 330 21:40 13.11.2022
1063 Clouds 15 1020 68 10000 3.09 360 20:45 13.11.2022
1064 Clouds 17 1019 63 10000 10.29 100 18:35 13.11.2022
1065 Clouds 17 1019 65 10000 10.8 100 17:49 13.11.2022
1066 Clouds 19 1019 62 10000 1.03 0 15:20 13.11.2022
1067 Clouds 19 1019 64 10000 2.57 0 14:30 13.11.2022
1068 Clear 18 1020 68 10000 2.06 330 12:55 13.11.2022
1069 Clouds 19 1021 68 10000 2.57 130 11:34 13.11.2022
1070 Clouds 18 1021 72 10000 6.69 90 10:28 13.11.2022
1071 Clear 16 1020 65 10000 5.66 330 05:52 13.11.2022
1072 Clear 17 1022 53 10000 5.66 330 23:44 12.11.2022
1073 Clear 17 1023 59 10000 3.6 330 21:24 12.11.2022
1074 Clear 17 1024 54 10000 4.12 330 20:25 12.11.2022
1075 Clear 17 1024 68 10000 5.14 330 18:56 12.11.2022
1076 Clear 18 1024 69 10000 3.6 320 16:52 12.11.2022
1077 Clear 19 1025 70 10000 3.6 330 15:37 12.11.2022
1078 Clear 19 1026 64 10000 3.6 330 13:32 12.11.2022
1079 Clear 16 1028 70 10000 7.2 320 09:39 12.11.2022
1080 Clear 14 1028 72 10000 7.72 320 07:47 12.11.2022
1081 Clear 16 1030 71 10000 4.12 350 23:45 11.11.2022
1082 Clear 16 1030 80 10000 3.09 350 20:56 11.11.2022
1083 Clear 16 1030 79 10000 4.63 330 20:30 11.11.2022
1084 Clear 16 1030 82 10000 2.57 330 19:27 11.11.2022
1085 Clouds 16 1030 85 10000 2.08 359 18:32 11.11.2022
1086 Clear 18 1029 80 10000 4.63 100 17:40 11.11.2022
1087 Clear 18 1029 80 10000 4.63 100 17:40 11.11.2022
1088 Clear 21 1029 69 10000 3.09 100 14:32 11.11.2022
1089 Clear 21 1030 67 10000 2.57 100 13:55 11.11.2022
1090 Clear 21 1030 58 10000 1.03 0 12:26 11.11.2022
1091 Clear 16 1030 71 10000 5.14 330 08:59 11.11.2022
1092 Clear 15 1030 71 10000 5.66 330 08:26 11.11.2022
1093 Clear 15 1028 77 10000 5.14 330 00:39 11.11.2022
1094 Clear 16 1027 78 10000 4.63 330 22:53 10.11.2022
1095 Clear 16 1027 80 10000 4.63 330 21:50 10.11.2022
1096 Clear 16 1027 82 10000 4.12 340 21:27 10.11.2022
1097 Clear 16 1026 82 10000 5.14 330 20:46 10.11.2022
1098 Clear 16 1026 82 10000 5.14 330 20:19 10.11.2022
1099 Clouds 17 1025 80 10000 2.57 30 18:59 10.11.2022
1100 Clouds 17 1024 78 10000 0 0 17:44 10.11.2022
1101 Clouds 20 1024 67 10000 1.03 0 16:25 10.11.2022
1102 Clouds 21 1022 63 10000 2.06 130 13:39 10.11.2022
1103 Clouds 18 1020 81 10000 5.14 330 10:26 10.11.2022
1104 Clouds 15 1020 86 10000 6.17 330 08:21 10.11.2022
1105 Clouds 15 1016 89 10000 2.57 340 01:23 10.11.2022
1106 Thunderstorm 16 1016 85 8000 4.12 40 23:21 09.11.2022
1107 Clouds 16 1016 89 10000 2.57 350 21:57 09.11.2022
1108 Rain 16 1016 89 4000 4.12 310 20:47 09.11.2022
1109 Rain 16 1016 87 10000 3.09 330 20:28 09.11.2022
1110 Clouds 16 1016 87 10000 2.57 330 19:29 09.11.2022
1111 Clouds 16 1017 90 10000 3.09 310 18:30 09.11.2022
1112 Rain 17 1016 89 10000 1.34 102 15:53 09.11.2022
1113 Rain 17 1016 84 6000 3.09 330 14:42 09.11.2022
1114 Rain 17 1016 85 10000 1.03 0 14:23 09.11.2022
1115 Clouds 19 1017 76 10000 2.57 50 12:58 09.11.2022
1116 Clouds 17 1018 78 10000 4.12 330 09:52 09.11.2022
1117 Clouds 16 1018 74 10000 4.12 330 07:47 09.11.2022
1118 Clouds 15 1018 74 10000 5.14 340 06:55 09.11.2022
1119 Clouds 16 1018 74 10000 4.63 340 23:29 08.11.2022
1120 Clouds 15 1018 82 10000 2.57 330 21:44 08.11.2022
1121 Clouds 16 1018 80 10000 2.57 330 21:23 08.11.2022
1122 Clouds 16 1018 83 10000 4.12 330 20:40 08.11.2022
1123 Clouds 16 1018 84 10000 2.29 22 19:36 08.11.2022
1124 Clouds 17 1018 82 10000 3.09 80 18:23 08.11.2022
1125 Clouds 18 1018 79 10000 3.09 70 16:20 08.11.2022
1126 Clouds 19 1018 75 10000 3.09 110 14:55 08.11.2022
1127 Clouds 19 1018 67 10000 3.09 80 13:36 08.11.2022
1128 Clouds 20 1019 62 10000 2.06 0 12:40 08.11.2022
1129 Clear 15 1020 72 10000 4.63 340 09:18 08.11.2022
1130 Clear 13 1020 78 10000 5.66 340 07:25 08.11.2022
1131 Clouds 14 1020 85 10000 5.14 330 00:33 08.11.2022
1132 Clouds 14 1019 86 10000 3.09 330 22:24 07.11.2022
1133 Clouds 15 1019 85 10000 5.14 330 21:21 07.11.2022
1134 Clouds 15 1019 86 10000 4.12 320 20:33 07.11.2022
1135 Clear 15 1018 87 10000 1.99 50 18:48 07.11.2022
1136 Clouds 18 1018 78 10000 3.6 110 17:19 07.11.2022
1137 Clouds 19 1018 73 10000 3.6 100 15:35 07.11.2022
1138 Clouds 19 1018 71 10000 3.09 100 14:47 07.11.2022
1139 Clouds 19 1019 69 10000 4.63 80 12:38 07.11.2022
1140 Clouds 17 1019 66 10000 5.14 320 11:30 07.11.2022
1141 Clouds 14 1018 75 10000 6.69 330 09:36 07.11.2022
1142 Clouds 12 1018 76 10000 7.2 330 07:53 07.11.2022
1143 Clear 11 1017 71 10000 5.14 330 04:27 07.11.2022
1144 Clear 13 1016 69 10000 4.12 330 01:29 07.11.2022
1145 Clear 14 1016 70 10000 5.14 330 22:26 06.11.2022
1146 Clear 14 1016 72 10000 4.12 330 21:20 06.11.2022
1147 Clear 14 1016 72 10000 3.09 340 20:32 06.11.2022
1148 Clear 14 1016 72 10000 2.57 320 19:55 06.11.2022
1149 Clear 16 1015 66 10000 1.54 0 18:41 06.11.2022
1150 Clear 16 1015 66 10000 2.57 280 18:19 06.11.2022
1151 Clear 18 1015 62 10000 5.14 220 17:22 06.11.2022
1152 Clear 19 1015 60 10000 6.17 220 16:40 06.11.2022
1153 Clear 20 1015 58 10000 5.14 220 15:53 06.11.2022
1154 Clear 20 1016 49 10000 4.63 190 14:36 06.11.2022
1155 Clear 19 1016 44 10000 3.6 330 12:42 06.11.2022
1156 Clear 17 1017 47 10000 5.14 330 10:48 06.11.2022
1157 Clear 16 1016 53 10000 6.69 330 09:51 06.11.2022
1158 Clear 12 1016 54 10000 5.14 340 06:40 06.11.2022
1159 Clear 14 1015 59 10000 5.14 340 23:22 05.11.2022
1160 Clear 14 1013 59 10000 3.6 330 19:59 05.11.2022
1161 Clear 16 1012 57 10000 3.09 240 18:22 05.11.2022
1162 Clear 20 1011 43 10000 4.63 210 16:23 05.11.2022
1163 Clear 20 1011 43 10000 3.6 200 14:34 05.11.2022
1164 Clear 20 1011 38 10000 2.57 200 13:21 05.11.2022
1165 Clear 18 1011 43 10000 5.14 330 10:43 05.11.2022
1166 Clear 14 1010 54 10000 4.63 340 08:49 05.11.2022
1167 Clear 11 1009 59 10000 4.12 340 07:22 05.11.2022
1168 Clear 12 1008 59 10000 7.2 330 06:54 05.11.2022
1169 Clouds 13 1004 59 10000 8.23 360 23:36 04.11.2022
1170 Clouds 13 1004 60 10000 8.23 360 23:18 04.11.2022
1171 -273 0 0 0 0 0 20:32 04.11.2022
1172 Rain 14 1001 72 10000 9.77 360 20:31 04.11.2022
1173 Thunderstorm 14 1000 68 10000 7.72 30 19:24 04.11.2022
1174 Clouds 17 999 46 10000 3.6 290 17:23 04.11.2022
1175 Clouds 20 1002 47 10000 11.83 240 13:52 04.11.2022
1176 Clear 19 1003 48 10000 11.32 240 12:27 04.11.2022
1177 Clear 19 1005 43 10000 3.6 290 10:51 04.11.2022
1178 Clear 15 1006 58 10000 1.03 0 08:53 04.11.2022
1179 Clouds 12 1005 70 10000 3.6 300 07:46 04.11.2022
1180 Clear 13 1004 76 10000 4.12 310 05:24 04.11.2022
1181 Clouds 15 1008 89 10000 4.12 330 23:28 03.11.2022
1182 Rain 15 1010 90 6000 2.57 320 20:51 03.11.2022
1183 Rain 15 1010 90 7000 3.6 340 20:29 03.11.2022
1184 Rain 15 1010 89 10000 3.09 350 19:40 03.11.2022
1185 Rain 15 1012 87 6000 5.66 10 17:51 03.11.2022
1186 Rain 15 1015 90 5000 5.66 20 16:53 03.11.2022
1187 Rain 17 1015 87 10000 4.63 70 14:53 03.11.2022
1188 Clouds 19 1017 81 10000 5.14 90 13:19 03.11.2022
1189 Clouds 19 1017 78 10000 5.14 90 12:30 03.11.2022
1190 Clouds 18 1020 72 10000 3.09 320 10:21 03.11.2022
1191 Clouds 15 1020 82 10000 3.09 360 07:43 03.11.2022
1192 Clouds 16 1021 88 10000 2.57 330 21:44 02.11.2022
1193 Clouds 16 1021 88 10000 3.6 320 20:51 02.11.2022
1194 Clouds 16 1021 88 10000 2.06 10 20:19 02.11.2022
1195 Clouds 18 1020 84 10000 1.54 140 17:30 02.11.2022
1196 Clouds 19 1020 83 10000 2.06 140 16:25 02.11.2022
1197 Clouds 20 1020 80 10000 2.57 120 15:25 02.11.2022
1198 Clouds 20 1020 80 10000 2.57 120 15:25 02.11.2022
1199 Clouds 20 1021 77 10000 3.09 180 12:48 02.11.2022
1200 Clouds 20 1022 71 10000 1.03 0 11:58 02.11.2022
1201 Clouds 17 1022 80 10000 5.66 330 09:27 02.11.2022
1202 Clouds 15 1023 85 10000 6.69 330 07:38 02.11.2022
1203 Clouds 15 1022 83 10000 5.14 330 01:23 02.11.2022
1204 Clear 16 1022 83 10000 3.09 340 22:20 01.11.2022
1205 Clear 16 1022 82 10000 3.09 340 21:42 01.11.2022
1206 Clear 16 1022 84 10000 3.09 320 20:27 01.11.2022
1207 Clouds 16 1022 86 10000 3.6 330 19:58 01.11.2022
1208 Clouds 16 1022 83 10000 3.09 310 19:40 01.11.2022
1209 Clouds 17 1023 87 10000 1.54 50 17:58 01.11.2022
1210 Clouds 19 1022 80 10000 2.06 90 16:23 01.11.2022
1211 Clear 19 1021 76 10000 3.6 70 14:34 01.11.2022
1212 Clouds 16 1023 85 10000 3.6 320 12:33 01.11.2022
1213 Thunderstorm 15 1022 87 8000 5.66 40 11:38 01.11.2022
1214 Thunderstorm 15 1023 95 6000 4.63 30 11:20 01.11.2022
1215 Thunderstorm 15 1022 88 8000 5.66 40 11:20 01.11.2022
1216 Clouds 18 1021 74 10000 4.63 330 08:51 01.11.2022
1217 Rain 17 1022 69 10000 5.14 330 07:48 01.11.2022
1218 Clouds 17 1022 67 10000 5.14 330 07:27 01.11.2022
1219 Clouds 17 1022 65 10000 4.63 340 06:45 01.11.2022
1220 Clouds 16 1022 65 10000 4.12 350 04:18 01.11.2022
1221 Clouds 17 1022 80 10000 4.12 320 22:24 31.10.2022
1222 Clouds 17 1022 84 10000 2.57 330 21:31 31.10.2022
1223 Clouds 18 1022 84 10000 1.54 0 19:56 31.10.2022
1224 Clouds 19 1021 85 10000 1.03 0 18:35 31.10.2022
1225 Clear 21 1021 81 10000 2.06 100 16:44 31.10.2022
1226 Clear 22 1021 69 10000 3.09 150 14:31 31.10.2022
1227 Clear 23 1022 62 10000 2.06 140 12:21 31.10.2022
1228 Clear 18 1023 58 10000 4.63 320 09:35 31.10.2022
1229 Clear 17 1022 61 10000 4.63 330 05:40 31.10.2022
1230 Clear 18 1021 63 10000 4.12 320 02:38 31.10.2022
1231 Clear 18 1021 63 10000 3.6 330 01:46 31.10.2022
1232 Clear 18 1021 63 10000 3.09 340 22:18 30.10.2022
1233 Clouds 18 1021 69 10000 2.57 320 20:37 30.10.2022
1234 Clouds 18 1021 69 10000 2.57 320 20:37 30.10.2022
1235 Clouds 19 1021 75 10000 1.54 250 19:33 30.10.2022
1236 Clouds 22 1021 80 10000 1.54 130 16:29 30.10.2022
1237 Clear 24 1021 71 10000 2.06 130 14:33 30.10.2022
1238 Clear 24 1021 69 10000 2.06 120 13:50 30.10.2022
1239 Clear 24 1022 53 10000 1.03 0 12:20 30.10.2022
1240 Clear 21 1022 50 10000 4.63 320 09:58 30.10.2022
1241 Clear 20 1023 52 10000 5.14 330 08:57 30.10.2022
1242 Clear 18 1022 49 10000 6.17 330 07:55 30.10.2022
1243 Clear 20 1022 49 10000 4.63 330 00:29 30.10.2022
1244 Clear 20 1022 47 10000 4.12 330 23:46 29.10.2022
1245 Clear 20 1022 46 10000 4.12 330 21:57 29.10.2022
1246 Clear 21 1022 57 10000 3.6 90 19:22 29.10.2022
1247 Clear 24 1022 58 10000 2.57 70 17:23 29.10.2022
1248 Clear 26 1023 50 10000 2.06 100 15:39 29.10.2022
1249 Clear 26 1023 50 10000 1.54 0 14:54 29.10.2022
1250 Clear 26 1024 48 10000 1.54 0 13:45 29.10.2022
1251 Clear 25 1024 49 10000 1.03 0 12:32 29.10.2022
1252 Clear 20 1024 65 10000 4.63 330 09:32 29.10.2022
1253 Clear 19 1025 61 10000 3.6 330 06:51 29.10.2022
1254 Clear 18 1025 61 10000 3.09 340 05:54 29.10.2022
1255 Clear 19 1025 73 10000 3.6 330 23:44 28.10.2022
1256 Clear 19 1025 82 10000 4.63 320 21:37 28.10.2022
1257 Clear 20 1025 81 10000 1.03 0 19:59 28.10.2022
1258 Clear 21 1025 78 10000 1.54 250 18:39 28.10.2022
1259 Clear 21 1025 78 10000 1.54 250 18:20 28.10.2022
1260 Clear 24 1025 73 10000 2.57 120 15:28 28.10.2022
1261 Clear 24 1026 72 10000 2.06 140 13:44 28.10.2022
1262 Clear 23 1026 67 10000 1.03 0 11:56 28.10.2022
1263 Clear 22 1026 69 10000 2.57 320 11:33 28.10.2022
1264 Clear 22 1027 64 10000 3.6 330 10:45 28.10.2022
1265 Clear 19 1026 75 10000 4.63 330 09:44 28.10.2022
1266 Clear 18 1026 76 10000 5.14 330 07:56 28.10.2022
1267 Clear 19 1026 81 10000 4.63 330 03:41 28.10.2022
1268 Clear 18 1026 84 10000 4.63 330 23:48 27.10.2022
1269 Clear 19 1026 85 10000 3.6 330 22:39 27.10.2022
1270 Clear 19 1026 85 10000 2.06 330 21:33 27.10.2022
1271 Clear 20 1025 83 10000 0 0 18:34 27.10.2022
1272 Clear 22 1025 80 10000 1.03 160 17:28 27.10.2022
1273 Clear 23 1026 74 10000 3.09 110 13:34 27.10.2022
1274 Clear 17 1026 84 10000 4.12 330 08:59 27.10.2022
1275 Clouds 17 1024 81 10000 4.12 330 03:40 27.10.2022
1276 Clouds 18 1024 84 10000 2.57 320 23:54 26.10.2022
1277 Clouds 19 1023 83 10000 1.54 330 22:47 26.10.2022
1278 Clouds 19 1023 83 10000 2.06 330 22:22 26.10.2022
1279 Clouds 20 1022 85 10000 2.57 40 19:27 26.10.2022
1280 Clouds 22 1021 83 10000 2.14 102 16:35 26.10.2022
1281 Clouds 23 1021 78 10000 5.14 80 14:36 26.10.2022
1282 Clouds 22 1021 77 10000 3.6 80 12:37 26.10.2022
1283 Clouds 19 1020 76 10000 4.12 330 09:41 26.10.2022
1284 Clouds 17 1019 79 10000 5.14 330 08:54 26.10.2022
1285 Clouds 17 1019 79 10000 4.12 330 08:22 26.10.2022
1286 Clouds 19 1019 83 10000 2.06 320 00:45 26.10.2022
1287 Clouds 19 1019 84 10000 3.09 320 00:21 26.10.2022
1288 Clouds 19 1019 85 10000 1.03 0 21:52 25.10.2022
1289 Clouds 19 1019 84 10000 1.54 30 21:22 25.10.2022
1290 Clouds 21 1019 90 10000 2.06 140 19:40 25.10.2022
1291 Clouds 21 1018 87 10000 2.06 130 17:52 25.10.2022
1292 Clear 23 1018 81 10000 3.6 120 14:56 25.10.2022
1293 Clear 23 1019 66 10000 1.03 0 11:39 25.10.2022
1294 Clear 20 1018 65 10000 2.57 340 10:38 25.10.2022
1295 Clear 19 1018 72 10000 3.09 320 09:53 25.10.2022
1296 Clouds 17 1016 75 10000 3.6 330 08:19 25.10.2022
1297 Clouds 17 1016 77 10000 3.6 330 07:54 25.10.2022
1298 Clouds 17 1016 77 10000 3.6 330 07:54 25.10.2022
1299 Clouds 18 1016 77 10000 2.57 330 06:59 25.10.2022
1300 Clear 18 1016 84 10000 4.12 330 03:48 25.10.2022
1301 Clear 19 1016 85 10000 3.09 320 00:40 25.10.2022
1302 Clear 19 1016 86 10000 2.06 290 23:50 24.10.2022
1303 Clouds 20 1016 85 10000 3.6 320 22:24 24.10.2022
1304 Clouds 20 1016 86 9000 2.06 310 21:33 24.10.2022
1305 Mist 20 1016 86 4000 1.54 260 20:44 24.10.2022
1306 Clouds 20 1016 86 10000 1.03 270 20:44 24.10.2022
1307 Clouds 21 1015 88 9000 1.03 180 18:53 24.10.2022
1308 Clouds 22 1015 85 8000 0.51 0 17:51 24.10.2022
1309 Clouds 23 1016 83 8000 1.03 0 16:45 24.10.2022
1310 Clear 23 1017 78 10000 3.6 100 14:31 24.10.2022
1311 Clouds 24 1017 76 10000 2.1 125 13:41 24.10.2022
1312 Clouds 23 1018 73 10000 1.54 0 11:55 24.10.2022
1313 Clouds 19 1017 82 10000 4.63 330 08:50 24.10.2022
1314 Clear 19 1018 84 10000 3.09 340 00:55 24.10.2022
1315 Rain 21 1019 82 10000 7.2 70 21:24 23.10.2022
1316 Clouds 21 1018 82 10000 5.14 70 19:53 23.10.2022
1317 Clouds 22 1019 82 9000 3.09 60 18:25 23.10.2022
1318 Clouds 23 1018 82 9000 5.14 90 17:27 23.10.2022
1319 Clouds 24 1018 77 10000 5.66 90 15:21 23.10.2022
1320 Clear 24 1020 69 10000 2.06 80 13:22 23.10.2022
1321 Clear 21 1020 75 10000 3.6 340 11:18 23.10.2022
1322 Clouds 19 1019 80 10000 4.12 330 08:59 23.10.2022
1323 Clouds 19 1019 82 10000 4.12 330 00:33 23.10.2022
1324 Clouds 20 1019 88 8000 1.54 330 22:32 22.10.2022
1325 Clouds 20 1018 88 8000 1.03 0 21:42 22.10.2022
1326 Clouds 20 1018 88 6000 1.54 170 20:55 22.10.2022
1327 Clouds 21 1018 87 6000 1.03 0 19:46 22.10.2022
1328 Clouds 21 1017 87 6000 1.54 230 19:27 22.10.2022
1329 Clouds 23 1016 81 10000 3.6 220 17:37 22.10.2022
1330 Clear 23 1016 82 10000 4.63 210 15:57 22.10.2022
1331 Clouds 23 1016 83 10000 2.06 190 14:44 22.10.2022
1332 Clouds 24 1018 78 10000 2.06 210 13:45 22.10.2022
1333 Clouds 21 1016 84 10000 5.14 330 10:26 22.10.2022
1334 Clouds 20 1016 86 10000 4.63 320 09:39 22.10.2022
1335 Clouds 19 1015 88 10000 5.14 320 08:29 22.10.2022
1336 Clouds 19 1015 87 10000 5.66 320 03:42 22.10.2022
1337 Rain 20 1016 85 10000 4.63 340 23:53 21.10.2022
1338 Clouds 19 1016 86 10000 4.12 330 21:35 21.10.2022
1339 Clouds 19 1016 87 10000 3.6 350 20:59 21.10.2022
1340 Clouds 19 1016 88 10000 3.09 340 19:36 21.10.2022
1341 Rain 20 1016 86 10000 2.57 40 16:51 21.10.2022
1342 Clouds 20 1017 83 10000 3.6 90 14:23 21.10.2022
1343 Clouds 20 1017 83 10000 3.6 50 12:59 21.10.2022
1344 Clouds 19 1019 81 10000 2.57 330 11:33 21.10.2022
1345 Clouds 19 1018 83 10000 3.6 330 10:20 21.10.2022
1346 Rain 18 1018 85 10000 3.09 50 08:39 21.10.2022
1347 Rain 18 1017 86 10000 1.03 20 07:32 21.10.2022
1348 Clear 19 1019 81 10000 1.54 30 01:20 21.10.2022
1349 Clear 20 1018 80 10000 2.06 60 22:26 20.10.2022
1350 Clear 20 1019 76 10000 1.54 280 20:38 20.10.2022
1351 Clear 20 1019 77 10000 1.54 270 19:39 20.10.2022
1352 Clear 21 1019 79 10000 1.03 0 17:54 20.10.2022
1353 Clear 21 1019 79 10000 1.03 0 17:33 20.10.2022
1354 Clear 22 1020 71 10000 2.06 170 13:22 20.10.2022
1355 Clear 22 1020 72 10000 2.06 190 12:28 20.10.2022
1356 Clear 21 1020 69 10000 1.54 330 11:25 20.10.2022
1357 Clear 21 1021 66 10000 1.54 330 10:51 20.10.2022
1358 Clear 17 1019 75 10000 4.63 330 08:27 20.10.2022
1359 Clear 17 1019 78 10000 4.12 320 05:47 20.10.2022
1360 Clear 18 1019 78 10000 2.57 320 01:54 20.10.2022
1361 Clear 18 1019 82 10000 2.06 330 22:47 19.10.2022
1362 Clear 18 1019 83 10000 2.57 320 21:59 19.10.2022
1363 Clear 19 1019 83 10000 2.06 300 21:20 19.10.2022
1364 Clear 20 1019 85 10000 0.51 170 18:54 19.10.2022
1365 Clouds 21 1019 80 10000 2.06 150 17:40 19.10.2022
1366 Clouds 22 1019 77 10000 2.06 140 16:22 19.10.2022
1367 Clouds 22 1021 72 10000 2.06 150 13:53 19.10.2022
1368 Clear 19 1021 74 10000 4.12 320 10:23 19.10.2022
1369 Clouds 17 1021 82 10000 4.12 330 08:37 19.10.2022
1370 Clouds 17 1021 83 10000 4.12 330 07:21 19.10.2022
1371 Clouds 17 1023 85 10000 3.6 330 01:29 19.10.2022
1372 Clouds 18 1024 85 10000 3.09 320 23:22 18.10.2022
1373 Clouds 18 1024 85 10000 2.06 320 21:49 18.10.2022
1374 Clouds 19 1024 87 10000 1.03 210 21:18 18.10.2022
1375 Clear 19 1024 85 10000 0.44 300 20:24 18.10.2022
1376 Clear 21 1023 77 10000 2.06 180 18:32 18.10.2022
1377 Clear 23 1024 71 10000 3.09 190 16:55 18.10.2022
1378 Clear 23 1025 65 10000 2.06 150 14:59 18.10.2022
1379 Clear 23 1026 65 10000 2.06 170 13:38 18.10.2022
1380 Clear 23 1027 64 10000 1.54 0 11:39 18.10.2022
1381 Clear 20 1027 71 10000 3.6 330 10:24 18.10.2022
1382 Clear 18 1026 77 10000 4.63 330 08:40 18.10.2022
1383 Clear 18 1026 74 10000 4.12 340 05:45 18.10.2022
1384 Clear 19 1028 76 10000 4.12 330 23:25 17.10.2022
1385 Clear 19 1027 78 10000 2.57 320 21:28 17.10.2022
1386 Clear 19 1027 78 10000 0 0 20:45 17.10.2022
1387 Clouds 19 1027 78 10000 1.49 18 20:27 17.10.2022
1388 Clear 20 1027 78 10000 0 0 19:41 17.10.2022
1389 Clouds 24 1026 66 10000 1.26 95 17:40 17.10.2022
1390 Clear 24 1027 64 10000 3.09 100 15:54 17.10.2022
1391 Clear 24 1027 65 10000 2.06 100 14:36 17.10.2022
1392 Clear 24 1027 63 10000 1.54 140 12:42 17.10.2022
1393 Clear 18 1025 78 10000 3.6 330 07:34 17.10.2022
1394 Clear 18 1024 83 10000 3.6 330 01:25 17.10.2022
1395 Clear 18 1024 83 10000 1.54 350 22:34 16.10.2022
1396 Clouds 19 1023 81 10000 2.06 50 21:21 16.10.2022
1397 Clouds 20 1022 82 10000 2.57 80 19:51 16.10.2022
1398 Clouds 20 1022 82 10000 3.09 110 19:27 16.10.2022
1399 Clouds 22 1022 79 10000 3.09 110 17:45 16.10.2022
1400 Clouds 23 1021 77 10000 3.6 110 16:29 16.10.2022
1401 Clouds 23 1021 77 10000 3.6 110 15:55 16.10.2022
1402 Clouds 22 1022 73 10000 2.06 90 12:29 16.10.2022
1403 Clouds 21 1022 72 10000 4.63 330 11:27 16.10.2022
1404 Clouds 19 1021 78 10000 4.63 330 10:26 16.10.2022
1405 Clouds 17 1019 84 10000 4.63 340 07:20 16.10.2022
1406 Clear 17 1018 83 10000 3.6 330 23:43 15.10.2022
1407 Clouds 18 1017 84 10000 2.57 330 21:54 15.10.2022
1408 Clouds 18 1017 85 10000 0.79 34 21:19 15.10.2022
1409 Clouds 20 1015 79 10000 1.03 100 19:32 15.10.2022
1410 Clouds 22 1014 72 10000 2.06 180 17:24 15.10.2022
1411 Clouds 22 1014 72 10000 2.06 180 17:24 15.10.2022
1412 Clouds 22 1014 70 10000 4.12 190 15:45 15.10.2022
1413 Clouds 23 1015 69 10000 2.57 190 13:27 15.10.2022
1414 Clouds 22 1015 67 10000 1.54 260 11:50 15.10.2022
1415 Clear 18 1015 76 10000 5.66 330 09:43 15.10.2022
1416 Clouds 16 1014 83 10000 4.63 340 07:38 15.10.2022
1417 Clear 17 1014 81 10000 3.6 320 00:41 15.10.2022
1418 Clear 18 1015 78 10000 2.57 330 22:59 14.10.2022
1419 Clear 18 1015 79 10000 2.57 320 22:22 14.10.2022
1420 Clear 19 1014 81 10000 3.6 30 20:53 14.10.2022
1421 Clouds 20 1014 82 10000 1.71 161 19:22 14.10.2022
1422 Clouds 22 1015 70 10000 5.14 200 16:19 14.10.2022
1423 Clouds 22 1016 71 10000 6.17 200 13:20 14.10.2022
1424 Clouds 21 1017 69 10000 2.57 320 11:36 14.10.2022
1425 Clouds 17 1015 80 10000 5.66 320 08:59 14.10.2022
1426 Clouds 17 1015 85 10000 5.66 330 06:53 14.10.2022
1427 Clouds 17 1015 86 10000 4.12 340 06:18 14.10.2022
1428 Clouds 17 1015 86 10000 5.66 330 05:42 14.10.2022
1429 Clear 17 1016 83 10000 4.63 320 03:24 14.10.2022
1430 Clouds 18 1016 80 10000 2.57 340 23:43 13.10.2022
1431 Clouds 19 1016 79 10000 1.54 300 22:21 13.10.2022
1432 Clear 19 1016 82 10000 3.09 40 21:21 13.10.2022
1433 Clouds 20 1017 83 10000 2.06 120 19:43 13.10.2022
1434 Clouds 20 1017 82 10000 3.09 190 19:18 13.10.2022
1435 Clear 20 1017 78 10000 5.66 210 18:41 13.10.2022
1436 Clouds 23 1017 69 10000 7.2 200 16:31 13.10.2022
1437 Clouds 22 1017 72 10000 8.23 200 15:43 13.10.2022
1438 Clouds 24 1018 64 10000 6.69 200 14:18 13.10.2022
1439 Clear 23 1019 61 10000 4.63 200 12:45 13.10.2022
1440 Clear 22 1019 61 10000 4.63 320 11:34 13.10.2022
1441 Clear 19 1020 69 10000 5.66 340 09:37 13.10.2022
1442 Clear 17 1019 77 10000 4.63 340 07:39 13.10.2022
1443 Clear 17 1019 76 10000 4.63 340 06:29 13.10.2022
1444 Clouds 19 1020 74 10000 6.17 320 01:47 13.10.2022
1445 Clouds 19 1020 74 10000 2.06 340 00:53 13.10.2022
1446 Clouds 19 1020 75 10000 2.57 330 22:46 12.10.2022
1447 Clouds 19 1020 74 10000 2.57 320 21:55 12.10.2022
1448 Clouds 20 1020 75 10000 3.09 320 21:21 12.10.2022
1449 Clouds 20 1020 77 10000 2.06 300 20:52 12.10.2022
1450 Clear 20 1019 76 10000 2.06 110 19:29 12.10.2022
1451 Clear 21 1019 71 10000 3.6 110 18:21 12.10.2022
1452 Clear 22 1019 67 10000 3.09 120 17:47 12.10.2022
1453 Clear 23 1019 64 10000 7.2 100 15:35 12.10.2022
1454 Clear 23 1020 63 10000 4.63 100 13:55 12.10.2022
1455 Clear 23 1020 62 10000 2.57 110 12:46 12.10.2022
1456 Clear 19 1020 71 10000 4.63 340 09:40 12.10.2022
1457 Clear 18 1019 76 10000 5.66 330 07:42 12.10.2022
1458 Clear 18 1019 76 10000 4.63 340 06:55 12.10.2022
1459 Clear 18 1019 77 10000 4.12 340 06:37 12.10.2022
1460 Clouds 18 1019 80 10000 3.6 330 00:58 12.10.2022
1461 Clouds 19 1019 83 10000 3.09 330 22:18 11.10.2022
1462 Clouds 19 1019 81 10000 1.03 270 20:39 11.10.2022
1463 Clouds 21 1018 73 10000 1.03 0 18:46 11.10.2022
1464 Clear 23 1019 68 10000 2.06 170 16:38 11.10.2022
1465 Clear 23 1020 73 10000 2.57 180 14:35 11.10.2022
1466 Clear 22 1020 72 10000 3.09 160 12:53 11.10.2022
1467 Clouds 19 1020 74 10000 2.57 330 10:29 11.10.2022
1468 Clouds 18 1019 77 10000 4.12 320 09:30 11.10.2022
1469 Clouds 18 1019 77 10000 4.12 320 09:30 11.10.2022
1470 Clear 17 1018 83 10000 5.14 340 06:46 11.10.2022
1471 Clouds 17 1019 84 10000 3.6 330 02:26 11.10.2022
1472 Clouds 18 1019 84 10000 4.63 310 00:31 11.10.2022
1473 Clear 18 1019 86 10000 2.57 310 21:35 10.10.2022
1474 Clouds 19 1018 83 10000 2.57 110 19:56 10.10.2022
1475 Clouds 20 1019 79 10000 4.63 110 18:33 10.10.2022
1476 Clouds 21 1018 77 10000 5.66 120 17:21 10.10.2022
1477 Clouds 22 1018 76 10000 3.34 112 15:44 10.10.2022
1478 Clouds 21 1019 71 10000 1.54 320 12:54 10.10.2022
1479 Clouds 21 1018 75 10000 3.6 320 11:56 10.10.2022
1480 Clouds 18 1018 85 10000 4.12 330 09:21 10.10.2022
1481 Clouds 17 1017 86 10000 2.57 330 05:43 10.10.2022
1482 Clouds 17 1017 88 10000 3.6 340 04:57 10.10.2022
1483 Rain 17 1018 87 10000 2.57 350 00:34 10.10.2022
1484 Clouds 17 1018 86 10000 4.12 50 23:31 09.10.2022
1485 Clouds 17 1018 88 10000 3.35 64 22:19 09.10.2022
1486 Clouds 17 1018 88 10000 3.32 69 21:26 09.10.2022
1487 Clouds 17 1018 88 10000 2.06 0 20:30 09.10.2022
1488 Clouds 17 1017 86 10000 2.78 65 19:46 09.10.2022
1489 Clouds 18 1017 86 10000 1.03 0 18:44 09.10.2022
1490 Rain 18 1017 86 10000 2.57 330 17:32 09.10.2022
1491 Rain 17 1017 88 10000 3.09 20 16:37 09.10.2022
1492 Rain 18 1018 87 10000 2.57 20 15:51 09.10.2022
1493 Rain 17 1019 88 2400 3.6 10 14:37 09.10.2022
1494 Rain 17 1019 88 8000 3.6 10 13:51 09.10.2022
1495 Rain 17 1019 87 4000 3.6 330 12:46 09.10.2022
1496 Rain 17 1019 87 8000 2.57 360 10:54 09.10.2022
1497 Clouds 17 1018 94 10000 6.17 320 08:31 09.10.2022
1498 Rain 17 1017 85 10000 5.14 320 04:28 09.10.2022
1499 Clouds 18 1018 84 10000 3.6 330 03:20 09.10.2022
1500 Clouds 18 1018 85 10000 4.12 330 00:40 09.10.2022
1501 Clouds 18 1018 85 10000 3.6 330 23:32 08.10.2022
1502 Clouds 18 1018 86 10000 2.06 330 22:35 08.10.2022
1503 Clouds 19 1018 87 10000 2.06 130 20:33 08.10.2022
1504 Clouds 19 1017 89 10000 0.72 136 19:27 08.10.2022
1505 Clouds 20 1017 84 10000 3.09 360 17:39 08.10.2022
1506 Rain 20 1018 83 8000 2.06 330 15:35 08.10.2022
1507 Clouds 21 1019 83 10000 2.57 130 13:33 08.10.2022
1508 Clear 21 1019 70 10000 1.54 50 11:24 08.10.2022
1509 Clear 20 1019 68 10000 3.09 330 10:33 08.10.2022
1510 Clear 19 1018 69 10000 3.6 330 09:25 08.10.2022
1511 Clear 18 1019 66 10000 4.12 320 06:20 08.10.2022
1512 Clear 18 1019 71 10000 3.6 340 02:34 08.10.2022
1513 Clear 19 1020 72 10000 4.12 330 23:49 07.10.2022
1514 Clear 19 1020 72 10000 3.6 330 23:20 07.10.2022
1515 Clear 19 1020 75 10000 2.57 320 22:19 07.10.2022
1516 Clouds 19 1020 82 10000 0.94 263 20:23 07.10.2022
1517 Clouds 22 1020 73 10000 1.54 200 18:22 07.10.2022
1518 Clouds 24 1021 70 10000 2.06 190 16:58 07.10.2022
1519 Clouds 24 1021 67 10000 2.57 170 15:47 07.10.2022
1520 Clouds 24 1022 64 10000 3.6 190 14:23 07.10.2022
1521 Clear 22 1024 69 10000 2.06 150 11:42 07.10.2022
1522 Clouds 19 1024 72 10000 2.57 330 09:25 07.10.2022
1523 Clouds 18 1025 75 10000 3.09 330 08:47 07.10.2022
1524 Clear 18 1025 75 10000 3.6 330 05:51 07.10.2022
1525 Clear 19 1026 78 10000 3.6 320 00:28 07.10.2022
1526 Clouds 19 1026 81 10000 3.6 310 22:50 06.10.2022
1527 Clouds 19 1026 81 10000 2.57 310 21:42 06.10.2022
1528 Clouds 19 1026 83 10000 1.03 240 21:21 06.10.2022
1529 Clouds 20 1026 82 10000 1.54 240 19:46 06.10.2022
1530 Clouds 21 1026 77 10000 1.54 0 18:37 06.10.2022
1531 Clouds 22 1026 74 10000 1.54 180 17:26 06.10.2022
1532 Clouds 23 1026 71 10000 3.09 150 14:19 06.10.2022
1533 Clouds 22 1026 68 10000 1.54 0 11:24 06.10.2022
1534 Clouds 16 1026 81 10000 4.12 330 06:53 06.10.2022
1535 Clear 18 1026 79 10000 4.63 330 03:29 06.10.2022
1536 Clouds 19 1026 82 10000 3.09 320 22:55 05.10.2022
1537 Clouds 20 1025 83 10000 2.06 90 19:58 05.10.2022
1538 Clear 22 1025 77 10000 1.54 0 18:42 05.10.2022
1539 Clear 24 1024 72 10000 2.17 126 17:34 05.10.2022
1540 Clear 24 1025 70 10000 2.57 130 15:54 05.10.2022
1541 Clear 24 1025 67 10000 2.57 150 14:47 05.10.2022
1542 Clear 24 1025 68 10000 2.57 140 13:54 05.10.2022
1543 Clear 23 1025 65 10000 2.57 130 12:20 05.10.2022
1544 Clouds 18 1025 70 10000 5.14 330 08:53 05.10.2022
1545 Clouds 17 1024 73 10000 4.12 330 07:35 05.10.2022
1546 Clear 17 1024 72 10000 4.12 330 05:35 05.10.2022
1547 Clear 18 1024 77 10000 4.12 330 03:32 05.10.2022
1548 Clear 18 1023 80 10000 3.6 330 00:45 05.10.2022
1549 Clear 18 1023 80 10000 3.6 330 00:24 05.10.2022
1550 Clear 19 1022 81 10000 2.57 330 22:22 04.10.2022
1551 Clouds 20 1021 83 10000 1.55 356 20:32 04.10.2022
1552 Clear 22 1021 73 10000 3.09 190 18:58 04.10.2022
1553 Clear 22 1021 74 10000 3.09 190 18:58 04.10.2022
1554 Clear 23 1021 73 10000 2.57 180 18:36 04.10.2022
1555 Clear 23 1020 70 10000 2.57 170 17:44 04.10.2022
1556 Clear 24 1020 67 10000 2.57 150 16:28 04.10.2022
1557 Clear 24 1020 66 10000 2.57 150 12:56 04.10.2022
1558 Clouds 20 1019 64 10000 4.12 330 09:45 04.10.2022
1559 Clouds 17 1018 70 10000 3.6 330 07:23 04.10.2022
1560 Clear 18 1018 68 10000 2.57 330 02:19 04.10.2022
1561 Clear 19 1018 71 10000 3.6 320 23:40 03.10.2022
1562 Clear 19 1018 71 10000 3.6 320 23:40 03.10.2022
1563 Clear 19 1018 71 10000 3.6 320 23:40 03.10.2022
1564 Clear 20 1017 71 10000 2.57 320 21:52 03.10.2022
1565 Clear 20 1017 74 10000 0 0 20:56 03.10.2022
1566 Clear 21 1017 71 10000 1.03 180 19:52 03.10.2022
1567 Clear 24 1016 65 10000 2.57 190 17:59 03.10.2022
1568 Clear 24 1016 66 10000 2.06 180 17:18 03.10.2022
1569 Clear 24 1017 66 10000 3.09 170 15:42 03.10.2022
1570 Clear 24 1018 67 10000 3.09 180 13:51 03.10.2022
1571 Clear 23 1018 69 10000 3.09 160 12:28 03.10.2022
1572 Clear 21 1018 70 10000 4.12 330 10:39 03.10.2022
1573 Clear 19 1017 76 10000 4.63 340 09:38 03.10.2022
1574 Clouds 17 1017 82 10000 6.17 330 06:35 03.10.2022
1575 Clouds 18 1016 85 10000 3.6 340 02:53 03.10.2022
1576 Clouds 19 1017 83 10000 1.54 330 22:35 02.10.2022
1577 Clear 19 1016 84 10000 2.57 350 20:51 02.10.2022
1578 Clear 21 1016 77 10000 8.23 80 18:47 02.10.2022
1579 Clear 22 1016 72 10000 8.75 90 17:52 02.10.2022
1580 Clear 23 1017 70 10000 7.72 90 16:44 02.10.2022
1581 Clear 23 1018 71 10000 7.2 90 16:18 02.10.2022
1582 Clouds 24 1019 69 10000 5.14 100 14:52 02.10.2022
1583 Clouds 23 1019 72 10000 4.12 100 13:45 02.10.2022
1584 Clouds 21 1020 75 10000 1.54 120 12:30 02.10.2022
1585 Clouds 21 1021 76 10000 1.03 0 11:40 02.10.2022
1586 Clouds 20 1021 77 10000 1.03 0 11:21 02.10.2022
1587 Clear 18 1020 81 10000 2.57 330 09:29 02.10.2022
1588 Clear 17 1019 84 10000 3.09 320 07:41 02.10.2022
1589 Clear 17 1018 79 10000 2.57 340 02:55 02.10.2022
1590 Clear 17 1017 77 10000 3.09 330 00:50 02.10.2022
1591 Clear 17 1017 76 10000 3.09 320 00:31 02.10.2022
1592 Clear 19 1017 74 10000 4.63 90 22:53 01.10.2022
1593 Clear 20 1015 62 10000 2.06 100 20:54 01.10.2022
1594 Clouds 22 1014 56 10000 6.69 80 18:53 01.10.2022
1595 Clouds 24 1015 50 10000 7.2 70 17:22 01.10.2022
1596 Clear 23 1016 49 10000 3.6 120 14:43 01.10.2022
1597 Clear 21 1016 60 10000 4.63 190 13:35 01.10.2022
1598 Clear 20 1016 62 10000 3.09 220 12:33 01.10.2022
1599 Clouds 19 1016 62 10000 3.09 310 11:21 01.10.2022
1600 Clouds 18 1016 65 10000 5.14 330 10:38 01.10.2022
1601 Clouds 17 1016 66 10000 5.14 330 10:20 01.10.2022
1602 Clouds 15 1016 74 10000 4.63 340 09:18 01.10.2022
1603 Clouds 14 1016 76 10000 5.66 330 08:19 01.10.2022
1604 Rain 14 1013 77 10000 5.66 20 03:37 01.10.2022
1605 Thunderstorm 15 1014 80 7000 5.14 50 01:22 01.10.2022
1606 Clouds 17 1011 81 10000 4.12 150 23:20 30.09.2022
1607 Clouds 17 1010 78 10000 4.63 100 21:56 30.09.2022
1608 Clouds 18 1010 77 10000 3.6 100 20:45 30.09.2022
1609 Clouds 18 1009 73 10000 4.12 90 20:20 30.09.2022
1610 Clear 21 1007 64 10000 5.14 160 17:59 30.09.2022
1611 Clouds 21 1007 55 10000 2.57 150 16:32 30.09.2022
1612 Clouds 21 1007 53 10000 3.09 170 14:23 30.09.2022
1613 Clouds 21 1005 54 10000 2.06 150 12:29 30.09.2022
1614 Clouds 21 1005 54 10000 2.06 130 11:55 30.09.2022
1615 Clouds 17 1003 65 10000 2.06 360 08:57 30.09.2022
1616 Clouds 17 1001 64 10000 3.09 340 06:38 30.09.2022
1617 Clear 17 1000 62 10000 3.09 310 03:19 30.09.2022
1618 Clear 17 999 65 10000 2.06 280 01:23 30.09.2022
1619 Clear 20 997 54 10000 7.2 240 21:39 29.09.2022
1620 Clear 20 997 55 10000 7.2 240 21:19 29.09.2022
1621 Clear 22 996 59 10000 10.8 220 18:56 29.09.2022
1622 Clear 22 996 58 10000 10.8 210 17:49 29.09.2022
1623 Clouds 23 996 56 10000 10.29 210 16:29 29.09.2022
1624 Clouds 23 996 55 10000 11.83 220 15:37 29.09.2022
1625 Clouds 23 996 53 10000 11.83 210 14:59 29.09.2022
1626 Clear 20 996 62 10000 9.26 230 12:22 29.09.2022
1627 Clear 18 998 58 10000 4.63 280 08:45 29.09.2022
1628 Clear 18 997 64 10000 9.77 250 04:46 29.09.2022
1629 Clear 19 998 63 10000 10.29 240 02:36 29.09.2022
1630 Clear 20 998 60 10000 11.83 250 23:26 28.09.2022
1631 Clear 21 997 61 10000 12.86 250 21:40 28.09.2022
1632 Clear 21 997 61 10000 12.86 250 21:22 28.09.2022
1633 Clouds 22 997 56 10000 12.86 250 19:56 28.09.2022
1634 Clouds 25 997 40 10000 8.75 280 16:46 28.09.2022
1635 Clouds 26 997 39 10000 13.89 260 14:19 28.09.2022
1636 Clear 24 998 50 10000 12.35 270 11:45 28.09.2022
1637 Clear 20 999 55 10000 1.03 0 09:49 28.09.2022
1638 Clouds 17 1000 53 10000 2.57 330 07:52 28.09.2022
1639 Clouds 17 1000 51 10000 4.12 280 05:48 28.09.2022
1640 Clear 19 1001 42 10000 2.57 290 01:45 28.09.2022
1641 Clear 18 1001 44 10000 3.09 290 01:25 28.09.2022
1642 Clear 19 1000 35 10000 4.63 330 22:49 27.09.2022
1643 Clear 20 1000 38 10000 4.12 300 21:20 27.09.2022
1644 Clear 20 999 42 10000 2.57 70 20:35 27.09.2022
1645 Clear 21 999 53 10000 5.14 90 19:45 27.09.2022
1646 Clear 24 998 48 10000 6.17 90 17:47 27.09.2022
1647 Clear 24 999 43 10000 5.66 100 17:29 27.09.2022
1648 Clear 25 999 38 10000 5.14 100 15:18 27.09.2022
1649 Clear 24 998 45 10000 5.14 90 14:24 27.09.2022
1650 Clear 23 997 43 10000 5.14 220 12:39 27.09.2022
1651 Clear 22 997 42 10000 1.54 0 10:49 27.09.2022
1652 Clouds 18 997 54 10000 9.26 280 08:42 27.09.2022
1653 Clear 18 999 50 10000 8.75 250 05:48 27.09.2022
1654 Clear 18 1001 54 10000 1.54 290 01:40 27.09.2022
1655 Clear 19 1001 58 10000 2.06 280 00:32 27.09.2022
1656 Clear 19 1001 62 10000 3.09 280 23:25 26.09.2022
1657 Clear 20 1002 58 10000 5.14 240 21:44 26.09.2022
1658 Clear 20 1002 70 10000 2.06 340 20:27 26.09.2022
1659 Clouds 21 1001 69 10000 7.2 40 19:24 26.09.2022
1660 Clouds 24 1002 59 10000 5.14 190 18:30 26.09.2022
1661 Clouds 23 1003 70 10000 5.66 190 15:49 26.09.2022
1662 Clouds 22 1005 69 10000 2.57 140 13:27 26.09.2022
1663 Clouds 21 1006 67 10000 3.6 320 11:29 26.09.2022
1664 Clouds 19 1006 68 10000 5.66 330 10:37 26.09.2022
1665 Clouds 19 1006 70 10000 5.66 330 10:19 26.09.2022
1666 Clouds 18 1006 73 10000 5.66 330 09:53 26.09.2022
1667 Clouds 17 1006 76 10000 4.12 330 09:22 26.09.2022
1668 Clear 16 1007 80 10000 5.66 330 06:28 26.09.2022
1669 Clear 16 1007 78 10000 3.09 350 02:44 26.09.2022
1670 Clouds 17 1010 83 10000 2.57 320 23:28 25.09.2022
1671 Clear 17 1009 84 10000 4.12 20 21:54 25.09.2022
1672 Clouds 17 1009 85 10000 5.66 30 21:34 25.09.2022
1673 Clouds 19 1008 84 10000 5.66 20 20:44 25.09.2022
1674 Clouds 19 1008 85 10000 3.6 160 19:32 25.09.2022
1675 Clouds 20 1008 86 10000 5.66 180 18:34 25.09.2022
1676 Clouds 20 1008 84 10000 4.12 190 17:52 25.09.2022
1677 Rain 21 1009 80 10000 5.14 180 16:22 25.09.2022
1678 Clouds 21 1009 80 10000 6.17 190 15:43 25.09.2022
1679 Clouds 22 1009 74 10000 5.66 190 14:21 25.09.2022
1680 Clouds 22 1010 72 10000 5.14 200 12:49 25.09.2022
1681 Clouds 19 1010 81 10000 4.12 330 10:26 25.09.2022
1682 Clouds 16 1010 87 10000 4.63 320 08:23 25.09.2022
1683 Clouds 16 1010 87 10000 3.09 300 05:36 25.09.2022
1684 Rain 17 1011 88 10000 1.54 340 00:39 25.09.2022
1685 Clouds 17 1011 87 10000 2.06 350 22:35 24.09.2022
1686 Clouds 17 1011 87 10000 1.67 67 20:54 24.09.2022
1687 Clouds 17 1011 87 10000 3.09 60 19:22 24.09.2022
1688 Clouds 17 1012 89 10000 3.09 50 17:19 24.09.2022
1689 Clouds 17 1012 89 10000 2.57 10 16:24 24.09.2022
1690 Rain 17 1012 88 3000 4.63 40 15:19 24.09.2022
1691 Rain 17 1013 86 10000 5.14 50 13:23 24.09.2022
1692 Clouds 18 1013 83 6000 3.6 30 12:49 24.09.2022
1693 Rain 17 1014 86 10000 4.12 10 10:38 24.09.2022
1694 Rain 17 1014 89 10000 3.6 350 09:35 24.09.2022
1695 Rain 17 1014 85 3000 2.57 300 08:43 24.09.2022
1696 Clouds 19 1014 68 10000 4.12 330 06:53 24.09.2022
1697 Clouds 18 1014 69 10000 3.6 330 04:35 24.09.2022
1698 Clouds 18 1016 70 10000 3.6 320 01:45 24.09.2022
1699 Clouds 20 1016 66 10000 2.06 320 22:28 23.09.2022
1700 Clouds 19 1016 71 10000 1.41 193 21:27 23.09.2022
1701 Clouds 19 1016 71 10000 1.41 193 20:55 23.09.2022
1702 Clouds 20 1016 65 10000 2.57 210 20:19 23.09.2022
1703 Clouds 22 1016 61 10000 4.12 170 18:26 23.09.2022
1704 Clouds 22 1019 58 10000 3.6 160 13:44 23.09.2022
1705 Clouds 21 1019 57 10000 2.06 320 10:26 23.09.2022
1706 Clouds 18 1019 66 10000 4.12 330 08:57 23.09.2022
1707 Clouds 18 1018 66 10000 4.12 330 04:56 23.09.2022
1708 Clouds 18 1019 65 10000 3.6 330 23:31 22.09.2022
1709 Clouds 18 1018 65 10000 3.6 330 22:29 22.09.2022
1710 Clouds 18 1018 65 10000 3.09 330 21:47 22.09.2022
1711 Clouds 18 1018 63 10000 0.51 30 20:45 22.09.2022
1712 Clear 20 1017 57 10000 2.57 100 19:23 22.09.2022
1713 Clouds 21 1018 54 10000 5.66 120 16:53 22.09.2022
1714 Clouds 22 1019 55 10000 8.75 110 11:36 22.09.2022
1715 Clouds 20 1018 53 10000 8.75 90 10:20 22.09.2022
1716 Clouds 20 1018 58 10000 7.72 100 08:39 22.09.2022
1717 Clouds 19 1019 69 10000 3.44 94 06:27 22.09.2022
1718 Clouds 20 1018 60 10000 1.54 0 02:43 22.09.2022
1719 Clouds 21 1018 63 10000 7.72 100 22:50 21.09.2022
1720 Clouds 21 1018 63 10000 7.2 90 21:40 21.09.2022
1721 Clouds 21 1017 63 10000 6.69 90 19:36 21.09.2022
1722 Clouds 22 1017 62 10000 8.75 90 17:47 21.09.2022
1723 Clouds 23 1017 58 10000 8.75 90 16:22 21.09.2022
1724 Clouds 24 1017 56 10000 9.77 110 13:59 21.09.2022
1725 Clouds 23 1017 57 10000 12.35 100 12:41 21.09.2022
1726 Clouds 23 1017 53 10000 1.03 0 11:28 21.09.2022
1727 Clouds 22 1016 54 10000 5.14 330 09:50 21.09.2022
1728 Clouds 20 1015 58 10000 6.17 330 08:58 21.09.2022
1729 Clouds 18 1014 60 10000 5.14 330 06:22 21.09.2022
1730 Clouds 20 1015 62 10000 4.63 340 02:45 21.09.2022
1731 Clouds 20 1014 63 10000 4.63 330 02:25 21.09.2022
1732 Clouds 20 1015 62 10000 4.12 340 00:34 21.09.2022
1733 Clouds 20 1014 62 10000 2.06 20 22:43 20.09.2022
1734 Clouds 21 1014 56 10000 1.54 230 20:51 20.09.2022
1735 Clouds 22 1013 55 10000 0.92 244 19:32 20.09.2022
1736 Clouds 26 1015 36 10000 3.6 140 16:28 20.09.2022
1737 Clouds 26 1015 33 10000 4.12 140 14:46 20.09.2022
1738 Clouds 25 1014 50 10000 4.12 140 13:22 20.09.2022
1739 Clouds 22 1014 63 10000 3.6 340 09:50 20.09.2022
1740 Clouds 19 1014 64 10000 5.66 330 08:27 20.09.2022
1741 Clouds 19 1013 75 10000 5.14 330 05:24 20.09.2022
1742 Clear 19 1013 76 10000 4.12 330 03:59 20.09.2022
1743 Clouds 20 1012 76 10000 1.54 330 22:55 19.09.2022
1744 Clouds 21 1012 76 10000 2.57 120 21:46 19.09.2022
1745 Clear 20 1011 80 10000 1.56 51 20:51 19.09.2022
1746 Clear 21 1011 78 10000 2.32 89 20:31 19.09.2022
1747 Clear 25 1012 59 10000 7.2 90 17:45 19.09.2022
1748 Clear 25 1010 58 10000 9.26 80 15:34 19.09.2022
1749 Clear 25 1010 62 10000 9.26 100 13:33 19.09.2022
1750 Clear 23 1010 57 10000 8.23 80 11:28 19.09.2022
1751 Clear 18 1008 59 10000 5.14 330 08:51 19.09.2022
1752 Clear 17 1009 59 10000 6.17 330 07:25 19.09.2022
1753 Clear 19 1011 69 10000 4.12 330 01:58 19.09.2022
1754 Clear 20 1012 70 10000 3.6 320 23:22 18.09.2022
1755 Clouds 21 1013 69 10000 3.09 290 21:45 18.09.2022
1756 Clear 21 1012 67 10000 4.63 230 20:29 18.09.2022
1757 Clear 24 1014 53 10000 3.6 200 18:34 18.09.2022
1758 Clouds 24 1013 49 10000 4.12 180 17:39 18.09.2022
1759 Clouds 25 1014 49 10000 3.6 160 15:53 18.09.2022
1760 Clouds 25 1014 47 10000 5.14 140 14:23 18.09.2022
1761 Clouds 25 1014 46 10000 4.63 110 12:36 18.09.2022
1762 Clouds 23 1014 50 10000 4.63 80 11:39 18.09.2022
1763 Clear 18 1012 63 10000 3.6 340 05:24 18.09.2022
1764 Clear 19 1011 64 10000 4.12 330 01:27 18.09.2022
1765 Clear 19 1011 63 10000 3.6 330 00:27 18.09.2022
1766 Clear 21 1010 54 10000 2.57 180 21:54 17.09.2022
1767 Clouds 22 1009 53 10000 5.66 200 20:29 17.09.2022
1768 Clouds 24 1009 49 10000 6.69 180 19:00 17.09.2022
1769 Clear 25 1007 48 10000 9.26 210 16:57 17.09.2022
1770 Clouds 25 1006 44 10000 7.72 200 13:59 17.09.2022
1771 Clouds 26 1004 44 10000 6.17 190 12:29 17.09.2022
1772 Clouds 24 1001 32 10000 2.06 320 10:28 17.09.2022
1773 Clear 20 1000 43 10000 3.09 300 06:28 17.09.2022
1774 Clear 23 1000 45 10000 4.12 330 03:34 17.09.2022
1775 Clear 24 1000 68 10000 3.09 310 23:23 16.09.2022
1776 Clear 25 999 66 10000 8.75 80 21:33 16.09.2022
1777 Clear 25 999 66 10000 8.23 80 20:41 16.09.2022
1778 Clear 29 999 52 10000 7.72 90 18:18 16.09.2022
1779 Clear 30 1001 49 10000 7.2 70 16:18 16.09.2022
1780 Clear 30 1003 51 10000 4.63 80 14:40 16.09.2022
1781 Clouds 27 1004 61 10000 3.09 180 12:31 16.09.2022
1782 Clouds 23 1004 62 10000 5.14 320 09:34 16.09.2022
1783 Clear 21 1005 58 10000 3.6 330 07:22 16.09.2022
1784 Clear 22 1004 55 10000 4.12 330 06:47 16.09.2022
1785 Clear 23 1004 59 10000 4.63 330 05:19 16.09.2022
1786 Clear 26 1004 47 10000 2.06 260 23:50 15.09.2022
1787 Clear 28 1003 48 10000 7.72 260 21:24 15.09.2022
1788 Clear 28 1003 46 10000 7.72 250 20:28 15.09.2022
1789 Clear 30 1003 40 10000 10.8 250 18:54 15.09.2022
1790 Clouds 31 1003 39 10000 10.29 250 17:34 15.09.2022
1791 Clouds 32 1003 40 10000 10.29 250 17:34 15.09.2022
1792 Clouds 31 1003 39 10000 10.29 250 17:34 15.09.2022
1793 Clouds 32 1003 39 10000 11.83 240 16:57 15.09.2022
1794 Clouds 30 1005 61 10000 8.75 200 14:58 15.09.2022
1795 Clouds 28 1006 67 10000 6.17 210 12:49 15.09.2022
1796 Clear 25 1007 61 10000 4.63 320 10:42 15.09.2022
1797 Clear 24 1007 68 10000 5.14 330 09:42 15.09.2022
1798 Clouds 22 1009 75 10000 5.66 330 04:46 15.09.2022
1799 Rain 23 1008 76 10000 5.66 320 02:57 15.09.2022
1800 Clear 23 1009 72 10000 6.17 330 22:44 14.09.2022
1801 Clear 23 1010 77 10000 5.14 330 20:24 14.09.2022
1802 Clouds 24 1010 75 10000 2.06 30 19:32 14.09.2022
1803 Clouds 24 1010 71 10000 5.14 340 17:28 14.09.2022
1804 Clouds 24 1012 78 10000 4.63 10 16:36 14.09.2022
1805 Rain 25 1012 73 10000 5.14 200 14:47 14.09.2022
1806 Clouds 24 1011 73 10000 4.12 330 12:33 14.09.2022
1807 Rain 22 1015 83 8000 2.06 300 09:50 14.09.2022
1808 Clear 22 1011 80 10000 3.6 320 07:55 14.09.2022
1809 Clear 22 1011 79 10000 3.09 320 06:48 14.09.2022
1810 Clear 22 1012 78 10000 2.57 320 06:23 14.09.2022
1811 Clear 22 1012 80 10000 1.54 340 01:55 14.09.2022
1812 Clear 23 1012 81 10000 0.51 0 01:30 14.09.2022
1813 Clear 23 1012 79 10000 1.03 0 00:52 14.09.2022
1814 Clear 23 1012 79 10000 1.03 0 23:54 13.09.2022
1815 Clear 23 1012 79 10000 1.54 50 23:36 13.09.2022
1816 Clear 23 1012 78 10000 1.54 50 23:18 13.09.2022
1817 Clouds 23 1012 81 10000 0.61 348 22:22 13.09.2022
1818 Clouds 23 1012 81 10000 0.61 348 22:22 13.09.2022
1819 Clear 23 1012 78 10000 0 0 20:41 13.09.2022
1820 Clouds 25 1012 72 10000 2.06 150 18:43 13.09.2022
1821 Clouds 26 1012 65 10000 2.57 150 16:19 13.09.2022
1822 Clouds 27 1013 63 10000 2.57 140 15:18 13.09.2022
1823 Clouds 27 1013 66 10000 2.57 150 13:31 13.09.2022
1824 Clear 24 1013 68 10000 3.09 330 09:51 13.09.2022
1825 Clear 21 1014 72 10000 3.6 340 07:31 13.09.2022
1826 Clear 21 1014 75 10000 3.6 320 00:58 13.09.2022
1827 Clear 22 1013 79 10000 1.54 310 22:52 12.09.2022
1828 Clear 22 1013 79 10000 1.03 270 22:26 12.09.2022
1829 Clear 22 1013 81 10000 0.38 276 20:54 12.09.2022
1830 Clear 25 1013 67 10000 1.54 150 19:26 12.09.2022
1831 Clear 27 1013 63 10000 2.57 170 17:46 12.09.2022
1832 Clear 27 1014 66 10000 3.6 160 15:40 12.09.2022
1833 Clear 27 1015 62 10000 3.09 140 12:26 12.09.2022
1834 Clear 25 1015 51 10000 2.57 320 10:24 12.09.2022
1835 Clear 20 1014 70 10000 4.63 340 05:57 12.09.2022
1836 Clear 21 1014 70 10000 3.09 340 04:32 12.09.2022
1837 Clear 22 1014 65 10000 3.6 320 00:42 12.09.2022
1838 Clear 22 1014 67 10000 2.06 310 22:45 11.09.2022
1839 Clear 23 1013 67 10000 1.03 270 21:22 11.09.2022
1840 Clear 24 1013 70 10000 1.54 220 20:43 11.09.2022
1841 Clouds 25 1013 65 10000 2.57 190 19:27 11.09.2022
1842 Clouds 26 1013 62 10000 3.09 200 18:58 11.09.2022
1843 Clouds 27 1013 60 10000 3.09 190 17:26 11.09.2022
1844 Clouds 28 1014 57 10000 3.6 180 15:46 11.09.2022
1845 Clouds 27 1014 59 10000 3.09 170 13:19 11.09.2022
1846 Clouds 26 1014 56 10000 1.54 0 11:25 11.09.2022
1847 Clouds 20 1014 57 10000 6.69 330 08:19 11.09.2022
1848 Clear 20 1012 64 10000 5.14 340 05:19 11.09.2022
1849 Clear 22 1011 58 10000 3.6 340 23:50 10.09.2022
1850 Clear 22 1011 59 10000 3.09 310 22:21 10.09.2022
1851 Clear 23 1011 65 10000 2.57 70 20:33 10.09.2022
1852 Clear 24 1011 62 10000 2.57 50 19:43 10.09.2022
1853 Clear 26 1011 59 10000 3.6 90 19:25 10.09.2022
1854 Clear 27 1011 53 10000 3.09 70 17:27 10.09.2022
1855 Clear 28 1012 40 10000 2.57 150 15:35 10.09.2022
1856 Clear 27 1012 49 10000 2.57 160 13:36 10.09.2022
1857 Clear 27 1013 47 10000 3.6 200 12:30 10.09.2022
1858 Clouds 24 1012 45 10000 1.08 199 10:31 10.09.2022
1859 Clear 23 1012 36 10000 5.14 320 08:41 10.09.2022
1860 Clear 22 1012 34 10000 5.14 300 08:20 10.09.2022
1861 Clear 22 1011 42 10000 1.03 0 03:48 10.09.2022
1862 Clear 25 1011 46 10000 10.29 250 23:36 09.09.2022
1863 Clear 27 1012 34 10000 11.32 260 22:36 09.09.2022
1864 Clear 27 1010 35 10000 9.77 270 20:57 09.09.2022
1865 Clear 27 1010 32 10000 10.8 270 20:19 09.09.2022
1866 Clear 29 1010 29 10000 9.77 270 19:22 09.09.2022
1867 Clouds 30 1010 29 10000 12.35 270 17:29 09.09.2022
1868 Clouds 31 1010 26 10000 10.8 270 15:19 09.09.2022
1869 Clouds 31 1011 32 10000 10.29 270 13:31 09.09.2022
1870 Clear 29 1011 37 10000 10.29 240 11:27 09.09.2022
1871 Clear 21 1011 46 10000 5.14 320 07:57 09.09.2022
1872 Clear 23 1009 47 10000 3.09 290 03:37 09.09.2022
1873 Clear 24 1009 51 10000 2.06 250 00:21 09.09.2022
1874 Clear 25 1008 50 10000 4.12 260 21:52 08.09.2022
1875 Clear 27 1008 50 10000 7.2 250 20:49 08.09.2022
1876 Clear 27 1008 50 10000 7.2 250 20:49 08.09.2022
1877 Clear 28 1008 48 10000 7.2 240 20:27 08.09.2022
1878 Clear 29 1007 42 10000 8.23 220 19:18 08.09.2022
1879 Clear 30 1007 40 10000 10.29 250 17:25 08.09.2022
1880 Clouds 30 1008 41 10000 9.77 240 15:53 08.09.2022
1881 Clear 29 1009 60 10000 7.72 210 13:30 08.09.2022
1882 Clear 28 1009 57 10000 7.2 200 12:41 08.09.2022
1883 Clear 26 1010 63 10000 4.63 220 11:23 08.09.2022
1884 Clear 24 1010 64 10000 4.12 320 09:46 08.09.2022
1885 Clouds 21 1011 79 10000 3.6 340 07:25 08.09.2022
1886 Rain 22 1011 82 10000 7.72 320 04:53 08.09.2022
1887 Rain 23 1011 79 10000 3.09 330 02:36 08.09.2022
1888 Rain 23 1011 79 10000 3.09 330 02:18 08.09.2022
1889 Clouds 24 1013 84 10000 2.06 310 23:25 07.09.2022
1890 Clouds 24 1012 83 10000 0.84 306 21:46 07.09.2022
1891 Clouds 25 1012 83 10000 2.06 100 21:24 07.09.2022
1892 Clouds 25 1012 83 10000 2.06 130 20:29 07.09.2022
1893 Clouds 27 1012 77 10000 2.57 100 19:23 07.09.2022
1894 Clouds 28 1013 69 10000 2.57 110 16:30 07.09.2022
1895 Clouds 27 1015 72 10000 1.54 60 11:28 07.09.2022
1896 Clouds 25 1014 76 10000 3.09 340 10:32 07.09.2022
1897 Clouds 24 1015 81 10000 3.6 330 08:33 07.09.2022
1898 Clouds 22 1015 83 10000 2.57 320 06:31 07.09.2022
1899 Clouds 22 1015 83 10000 2.57 320 06:31 07.09.2022
1900 Clouds 23 1015 83 10000 4.63 330 00:49 07.09.2022
1901 Clear 24 1015 83 10000 1.38 44 21:58 06.09.2022
1902 Clear 24 1015 83 10000 1.45 46 21:36 06.09.2022
1903 Clouds 27 1015 75 10000 2.57 100 19:39 06.09.2022
1904 Clouds 28 1015 72 10000 2.57 90 18:40 06.09.2022
1905 Clouds 29 1017 66 10000 3.6 110 17:50 06.09.2022
1906 Clouds 29 1017 66 10000 3.6 110 16:53 06.09.2022
1907 Clouds 29 1016 68 10000 4.12 110 16:25 06.09.2022
1908 Clouds 29 1017 70 10000 5.14 90 14:49 06.09.2022
1909 Clouds 29 1017 69 10000 5.66 100 13:44 06.09.2022
1910 Clouds 29 1017 62 10000 4.12 100 13:19 06.09.2022
1911 Clouds 27 1018 60 10000 3.09 40 10:57 06.09.2022
1912 Clouds 25 1018 63 10000 3.6 330 09:56 06.09.2022
1913 Clouds 23 1018 68 10000 4.12 330 08:27 06.09.2022
1914 Clouds 23 1018 69 10000 4.63 330 06:22 06.09.2022
1915 Clear 23 1018 69 10000 3.09 330 01:23 06.09.2022
1916 Clear 24 1018 69 10000 2.57 330 23:19 05.09.2022
1917 Clear 24 1019 76 10000 1.03 50 21:39 05.09.2022
1918 Clouds 25 1018 76 10000 1.54 80 20:32 05.09.2022
1919 Clouds 28 1019 63 10000 2.06 110 18:59 05.09.2022
1920 Clouds 29 1019 59 10000 2.57 90 18:38 05.09.2022
1921 Clouds 29 1019 57 10000 2.57 90 18:19 05.09.2022
1922 Clouds 29 1020 66 10000 3.09 110 16:27 05.09.2022
1923 Clouds 29 1020 62 10000 3.6 110 15:29 05.09.2022
1924 Clouds 29 1020 66 10000 4.63 90 13:21 05.09.2022
1925 Clouds 28 1021 62 10000 3.09 90 11:53 05.09.2022
1926 Clear 25 1021 68 10000 3.6 330 09:19 05.09.2022
1927 Clear 22 1019 76 10000 3.6 330 06:40 05.09.2022
1928 Clear 23 1020 76 10000 3.09 330 01:56 05.09.2022
1929 Clouds 24 1019 75 10000 2.57 330 22:44 04.09.2022
1930 Clouds 24 1019 77 10000 2.06 30 22:26 04.09.2022
1931 Clouds 25 1018 76 10000 2.06 110 20:43 04.09.2022
1932 Clouds 27 1017 71 10000 4.12 100 19:20 04.09.2022
1933 Clouds 27 1018 67 10000 5.14 100 17:50 04.09.2022
1934 Clouds 28 1018 65 10000 5.66 90 16:28 04.09.2022
1935 Clouds 28 1018 66 10000 6.69 100 14:27 04.09.2022
1936 Clouds 28 1018 67 10000 7.2 110 13:28 04.09.2022
1937 Clouds 28 1018 67 10000 7.2 110 13:28 04.09.2022
1938 Clouds 28 1017 63 10000 2.06 100 11:52 04.09.2022
1939 Clouds 24 1016 66 10000 5.66 330 09:56 04.09.2022
1940 Clouds 20 1016 76 10000 4.12 330 07:29 04.09.2022
1941 Clouds 21 1015 76 10000 4.12 330 04:44 04.09.2022
1942 Clouds 21 1014 82 10000 4.63 330 00:42 04.09.2022
1943 Clouds 22 1014 83 10000 3.09 40 22:21 03.09.2022
1944 Clouds 23 1014 78 10000 3.09 20 21:23 03.09.2022
1945 Rain 24 1013 81 10000 4.12 60 19:00 03.09.2022
1946 Rain 26 1013 80 10000 1.54 120 17:26 03.09.2022
1947 Rain 26 1013 80 10000 3.6 120 16:27 03.09.2022
1948 Clouds 26 1014 75 10000 5.14 110 14:45 03.09.2022
1949 Clouds 27 1014 72 10000 4.63 110 13:58 03.09.2022
1950 Clouds 26 1014 65 10000 2.57 130 12:19 03.09.2022
1951 Clouds 25 1013 63 10000 3.09 330 10:41 03.09.2022
1952 Clouds 21 1012 73 10000 5.14 330 08:28 03.09.2022
1953 Clouds 21 1013 72 10000 5.66 330 06:58 03.09.2022
1954 Clear 21 1012 75 10000 4.12 330 04:34 03.09.2022
1955 Clear 21 1012 76 10000 6.17 320 00:29 03.09.2022
1956 Clouds 22 1012 76 10000 4.63 340 23:20 02.09.2022
1957 Clouds 22 1012 78 10000 2.57 50 20:59 02.09.2022
1958 Clouds 23 1012 76 10000 3.6 350 20:39 02.09.2022
1959 Clouds 23 1011 76 10000 4.63 10 19:30 02.09.2022
1960 Rain 23 1013 78 10000 4.63 340 18:43 02.09.2022
1961 Rain 24 1013 74 10000 0.51 0 18:24 02.09.2022
1962 Rain 25 1012 73 10000 4.63 90 16:49 02.09.2022
1963 Clouds 27 1013 65 10000 6.17 100 15:21 02.09.2022
1964 Clouds 26 1014 73 10000 6.17 100 12:43 02.09.2022
1965 Clouds 25 1013 76 10000 7.72 80 10:22 02.09.2022
1966 Clouds 24 1013 79 10000 8.23 70 09:41 02.09.2022
1967 Clouds 21 1013 80 10000 4.63 340 07:36 02.09.2022
1968 Clear 22 1012 82 10000 4.12 340 06:40 02.09.2022
1969 Clear 22 1012 83 10000 4.12 330 03:52 02.09.2022
1970 Clear 23 1012 85 10000 2.57 320 22:45 01.09.2022
1971 Clear 24 1011 85 10000 2.06 260 21:44 01.09.2022
1972 Clouds 24 1011 83 10000 1.54 230 21:25 01.09.2022
1973 Clouds 25 1011 82 10000 1.03 0 20:46 01.09.2022
1974 Clouds 26 1011 77 10000 2.57 200 18:57 01.09.2022
1975 Clouds 28 1011 67 10000 2.57 170 17:47 01.09.2022
1976 Clouds 28 1011 64 10000 4.63 170 16:29 01.09.2022
1977 Clouds 29 1010 58 10000 6.17 180 14:33 01.09.2022
1978 Clouds 28 1010 67 10000 5.14 190 12:59 01.09.2022
1979 Clouds 28 1010 57 10000 2.57 190 11:54 01.09.2022
1980 Clouds 28 1010 52 10000 2.57 330 11:33 01.09.2022
1981 Clouds 28 1010 58 10000 3.09 330 10:45 01.09.2022
1982 Clouds 23 1010 71 10000 5.14 350 08:31 01.09.2022
1983 Clouds 22 1010 74 10000 2.57 330 06:23 01.09.2022
1984 Clouds 24 1011 76 10000 2.57 330 01:34 01.09.2022
1985 Clouds 24 1011 79 10000 2.06 70 00:19 01.09.2022
1986 Clouds 24 1011 79 10000 1.58 84 21:45 31.08.2022
1987 Clouds 27 1010 71 10000 1.54 0 19:59 31.08.2022
1988 Clouds 28 1011 67 10000 2.06 150 18:19 31.08.2022
1989 Clouds 28 1012 66 10000 3.6 110 16:31 31.08.2022
1990 Clouds 29 1012 67 10000 4.63 110 14:44 31.08.2022
1991 Clouds 28 1013 68 10000 5.66 90 12:25 31.08.2022
1992 Clouds 27 1013 70 10000 6.17 80 11:37 31.08.2022
1993 Clouds 24 1012 67 10000 4.12 320 09:25 31.08.2022
1994 Clear 22 1013 75 10000 3.6 350 06:19 31.08.2022
1995 Clouds 24 1014 81 10000 4.12 340 23:25 30.08.2022
1996 Clouds 25 1015 81 10000 1.03 350 21:49 30.08.2022
1997 Clouds 25 1014 83 10000 3.6 190 20:59 30.08.2022
1998 Rain 27 1014 74 10000 6.17 210 18:52 30.08.2022
1999 Clouds 30 1015 65 10000 8.23 210 15:43 30.08.2022
2000 Clouds 29 1016 73 10000 5.14 190 13:25 30.08.2022
2001 Clouds 27 1017 73 10000 2.06 150 11:22 30.08.2022
2002 Clouds 27 1017 70 10000 1.54 0 10:57 30.08.2022
2003 Clouds 27 1017 70 10000 1.54 0 10:57 30.08.2022
2004 Rain 25 1016 78 10000 2.06 340 08:46 30.08.2022
2005 Clear 23 1015 79 10000 3.09 310 03:55 30.08.2022
2006 Clear 24 1015 80 10000 2.57 330 00:26 30.08.2022
2007 Clouds 25 1015 83 10000 1.03 0 22:34 29.08.2022
2008 Clear 25 1015 80 10000 1.03 0 21:34 29.08.2022
2009 Clouds 26 1014 78 10000 1.03 0 20:34 29.08.2022
2010 Clouds 28 1014 76 10000 3.09 190 18:55 29.08.2022
2011 Clouds 29 1015 73 10000 2.06 160 17:26 29.08.2022
2012 Clouds 28 1015 76 10000 2.57 160 16:56 29.08.2022
2013 Clouds 29 1016 67 10000 3.09 160 15:18 29.08.2022
2014 Clouds 30 1016 70 10000 5.14 120 13:40 29.08.2022
2015 Clouds 29 1016 70 10000 3.6 130 12:20 29.08.2022
2016 Clouds 28 1016 59 10000 3.09 340 10:42 29.08.2022
2017 Clouds 25 1016 75 10000 3.09 340 08:53 29.08.2022
2018 Clouds 23 1014 80 10000 3.6 330 06:30 29.08.2022
2019 Clouds 23 1014 81 10000 2.57 330 02:25 29.08.2022
2020 Clouds 25 1014 82 10000 3.09 40 23:33 28.08.2022
2021 Clouds 25 1013 81 10000 1.54 190 21:47 28.08.2022
2022 Clouds 25 1013 80 10000 1.03 0 21:25 28.08.2022
2023 Clouds 25 1013 80 10000 1.03 0 21:25 28.08.2022
2024 Clouds 26 1012 79 10000 3.09 140 20:18 28.08.2022
2025 Clouds 26 1012 79 10000 3.09 140 20:18 28.08.2022
2026 Clouds 28 1012 75 10000 2.57 130 18:22 28.08.2022
2027 Clouds 28 1013 75 10000 3.6 150 17:51 28.08.2022
2028 Clouds 28 1013 72 10000 3.09 130 16:44 28.08.2022
2029 Clouds 28 1012 76 10000 3.6 130 15:33 28.08.2022
2030 Clouds 29 1012 71 10000 3.6 160 13:19 28.08.2022
2031 Clouds 28 1012 72 10000 2.57 170 11:59 28.08.2022
2032 Clouds 28 1012 69 10000 1.54 0 10:20 28.08.2022
2033 Clouds 25 1012 68 10000 4.12 340 09:24 28.08.2022
2034 Clouds 23 1011 77 10000 3.6 330 07:56 28.08.2022
2035 Clouds 23 1012 75 10000 4.12 330 07:26 28.08.2022
2036 Clouds 24 1011 82 10000 3.09 320 00:45 28.08.2022
2037 Clouds 24 1010 82 10000 1.03 140 23:28 27.08.2022
2038 Clear 25 1009 81 10000 1.03 110 22:27 27.08.2022
2039 Clear 25 1009 81 10000 1.03 110 22:27 27.08.2022
2040 Clear 26 1009 80 10000 1.54 140 20:36 27.08.2022
2041 Clear 27 1008 74 10000 1.54 110 19:29 27.08.2022
2042 Clouds 27 1009 75 10000 2.06 110 16:30 27.08.2022
2043 Clouds 29 1009 70 10000 4.12 110 15:31 27.08.2022
2044 Clouds 29 1009 70 10000 3.6 110 13:30 27.08.2022
2045 Clouds 29 1009 69 10000 3.09 130 12:22 27.08.2022
2046 Clear 28 1010 54 10000 1.54 0 10:30 27.08.2022
2047 Clouds 26 1008 65 10000 4.12 330 09:36 27.08.2022
2048 Clouds 23 1009 69 10000 4.63 320 06:54 27.08.2022
2049 Clear 24 1009 68 10000 2.57 330 02:24 27.08.2022
2050 Clear 25 1009 74 10000 2.06 340 23:49 26.08.2022
2051 Clouds 25 1009 83 10000 1.54 0 21:53 26.08.2022
2052 Rain 26 1008 82 10000 1.03 0 20:22 26.08.2022
2053 Clouds 27 1010 78 10000 2.06 130 18:19 26.08.2022
2054 Clouds 28 1010 74 10000 2.57 130 16:40 26.08.2022
2055 Clouds 30 1010 67 10000 2.57 140 15:25 26.08.2022
2056 Clouds 30 1010 71 10000 4.12 110 13:20 26.08.2022
2057 Clouds 30 1011 72 10000 3.6 90 12:34 26.08.2022
2058 Clouds 29 1011 70 10000 4.63 80 11:22 26.08.2022
2059 Clouds 27 1011 70 10000 3.6 80 09:53 26.08.2022
2060 Clear 24 1010 75 10000 2.57 330 04:56 26.08.2022
2061 Clear 25 1011 73 10000 2.06 70 00:55 26.08.2022
2062 Clear 26 1011 76 10000 1.54 140 22:57 25.08.2022
2063 Clouds 26 1011 76 10000 1.54 140 20:59 25.08.2022
2064 Clear 28 1011 69 10000 2.06 130 19:47 25.08.2022
2065 Clear 29 1011 61 10000 2.06 160 18:47 25.08.2022
2066 Clear 30 1012 54 10000 2.57 170 17:32 25.08.2022
2067 Clear 30 1012 56 10000 2.57 140 16:46 25.08.2022
2068 Clear 31 1012 52 10000 2.57 160 15:37 25.08.2022
2069 Clear 30 1013 54 10000 2.57 160 14:30 25.08.2022
2070 Clear 29 1014 57 10000 2.57 120 11:34 25.08.2022
2071 Clear 29 1014 54 10000 1.54 80 10:46 25.08.2022
2072 Clear 26 1013 58 10000 2.06 340 08:41 25.08.2022
2073 Clouds 25 1013 64 10000 4.12 330 04:40 25.08.2022
2074 Clouds 25 1014 66 10000 4.12 310 00:26 25.08.2022
2075 Clear 25 1014 71 10000 1.54 280 23:25 24.08.2022
2076 Clear 25 1014 71 10000 1.03 0 22:18 24.08.2022
2077 Clear 26 1013 69 10000 1.03 0 21:32 24.08.2022
2078 Clear 27 1013 65 10000 1.54 170 20:23 24.08.2022
2079 Clear 29 1014 54 10000 2.57 130 18:39 24.08.2022
2080 Clear 30 1013 53 10000 3.09 110 16:23 24.08.2022
2081 Clear 30 1014 55 10000 4.12 110 15:48 24.08.2022
2082 Clear 30 1014 58 10000 4.12 120 12:53 24.08.2022
2083 Clouds 29 1014 63 10000 4.63 110 11:22 24.08.2022
2084 Clouds 27 1013 58 10000 2.06 50 09:20 24.08.2022
2085 Clouds 24 1014 52 10000 2.06 350 07:43 24.08.2022
2086 Clear 25 1012 55 10000 4.63 320 01:43 24.08.2022
2087 Clear 26 1012 64 10000 1.54 0 22:53 23.08.2022
2088 Clear 26 1012 66 10000 1.54 240 22:29 23.08.2022
2089 Clear 26 1011 66 10000 2.57 230 21:27 23.08.2022
2090 Clear 28 1011 66 10000 3.6 190 19:54 23.08.2022
2091 Clear 30 1011 60 10000 3.09 190 18:33 23.08.2022
2092 Clear 30 1011 58 10000 3.09 180 17:47 23.08.2022
2093 Clear 30 1011 63 10000 2.57 160 16:50 23.08.2022
2094 Clouds 30 1011 64 10000 3.09 160 15:23 23.08.2022
2095 Clouds 29 1011 69 10000 3.6 180 13:26 23.08.2022
2096 Clear 29 1010 65 10000 3.09 150 11:24 23.08.2022
2097 Clear 28 1010 66 10000 2.06 120 10:36 23.08.2022
2098 Clear 27 1011 60 10000 1.54 0 09:52 23.08.2022
2099 Clear 25 1009 64 10000 4.12 340 08:51 23.08.2022
2100 Clear 24 1009 69 10000 3.6 330 08:20 23.08.2022
2101 Clear 23 1010 65 10000 3.6 330 07:34 23.08.2022
2102 Clear 23 1009 70 10000 3.09 330 06:27 23.08.2022
2103 Clear 24 1008 70 10000 2.57 350 03:24 23.08.2022
2104 Clear 25 1008 67 10000 2.57 320 00:28 23.08.2022
2105 Clear 25 1007 72 10000 2.06 340 23:33 22.08.2022
2106 Clear 25 1007 75 10000 2.57 260 22:44 22.08.2022
2107 Clouds 26 1007 76 10000 1.54 220 21:25 22.08.2022
2108 Clouds 27 1007 71 10000 2.57 170 19:48 22.08.2022
2109 Clouds 27 1007 70 10000 2.57 210 19:48 22.08.2022
2110 Clouds 27 1007 70 10000 1.54 170 18:45 22.08.2022
2111 Clouds 30 1007 59 10000 1.66 198 17:18 22.08.2022
2112 Clouds 29 1008 70 10000 3.6 130 15:39 22.08.2022
2113 Clouds 29 1008 70 10000 3.6 130 15:39 22.08.2022
2114 Clouds 29 1008 67 10000 3.09 130 13:57 22.08.2022
2115 Clouds 27 1008 60 10000 1.54 0 10:43 22.08.2022
2116 Clouds 23 1008 73 10000 3.6 330 07:59 22.08.2022
2117 Clear 23 1007 71 10000 2.57 20 04:25 22.08.2022
2118 Clear 25 1008 74 10000 2.06 70 00:43 22.08.2022
2119 Clear 25 1008 73 10000 2.06 60 00:23 22.08.2022
2120 Clouds 25 1008 74 10000 1.03 130 22:22 21.08.2022
2121 Clouds 26 1009 75 10000 1.54 100 21:28 21.08.2022
2122 Clouds 26 1008 79 10000 1.03 0 20:56 21.08.2022
2123 Clouds 28 1008 72 10000 2.06 120 19:26 21.08.2022
2124 Clouds 30 1008 65 10000 4.63 110 17:35 21.08.2022
2125 Clouds 30 1009 68 10000 5.14 110 15:53 21.08.2022
2126 Clouds 30 1009 70 10000 4.63 120 15:22 21.08.2022
2127 Clouds 30 1009 67 10000 4.63 110 13:53 21.08.2022
2128 Clouds 29 1009 68 10000 4.63 110 13:30 21.08.2022
2129 Clear 29 1010 66 10000 5.14 110 11:54 21.08.2022
2130 Clear 26 1010 65 10000 2.57 40 09:31 21.08.2022
2131 Clouds 25 1010 67 10000 1.54 10 08:56 21.08.2022
2132 Clouds 25 1011 58 10000 2.06 340 08:38 21.08.2022
2133 Clear 23 1011 61 10000 1.54 20 07:27 21.08.2022
2134 Clear 24 1010 65 10000 2.06 10 03:41 21.08.2022
2135 Clear 25 1011 62 10000 3.6 330 00:24 21.08.2022
2136 Clouds 25 1011 63 10000 2.57 10 22:59 20.08.2022
2137 Clouds 26 1011 70 10000 2.06 110 21:39 20.08.2022
2138 Clouds 27 1010 66 10000 2.57 90 20:44 20.08.2022
2139 Clouds 29 1010 65 10000 2.57 90 19:41 20.08.2022
2140 Clouds 30 1010 62 10000 2.06 170 18:33 20.08.2022
2141 Clouds 30 1011 64 10000 2.06 150 17:58 20.08.2022
2142 Clouds 30 1011 61 10000 2.06 150 17:18 20.08.2022
2143 Clouds 30 1011 64 10000 2.57 160 15:50 20.08.2022
2144 Clouds 29 1011 74 10000 3.09 160 13:36 20.08.2022
2145 Clear 29 1011 65 10000 3.09 130 11:53 20.08.2022
2146 Clear 29 1011 53 10000 2.06 100 10:36 20.08.2022
2147 Clear 25 1011 60 10000 3.09 340 08:53 20.08.2022
2148 Clear 23 1010 64 10000 4.12 330 05:59 20.08.2022
2149 Clear 23 1010 69 10000 1.54 330 03:28 20.08.2022
2150 Clear 25 1010 62 10000 1.54 0 00:51 20.08.2022
2151 Clear 25 1010 63 10000 4.12 30 23:19 19.08.2022
2152 Clear 25 1010 62 10000 3.09 30 22:35 19.08.2022
2153 Clouds 26 1009 69 10000 4.63 80 20:29 19.08.2022
2154 Clouds 28 1009 62 10000 2.06 170 18:51 19.08.2022
2155 Clouds 28 1009 59 10000 4.12 170 15:51 19.08.2022
2156 Clouds 27 1009 60 10000 3.09 170 13:40 19.08.2022
2157 Clouds 27 1009 52 10000 3.6 200 11:39 19.08.2022
2158 Clouds 27 1009 50 10000 3.09 330 10:29 19.08.2022
2159 Clouds 21 1008 62 10000 5.14 360 07:21 19.08.2022
2160 Clouds 22 1007 65 10000 3.09 360 02:23 19.08.2022
2161 Clouds 22 1008 61 10000 4.12 340 00:32 19.08.2022
2162 Clouds 23 1008 63 10000 3.6 310 23:48 18.08.2022
2163 Clouds 23 1008 68 10000 4.12 320 22:52 18.08.2022
2164 Clouds 23 1008 70 10000 2.57 340 22:18 18.08.2022
2165 Clouds 23 1008 77 10000 3.09 320 21:40 18.08.2022
2166 Clouds 24 1008 78 10000 2.57 270 20:32 18.08.2022
2167 Clouds 24 1009 77 10000 3.09 130 19:32 18.08.2022
2168 Clouds 25 1008 71 10000 4.12 120 18:29 18.08.2022
2169 Clouds 26 1008 71 10000 6.17 130 17:29 18.08.2022
2170 Clouds 27 1008 69 10000 7.72 120 15:27 18.08.2022
2171 Clouds 26 1008 71 10000 3.09 160 14:20 18.08.2022
2172 Clouds 26 1008 71 10000 6.17 200 13:40 18.08.2022
2173 Clouds 25 1007 69 10000 3.09 240 12:27 18.08.2022
2174 Rain 23 1004 72 10000 8.23 20 10:51 18.08.2022
2175 Rain 22 1007 74 10000 4.12 340 09:42 18.08.2022
2176 Rain 21 1009 76 10000 4.63 340 07:26 18.08.2022
2177 Thunderstorm 21 1006 78 10000 4.63 10 05:30 18.08.2022
2178 Rain 23 1011 75 10000 3.09 330 00:23 18.08.2022
2179 Clear 23 1011 72 10000 3.6 320 22:28 17.08.2022
2180 Clear 25 1011 67 10000 2.57 50 20:21 17.08.2022
2181 Clear 25 1011 67 10000 2.57 50 20:21 17.08.2022
2182 Clear 25 1010 64 10000 3.6 10 19:33 17.08.2022
2183 Clear 25 1010 64 10000 3.6 10 19:33 17.08.2022
2184 Clear 25 1011 65 10000 7.2 60 18:32 17.08.2022
2185 Clouds 24 1012 74 10000 7.72 60 16:50 17.08.2022
2186 Thunderstorm 21 1013 94 4000 8.75 340 15:41 17.08.2022
2187 Thunderstorm 25 1012 79 10000 2.06 340 14:29 17.08.2022
2188 Rain 27 1011 71 10000 7.2 80 12:22 17.08.2022
2189 Rain 26 1011 67 10000 3.6 360 10:25 17.08.2022
2190 Rain 25 1010 66 10000 5.66 350 08:26 17.08.2022
2191 Clouds 23 1010 73 10000 4.63 320 05:35 17.08.2022
2192 Clouds 25 1010 72 10000 5.66 350 00:50 17.08.2022
2193 Clouds 25 1010 74 10000 2.57 330 23:18 16.08.2022
2194 Clouds 26 1009 81 10000 2.57 100 21:21 16.08.2022
2195 Clouds 27 1009 76 10000 3.09 100 20:20 16.08.2022
2196 Clouds 29 1009 72 10000 3.6 100 19:26 16.08.2022
2197 Clouds 29 1010 70 10000 2.57 120 17:55 16.08.2022
2198 Clouds 30 1010 67 10000 4.12 120 16:48 16.08.2022
2199 Clouds 29 1010 68 10000 5.14 130 15:45 16.08.2022
2200 Clouds 30 1010 65 10000 4.12 130 14:54 16.08.2022
2201 Clouds 30 1010 66 10000 4.63 130 14:36 16.08.2022
2202 Clouds 30 1009 70 10000 4.12 100 12:33 16.08.2022
2203 Clear 28 1009 50 10000 3.6 320 10:23 16.08.2022
2204 Clouds 25 1008 67 10000 4.63 330 08:54 16.08.2022
2205 Clouds 24 1008 69 10000 4.63 330 08:21 16.08.2022
2206 Clouds 22 1007 76 10000 4.63 340 06:32 16.08.2022
2207 Clear 24 1006 79 10000 3.09 330 00:32 16.08.2022
2208 Clear 25 1005 80 10000 2.06 120 22:24 15.08.2022
2209 Clear 25 1005 80 10000 2.57 120 21:50 15.08.2022
2210 Clear 27 1005 77 10000 1.03 0 20:32 15.08.2022
2211 Clouds 27 1006 74 10000 1.54 0 19:59 15.08.2022
2212 Clouds 30 1005 64 10000 2.06 140 17:59 15.08.2022
2213 Clouds 29 1006 62 10000 3.09 180 16:25 15.08.2022
2214 Clouds 28 1006 65 10000 3.09 200 15:54 15.08.2022
2215 Clouds 28 1006 63 10000 4.63 150 13:54 15.08.2022
2216 Clear 29 1006 51 10000 4.12 100 11:25 15.08.2022
2217 Clear 25 1006 59 10000 5.14 340 09:42 15.08.2022
2218 Clear 22 1007 59 10000 5.66 340 07:44 15.08.2022
2219 Clear 23 1006 62 10000 6.17 330 04:34 15.08.2022
2220 Clear 23 1007 65 10000 5.14 330 00:54 15.08.2022
2221 Clouds 24 1007 71 10000 3.09 70 22:38 14.08.2022
2222 Clouds 25 1007 68 10000 3.6 70 21:37 14.08.2022
2223 Rain 27 1008 64 10000 4.12 100 19:48 14.08.2022
2224 Clouds 27 1007 61 10000 6.69 90 18:58 14.08.2022
2225 Clouds 28 1007 57 10000 6.69 90 18:19 14.08.2022
2226 Clouds 28 1008 56 10000 6.69 80 16:53 14.08.2022
2227 Clouds 28 1008 55 10000 7.2 100 15:48 14.08.2022
2228 Clouds 29 1010 47 10000 6.17 90 14:27 14.08.2022
2229 Clouds 29 1010 48 10000 6.69 90 13:50 14.08.2022
2230 Clouds 29 1010 46 10000 6.17 100 13:20 14.08.2022
2231 Clouds 30 1010 44 10000 7.2 90 12:28 14.08.2022
2232 Clouds 28 1010 51 10000 2.03 106 10:50 14.08.2022
2233 Clouds 25 1010 62 10000 4.63 340 08:51 14.08.2022
2234 Clouds 24 1010 66 10000 3.6 340 06:22 14.08.2022
2235 Clear 24 1010 65 10000 3.09 340 02:49 14.08.2022
2236 Clouds 25 1012 60 10000 2.06 330 23:53 13.08.2022
2237 Clouds 25 1012 64 10000 0 0 22:52 13.08.2022
2238 Clouds 25 1011 68 10000 0.51 130 21:19 13.08.2022
2239 Clouds 26 1011 66 10000 1.03 0 20:43 13.08.2022
2240 Clouds 26 1011 65 10000 1.03 0 19:45 13.08.2022
2241 Clouds 28 1012 56 10000 4.63 90 17:59 13.08.2022
2242 Clouds 28 1011 59 10000 4.63 120 15:40 13.08.2022
2243 Clouds 28 1012 59 10000 5.14 120 14:32 13.08.2022
2244 Clouds 28 1012 59 10000 5.66 110 13:41 13.08.2022
2245 Clouds 27 1012 60 10000 6.17 110 11:53 13.08.2022
2246 Clouds 26 1012 69 10000 8.23 90 10:31 13.08.2022
2247 Clouds 25 1012 67 10000 8.23 80 09:19 13.08.2022
2248 Clouds 24 1011 76 10000 4.12 10 05:57 13.08.2022
2249 Clouds 25 1011 75 10000 4.12 40 00:30 13.08.2022
2250 Clouds 26 1010 73 10000 5.14 70 22:23 12.08.2022
2251 Clouds 26 1010 73 10000 4.12 90 21:20 12.08.2022
2252 Clouds 28 1010 68 10000 4.63 80 19:44 12.08.2022
2253 Clouds 29 1010 62 10000 4.63 100 18:58 12.08.2022
2254 Clouds 30 1011 58 10000 3.09 120 17:57 12.08.2022
2255 Clouds 30 1012 62 10000 3.6 110 16:24 12.08.2022
2256 Clouds 30 1012 63 10000 4.12 120 14:50 12.08.2022
2257 Clouds 30 1011 66 10000 5.66 110 12:59 12.08.2022
2258 Clear 30 1012 65 10000 4.63 100 11:39 12.08.2022
2259 Clear 26 1012 64 10000 4.63 350 08:48 12.08.2022
2260 Clear 24 1013 62 10000 5.14 330 07:44 12.08.2022
2261 Clear 25 1012 66 10000 7.2 350 03:56 12.08.2022
2262 Clear 26 1013 63 10000 4.12 310 00:31 12.08.2022
2263 Clear 26 1013 63 10000 4.63 320 23:42 11.08.2022
2264 Clear 26 1013 63 10000 3.09 260 22:42 11.08.2022
2265 Clouds 27 1013 64 10000 3.09 250 21:52 11.08.2022
2266 Clouds 27 1013 65 10000 3.09 250 21:26 11.08.2022
2267 Clouds 27 1014 66 10000 3.6 240 20:30 11.08.2022
2268 Clouds 28 1014 66 10000 3.09 210 19:33 11.08.2022
2269 Clouds 29 1014 62 10000 3.6 200 18:41 11.08.2022
2270 Clouds 29 1014 64 10000 2.57 180 16:46 11.08.2022
2271 Clouds 30 1015 60 10000 3.09 170 15:42 11.08.2022
2272 Clouds 30 1015 53 10000 3.6 170 14:32 11.08.2022
2273 Clear 29 1016 57 10000 1.54 120 11:53 11.08.2022
2274 Clouds 23 1016 75 10000 5.14 330 08:57 11.08.2022
2275 Clouds 24 1016 64 10000 2.57 360 05:58 11.08.2022
2276 Clear 25 1015 65 10000 5.14 330 02:33 11.08.2022
2277 Clear 26 1015 54 10000 5.14 340 23:41 10.08.2022
2278 Rain 26 1015 56 10000 4.63 330 21:47 10.08.2022
2279 Clouds 26 1015 53 10000 4.63 340 20:56 10.08.2022
2280 Clouds 26 1015 58 10000 5.14 360 20:35 10.08.2022
2281 Rain 26 1015 67 10000 5.66 350 18:53 10.08.2022
2282 Rain 27 1016 66 10000 2.06 210 17:27 10.08.2022
2283 Clouds 30 1016 63 10000 4.12 160 14:53 10.08.2022
2284 Clouds 30 1017 63 10000 4.12 130 13:33 10.08.2022
2285 Clear 30 1017 56 10000 4.12 90 10:50 10.08.2022
2286 Clear 27 1016 59 10000 3.6 330 08:39 10.08.2022
2287 Clear 26 1017 60 10000 3.6 330 07:35 10.08.2022
2288 Clear 27 1016 51 10000 3.6 340 04:50 10.08.2022
2289 Clear 27 1016 54 10000 2.57 340 01:52 10.08.2022
2290 Clouds 28 1016 63 10000 0 0 23:32 09.08.2022
2291 Clear 28 1016 66 10000 1.03 190 22:45 09.08.2022
2292 Clear 29 1016 63 10000 2.06 210 21:24 09.08.2022
2293 Clear 30 1015 54 10000 3.09 200 19:28 09.08.2022
2294 Clouds 31 1015 54 10000 2.57 170 17:53 09.08.2022
2295 Clouds 31 1016 48 10000 2.06 160 17:26 09.08.2022
2296 Clouds 31 1017 46 10000 2.57 180 16:30 09.08.2022
2297 Clouds 32 1016 48 10000 2.57 150 15:26 09.08.2022
2298 Clear 31 1017 45 10000 2.06 170 12:20 09.08.2022
2299 Clear 28 1017 52 10000 4.12 340 08:54 09.08.2022
2300 Clear 26 1017 56 10000 4.63 340 07:59 09.08.2022
2301 Clear 25 1015 58 10000 5.14 340 06:55 09.08.2022
2302 Clear 26 1015 67 10000 4.63 330 02:27 09.08.2022
2303 Clear 27 1015 60 10000 5.14 330 23:26 08.08.2022
2304 Clear 27 1015 59 10000 4.12 320 22:52 08.08.2022
2305 Clear 28 1014 63 10000 2.06 250 21:48 08.08.2022
2306 Clouds 28 1014 63 10000 1.54 200 20:51 08.08.2022
2307 Rain 29 1014 58 10000 2.06 240 19:50 08.08.2022
2308 Clouds 30 1014 55 10000 3.09 190 18:19 08.08.2022
2309 Clouds 31 1015 51 10000 2.57 170 15:57 08.08.2022
2310 Clouds 31 1015 52 10000 2.57 170 15:38 08.08.2022
2311 Clouds 32 1015 51 10000 2.57 120 12:39 08.08.2022
2312 Clear 31 1014 46 10000 2.06 120 11:32 08.08.2022
2313 Clear 25 1015 59 10000 6.69 330 08:26 08.08.2022
2314 Clouds 24 1013 62 10000 7.2 330 05:33 08.08.2022
2315 Clear 25 1012 56 10000 7.72 330 01:55 08.08.2022
2316 Clouds 28 1013 65 10000 2.06 210 21:51 07.08.2022
2317 Clouds 28 1013 66 10000 2.57 200 21:32 07.08.2022
2318 Clear 29 1011 60 10000 3.09 220 20:25 07.08.2022
2319 Clear 30 1011 57 10000 3.6 200 19:53 07.08.2022
2320 Clear 30 1012 52 10000 3.6 200 19:29 07.08.2022
2321 Clear 31 1012 53 10000 4.63 200 17:59 07.08.2022
2322 Clear 31 1012 48 10000 4.12 200 16:53 07.08.2022
2323 Clear 32 1011 51 10000 5.66 210 15:49 07.08.2022
2324 Clouds 32 1012 51 10000 6.17 200 14:35 07.08.2022
2325 Clouds 32 1012 54 10000 5.66 200 12:59 07.08.2022
2326 Clouds 31 1013 57 10000 3.6 200 10:59 07.08.2022
2327 Clear 30 1013 56 10000 3.09 330 10:28 07.08.2022
2328 Clear 25 1012 60 10000 3.6 330 04:58 07.08.2022
2329 Clear 26 1012 60 10000 4.12 330 03:18 07.08.2022
2330 Clear 27 1012 57 10000 4.12 340 23:37 06.08.2022
2331 Clear 28 1012 55 10000 4.63 330 22:20 06.08.2022
2332 Clouds 29 1011 49 10000 3.6 340 20:24 06.08.2022
2333 Clouds 30 1011 58 10000 3.6 230 19:39 06.08.2022
2334 Clouds 29 1012 75 10000 2.57 140 18:25 06.08.2022
2335 Clouds 29 1013 70 10000 2.57 150 17:28 06.08.2022
2336 Clouds 31 1013 66 10000 2.57 120 14:31 06.08.2022
2337 Clouds 31 1013 59 10000 2.57 120 13:40 06.08.2022
2338 Clouds 31 1013 63 10000 3.09 130 11:24 06.08.2022
2339 Clouds 29 1013 64 10000 1.54 0 09:51 06.08.2022
2340 Clouds 27 1013 61 10000 1.54 40 08:32 06.08.2022
2341 Clouds 25 1012 78 10000 2.57 40 03:51 06.08.2022
2342 Clear 27 1012 73 10000 2.57 160 23:34 05.08.2022
2343 Clear 28 1012 72 10000 2.06 170 22:23 05.08.2022
2344 Clear 31 1012 59 10000 3.09 190 19:33 05.08.2022
2345 Clear 30 1012 58 10000 2.57 180 18:44 05.08.2022
2346 Clear 32 1012 52 10000 2.06 90 17:54 05.08.2022
2347 Clear 31 1012 54 10000 2.57 120 16:49 05.08.2022
2348 Clear 32 1013 55 10000 4.12 190 15:22 05.08.2022
2349 Clear 32 1013 54 10000 4.12 120 14:31 05.08.2022
2350 Clear 32 1013 59 10000 4.12 110 13:24 05.08.2022
2351 Clear 32 1013 61 10000 4.12 110 12:29 05.08.2022
2352 Clear 31 1013 56 10000 4.12 100 10:51 05.08.2022
2353 Clear 28 1013 53 10000 2.57 330 08:30 05.08.2022
2354 Clear 26 1013 47 10000 2.06 360 06:56 05.08.2022
2355 Clear 27 1013 53 10000 3.6 320 01:28 05.08.2022
2356 Clear 28 1013 65 10000 2.06 210 22:32 04.08.2022
2357 Clear 28 1013 64 10000 2.06 200 21:27 04.08.2022
2358 Clear 29 1013 62 10000 2.06 200 20:44 04.08.2022
2359 Clouds 31 1013 57 10000 2.57 200 19:49 04.08.2022
2360 Clouds 31 1013 57 10000 3.6 200 18:51 04.08.2022
2361 Clouds 32 1013 56 10000 4.12 200 18:32 04.08.2022
2362 Clouds 33 1014 48 10000 2.57 160 14:39 04.08.2022
2363 Clouds 33 1014 51 10000 2.57 160 13:22 04.08.2022
2364 Clouds 33 1014 46 10000 2.57 120 11:37 04.08.2022
2365 Clouds 28 1014 51 10000 3.09 340 07:56 04.08.2022
2366 Clouds 27 1015 51 10000 3.6 340 07:27 04.08.2022
2367 Clear 28 1013 51 10000 5.14 330 02:42 04.08.2022
2368 Clear 28 1014 53 10000 3.09 300 23:52 03.08.2022
2369 Clear 27 1014 57 10000 2.57 310 23:33 03.08.2022
2370 Clear 28 1013 64 10000 2.06 210 21:26 03.08.2022
2371 Clear 30 1013 53 10000 1.54 170 20:19 03.08.2022
2372 Clouds 32 1013 50 10000 1.54 130 18:40 03.08.2022
2373 Clouds 32 1014 55 10000 2.57 130 16:27 03.08.2022
2374 Clouds 32 1014 53 10000 3.09 120 15:53 03.08.2022
2375 Clouds 32 1015 57 10000 4.12 130 13:38 03.08.2022
2376 Clear 31 1015 56 10000 1.54 100 10:44 03.08.2022
2377 Clear 26 1013 66 10000 3.09 340 07:23 03.08.2022
2378 Clear 26 1013 61 10000 5.14 330 04:22 03.08.2022
2379 Clear 26 1013 63 10000 1.54 360 03:23 03.08.2022
2380 Clear 27 1013 61 10000 3.6 330 00:49 03.08.2022
2381 Clear 27 1013 63 10000 1.03 90 22:36 02.08.2022
2382 Clear 28 1013 60 10000 1.54 120 21:51 02.08.2022
2383 Clouds 30 1013 56 10000 2.06 80 20:30 02.08.2022
2384 Clear 31 1013 59 10000 2.57 80 17:52 02.08.2022
2385 Clouds 31 1014 60 10000 2.57 90 14:46 02.08.2022
2386 Clouds 30 1013 69 10000 6.69 80 10:51 02.08.2022
2387 Clouds 27 1012 61 10000 2.57 30 08:54 02.08.2022
2388 Clouds 25 1013 56 10000 3.6 330 07:52 02.08.2022
2389 Clouds 24 1011 65 10000 4.12 330 06:41 02.08.2022
2390 Clear 24 1012 64 10000 3.6 330 04:31 02.08.2022
2391 Clear 26 1013 67 10000 2.06 220 23:35 01.08.2022
2392 Clear 27 1013 64 10000 2.57 210 22:22 01.08.2022
2393 Clear 29 1012 60 10000 2.57 190 20:47 01.08.2022
2394 Clear 31 1012 50 10000 2.57 180 19:23 01.08.2022
2395 Clear 32 1012 46 10000 3.6 170 17:57 01.08.2022
2396 Clear 32 1013 46 10000 3.09 170 16:52 01.08.2022
2397 Clear 32 1013 44 10000 3.09 150 15:52 01.08.2022
2398 Clear 32 1013 44 10000 3.09 150 15:52 01.08.2022
2399 Clear 32 1013 45 10000 3.09 160 15:30 01.08.2022
2400 Clear 32 1013 50 10000 3.09 150 13:48 01.08.2022
2401 Clear 31 1014 49 10000 2.57 160 11:50 01.08.2022
2402 Clear 29 1014 45 10000 1.54 0 09:39 01.08.2022
2403 Clear 27 1014 44 10000 3.6 340 08:22 01.08.2022
2404 Clear 25 1013 51 10000 4.12 360 04:47 01.08.2022
2405 Clear 26 1012 54 10000 2.28 328 02:32 01.08.2022
2406 Clear 27 1013 43 10000 3.6 340 23:54 31.07.2022
2407 Clear 27 1013 51 10000 1.54 230 22:38 31.07.2022
2408 Clear 27 1013 64 10000 2.06 210 21:24 31.07.2022
2409 Clear 30 1012 52 10000 2.57 190 19:41 31.07.2022
2410 Clear 32 1013 47 10000 2.57 190 17:47 31.07.2022
2411 Clear 32 1014 45 10000 2.57 150 15:37 31.07.2022
2412 Clouds 32 1015 44 10000 3.6 110 13:42 31.07.2022
2413 Clear 32 1014 42 10000 4.12 170 11:55 31.07.2022
2414 Clear 29 1014 45 10000 3.09 340 09:43 31.07.2022
2415 Clouds 25 1015 47 10000 4.63 350 07:38 31.07.2022
2416 Clouds 26 1014 44 10000 5.66 330 02:58 31.07.2022
2417 Clear 26 1014 49 10000 4.12 320 23:36 30.07.2022
2418 Clear 26 1014 61 10000 1.54 230 22:19 30.07.2022
2419 Clear 26 1013 62 10000 1.03 200 21:48 30.07.2022
2420 Clouds 28 1013 60 10000 2.06 190 20:57 30.07.2022
2421 Clouds 30 1013 52 10000 3.09 220 19:59 30.07.2022
2422 Clouds 30 1013 50 10000 3.09 200 18:53 30.07.2022
2423 Clouds 30 1013 46 10000 2.57 190 17:44 30.07.2022
2424 Clouds 30 1013 62 10000 4.63 190 15:50 30.07.2022
2425 Clouds 30 1013 57 10000 4.63 190 15:22 30.07.2022
2426 Clouds 30 1013 59 10000 4.63 190 13:18 30.07.2022
2427 Clouds 29 1013 60 10000 3.6 180 12:19 30.07.2022
2428 Clouds 28 1013 61 10000 2.57 320 10:31 30.07.2022
2429 Clouds 28 1013 61 10000 2.57 320 10:31 30.07.2022
2430 Clouds 28 1013 60 10000 2.57 320 10:31 30.07.2022
2431 Clouds 28 1013 60 10000 2.57 320 10:31 30.07.2022
2432 Clouds 27 1013 61 10000 3.6 330 09:54 30.07.2022
2433 Clouds 24 1013 70 10000 5.14 330 07:55 30.07.2022
2434 Clear 23 1012 79 10000 4.12 320 03:55 30.07.2022
2435 Clear 23 1012 80 10000 3.6 330 02:25 30.07.2022
2436 Clear 25 1012 80 10000 2.06 20 22:44 29.07.2022
2437 Clear 25 1011 81 10000 2.57 170 21:24 29.07.2022
2438 Clear 27 1011 73 10000 2.57 160 20:39 29.07.2022
2439 Clouds 28 1013 65 10000 2.57 60 18:26 29.07.2022
2440 Thunderstorm 28 1013 72 10000 1.54 0 15:38 29.07.2022
2441 Clouds 29 1013 69 10000 3.6 130 13:37 29.07.2022
2442 Clouds 30 1013 68 10000 2.57 140 11:30 29.07.2022
2443 Clouds 27 1013 65 10000 2.57 20 08:50 29.07.2022
2444 Clouds 26 1014 65 10000 5.14 330 08:20 29.07.2022
2445 Clear 25 1012 65 10000 3.6 340 02:52 29.07.2022
2446 Clear 27 1012 61 10000 3.09 310 23:20 28.07.2022
2447 Clouds 28 1011 68 10000 1.54 170 21:30 28.07.2022
2448 Clouds 28 1011 65 10000 3.09 200 20:45 28.07.2022
2449 Clouds 29 1011 67 10000 3.09 200 19:44 28.07.2022
2450 Clouds 29 1011 66 10000 3.09 200 19:26 28.07.2022
2451 Clouds 30 1011 55 10000 3.09 180 17:45 28.07.2022
2452 Clouds 30 1011 56 10000 3.09 160 17:19 28.07.2022
2453 Clouds 30 1011 56 10000 3.09 130 16:39 28.07.2022
2454 Clouds 30 1012 64 10000 2.57 160 13:56 28.07.2022
2455 Clouds 30 1012 65 10000 3.6 110 12:33 28.07.2022
2456 Clouds 25 1011 67 10000 4.12 330 07:33 28.07.2022
2457 Clear 25 1010 76 10000 3.09 130 05:39 28.07.2022
2458 Clear 25 1010 75 10000 3.6 120 05:20 28.07.2022
2459 Clouds 27 1009 68 10000 2.06 270 23:19 27.07.2022
2460 Clouds 28 1008 66 10000 1.54 210 21:30 27.07.2022
2461 Clouds 29 1007 62 10000 1.54 0 19:48 27.07.2022
2462 Clouds 29 1007 62 10000 1.54 0 19:19 27.07.2022
2463 Clouds 30 1009 55 10000 2.57 150 16:31 27.07.2022
2464 Clouds 30 1009 55 10000 3.09 150 15:51 27.07.2022
2465 Clouds 30 1010 52 10000 4.12 130 14:41 27.07.2022
2466 Clouds 30 1010 50 10000 5.66 130 13:34 27.07.2022
2467 Clouds 28 1009 62 10000 6.17 80 09:29 27.07.2022
2468 Clouds 26 1009 73 10000 3.09 330 07:47 27.07.2022
2469 Clouds 25 1008 80 10000 3.09 340 04:53 27.07.2022
2470 Clouds 27 1007 78 10000 5.14 90 23:21 26.07.2022
2471 Clouds 27 1007 78 10000 5.14 90 21:49 26.07.2022
2472 Clear 28 1007 76 10000 6.69 100 20:49 26.07.2022
2473 Clear 31 1007 64 10000 7.2 90 19:22 26.07.2022
2474 Clear 31 1006 62 10000 2.92 94 18:40 26.07.2022
2475 Clear 32 1007 60 10000 0.45 253 17:47 26.07.2022
2476 Clouds 31 1009 60 10000 5.66 110 15:43 26.07.2022
2477 Clouds 31 1009 60 10000 5.66 110 15:43 26.07.2022
2478 Clear 31 1008 61 10000 5.66 110 14:43 26.07.2022
2479 Clouds 31 1009 63 10000 4.12 160 12:32 26.07.2022
2480 Clouds 30 1009 68 10000 2.57 100 10:20 26.07.2022
2481 Clouds 27 1010 69 10000 2.06 320 08:27 26.07.2022
2482 Clouds 27 1011 84 10000 5.14 90 01:52 26.07.2022
2483 Clouds 26 1011 85 10000 3.09 90 00:20 26.07.2022
2484 Clouds 27 1011 84 10000 1.54 170 22:40 25.07.2022
2485 Clouds 28 1010 80 10000 2.57 200 21:43 25.07.2022
2486 Clouds 28 1010 78 10000 4.12 200 20:43 25.07.2022
2487 Clouds 28 1010 77 10000 4.12 200 20:24 25.07.2022
2488 Clouds 29 1011 76 10000 3.6 190 19:24 25.07.2022
2489 Clouds 30 1012 73 10000 3.09 170 17:42 25.07.2022
2490 Clouds 30 1012 72 10000 3.09 170 17:20 25.07.2022
2491 Clouds 31 1014 70 10000 3.6 150 13:28 25.07.2022
2492 Clouds 30 1014 74 10000 3.09 140 10:55 25.07.2022
2493 Clouds 26 1014 80 10000 2.57 330 07:59 25.07.2022
2494 Clear 26 1015 78 10000 1.54 220 01:36 25.07.2022
2495 Clear 27 1014 77 10000 2.06 230 23:45 24.07.2022
2496 Clear 27 1014 75 10000 2.57 210 22:47 24.07.2022
2497 Clouds 28 1014 74 10000 1.54 160 21:48 24.07.2022
2498 Clear 29 1014 70 10000 1.03 0 21:18 24.07.2022
2499 Clear 29 1014 70 10000 1.03 0 20:44 24.07.2022
2500 Clouds 30 1014 69 10000 1.03 0 19:23 24.07.2022
2501 Clouds 30 1014 68 10000 1.54 150 18:26 24.07.2022
2502 Clouds 31 1016 65 10000 4.63 120 15:55 24.07.2022
2503 Clouds 31 1016 70 10000 5.66 120 15:31 24.07.2022
2504 Clouds 32 1016 70 10000 5.66 110 13:50 24.07.2022
2505 Clouds 31 1017 67 10000 6.17 100 12:50 24.07.2022
2506 Clouds 31 1016 70 10000 5.14 90 11:35 24.07.2022
2507 Clouds 30 1015 74 10000 5.66 90 10:26 24.07.2022
2508 Clouds 27 1015 77 10000 3.09 330 08:29 24.07.2022
2509 Clouds 26 1016 74 10000 3.09 330 07:44 24.07.2022
2510 Clouds 26 1014 81 10000 2.06 30 03:35 24.07.2022
2511 Clear 27 1014 82 10000 3.6 80 23:48 23.07.2022
2512 Clear 29 1013 80 10000 6.17 80 20:51 23.07.2022
2513 Clear 30 1013 70 10000 3.09 100 19:31 23.07.2022
2514 Clouds 31 1013 68 10000 2.06 110 18:49 23.07.2022
2515 Clouds 31 1014 69 10000 3.09 190 17:28 23.07.2022
2516 Clear 31 1014 67 10000 3.09 170 16:31 23.07.2022
2517 Clear 31 1015 64 10000 3.09 170 15:22 23.07.2022
2518 Clouds 31 1015 64 10000 3.09 170 14:56 23.07.2022
2519 Clouds 31 1015 64 10000 3.09 180 14:24 23.07.2022
2520 Clouds 31 1015 69 10000 5.66 130 12:44 23.07.2022
2521 Clouds 30 1015 69 10000 4.12 90 10:45 23.07.2022
2522 Clouds 29 1015 72 10000 3.6 90 09:56 23.07.2022
2523 Clouds 27 1015 75 10000 2.57 330 08:31 23.07.2022
2524 Clear 26 1014 75 10000 2.57 300 03:38 23.07.2022
2525 Clouds 27 1015 81 10000 2.06 220 00:49 23.07.2022
2526 Clouds 28 1015 77 10000 2.06 210 22:32 22.07.2022
2527 Clear 28 1014 74 10000 1.54 0 20:51 22.07.2022
2528 Clear 30 1014 70 10000 2.06 170 19:35 22.07.2022
2529 Clear 32 1014 66 10000 0.45 233 18:28 22.07.2022
2530 Clear 32 1015 66 10000 3.09 130 16:49 22.07.2022
2531 Clouds 32 1015 66 10000 4.12 130 14:51 22.07.2022
2532 Clouds 31 1016 70 10000 4.12 110 11:22 22.07.2022
2533 Clouds 29 1015 69 10000 1.54 60 09:26 22.07.2022
2534 Clouds 27 1015 67 10000 3.09 330 08:32 22.07.2022
2535 Clouds 25 1015 67 10000 3.6 330 06:59 22.07.2022
2536 Clear 26 1015 71 10000 2.57 30 02:25 22.07.2022
2537 Clear 27 1014 75 10000 1.03 0 22:43 21.07.2022
2538 Clear 28 1014 72 10000 1.54 140 21:33 21.07.2022
2539 Clear 31 1014 60 10000 2.57 90 19:28 21.07.2022
2540 Clouds 32 1015 64 10000 2.57 140 17:41 21.07.2022
2541 Clouds 32 1015 68 10000 3.09 130 17:19 21.07.2022
2542 Clouds 32 1015 68 10000 3.09 130 17:19 21.07.2022
2543 Clouds 33 1015 61 10000 5.66 110 15:22 21.07.2022
2544 Clouds 33 1015 59 10000 6.69 110 14:37 21.07.2022
2545 Clear 32 1016 68 10000 6.17 110 12:28 21.07.2022
2546 Clear 32 1015 59 10000 3.6 90 11:19 21.07.2022
2547 Clear 30 1015 53 10000 2.06 70 09:38 21.07.2022
2548 Clouds 30 1016 43 10000 1.54 0 08:52 21.07.2022
2549 Clouds 27 1016 45 10000 3.09 330 07:50 21.07.2022
2550 Clear 26 1015 55 10000 2.57 340 06:24 21.07.2022
2551 Clear 29 1015 45 10000 3.09 350 00:48 21.07.2022
2552 Clear 29 1015 51 10000 3.09 250 22:22 20.07.2022
2553 Clear 30 1015 58 10000 2.57 230 21:30 20.07.2022
2554 Clear 32 1015 51 10000 3.6 200 19:54 20.07.2022
2555 Clear 33 1015 50 10000 3.09 190 19:25 20.07.2022
2556 Clear 33 1015 50 10000 3.6 200 18:52 20.07.2022
2557 Clear 34 1016 46 10000 2.57 180 18:29 20.07.2022
2558 Clear 33 1017 47 10000 2.06 160 16:46 20.07.2022
2559 Clear 33 1017 46 10000 2.06 130 15:32 20.07.2022
2560 Clear 33 1017 54 10000 2.57 140 14:32 20.07.2022
2561 Clear 34 1017 48 10000 2.57 170 12:34 20.07.2022
2562 Clear 34 1017 41 10000 3.09 320 10:28 20.07.2022
2563 Clear 27 1016 51 10000 4.63 330 05:44 20.07.2022
2564 Clear 28 1016 48 10000 3.09 340 00:54 20.07.2022
2565 Clear 29 1016 47 10000 3.09 330 00:36 20.07.2022
2566 Clear 29 1016 55 10000 1.54 230 22:35 19.07.2022
2567 Clear 29 1015 54 10000 1.03 200 21:54 19.07.2022
2568 Clear 30 1015 59 10000 2.06 190 20:49 19.07.2022
2569 Clear 32 1016 49 10000 1.54 170 19:22 19.07.2022
2570 Clouds 33 1016 47 10000 1.54 170 18:35 19.07.2022
2571 Clouds 33 1016 42 10000 1.54 180 17:53 19.07.2022
2572 Clouds 33 1018 46 10000 3.6 120 15:27 19.07.2022
2573 Clear 33 1018 52 10000 3.6 110 13:33 19.07.2022
2574 Clear 32 1017 54 10000 3.6 130 11:33 19.07.2022
2575 Clear 33 1018 44 10000 1.54 330 09:52 19.07.2022
2576 Clear 30 1017 56 10000 4.63 330 08:47 19.07.2022
2577 Clear 28 1018 56 10000 5.14 340 07:46 19.07.2022
2578 Clear 27 1017 57 10000 3.09 330 07:18 19.07.2022
2579 Clear 28 1016 57 10000 6.17 340 05:19 19.07.2022
2580 Clear 28 1016 60 10000 4.63 340 03:40 19.07.2022
2581 Clear 29 1018 51 10000 5.66 330 23:57 18.07.2022
2582 Clear 29 1017 54 10000 5.14 320 23:20 18.07.2022
2583 Clear 30 1016 54 10000 4.12 350 22:42 18.07.2022
2584 Clear 30 1016 58 10000 1.54 170 21:26 18.07.2022
2585 Clear 31 1016 55 10000 2.06 0 20:45 18.07.2022
2586 Clear 31 1017 61 10000 2.06 190 18:50 18.07.2022
2587 Clear 32 1017 59 10000 1.54 150 16:45 18.07.2022
2588 Clouds 33 1018 55 10000 3.09 200 15:40 18.07.2022
2589 Clear 33 1018 53 10000 2.57 180 13:40 18.07.2022
2590 Clear 33 1018 51 10000 2.57 120 12:21 18.07.2022
2591 Clear 31 1018 55 10000 1.54 80 09:56 18.07.2022
2592 Clear 28 1018 60 10000 2.57 40 08:20 18.07.2022
2593 Clear 28 1018 64 10000 2.57 350 06:39 18.07.2022
2594 Clear 29 1017 55 10000 4.12 320 23:30 17.07.2022
2595 Clear 29 1017 60 10000 2.4 327 22:32 17.07.2022
2596 Clear 31 1016 50 10000 2.57 320 21:43 17.07.2022
2597 Clear 31 1017 47 10000 2.57 340 20:53 17.07.2022
2598 Clear 32 1016 47 10000 1.54 40 20:35 17.07.2022
2599 Rain 32 1017 47 10000 1.54 60 19:26 17.07.2022
2600 Rain 31 1017 51 10000 1.03 0 18:26 17.07.2022
2601 Rain 31 1017 50 10000 1.54 140 17:37 17.07.2022
2602 Clouds 31 1017 50 10000 1.54 130 16:50 17.07.2022
2603 Clouds 32 1018 44 10000 1.54 140 16:25 17.07.2022
2604 Clouds 32 1018 51 10000 2.06 160 14:32 17.07.2022
2605 Clouds 31 1018 55 10000 2.57 130 13:28 17.07.2022
2606 Clouds 31 1018 58 10000 2.57 110 11:32 17.07.2022
2607 Clouds 26 1017 78 10000 2.06 340 08:50 17.07.2022
2608 Clouds 25 1016 82 10000 2.06 320 03:43 17.07.2022
2609 Clouds 25 1016 82 10000 0 0 02:21 17.07.2022
2610 Clouds 26 1015 83 10000 1.54 130 23:20 16.07.2022
2611 Clear 27 1014 80 10000 1.54 160 21:25 16.07.2022
2612 Clear 29 1014 70 10000 2.06 160 19:26 16.07.2022
2613 Clouds 30 1014 70 10000 2.06 120 18:27 16.07.2022
2614 Clouds 30 1014 70 10000 5.14 100 16:31 16.07.2022
2615 Clouds 29 1015 74 10000 5.14 90 13:47 16.07.2022
2616 Clouds 29 1014 74 10000 5.66 80 10:53 16.07.2022
2617 Clouds 27 1014 72 10000 2.57 40 09:33 16.07.2022
2618 Clouds 26 1014 75 10000 3.6 30 08:43 16.07.2022
2619 Clouds 25 1013 80 10000 4.12 330 08:19 16.07.2022
2620 Clouds 24 1013 82 10000 3.09 330 03:58 16.07.2022
2621 Clouds 25 1013 84 10000 4.12 70 02:49 16.07.2022
2622 Clear 25 1013 84 10000 0.85 41 23:30 15.07.2022
2623 Clear 25 1013 84 10000 0.89 50 22:40 15.07.2022
2624 Clouds 27 1012 81 10000 1.54 150 21:29 15.07.2022
2625 Clouds 28 1012 76 10000 1.54 160 20:26 15.07.2022
2626 Clouds 30 1012 67 10000 2.06 120 18:40 15.07.2022
2627 Clouds 30 1013 67 10000 3.09 150 17:38 15.07.2022
2628 Clouds 31 1013 62 10000 5.14 100 14:54 15.07.2022
2629 Clouds 30 1013 71 10000 5.66 90 12:58 15.07.2022
2630 Clouds 29 1013 73 10000 5.14 100 11:27 15.07.2022
2631 Clouds 28 1013 70 10000 4.12 90 10:23 15.07.2022
2632 Clear 24 1013 73 10000 3.09 330 06:30 15.07.2022
2633 Clear 25 1015 76 10000 1.03 110 00:58 15.07.2022
2634 Clear 25 1015 77 10000 1.03 140 00:22 15.07.2022
2635 Clear 26 1016 77 10000 2.06 210 22:52 14.07.2022
2636 Clear 27 1016 70 10000 3.6 210 21:51 14.07.2022
2637 Clear 27 1016 69 10000 3.6 210 21:30 14.07.2022
2638 Clear 29 1015 63 10000 4.12 210 20:45 14.07.2022
2639 Clear 29 1016 63 10000 5.14 210 20:26 14.07.2022
2640 Clear 29 1015 62 10000 5.66 210 19:45 14.07.2022
2641 Clouds 30 1018 60 10000 3.6 190 16:23 14.07.2022
2642 Clouds 31 1018 59 10000 4.12 180 15:54 14.07.2022
2643 Clouds 30 1018 59 10000 3.6 180 14:44 14.07.2022
2644 Clouds 31 1018 58 10000 2.57 150 13:33 14.07.2022
2645 Clear 31 1018 59 10000 3.09 140 12:19 14.07.2022
2646 Clear 30 1018 64 10000 3.6 130 11:25 14.07.2022
2647 Clear 30 1018 62 10000 3.09 130 10:39 14.07.2022
2648 Clear 28 1020 57 10000 3.6 330 08:22 14.07.2022
2649 Clear 25 1019 69 10000 4.12 320 03:42 14.07.2022
2650 Clear 26 1019 73 10000 0.51 0 00:55 14.07.2022
2651 Clear 27 1019 72 10000 2.57 230 23:41 13.07.2022
2652 Clear 27 1019 74 10000 4.12 230 22:27 13.07.2022
2653 Clouds 28 1020 61 10000 3.09 220 21:32 13.07.2022
2654 Clouds 29 1019 67 10000 2.06 180 20:38 13.07.2022
2655 Clouds 29 1019 67 10000 2.06 180 20:38 13.07.2022
2656 Clouds 30 1019 61 10000 2.06 140 18:22 13.07.2022
2657 Clouds 31 1020 55 10000 2.57 140 17:22 13.07.2022
2658 Clouds 31 1020 53 10000 2.57 130 15:59 13.07.2022
2659 Clouds 31 1021 54 10000 1.54 160 13:50 13.07.2022
2660 Clear 30 1020 56 10000 2.57 150 11:30 13.07.2022
2661 Clear 30 1020 59 10000 2.57 130 10:44 13.07.2022
2662 Clouds 28 1020 66 10000 2.06 60 09:29 13.07.2022
2663 Clouds 25 1020 70 10000 2.57 350 08:23 13.07.2022
2664 Clear 23 1019 77 10000 2.57 330 04:50 13.07.2022
2665 Clear 24 1019 78 10000 1.54 280 00:47 13.07.2022
2666 Clear 25 1018 75 10000 1.54 210 22:47 12.07.2022
2667 Clouds 26 1018 75 10000 1.54 210 21:49 12.07.2022
2668 Clouds 26 1017 74 10000 2.57 200 20:54 12.07.2022
2669 Clouds 27 1017 71 10000 3.09 200 20:21 12.07.2022
2670 Clouds 28 1017 66 10000 3.09 190 18:51 12.07.2022
2671 Clouds 29 1018 61 10000 3.09 170 17:23 12.07.2022
2672 Clouds 29 1019 60 10000 2.57 170 15:35 12.07.2022
2673 Clouds 29 1019 62 10000 3.09 150 13:43 12.07.2022
2674 Clouds 28 1019 68 10000 3.09 150 11:59 12.07.2022
2675 Clouds 27 1018 67 10000 2.57 160 10:46 12.07.2022
2676 Clouds 26 1018 69 10000 0.51 0 09:18 12.07.2022
2677 Clouds 24 1018 76 10000 3.09 330 07:57 12.07.2022
2678 Clouds 22 1017 77 10000 3.09 340 05:54 12.07.2022
2679 Clouds 22 1017 78 10000 3.09 330 05:35 12.07.2022
2680 Clear 24 1017 76 10000 1.03 290 01:36 12.07.2022
2681 Clear 25 1016 74 10000 2.06 210 22:50 11.07.2022
2682 Clouds 25 1015 72 10000 2.57 210 21:37 11.07.2022
2683 Clouds 27 1015 67 10000 3.6 210 20:33 11.07.2022
2684 Clouds 28 1015 64 10000 4.63 190 19:32 11.07.2022
2685 Clouds 29 1016 59 10000 4.12 190 18:31 11.07.2022
2686 Clouds 29 1016 59 10000 3.6 180 17:31 11.07.2022
2687 Clouds 29 1016 49 10000 3.6 170 15:34 11.07.2022
2688 Clouds 29 1016 60 10000 4.12 140 13:39 11.07.2022
2689 Clouds 29 1016 67 10000 3.09 140 11:38 11.07.2022
2690 Clouds 28 1016 69 10000 3.09 130 10:18 11.07.2022
2691 Clouds 27 1015 71 10000 2.06 120 09:41 11.07.2022
2692 Clouds 24 1015 74 10000 3.09 330 08:33 11.07.2022
2693 Clouds 24 1014 73 10000 1.54 40 03:23 11.07.2022
2694 Clouds 25 1014 73 10000 2.06 290 00:20 11.07.2022
2695 Clear 24 1014 74 10000 1.27 283 22:56 10.07.2022
2696 Clouds 26 1014 67 10000 2.57 200 21:41 10.07.2022
2697 Clouds 27 1013 66 10000 2.57 200 20:47 10.07.2022
2698 Clouds 27 1013 70 10000 3.09 200 19:50 10.07.2022
2699 Clouds 28 1014 64 10000 2.57 160 18:48 10.07.2022
2700 Clouds 29 1014 64 10000 2.57 180 17:37 10.07.2022
2701 Clouds 29 1014 63 10000 2.57 160 16:45 10.07.2022
2702 Clouds 29 1015 62 10000 3.09 160 15:28 10.07.2022
2703 Clouds 30 1015 62 10000 3.09 130 14:30 10.07.2022
2704 Clouds 29 1016 66 10000 5.14 110 12:29 10.07.2022
2705 Clouds 28 1016 67 10000 6.17 100 11:20 10.07.2022
2706 Clouds 26 1016 65 10000 2.57 60 08:45 10.07.2022
2707 Clouds 24 1015 66 10000 3.6 350 07:39 10.07.2022
2708 Clear 23 1016 74 10000 2.57 320 02:47 10.07.2022
2709 Clear 25 1016 76 10000 1.54 220 22:59 09.07.2022
2710 Clear 25 1016 77 10000 1.54 210 22:25 09.07.2022
2711 Clear 26 1016 74 10000 2.06 190 21:28 09.07.2022
2712 Clear 29 1017 58 10000 2.57 150 18:43 09.07.2022
2713 Clear 29 1017 57 10000 3.09 150 17:48 09.07.2022
2714 Clear 30 1018 54 10000 3.09 120 16:58 09.07.2022
2715 Clear 30 1019 56 10000 3.6 120 15:42 09.07.2022
2716 Clear 30 1018 56 10000 4.63 100 14:44 09.07.2022
2717 Clear 30 1019 55 10000 3.09 130 13:51 09.07.2022
2718 Clouds 29 1019 59 10000 3.6 130 12:53 09.07.2022
2719 Clear 29 1019 62 10000 4.63 120 11:33 09.07.2022
2720 Clear 29 1019 57 10000 4.63 100 10:23 09.07.2022
2721 Clear 26 1020 47 10000 4.12 330 07:54 09.07.2022
2722 Clear 24 1019 57 10000 3.6 340 06:58 09.07.2022
2723 Clear 24 1019 57 10000 5.14 330 04:34 09.07.2022
2724 Clear 26 1019 42 10000 2.57 320 23:18 08.07.2022
2725 Clear 26 1018 53 10000 1.54 220 21:59 08.07.2022
2726 Clear 28 1018 47 10000 1.03 0 20:59 08.07.2022
2727 Clear 28 1018 49 10000 1.03 0 20:25 08.07.2022
2728 Clouds 30 1018 44 10000 2.06 170 18:32 08.07.2022
2729 Clouds 30 1018 44 10000 2.57 160 17:33 08.07.2022
2730 Clouds 30 1019 44 10000 4.12 160 14:55 08.07.2022
2731 Clouds 30 1019 44 10000 5.66 130 14:29 08.07.2022
2732 Clouds 30 1018 49 10000 4.63 170 12:28 08.07.2022
2733 Clear 29 1017 54 10000 3.6 190 10:45 08.07.2022
2734 Clouds 27 1016 62 10000 2.06 320 08:55 08.07.2022
2735 Clear 24 1015 67 10000 3.6 330 06:55 08.07.2022
2736 Clear 26 1014 63 10000 1.54 0 03:22 08.07.2022
2737 Clouds 26 1013 66 10000 1.03 0 23:56 07.07.2022
2738 Clouds 27 1013 70 10000 1.03 140 22:45 07.07.2022
2739 Clear 28 1012 65 10000 0.69 158 20:59 07.07.2022
2740 Clear 30 1012 58 10000 2.06 170 18:43 07.07.2022
2741 Clear 31 1013 54 10000 2.57 170 17:41 07.07.2022
2742 Clear 31 1013 52 10000 4.12 180 15:34 07.07.2022
2743 Clouds 30 1014 57 10000 3.6 180 13:30 07.07.2022
2744 Clouds 30 1014 57 10000 4.12 190 12:40 07.07.2022
2745 Clouds 31 1014 57 10000 3.6 180 12:21 07.07.2022
2746 Clear 31 1014 56 10000 3.6 190 11:31 07.07.2022
2747 Clear 30 1014 51 10000 2.57 110 10:44 07.07.2022
2748 Clear 30 1014 52 10000 2.57 110 10:26 07.07.2022
2749 Clear 26 1014 61 10000 5.14 340 07:58 07.07.2022
2750 Clear 25 1014 64 10000 5.14 340 04:44 07.07.2022
2751 Clouds 26 1014 64 10000 2.84 318 23:37 06.07.2022
2752 Clear 26 1014 66 10000 2.57 240 23:19 06.07.2022
2753 Clear 26 1014 70 10000 2.57 240 22:57 06.07.2022
2754 Clear 26 1014 72 10000 3.09 250 22:39 06.07.2022
2755 Clear 26 1013 73 10000 1.54 250 21:59 06.07.2022
2756 Clouds 29 1014 65 10000 5.66 200 19:45 06.07.2022
2757 Clouds 29 1014 65 10000 3.09 180 18:41 06.07.2022
2758 Clouds 30 1014 67 10000 3.09 180 16:45 06.07.2022
2759 Clouds 30 1015 67 10000 3.09 160 15:39 06.07.2022
2760 Clouds 30 1016 69 10000 3.09 170 12:44 06.07.2022
2761 Clouds 29 1016 69 10000 5.14 190 11:49 06.07.2022
2762 Clouds 28 1015 64 10000 2.57 190 10:33 06.07.2022
2763 Clouds 26 1015 63 10000 4.12 330 08:43 06.07.2022
2764 Clouds 25 1015 63 10000 3.09 330 07:39 06.07.2022
2765 Clear 23 1013 76 10000 4.12 330 05:37 06.07.2022
2766 Clear 25 1013 79 10000 2.06 90 22:49 05.07.2022
2767 Clear 26 1012 80 10000 3.6 90 22:28 05.07.2022
2768 Clear 28 1012 74 10000 4.63 90 20:42 05.07.2022
2769 Clouds 29 1012 68 10000 7.2 110 19:44 05.07.2022
2770 Clouds 29 1012 68 10000 7.72 100 19:26 05.07.2022
2771 Clouds 30 1013 63 10000 5.66 100 17:48 05.07.2022
2772 Clouds 30 1013 63 10000 4.63 100 17:18 05.07.2022
2773 Clouds 31 1014 60 10000 5.66 110 15:39 05.07.2022
2774 Clouds 31 1014 59 10000 3.6 120 14:39 05.07.2022
2775 Clouds 31 1014 58 10000 4.12 180 12:52 05.07.2022
2776 Clear 30 1014 62 10000 5.14 200 12:21 05.07.2022
2777 Clear 30 1013 62 10000 4.12 190 10:45 05.07.2022
2778 Clear 28 1014 57 10000 3.09 320 09:32 05.07.2022
2779 Clear 27 1015 58 10000 3.09 330 08:19 05.07.2022
2780 Clear 24 1014 70 10000 3.09 330 06:47 05.07.2022
2781 Clear 24 1013 74 10000 3.09 320 04:28 05.07.2022
2782 Clear 25 1014 78 10000 1.54 280 00:43 05.07.2022
2783 Clear 25 1014 77 10000 0.77 302 23:36 04.07.2022
2784 Clear 25 1014 77 10000 0.59 5 22:54 04.07.2022
2785 Clear 26 1013 77 10000 1.54 200 21:56 04.07.2022
2786 Clear 27 1013 70 10000 2.06 200 20:54 04.07.2022
2787 Clear 28 1013 64 10000 2.57 160 20:35 04.07.2022
2788 Clear 29 1014 57 10000 2.57 140 19:56 04.07.2022
2789 Clear 28 1014 59 10000 2.06 140 19:36 04.07.2022
2790 Clear 30 1013 59 10000 3.09 170 18:34 04.07.2022
2791 Clear 30 1015 60 10000 2.57 110 16:36 04.07.2022
2792 Clear 30 1014 62 10000 3.6 150 15:34 04.07.2022
2793 Clear 31 1014 62 10000 3.09 130 13:41 04.07.2022
2794 Clear 30 1015 66 10000 2.06 150 12:38 04.07.2022
2795 Clouds 29 1015 65 10000 2.57 110 10:39 04.07.2022
2796 Clouds 29 1015 64 10000 2.57 110 10:18 04.07.2022
2797 Clouds 25 1014 71 10000 2.06 80 08:31 04.07.2022
2798 Clear 24 1014 67 10000 4.12 310 05:34 04.07.2022
2799 Clear 25 1015 67 10000 2.06 250 00:43 04.07.2022
2800 Clear 26 1015 70 10000 2.57 210 23:27 03.07.2022
2801 Clear 26 1015 69 10000 2.06 210 22:23 03.07.2022
2802 Clear 28 1015 62 10000 2.06 200 20:42 03.07.2022
2803 Clear 29 1015 56 10000 1.54 170 19:42 03.07.2022
2804 Clear 29 1015 56 10000 2.06 170 19:23 03.07.2022
2805 Clear 30 1016 53 10000 2.06 160 17:45 03.07.2022
2806 Clear 31 1016 52 10000 2.57 160 16:58 03.07.2022
2807 Clear 31 1016 54 10000 2.57 110 15:26 03.07.2022
2808 Clear 31 1016 57 10000 4.63 140 14:37 03.07.2022
2809 Clear 31 1016 53 10000 3.09 100 13:49 03.07.2022
2810 Clear 31 1016 53 10000 2.57 110 12:42 03.07.2022
2811 Clear 31 1016 54 10000 3.6 130 11:40 03.07.2022
2812 Clear 30 1015 51 10000 3.09 100 10:40 03.07.2022
2813 Clear 30 1016 50 10000 2.06 100 10:20 03.07.2022
2814 Clear 25 1016 56 10000 2.57 330 07:37 03.07.2022
2815 Clear 23 1016 58 10000 2.57 350 05:26 03.07.2022
2816 Clear 24 1017 56 10000 4.12 320 00:25 03.07.2022
2817 Clear 25 1017 69 10000 2.06 250 22:36 02.07.2022
2818 Clear 25 1016 69 10000 2.06 240 21:43 02.07.2022
2819 Clear 27 1017 63 10000 1.54 180 20:21 02.07.2022
2820 Clear 28 1017 62 10000 2.06 200 19:49 02.07.2022
2821 Clear 29 1017 58 10000 2.57 140 17:59 02.07.2022
2822 Clear 29 1017 59 10000 2.57 150 17:37 02.07.2022
2823 Clear 29 1017 63 10000 3.6 130 15:46 02.07.2022
2824 Clear 29 1018 69 10000 3.09 130 12:56 02.07.2022
2825 Clear 28 1017 71 10000 4.12 110 11:48 02.07.2022
2826 Clear 28 1017 68 10000 4.12 100 10:50 02.07.2022
2827 Clear 25 1017 71 10000 2.06 60 09:49 02.07.2022
2828 Clear 24 1017 69 10000 3.6 330 08:37 02.07.2022
2829 Clear 24 1017 69 10000 3.6 330 08:19 02.07.2022
2830 Clear 22 1015 78 10000 3.6 340 02:53 02.07.2022
2831 Clear 22 1015 82 10000 2.99 26 00:27 02.07.2022
2832 Clear 24 1014 77 10000 5.14 80 22:59 01.07.2022
2833 Clear 24 1013 79 10000 5.14 90 22:29 01.07.2022
2834 Clear 24 1013 80 10000 5.14 90 21:37 01.07.2022
2835 Clear 26 1013 75 10000 5.14 100 20:58 01.07.2022
2836 Clear 27 1012 71 10000 5.66 90 20:20 01.07.2022
2837 Clouds 27 1012 67 10000 6.69 90 19:36 01.07.2022
2838 Clouds 29 1012 61 10000 6.17 100 16:41 01.07.2022
2839 Clouds 27 1012 66 10000 3.09 170 14:31 01.07.2022
2840 Clouds 27 1012 70 10000 3.6 170 13:39 01.07.2022
2841 Clouds 26 1012 72 10000 2.57 120 10:54 01.07.2022
2842 Clouds 26 1012 71 10000 2.06 140 10:19 01.07.2022
2843 Clear 22 1011 80 10000 2.57 330 07:32 01.07.2022
2844 Clear 22 1011 74 10000 2.06 340 02:43 01.07.2022
2845 Clouds 22 1011 87 10000 1.01 313 23:52 30.06.2022
2846 Clouds 23 1011 86 10000 1.19 312 22:51 30.06.2022
2847 Clouds 23 1011 84 10000 1.54 110 22:32 30.06.2022
2848 Clouds 23 1011 84 10000 1.54 110 22:32 30.06.2022
2849 Clouds 23 1011 84 10000 1.54 110 22:32 30.06.2022
2850 Clouds 23 1011 84 10000 2.06 100 21:54 30.06.2022
2851 Clouds 24 1011 80 10000 1.03 0 20:49 30.06.2022
2852 Clouds 25 1012 79 10000 1.54 150 20:21 30.06.2022
2853 Clouds 25 1011 76 10000 2.06 140 19:48 30.06.2022
2854 Clouds 26 1011 73 10000 3.09 110 18:56 30.06.2022
2855 Clouds 27 1011 70 10000 3.09 130 18:22 30.06.2022
2856 Clouds 27 1013 67 10000 2.57 120 17:36 30.06.2022
2857 Clouds 27 1013 67 10000 4.63 120 16:22 30.06.2022
2858 Clouds 27 1012 69 10000 5.14 100 14:20 30.06.2022
2859 Clouds 26 1012 71 10000 4.63 120 13:29 30.06.2022
2860 Clouds 26 1012 71 10000 5.14 110 12:34 30.06.2022
2861 Clouds 26 1012 73 10000 5.14 100 11:23 30.06.2022
2862 Clouds 25 1011 73 10000 4.12 90 09:53 30.06.2022
2863 Clouds 24 1011 75 10000 2.06 60 09:29 30.06.2022
2864 Clouds 22 1011 82 10000 2.57 340 07:41 30.06.2022
2865 Clouds 20 1011 84 10000 3.6 320 05:47 30.06.2022
2866 Clouds 22 1011 83 10000 4.63 90 00:31 30.06.2022
2867 Clouds 22 1011 83 10000 4.63 90 23:19 29.06.2022
2868 Clouds 23 1010 84 10000 3.6 80 22:38 29.06.2022
2869 Clouds 24 1010 83 10000 4.12 110 21:34 29.06.2022
2870 Clear 25 1010 80 10000 6.69 110 20:33 29.06.2022
2871 Clear 27 1010 71 10000 6.17 90 19:37 29.06.2022
2872 Clear 27 1010 71 10000 6.17 90 17:43 29.06.2022
2873 Clear 28 1012 67 10000 4.63 110 16:36 29.06.2022
2874 Clear 27 1011 69 10000 3.09 140 14:56 29.06.2022
2875 Clear 26 1011 69 10000 6.17 190 12:40 29.06.2022
2876 Clear 26 1011 65 10000 3.09 200 10:56 29.06.2022
2877 Clear 24 1012 58 10000 3.6 330 09:32 29.06.2022
2878 Clear 21 1011 76 10000 5.66 330 07:39 29.06.2022
2879 Clear 20 1011 76 10000 5.14 330 04:54 29.06.2022
2880 Clear 20 1012 79 10000 3.6 300 00:58 29.06.2022
2881 Clear 21 1012 76 10000 3.09 300 00:36 29.06.2022
2882 Clear 20 1012 79 10000 3.09 330 22:54 28.06.2022
2883 Clear 20 1012 81 10000 2.57 320 22:30 28.06.2022
2884 Clear 20 1011 79 10000 5.14 320 21:55 28.06.2022
2885 Clear 21 1012 82 10000 5.14 330 21:33 28.06.2022
2886 Clear 21 1012 80 10000 4.63 340 20:44 28.06.2022
2887 Thunderstorm 21 1011 80 8000 14.4 360 19:34 28.06.2022
2888 Thunderstorm 21 1011 76 10000 14.4 10 18:53 28.06.2022
2889 Thunderstorm 21 1010 81 10000 8.23 20 17:42 28.06.2022
2890 Thunderstorm 26 1008 71 10000 10.8 110 16:21 28.06.2022
2891 Thunderstorm 26 1008 72 10000 10.8 120 15:42 28.06.2022
2892 Clouds 28 1008 70 10000 6.69 100 14:21 28.06.2022
2893 Clouds 28 1008 69 10000 7.2 100 13:54 28.06.2022
2894 Clear 30 1009 64 10000 8.23 80 13:20 28.06.2022
2895 Clear 29 1010 63 10000 2.06 160 11:21 28.06.2022
2896 Clear 27 1010 59 10000 2.06 320 09:36 28.06.2022
2897 Clear 27 1010 62 10000 2.57 320 08:44 28.06.2022
2898 Clouds 26 1010 64 10000 3.09 320 07:58 28.06.2022
2899 Clouds 25 1011 62 10000 2.57 330 07:19 28.06.2022
2900 Clear 24 1012 81 10000 0 0 01:33 28.06.2022
2901 Clear 25 1012 75 10000 5.14 80 23:44 27.06.2022
2902 Clear 26 1012 66 10000 3.09 90 22:55 27.06.2022
2903 Clear 27 1012 60 10000 1.54 50 21:38 27.06.2022
2904 Clear 27 1012 60 10000 1.54 50 21:38 27.06.2022
2905 Clear 28 1012 58 10000 3.09 30 20:54 27.06.2022
2906 Clear 29 1012 55 10000 0.51 0 19:44 27.06.2022
2907 Clear 30 1012 51 10000 1.54 150 18:40 27.06.2022
2908 Clear 31 1013 41 10000 1.03 0 16:44 27.06.2022
2909 Clear 31 1013 43 10000 1.54 180 15:43 27.06.2022
2910 Clear 31 1012 47 10000 4.12 110 13:44 27.06.2022
2911 Clear 31 1012 49 10000 6.17 100 12:57 27.06.2022
2912 Clear 29 1011 52 10000 6.17 80 10:43 27.06.2022
2913 Clear 28 1011 51 10000 2.06 80 09:37 27.06.2022
2914 Clear 27 1010 51 10000 3.09 330 08:38 27.06.2022
2915 Clear 25 1010 56 10000 3.09 330 07:39 27.06.2022
2916 Clear 25 1010 53 10000 3.09 330 04:40 27.06.2022
2917 Clear 26 1010 53 10000 3.6 310 01:20 27.06.2022
2918 Clear 26 1010 58 10000 7.72 70 22:47 26.06.2022
2919 Clear 28 1009 54 10000 8.23 80 21:23 26.06.2022
2920 Clear 30 1009 46 10000 8.23 80 19:59 26.06.2022
2921 Clouds 30 1010 48 10000 10.8 90 18:33 26.06.2022
2922 Clouds 30 1010 49 10000 11.32 90 17:37 26.06.2022
2923 Clouds 30 1011 56 10000 9.26 90 15:35 26.06.2022
2924 Clouds 29 1012 60 10000 11.32 90 13:59 26.06.2022
2925 Clouds 29 1011 61 10000 11.83 90 13:23 26.06.2022
2926 Clouds 29 1012 61 10000 7.2 90 11:39 26.06.2022
2927 Clouds 28 1012 56 10000 7.2 80 10:30 26.06.2022
2928 Clouds 27 1012 58 10000 5.66 80 09:55 26.06.2022
2929 Clouds 23 1013 62 10000 2.06 40 07:47 26.06.2022
2930 Clear 21 1012 72 10000 2.57 10 05:26 26.06.2022
2931 Clouds 23 1013 83 10000 2.06 90 00:36 26.06.2022
2932 Clouds 23 1013 83 10000 2.06 90 00:18 26.06.2022
2933 Clouds 23 1013 84 10000 2.57 100 23:29 25.06.2022
2934 Clouds 23 1012 85 10000 3.09 100 22:42 25.06.2022
2935 Clouds 23 1012 84 10000 3.09 100 22:24 25.06.2022
2936 Clouds 24 1012 80 10000 3.6 90 21:21 25.06.2022
2937 Clouds 26 1011 71 10000 2.06 120 20:36 25.06.2022
2938 Clear 27 1011 69 10000 2.57 140 19:56 25.06.2022
2939 Clear 28 1012 65 10000 3.09 190 18:22 25.06.2022
2940 Clear 28 1012 60 10000 2.57 180 17:26 25.06.2022
2941 Clouds 27 1012 60 10000 5.14 190 16:26 25.06.2022
2942 Clouds 28 1012 64 10000 3.6 180 14:29 25.06.2022
2943 Clouds 28 1012 57 10000 4.63 180 12:45 25.06.2022
2944 Clear 28 1012 59 10000 3.09 130 11:55 25.06.2022
2945 Clear 25 1012 60 10000 2.57 90 09:24 25.06.2022
2946 Clear 24 1012 56 10000 2.57 360 08:49 25.06.2022
2947 Clear 23 1012 58 10000 3.6 340 08:20 25.06.2022
2948 Clear 21 1011 60 10000 3.09 330 06:34 25.06.2022
2949 Clear 23 1011 79 10000 4.12 320 00:44 25.06.2022
2950 Clear 23 1011 79 10000 4.12 320 00:44 25.06.2022
2951 Clear 23 1011 70 10000 2.57 360 23:46 24.06.2022
2952 Clear 24 1010 68 10000 6.17 230 22:22 24.06.2022
2953 Clouds 25 1009 75 10000 9.26 220 21:22 24.06.2022
2954 Clouds 26 1009 75 10000 8.23 210 20:23 24.06.2022
2955 Clouds 27 1009 74 10000 6.69 210 19:24 24.06.2022
2956 Clouds 27 1009 74 10000 8.75 210 18:51 24.06.2022
2957 Clouds 27 1010 74 10000 7.2 210 18:31 24.06.2022
2958 Clouds 27 1010 74 10000 5.14 200 17:49 24.06.2022
2959 Clouds 27 1010 73 10000 5.66 210 16:45 24.06.2022
2960 Clouds 27 1010 73 10000 6.17 210 16:45 24.06.2022
2961 Clouds 27 1010 71 10000 9.77 200 14:30 24.06.2022
2962 Clouds 27 1010 73 10000 8.75 200 13:58 24.06.2022
2963 Clouds 27 1010 72 10000 7.2 190 12:49 24.06.2022
2964 Clouds 27 1011 66 10000 5.66 190 11:40 24.06.2022
2965 Clouds 26 1011 69 10000 3.09 190 10:36 24.06.2022
2966 Clouds 25 1011 67 10000 1.54 0 09:41 24.06.2022
2967 Clouds 24 1012 69 10000 4.63 330 08:53 24.06.2022
2968 Clouds 22 1011 72 10000 5.66 330 07:56 24.06.2022
2969 Clouds 21 1011 76 10000 5.14 330 06:43 24.06.2022
2970 Clouds 20 1011 78 10000 4.63 330 06:20 24.06.2022
2971 Clear 21 1011 79 10000 3.6 310 04:41 24.06.2022
2972 Clouds 23 1012 80 10000 3.09 250 23:24 23.06.2022
2973 Clouds 24 1012 78 10000 5.14 250 22:42 23.06.2022
2974 Clouds 25 1012 76 10000 5.14 200 20:59 23.06.2022
2975 Clouds 26 1012 72 10000 5.66 190 20:36 23.06.2022
2976 Clouds 27 1012 70 10000 4.63 180 19:48 23.06.2022
2977 Clouds 28 1012 63 10000 2.57 170 18:26 23.06.2022
2978 Clouds 27 1013 64 10000 3.09 160 17:33 23.06.2022
2979 Clouds 27 1013 70 10000 2.57 190 16:26 23.06.2022
2980 Clouds 26 1013 72 10000 1.54 340 15:26 23.06.2022
2981 Rain 24 1014 83 10000 2.06 250 14:18 23.06.2022
2982 Rain 24 1013 83 9000 1.54 90 11:33 23.06.2022
2983 Rain 25 1013 79 10000 3.09 130 10:40 23.06.2022
2984 Clouds 25 1012 73 10000 1.54 90 09:19 23.06.2022
2985 Clear 22 1011 72 10000 3.09 330 04:43 23.06.2022
2986 Clear 24 1012 74 10000 2.57 30 00:27 23.06.2022
2987 Clear 24 1012 75 10000 1.54 250 23:49 22.06.2022
2988 Clear 25 1011 76 10000 4.12 230 22:53 22.06.2022
2989 Clouds 25 1009 77 10000 2.06 220 21:28 22.06.2022
2990 Clouds 26 1010 71 10000 2.57 170 20:48 22.06.2022
2991 Clear 27 1010 67 10000 2.06 360 20:18 22.06.2022
2992 Clear 28 1011 67 10000 1.03 0 18:57 22.06.2022
2993 Clouds 27 1011 76 10000 4.63 150 17:31 22.06.2022
2994 Clear 27 1011 69 10000 3.6 110 16:40 22.06.2022
2995 Rain 25 1011 79 10000 2.57 50 15:28 22.06.2022
2996 Rain 24 1012 79 10000 3.6 320 14:41 22.06.2022
2997 Rain 24 1013 85 10000 3.09 120 13:46 22.06.2022
2998 Rain 25 1013 84 10000 3.09 120 13:24 22.06.2022
2999 Clouds 26 1011 68 10000 4.63 20 11:50 22.06.2022
3000 Clouds 26 1011 68 10000 4.63 20 11:50 22.06.2022
3001 Clouds 24 1012 80 10000 2.06 340 10:58 22.06.2022
3002 Rain 24 1012 81 10000 4.63 290 10:36 22.06.2022
3003 Rain 25 1010 67 10000 6.69 40 08:57 22.06.2022
3004 Rain 23 1011 82 10000 1.03 0 06:55 22.06.2022
3005 Clear 24 1011 81 10000 1.54 0 01:59 22.06.2022
3006 Clouds 23 1011 84 10000 2.03 51 00:56 22.06.2022
3007 Clouds 24 1012 83 10000 2.44 31 22:49 21.06.2022
3008 Clear 26 1011 75 10000 3.09 110 20:47 21.06.2022
3009 Clouds 26 1011 74 10000 2.57 180 19:23 21.06.2022
3010 Rain 27 1012 69 10000 1.54 160 17:54 21.06.2022
3011 Clouds 28 1012 67 10000 3.6 120 16:38 21.06.2022
3012 Clouds 29 1013 66 10000 3.09 110 11:57 21.06.2022
3013 Clouds 28 1012 64 10000 2.57 170 10:46 21.06.2022
3014 Clear 26 1012 59 10000 3.09 250 09:24 21.06.2022
3015 Clear 25 1011 54 10000 1.54 310 07:49 21.06.2022
3016 Clear 23 1012 58 10000 4.12 330 04:57 21.06.2022
3017 Clear 25 1012 61 10000 2.06 330 00:23 21.06.2022
3018 Clear 26 1012 67 10000 2.57 240 22:21 20.06.2022
3019 Clear 27 1012 68 10000 6.69 230 21:40 20.06.2022
3020 Clear 28 1012 67 10000 6.69 210 20:29 20.06.2022
3021 Clouds 28 1012 71 10000 3.6 170 19:37 20.06.2022
3022 Clouds 29 1012 67 10000 3.6 190 18:34 20.06.2022
3023 Clouds 29 1012 68 10000 2.57 170 17:49 20.06.2022
3024 Clouds 29 1013 66 10000 3.6 160 16:36 20.06.2022
3025 Clouds 29 1013 63 10000 3.09 150 15:52 20.06.2022
3026 Clear 29 1014 61 10000 3.6 140 12:37 20.06.2022
3027 Clear 28 1014 53 10000 1.54 180 10:22 20.06.2022
3028 Clear 26 1013 53 10000 2.06 320 08:56 20.06.2022
3029 Clear 24 1013 57 10000 2.57 340 07:53 20.06.2022
3030 Clear 23 1013 56 10000 3.6 330 05:26 20.06.2022
3031 Clear 24 1013 52 10000 2.06 330 01:33 20.06.2022
3032 Clear 24 1013 51 10000 2.06 320 00:19 20.06.2022
3033 Clear 25 1013 61 10000 1.54 80 22:46 19.06.2022
3034 Clear 25 1013 59 10000 1.54 110 21:48 19.06.2022
3035 Clear 25 1013 59 10000 1.54 110 21:48 19.06.2022
3036 Clear 26 1014 50 10000 2.06 110 21:29 19.06.2022
3037 Clear 28 1013 50 10000 2.06 120 20:38 19.06.2022
3038 Clear 29 1013 41 10000 2.57 120 19:47 19.06.2022
3039 Clear 30 1013 44 10000 2.57 110 18:43 19.06.2022
3040 Clear 30 1015 33 10000 3.09 100 17:48 19.06.2022
3041 Clear 31 1014 39 10000 3.6 100 17:22 19.06.2022
3042 Clear 31 1014 41 10000 3.09 90 16:34 19.06.2022
3043 Clear 31 1014 45 10000 3.6 100 15:41 19.06.2022
3044 Clear 31 1014 48 10000 3.09 100 14:56 19.06.2022
3045 Clear 31 1015 47 10000 3.6 100 14:19 19.06.2022
3046 Clear 31 1015 41 10000 4.63 100 12:56 19.06.2022
3047 Clear 30 1015 52 10000 3.6 90 10:55 19.06.2022
3048 Clear 29 1015 56 10000 2.06 110 09:46 19.06.2022
3049 Clear 27 1015 63 10000 2.06 60 08:47 19.06.2022
3050 Clear 26 1015 70 10000 1.54 40 07:59 19.06.2022
3051 Clear 25 1014 72 10000 3.09 90 05:37 19.06.2022
3052 Clear 27 1015 61 10000 2.06 350 01:29 19.06.2022
3053 Clear 26 1015 65 10000 1.03 260 00:24 19.06.2022
3054 Clear 27 1016 64 10000 1.54 240 23:36 18.06.2022
3055 Clouds 27 1015 63 10000 2.06 120 22:39 18.06.2022
3056 Clouds 29 1016 54 10000 1.54 140 20:57 18.06.2022
3057 Clouds 29 1016 53 10000 2.06 120 20:38 18.06.2022
3058 Clouds 31 1016 49 10000 2.06 90 19:40 18.06.2022
3059 Clouds 31 1016 46 10000 1.03 110 18:53 18.06.2022
3060 Clear 31 1018 51 10000 2.06 90 17:35 18.06.2022
3061 Clear 33 1019 45 10000 1.61 69 16:56 18.06.2022
3062 Clear 31 1018 55 10000 4.12 110 15:37 18.06.2022
3063 Clear 31 1018 57 10000 4.63 100 14:46 18.06.2022
3064 Clear 30 1018 56 10000 2.06 100 13:30 18.06.2022
3065 Clear 31 1018 58 10000 3.6 100 11:56 18.06.2022
3066 Clear 30 1018 58 10000 3.6 100 10:56 18.06.2022
3067 Clear 28 1018 63 10000 1.54 0 09:28 18.06.2022
3068 Clear 27 1019 61 10000 1.54 0 08:30 18.06.2022
3069 Clear 25 1018 73 10000 1.54 0 07:20 18.06.2022
3070 Clear 25 1018 73 10000 5.14 80 03:58 18.06.2022
3071 Clear 26 1017 78 10000 1.54 70 01:26 18.06.2022
3072 Clear 26 1017 68 10000 2.06 340 00:49 18.06.2022
3073 Clear 25 1017 71 10000 2.06 290 23:59 17.06.2022
3074 Clear 26 1017 66 10000 1.54 280 23:29 17.06.2022
3075 Clear 27 1016 67 10000 1.54 170 21:33 17.06.2022
3076 Clear 29 1016 61 10000 1.54 190 20:26 17.06.2022
3077 Clouds 29 1016 62 10000 3.6 200 18:52 17.06.2022
3078 Clouds 29 1016 60 10000 3.09 190 17:46 17.06.2022
3079 Clouds 30 1017 58 10000 2.06 170 16:43 17.06.2022
3080 Clouds 30 1017 57 10000 2.57 170 16:19 17.06.2022
3081 Clouds 30 1017 58 10000 2.06 170 15:37 17.06.2022
3082 Clouds 30 1018 60 10000 2.06 120 14:22 17.06.2022
3083 Clouds 29 1018 60 10000 1.54 160 13:51 17.06.2022
3084 Clouds 30 1018 62 10000 2.06 130 13:31 17.06.2022
3085 Clear 29 1017 65 10000 2.06 140 11:59 17.06.2022
3086 Clear 29 1017 66 10000 2.57 130 11:39 17.06.2022
3087 Clear 29 1017 67 10000 2.57 130 11:21 17.06.2022
3088 Clouds 25 1017 72 10000 1.03 0 08:39 17.06.2022
3089 Clouds 24 1017 73 10000 1.03 0 07:53 17.06.2022
3090 Clouds 22 1017 75 10000 2.57 320 06:35 17.06.2022
3091 Clear 22 1016 75 10000 2.06 20 03:24 17.06.2022
3092 Clouds 23 1017 79 10000 1.03 90 01:27 17.06.2022
3093 Clear 23 1016 83 10000 1.54 130 23:30 16.06.2022
3094 Clear 24 1016 83 10000 1.03 0 22:38 16.06.2022
3095 Clear 25 1015 76 10000 1.54 140 21:21 16.06.2022
3096 Clear 25 1015 75 10000 1.54 140 20:50 16.06.2022
3097 Clear 26 1015 72 10000 1.03 0 20:21 16.06.2022
3098 Clear 28 1015 67 10000 1.54 140 18:51 16.06.2022
3099 Clear 28 1016 65 10000 2.06 150 17:50 16.06.2022
3100 Clouds 28 1016 65 10000 2.06 150 17:27 16.06.2022
3101 Clouds 29 1017 62 10000 3.09 140 16:20 16.06.2022
3102 Clear 29 1017 59 10000 2.57 120 15:21 16.06.2022
3103 Clouds 29 1018 66 10000 2.06 150 14:27 16.06.2022
3104 Clouds 28 1018 68 10000 3.09 160 12:56 16.06.2022
3105 Clouds 28 1018 67 10000 3.09 160 12:34 16.06.2022
3106 Clouds 28 1018 69 10000 2.57 150 11:48 16.06.2022
3107 Clear 28 1018 65 10000 2.57 120 10:42 16.06.2022
3108 Clear 27 1018 68 10000 2.06 170 09:43 16.06.2022
3109 Clear 26 1018 71 10000 1.54 260 09:19 16.06.2022
3110 Clouds 23 1017 79 10000 3.09 330 07:57 16.06.2022
3111 Clouds 22 1017 81 10000 3.09 350 06:49 16.06.2022
3112 Clear 22 1017 87 10000 0.84 43 04:28 16.06.2022
3113 Clouds 23 1018 86 10000 5.14 90 01:53 16.06.2022
3114 Clear 23 1018 87 10000 4.12 90 01:32 16.06.2022
3115 Clear 24 1018 79 10000 1.54 100 00:36 16.06.2022
3116 Clear 24 1017 76 10000 1.54 210 23:23 15.06.2022
3117 Clear 24 1016 77 10000 3.09 230 21:59 15.06.2022
3118 Clear 25 1016 74 10000 2.57 220 21:20 15.06.2022
3119 Clear 26 1016 70 10000 3.09 190 20:38 15.06.2022
3120 Clear 27 1016 67 10000 3.09 190 20:18 15.06.2022
3121 Clouds 25 1017 73 10000 2.57 220 18:51 15.06.2022
3122 Clear 27 1018 71 10000 2.57 140 17:55 15.06.2022
3123 Clear 27 1018 67 10000 1.54 150 16:38 15.06.2022
3124 Clear 28 1018 66 10000 2.06 150 15:26 15.06.2022
3125 Clear 28 1018 65 10000 3.09 170 13:43 15.06.2022
3126 Clear 29 1018 64 10000 2.57 140 12:53 15.06.2022
3127 Clear 28 1017 67 10000 2.57 150 11:48 15.06.2022
3128 Clear 27 1017 65 10000 2.57 120 10:23 15.06.2022
3129 Clear 26 1017 64 10000 1.54 140 09:38 15.06.2022
3130 Clear 25 1016 61 10000 0 0 08:27 15.06.2022
3131 Clear 23 1016 70 10000 2.57 50 06:33 15.06.2022
3132 Clear 23 1016 71 10000 0.51 300 03:45 15.06.2022
3133 Clear 24 1016 68 10000 2.57 290 01:53 15.06.2022
3134 Clear 24 1015 70 10000 1.54 270 00:50 15.06.2022
3135 Clear 24 1015 71 10000 1.54 210 23:39 14.06.2022
3136 Clear 24 1015 70 10000 1.03 200 22:56 14.06.2022
3137 Clouds 25 1015 72 10000 2.57 200 22:18 14.06.2022
3138 Clouds 25 1014 81 10000 3.09 200 21:33 14.06.2022
3139 Clouds 27 1015 68 10000 3.6 200 20:48 14.06.2022
3140 Clouds 27 1015 66 10000 3.09 200 20:28 14.06.2022
3141 Clouds 29 1014 57 10000 2.57 190 18:54 14.06.2022
3142 Clouds 29 1015 61 10000 2.57 180 17:39 14.06.2022
3143 Clouds 28 1015 63 10000 2.57 180 16:43 14.06.2022
3144 Clouds 28 1015 62 10000 2.57 150 15:50 14.06.2022
3145 Clouds 28 1015 63 10000 3.09 140 15:22 14.06.2022
3146 Clouds 28 1016 63 10000 3.6 110 14:30 14.06.2022
3147 Clouds 29 1016 64 10000 2.57 120 13:41 14.06.2022
3148 Clouds 28 1016 64 10000 2.06 120 12:42 14.06.2022
3149 Clear 28 1015 62 10000 2.57 130 11:31 14.06.2022
3150 Clear 27 1015 67 10000 2.06 110 10:47 14.06.2022
3151 Clear 26 1015 69 10000 2.06 120 09:48 14.06.2022
3152 Clear 26 1015 65 10000 1.03 0 08:46 14.06.2022
3153 Clear 22 1014 68 10000 2.06 320 07:33 14.06.2022
3154 Clouds 21 1014 75 10000 2.57 330 05:19 14.06.2022
3155 Clouds 22 1014 73 10000 2.06 310 02:57 14.06.2022
3156 Clear 22 1013 72 10000 2.57 100 00:32 14.06.2022
3157 Clear 23 1013 73 10000 2.57 90 23:27 13.06.2022
3158 Clear 23 1013 72 10000 3.6 80 22:26 13.06.2022
3159 Clear 23 1013 72 10000 3.6 80 22:26 13.06.2022
3160 Clear 23 1013 69 10000 3.6 70 21:50 13.06.2022
3161 Clear 25 1013 69 10000 3.6 90 20:42 13.06.2022
3162 Clear 27 1013 66 10000 1.54 100 19:34 13.06.2022
3163 Clear 27 1013 66 10000 2.06 120 18:28 13.06.2022
3164 Clear 27 1013 66 10000 3.09 120 17:47 13.06.2022
3165 Clouds 27 1013 65 10000 3.6 100 16:52 13.06.2022
3166 Clouds 28 1014 66 10000 4.63 110 15:39 13.06.2022
3167 Clear 28 1014 66 10000 5.14 110 14:47 13.06.2022
3168 Clouds 27 1014 69 10000 6.17 110 13:55 13.06.2022
3169 Clouds 27 1015 71 10000 5.14 110 12:49 13.06.2022
3170 Clouds 27 1015 72 10000 4.12 110 11:34 13.06.2022
3171 Clouds 26 1015 72 10000 3.6 100 10:27 13.06.2022
3172 Clouds 25 1015 73 10000 4.12 90 09:42 13.06.2022
3173 Clouds 23 1015 75 10000 1.03 0 08:24 13.06.2022
3174 Clouds 21 1015 79 10000 2.57 60 06:34 13.06.2022
3175 Clouds 22 1015 74 10000 4.63 80 03:45 13.06.2022
3176 Clear 22 1016 71 10000 1.54 110 01:38 13.06.2022
3177 Clear 23 1016 69 10000 1.54 160 00:48 13.06.2022
3178 Clear 24 1017 65 10000 2.06 210 23:31 12.06.2022
3179 Clear 24 1016 62 10000 1.54 190 22:23 12.06.2022
3180 Clear 24 1016 68 10000 1.54 0 21:40 12.06.2022
3181 Clear 26 1017 65 10000 1.54 160 20:40 12.06.2022
3182 Clear 27 1017 58 10000 2.57 180 19:41 12.06.2022
3183 Clear 28 1017 51 10000 2.06 160 18:44 12.06.2022
3184 Clear 28 1018 51 10000 3.09 160 16:44 12.06.2022
3185 Clear 28 1019 53 10000 2.06 170 15:33 12.06.2022
3186 Clear 29 1019 49 10000 2.06 150 14:41 12.06.2022
3187 Clear 29 1019 49 10000 2.06 120 14:18 12.06.2022
3188 Clear 28 1019 57 10000 2.06 170 13:43 12.06.2022
3189 Clear 28 1020 55 10000 3.6 110 11:58 12.06.2022
3190 Clear 28 1020 54 10000 3.6 100 10:46 12.06.2022
3191 Clear 26 1020 51 10000 1.54 120 09:36 12.06.2022
3192 Clear 26 1020 41 10000 1.54 60 08:49 12.06.2022
3193 Clear 24 1019 54 10000 2.06 330 07:49 12.06.2022
3194 Clear 21 1018 56 10000 1.54 10 06:21 12.06.2022
3195 Clear 22 1017 57 10000 1.54 0 03:38 12.06.2022
3196 Clear 23 1018 53 10000 3.6 300 01:49 12.06.2022
3197 Clear 22 1018 59 10000 3.09 310 01:29 12.06.2022
3198 Clear 24 1018 54 10000 3.09 330 00:43 12.06.2022
3199 Clear 24 1018 54 10000 2.57 340 00:18 12.06.2022
3200 Clear 24 1018 55 10000 2.57 130 23:18 11.06.2022
3201 Clear 25 1018 53 10000 2.06 130 22:35 11.06.2022
3202 Clear 26 1018 49 10000 1.03 0 21:18 11.06.2022
3203 Clear 26 1018 49 10000 1.03 0 21:18 11.06.2022
3204 Clear 27 1018 46 10000 1.54 120 20:26 11.06.2022
3205 Clear 27 1017 51 10000 1.54 140 19:33 11.06.2022
3206 Clear 28 1017 50 10000 2.06 140 18:43 11.06.2022
3207 Clear 28 1017 50 10000 2.06 140 18:25 11.06.2022
3208 Clear 27 1019 52 10000 2.57 140 17:47 11.06.2022
3209 Clear 28 1019 45 10000 3.09 140 17:25 11.06.2022
3210 Clear 29 1019 43 10000 3.09 130 16:42 11.06.2022
3211 Clear 29 1019 41 10000 2.57 110 15:57 11.06.2022
3212 Clear 29 1019 39 10000 2.57 120 14:43 11.06.2022
3213 Clear 29 1019 37 10000 2.06 110 13:50 11.06.2022
3214 Clear 28 1018 47 10000 2.57 170 11:55 11.06.2022
3215 Clear 29 1018 37 10000 2.57 130 10:30 11.06.2022
3216 Clear 27 1017 41 10000 2.06 100 09:41 11.06.2022
3217 Clear 25 1017 38 10000 3.6 340 08:38 11.06.2022
3218 Clear 21 1016 42 10000 5.14 350 06:33 11.06.2022
3219 Clear 22 1016 39 10000 4.12 350 05:33 11.06.2022
3220 Clear 22 1016 43 10000 2.57 340 02:55 11.06.2022
3221 Clear 23 1017 39 10000 4.12 340 01:41 11.06.2022
3222 Clear 23 1017 38 10000 4.12 340 00:55 11.06.2022
3223 Clear 23 1016 36 10000 2.06 330 23:26 10.06.2022
3224 Clear 24 1016 48 10000 1.54 260 22:20 10.06.2022
3225 Clear 24 1016 43 10000 3.6 230 21:27 10.06.2022
3226 Clear 26 1015 47 10000 4.12 210 20:38 10.06.2022
3227 Clear 26 1015 45 10000 3.6 200 20:19 10.06.2022
3228 Clear 26 1015 45 10000 3.6 200 20:19 10.06.2022
3229 Clear 27 1015 42 10000 3.6 210 19:19 10.06.2022
3230 Clear 27 1015 43 10000 3.09 190 18:32 10.06.2022
3231 Clear 27 1015 44 10000 3.6 190 17:50 10.06.2022
3232 Clear 27 1015 44 10000 3.6 190 17:21 10.06.2022
3233 Clear 28 1015 41 10000 4.12 200 16:26 10.06.2022
3234 Clear 27 1015 40 10000 3.09 190 15:38 10.06.2022
3235 Clear 28 1015 42 10000 4.63 180 14:24 10.06.2022
3236 Clear 28 1015 42 10000 4.12 190 12:57 10.06.2022
3237 Clear 27 1014 44 10000 4.12 200 11:59 10.06.2022
3238 Clear 26 1014 43 10000 3.6 210 10:46 10.06.2022
3239 Clear 26 1014 43 10000 2.06 190 09:56 10.06.2022
3240 Clear 25 1015 37 10000 3.09 300 08:47 10.06.2022
3241 Clear 21 1013 45 10000 3.6 330 07:31 10.06.2022
3242 Clear 21 1013 45 10000 4.12 330 06:45 10.06.2022
3243 Clear 20 1012 41 10000 5.66 330 06:26 10.06.2022
3244 Clear 21 1011 45 10000 6.17 320 04:37 10.06.2022
3245 Clouds 22 1011 44 10000 3.09 330 01:59 10.06.2022
3246 Clouds 22 1011 43 10000 4.12 330 01:36 10.06.2022
3247 Clouds 22 1011 43 10000 4.12 330 01:36 10.06.2022
3248 Clouds 23 1010 41 10000 3.6 330 23:57 09.06.2022
3249 Clouds 23 1009 44 10000 3.09 40 22:22 09.06.2022
3250 Clouds 24 1008 47 10000 4.12 70 21:37 09.06.2022
3251 Clouds 25 1008 44 10000 3.6 70 20:58 09.06.2022
3252 Clouds 26 1007 44 10000 3.09 60 20:27 09.06.2022
3253 Clouds 26 1008 46 10000 3.6 70 19:31 09.06.2022
3254 Clouds 27 1007 48 10000 3.6 70 19:31 09.06.2022
3255 Clouds 27 1006 57 10000 5.14 80 18:35 09.06.2022
3256 Clouds 27 1007 55 10000 4.12 110 17:25 09.06.2022
3257 Clouds 27 1007 57 10000 3.6 110 16:21 09.06.2022
3258 Clouds 27 1006 59 10000 4.12 160 14:42 09.06.2022
3259 Clouds 27 1006 58 10000 4.12 160 14:23 09.06.2022
3260 Clouds 26 1006 60 10000 3.6 170 13:29 09.06.2022
3261 Clouds 26 1007 63 10000 4.12 180 12:46 09.06.2022
3262 Clouds 26 1007 67 10000 4.12 190 11:19 09.06.2022
3263 Clouds 25 1006 61 10000 2.57 200 09:50 09.06.2022
3264 Clouds 24 1006 61 10000 2.57 330 09:31 09.06.2022
3265 Clouds 22 1006 62 10000 2.57 320 08:21 09.06.2022
3266 Clouds 21 1005 66 10000 4.12 320 07:23 09.06.2022
3267 Clear 21 1004 73 10000 5.66 70 03:28 09.06.2022
3268 Clear 21 1005 78 10000 1.03 0 00:32 09.06.2022
3269 Clear 22 1005 66 10000 4.63 80 22:59 08.06.2022
3270 Clear 22 1005 72 10000 4.63 80 22:30 08.06.2022
3271 Clear 22 1005 72 10000 5.66 80 21:59 08.06.2022
3272 Clear 23 1005 73 10000 7.72 80 21:31 08.06.2022
3273 Clear 25 1005 63 10000 7.72 80 20:24 08.06.2022
3274 Clear 26 1005 57 10000 6.17 70 19:40 08.06.2022
3275 Clear 26 1006 57 10000 4.12 110 18:48 08.06.2022
3276 Clear 27 1006 58 10000 3.09 100 17:38 08.06.2022
3277 Clear 26 1007 57 10000 2.57 100 15:53 08.06.2022
3278 Clear 25 1008 68 10000 1.54 0 14:31 08.06.2022
3279 Clear 26 1008 64 10000 3.09 150 12:55 08.06.2022
3280 Clear 26 1008 59 10000 2.06 170 11:36 08.06.2022
3281 Clear 26 1009 55 10000 2.06 200 10:46 08.06.2022
3282 Clear 24 1009 55 10000 4.12 310 09:28 08.06.2022
3283 Clear 24 1008 59 10000 4.63 320 08:52 08.06.2022
3284 Clear 21 1009 62 10000 4.63 320 06:56 08.06.2022
3285 Clear 21 1008 64 10000 4.12 330 04:41 08.06.2022
3286 Clear 22 1009 76 10000 1.03 0 00:58 08.06.2022
3287 Clear 22 1009 81 10000 1.54 0 23:32 07.06.2022
3288 Clear 23 1009 79 10000 4.12 70 22:54 07.06.2022
3289 Clear 23 1009 79 10000 4.63 80 22:34 07.06.2022
3290 Clear 23 1008 77 10000 6.69 90 21:39 07.06.2022
3291 Clear 24 1008 64 10000 6.69 90 21:20 07.06.2022
3292 Clear 25 1007 73 10000 6.69 100 20:40 07.06.2022
3293 Clouds 26 1007 67 10000 8.23 90 19:51 07.06.2022
3294 Clouds 27 1007 71 10000 7.72 90 18:26 07.06.2022
3295 Clouds 28 1008 68 10000 6.69 100 17:33 07.06.2022
3296 Clouds 28 1008 69 10000 7.2 90 16:44 07.06.2022
3297 Clouds 28 1009 72 10000 7.2 100 15:58 07.06.2022
3298 Clouds 28 1009 71 10000 7.72 100 15:37 07.06.2022
3299 Clouds 28 1009 70 10000 7.72 100 15:18 07.06.2022
3300 Clouds 28 1009 69 10000 7.2 110 14:43 07.06.2022
3301 Clouds 28 1010 64 10000 7.72 100 13:38 07.06.2022
3302 Clouds 28 1010 66 10000 7.72 100 13:20 07.06.2022
3303 Clouds 28 1010 68 10000 5.14 110 11:55 07.06.2022
3304 Clouds 27 1010 69 10000 3.6 110 10:48 07.06.2022
3305 Clouds 23 1011 81 10000 1.54 290 08:58 07.06.2022
3306 Clouds 23 1011 81 10000 2.06 340 08:22 07.06.2022
3307 Clouds 20 1011 82 10000 3.09 320 06:42 07.06.2022
3308 Clouds 21 1011 81 10000 1.54 360 04:47 07.06.2022
3309 Clouds 22 1013 86 10000 1.03 0 01:28 07.06.2022
3310 Clouds 22 1013 88 10000 1.54 130 23:59 06.06.2022
3311 Clouds 23 1013 87 10000 2.57 100 22:56 06.06.2022
3312 Clouds 22 1013 86 10000 3.09 110 22:30 06.06.2022
3313 Clouds 23 1012 85 10000 2.57 100 21:18 06.06.2022
3314 Clouds 25 1012 77 10000 3.6 110 19:29 06.06.2022
3315 Clouds 25 1014 74 10000 4.12 110 18:59 06.06.2022
3316 Clouds 25 1014 75 10000 3.6 110 18:32 06.06.2022
3317 Clouds 26 1014 71 10000 4.12 100 17:27 06.06.2022
3318 Clouds 27 1015 69 10000 3.09 130 16:21 06.06.2022
3319 Clouds 27 1015 71 10000 3.09 130 15:33 06.06.2022
3320 Clouds 26 1015 75 10000 3.09 130 14:36 06.06.2022
3321 Clouds 25 1015 76 10000 3.09 140 13:27 06.06.2022
3322 Clouds 25 1015 75 10000 3.09 130 12:37 06.06.2022
3323 Clouds 26 1015 75 10000 3.6 140 11:54 06.06.2022
3324 Clouds 25 1015 76 10000 3.09 150 10:46 06.06.2022
3325 Clouds 24 1015 75 10000 3.09 190 09:40 06.06.2022
3326 Clouds 22 1014 72 10000 3.6 330 08:33 06.06.2022
3327 Clouds 21 1014 79 10000 4.63 320 07:28 06.06.2022
3328 Clouds 21 1014 85 10000 1.03 0 05:29 06.06.2022
3329 Clouds 21 1014 85 10000 1.03 0 05:29 06.06.2022
3330 Clouds 21 1014 85 10000 1.03 0 05:29 06.06.2022
3331 Clouds 22 1014 85 10000 5.14 90 03:44 06.06.2022
3332 Clouds 23 1013 76 10000 8.75 90 01:29 06.06.2022
3333 Clouds 22 1013 85 9000 6.17 80 00:42 06.06.2022
3334 Clear 23 1013 84 9000 1.54 60 23:49 05.06.2022
3335 Clear 23 1013 81 9000 1.54 90 22:52 05.06.2022
3336 Clouds 25 1012 79 10000 2.06 90 20:59 05.06.2022
3337 Clouds 26 1012 74 10000 1.03 0 19:50 05.06.2022
3338 Clouds 27 1012 73 10000 8.23 220 18:31 05.06.2022
3339 Clouds 27 1012 72 10000 8.23 220 18:31 05.06.2022
3340 Clouds 27 1012 73 10000 7.72 210 17:55 05.06.2022
3341 Clouds 27 1013 73 10000 7.72 210 17:27 05.06.2022
3342 Clouds 26 1013 78 10000 5.14 220 16:57 05.06.2022
3343 Clouds 26 1013 79 10000 6.69 220 16:37 05.06.2022
3344 Clouds 26 1013 79 10000 6.69 220 16:37 05.06.2022
3345 Clouds 27 1014 72 10000 2.57 180 14:34 05.06.2022
3346 Clouds 26 1015 78 10000 3.6 190 12:59 05.06.2022
3347 Clear 26 1015 79 10000 2.06 110 11:51 05.06.2022
3348 Clouds 25 1014 78 10000 4.12 100 10:43 05.06.2022
3349 Clouds 25 1014 75 10000 4.12 100 10:23 05.06.2022
3350 Clouds 24 1014 74 10000 3.09 50 08:41 05.06.2022
3351 Clouds 24 1014 74 10000 3.09 50 08:20 05.06.2022
3352 Clear 22 1013 71 10000 2.57 320 05:23 05.06.2022
3353 Clear 22 1014 75 10000 4.12 270 04:30 05.06.2022
3354 Clear 23 1014 74 10000 2.57 120 01:45 05.06.2022
3355 Clear 23 1014 74 10000 2.57 120 01:45 05.06.2022
3356 Clear 23 1014 73 10000 4.63 120 01:45 05.06.2022
3357 Clear 23 1014 73 10000 2.57 120 01:45 05.06.2022
3358 Clear 23 1014 74 10000 2.57 120 01:45 05.06.2022
3359 Clear 23 1014 71 10000 4.63 120 01:23 05.06.2022
3360 Clear 23 1014 71 10000 4.63 120 01:23 05.06.2022
3361 Clouds 24 1015 67 10000 3.6 80 22:44 04.06.2022
3362 Clouds 25 1014 65 10000 5.14 100 20:55 04.06.2022
3363 Clear 28 1015 60 10000 4.12 90 18:54 04.06.2022
3364 Clear 28 1015 64 10000 5.14 100 16:48 04.06.2022
3365 Clear 28 1015 60 10000 6.17 90 16:19 04.06.2022
3366 Clear 29 1016 58 10000 7.2 90 15:27 04.06.2022
3367 Clear 28 1016 58 10000 6.17 90 13:54 04.06.2022
3368 Clear 27 1016 60 10000 4.63 110 11:23 04.06.2022
3369 Clear 28 1016 58 10000 3.6 90 10:52 04.06.2022
3370 Clear 27 1016 60 10000 3.09 120 09:46 04.06.2022
3371 Clear 26 1015 58 10000 2.06 330 08:50 04.06.2022
3372 Clear 24 1015 64 10000 4.12 340 08:31 04.06.2022
3373 Clear 22 1015 70 10000 4.12 330 06:20 04.06.2022
3374 Clear 23 1015 66 10000 4.12 330 03:37 04.06.2022
3375 Clear 23 1015 64 10000 2.57 330 00:21 04.06.2022
3376 Clear 23 1015 66 10000 2.06 70 22:56 03.06.2022
3377 Clear 23 1015 65 10000 4.63 70 21:52 03.06.2022
3378 Clear 25 1015 65 10000 6.69 90 20:40 03.06.2022
3379 Clear 26 1014 65 10000 6.69 90 19:33 03.06.2022
3380 Clear 28 1014 59 10000 4.63 90 16:56 03.06.2022
3381 Clouds 27 1015 66 10000 3.6 90 15:55 03.06.2022
3382 Clouds 22 1016 81 10000 6.69 10 14:25 03.06.2022
3383 Rain 22 1018 75 10000 5.14 320 12:21 03.06.2022
3384 Rain 24 1015 61 10000 1.54 330 09:57 03.06.2022
3385 Clouds 24 1015 62 10000 1.54 0 09:29 03.06.2022
3386 Rain 23 1015 55 10000 3.09 20 07:47 03.06.2022
3387 Clear 22 1014 59 10000 1.03 0 06:59 03.06.2022
3388 Clear 22 1014 61 10000 1.54 0 06:28 03.06.2022
3389 Clear 22 1014 67 10000 1.54 40 03:52 03.06.2022
3390 Clear 22 1015 76 10000 0 0 23:53 02.06.2022
3391 Clear 23 1015 69 10000 2.06 100 22:33 02.06.2022
3392 Clear 24 1014 69 10000 2.06 120 20:57 02.06.2022
3393 Clear 25 1014 67 10000 1.54 110 19:58 02.06.2022
3394 Clear 25 1014 67 10000 1.54 90 19:39 02.06.2022
3395 Clear 25 1014 67 10000 1.54 100 18:51 02.06.2022
3396 Clear 27 1016 50 10000 4.12 110 16:30 02.06.2022
3397 Clear 27 1016 56 10000 3.6 70 15:47 02.06.2022
3398 Clouds 25 1016 68 10000 4.12 120 13:32 02.06.2022
3399 Clouds 25 1015 70 10000 5.14 120 12:51 02.06.2022
3400 Clouds 24 1015 70 10000 4.12 100 10:48 02.06.2022
3401 Clouds 23 1015 73 10000 3.6 100 09:45 02.06.2022
3402 Clouds 23 1016 75 10000 2.06 80 09:26 02.06.2022
3403 Clouds 21 1016 79 10000 3.09 330 08:23 02.06.2022
3404 Clouds 19 1015 81 10000 2.06 340 06:21 02.06.2022
3405 Clear 19 1015 78 10000 1.54 0 03:53 02.06.2022
3406 Clear 20 1015 81 10000 1.54 360 01:36 02.06.2022
3407 Clear 20 1015 84 10000 0.86 32 23:36 01.06.2022
3408 Clear 20 1014 86 10000 0.44 35 22:18 01.06.2022
3409 Clouds 22 1014 80 10000 1.54 150 21:25 01.06.2022
3410 Clouds 23 1014 78 10000 2.57 140 20:39 01.06.2022
3411 Clouds 24 1014 76 10000 3.09 150 19:52 01.06.2022
3412 Clouds 24 1015 70 10000 2.57 150 18:52 01.06.2022
3413 Clear 26 1015 65 10000 3.6 140 17:40 01.06.2022
3414 Clear 26 1015 67 10000 4.12 120 16:22 01.06.2022
3415 Clouds 26 1014 71 10000 3.6 120 14:51 01.06.2022
3416 Clear 26 1014 71 10000 3.25 127 13:44 01.06.2022
3417 Clouds 25 1014 72 10000 4.12 110 11:41 01.06.2022
3418 Clear 23 1014 73 10000 2.57 90 09:34 01.06.2022
3419 Clouds 21 1014 76 10000 2.57 330 08:28 01.06.2022
3420 Clouds 19 1013 79 10000 3.09 330 07:21 01.06.2022
3421 Clear 18 1013 81 10000 3.6 340 04:59 01.06.2022
3422 Clouds 20 1013 86 10000 1.54 280 23:57 31.05.2022
3423 Clouds 20 1013 85 10000 2.06 230 22:59 31.05.2022
3424 Clouds 21 1013 84 10000 2.06 210 22:33 31.05.2022
3425 Clouds 21 1013 82 10000 2.57 210 21:45 31.05.2022
3426 Clouds 22 1013 77 10000 3.6 200 20:45 31.05.2022
3427 Clouds 23 1012 74 10000 4.12 200 19:53 31.05.2022
3428 Clouds 23 1012 70 10000 3.09 190 18:45 31.05.2022
3429 Clouds 23 1012 65 10000 3.09 170 17:49 31.05.2022
3430 Clouds 23 1012 65 10000 3.09 170 17:49 31.05.2022
3431 Clouds 24 1013 64 10000 3.09 160 16:48 31.05.2022
3432 Clouds 24 1013 61 10000 3.09 170 15:40 31.05.2022
3433 Clouds 23 1014 64 10000 3.6 170 13:45 31.05.2022
3434 Clouds 24 1013 62 10000 2.06 150 12:20 31.05.2022
3435 Clouds 23 1013 64 10000 1.54 110 10:52 31.05.2022
3436 Clouds 20 1012 75 10000 2.57 330 08:41 31.05.2022
3437 Clouds 18 1012 78 10000 3.09 340 06:57 31.05.2022
3438 Clouds 18 1012 81 10000 3.09 330 04:46 31.05.2022
3439 Clouds 19 1011 84 10000 1.69 41 00:26 31.05.2022
3440 Clouds 20 1011 79 10000 5.66 90 23:26 30.05.2022
3441 Clouds 19 1010 84 10000 1.74 40 22:48 30.05.2022
3442 Clouds 20 1010 81 10000 5.14 80 21:51 30.05.2022
3443 Clouds 20 1009 81 10000 4.12 80 21:32 30.05.2022
3444 Clouds 22 1008 76 10000 4.63 110 19:51 30.05.2022
3445 Clouds 22 1008 78 10000 2.57 100 18:34 30.05.2022
3446 Rain 22 1008 76 10000 3.09 140 17:24 30.05.2022
3447 Clouds 23 1008 71 10000 4.12 160 16:39 30.05.2022
3448 Clouds 23 1008 72 10000 4.12 130 14:23 30.05.2022
3449 Clouds 22 1007 76 10000 4.12 180 12:21 30.05.2022
3450 Clouds 22 1007 73 10000 3.6 170 10:40 30.05.2022
3451 Clouds 21 1007 76 10000 2.01 154 09:19 30.05.2022
3452 Clouds 18 1005 82 10000 3.09 320 06:30 30.05.2022
3453 Clouds 18 1005 82 10000 2.06 330 05:48 30.05.2022
3454 Clouds 20 1005 81 10000 4.12 180 01:33 30.05.2022
3455 Clouds 20 1004 80 10000 4.63 140 22:54 29.05.2022
3456 Clouds 20 1004 81 10000 3.6 140 22:36 29.05.2022
3457 Clouds 20 1003 81 10000 4.12 140 20:54 29.05.2022
3458 Clouds 21 1003 81 10000 4.63 160 19:32 29.05.2022
3459 Clouds 21 1003 80 10000 5.66 170 18:44 29.05.2022
3460 Clouds 21 1002 81 10000 6.69 190 17:31 29.05.2022
3461 Clouds 22 1002 82 10000 8.23 190 15:48 29.05.2022
3462 Clouds 23 1002 77 10000 7.72 200 14:57 29.05.2022
3463 Clouds 24 1002 73 10000 7.72 200 13:53 29.05.2022
3464 Clouds 24 1002 72 10000 3.6 180 11:41 29.05.2022
3465 Clouds 24 1002 73 10000 2.06 180 10:38 29.05.2022
3466 Clouds 23 1002 73 10000 1.54 0 08:51 29.05.2022
3467 Clouds 21 1002 75 10000 7.2 90 06:18 29.05.2022
3468 Clouds 21 1002 70 10000 3.6 0 04:45 29.05.2022
3469 Clear 21 1002 72 10000 4.63 320 03:47 29.05.2022
3470 Clear 23 1001 65 10000 2.57 40 23:50 28.05.2022
3471 Clear 23 1001 65 10000 2.57 40 23:50 28.05.2022
3472 Clear 23 1001 59 10000 2.06 310 23:26 28.05.2022
3473 Clear 23 1001 67 10000 2.06 260 22:39 28.05.2022
3474 Clear 24 1001 78 10000 1.54 0 21:38 28.05.2022
3475 Rain 25 1002 67 10000 2.06 160 19:51 28.05.2022
3476 Clear 27 1002 57 10000 2.57 150 18:54 28.05.2022
3477 Clear 26 1003 67 10000 1.54 140 17:37 28.05.2022
3478 Clear 28 1003 50 10000 1.54 0 16:50 28.05.2022
3479 Clear 29 1004 50 10000 2.06 150 15:43 28.05.2022
3480 Clear 29 1005 49 10000 2.06 120 14:28 28.05.2022
3481 Clear 29 1005 49 10000 3.6 110 12:57 28.05.2022
3482 Clear 29 1005 46 10000 4.12 100 12:35 28.05.2022
3483 Clear 29 1006 45 10000 3.09 100 11:23 28.05.2022
3484 Clear 28 1006 45 10000 2.06 110 10:21 28.05.2022
3485 Clear 26 1006 46 10000 1.54 0 09:22 28.05.2022
3486 Clear 23 1008 48 10000 2.06 30 07:23 28.05.2022
3487 Clear 22 1007 53 10000 1.54 110 06:26 28.05.2022
3488 Clear 24 1008 45 10000 3.6 350 03:48 28.05.2022
3489 Clear 25 1010 49 10000 2.57 310 00:33 28.05.2022
3490 Clear 26 1011 39 10000 2.06 340 23:32 27.05.2022
3491 Clear 27 1011 44 10000 1.03 230 21:50 27.05.2022
3492 Clear 27 1011 47 10000 0 0 20:57 27.05.2022
3493 Clear 28 1011 49 10000 0 0 20:26 27.05.2022
3494 Clear 28 1012 43 10000 1.03 0 19:51 27.05.2022
3495 Clear 30 1012 43 10000 1.03 0 19:32 27.05.2022
3496 Clouds 30 1013 41 10000 1.03 0 18:29 27.05.2022
3497 Clouds 31 1014 36 10000 2.06 190 16:42 27.05.2022
3498 Clouds 32 1013 39 10000 2.08 197 15:34 27.05.2022
3499 Clouds 32 1014 40 10000 2.23 161 14:45 27.05.2022
3500 Clouds 32 1015 39 10000 2.57 138 13:30 27.05.2022
3501 Clear 31 1015 41 10000 2.06 130 11:41 27.05.2022
3502 Clear 29 1015 43 10000 3.09 130 11:23 27.05.2022
3503 Clear 31 1016 30 10000 1.54 0 10:32 27.05.2022
3504 Clear 27 1016 39 10000 4.12 350 09:37 27.05.2022
3505 Clear 25 1015 44 10000 5.14 350 08:19 27.05.2022
3506 Clear 23 1015 50 10000 5.14 350 06:45 27.05.2022
3507 Clear 24 1016 47 10000 3.6 360 02:53 27.05.2022
3508 Clear 24 1016 59 10000 4.63 350 00:53 27.05.2022
3509 Clear 23 1017 70 10000 1.03 70 22:50 26.05.2022
3510 Clear 24 1016 66 10000 2.57 60 21:43 26.05.2022
3511 Clear 25 1016 64 10000 1.54 110 20:59 26.05.2022
3512 Clear 26 1016 62 10000 2.06 180 19:27 26.05.2022
3513 Clear 27 1017 60 10000 2.57 190 18:21 26.05.2022
3514 Clear 26 1018 61 10000 1.03 0 16:58 26.05.2022
3515 Clear 25 1018 65 10000 1.54 130 15:49 26.05.2022
3516 Clear 26 1018 58 10000 2.57 120 14:48 26.05.2022
3517 Clouds 26 1018 66 10000 2.57 130 13:45 26.05.2022
3518 Clouds 26 1017 60 10000 1.54 110 11:38 26.05.2022
3519 Clouds 24 1017 61 10000 2.57 330 10:37 26.05.2022
3520 Clouds 23 1017 66 10000 3.6 330 09:37 26.05.2022
3521 Clouds 21 1017 70 10000 4.12 330 08:38 26.05.2022
3522 Clear 20 1015 74 10000 3.09 330 05:25 26.05.2022
3523 Clear 20 1015 73 10000 3.6 350 01:26 26.05.2022
3524 Clear 20 1015 81 10000 3.6 330 23:41 25.05.2022
3525 Clear 21 1015 79 10000 1.54 40 22:48 25.05.2022
3526 Clouds 21 1014 81 10000 0.51 50 21:37 25.05.2022
3527 Clouds 22 1014 84 10000 1.03 0 20:43 25.05.2022
3528 Clouds 24 1013 77 10000 2.06 110 19:32 25.05.2022
3529 Clouds 24 1013 75 10000 2.57 120 18:23 25.05.2022
3530 Clouds 25 1012 72 10000 5.14 110 16:42 25.05.2022
3531 Clouds 25 1012 71 10000 5.66 110 16:21 25.05.2022
3532 Clouds 26 1012 67 10000 4.63 110 15:24 25.05.2022
3533 Clouds 26 1012 68 10000 3.09 110 14:38 25.05.2022
3534 Clouds 25 1012 68 10000 3.09 110 14:19 25.05.2022
3535 Clouds 24 1012 72 10000 2.57 100 12:52 25.05.2022
3536 Clouds 23 1011 77 10000 4.63 120 11:32 25.05.2022
3537 Clouds 22 1011 75 10000 3.6 130 10:23 25.05.2022
3538 Clouds 21 1009 76 10000 1.74 91 08:53 25.05.2022
3539 Clouds 19 1009 81 10000 2.52 9 07:26 25.05.2022
3540 Clouds 19 1008 79 10000 3.6 330 05:27 25.05.2022
3541 Rain 20 1007 71 10000 2.57 310 00:38 25.05.2022
3542 Rain 20 1007 72 10000 2.06 310 23:48 24.05.2022
3543 Rain 20 1007 75 10000 2.57 290 22:58 24.05.2022
3544 Clouds 20 1006 76 10000 3.09 350 21:47 24.05.2022
3545 Rain 20 1006 76 10000 2.57 40 21:23 24.05.2022
3546 Rain 20 1006 78 10000 3.6 340 20:59 24.05.2022
3547 Clouds 22 1005 78 10000 8.23 90 19:23 24.05.2022
3548 Clouds 24 1005 69 10000 6.69 80 18:29 24.05.2022
3549 Clouds 25 1006 66 10000 4.12 90 16:39 24.05.2022
3550 Clouds 25 1006 66 10000 4.12 90 16:39 24.05.2022
3551 Clouds 25 1005 67 10000 3.09 110 15:45 24.05.2022
3552 Clouds 25 1005 71 10000 4.63 110 14:38 24.05.2022
3553 Clouds 25 1006 70 10000 4.63 110 13:46 24.05.2022
3554 Clouds 25 1006 69 10000 3.09 110 12:24 24.05.2022
3555 Clear 22 1005 68 10000 2.06 90 09:52 24.05.2022
3556 Clouds 21 1005 71 10000 2.57 340 08:52 24.05.2022
3557 Clouds 19 1005 73 10000 3.6 340 07:56 24.05.2022
3558 Clouds 18 1005 74 10000 4.63 330 06:41 24.05.2022
3559 Clear 18 1005 76 10000 3.6 340 03:41 24.05.2022
3560 Clouds 19 1005 79 10000 3.09 320 01:47 24.05.2022
3561 Clouds 19 1005 82 10000 2.06 320 00:34 24.05.2022
3562 Clouds 20 1006 84 10000 4.12 100 22:24 23.05.2022
3563 Clouds 20 1005 86 10000 5.14 110 21:53 23.05.2022
3564 Clear 21 1005 84 10000 5.66 80 20:53 23.05.2022
3565 Clear 23 1005 78 10000 4.63 90 19:56 23.05.2022
3566 Clear 24 1006 76 10000 3.6 90 19:27 23.05.2022
3567 Clear 24 1006 76 10000 3.6 100 18:41 23.05.2022
3568 Clouds 24 1006 73 10000 3.6 110 18:22 23.05.2022
3569 Clouds 25 1006 74 10000 5.14 60 16:46 23.05.2022
3570 Clouds 23 1008 80 10000 2.57 130 14:44 23.05.2022
3571 Clouds 24 1009 75 10000 3.6 110 11:58 23.05.2022
3572 Clouds 24 1009 75 10000 4.12 120 11:20 23.05.2022
3573 Clouds 22 1009 79 10000 3.09 90 09:48 23.05.2022
3574 Clouds 20 1009 84 10000 1.03 0 08:51 23.05.2022
3575 Clouds 19 1009 81 10000 1.54 330 07:46 23.05.2022
3576 Clouds 18 1009 82 10000 1.03 320 06:43 23.05.2022
3577 Clouds 19 1010 83 10000 1.03 280 04:43 23.05.2022
3578 Clouds 20 1011 88 10000 1.95 65 02:19 23.05.2022
3579 Clouds 20 1011 88 10000 2.57 90 01:34 23.05.2022
3580 Clouds 20 1011 88 10000 1.54 90 23:42 22.05.2022
3581 Clouds 20 1011 87 10000 0.51 110 22:35 22.05.2022
3582 Clouds 21 1011 87 10000 0 0 21:54 22.05.2022
3583 Clouds 21 1011 87 10000 1.54 100 20:53 22.05.2022
3584 Clouds 21 1011 86 10000 2.57 120 20:27 22.05.2022
3585 Clouds 22 1011 84 10000 2.57 120 19:56 22.05.2022
3586 Clouds 22 1011 83 10000 2.57 120 18:55 22.05.2022
3587 Clouds 22 1011 82 10000 2.57 110 18:25 22.05.2022
3588 Clouds 22 1011 84 10000 1.54 110 17:33 22.05.2022
3589 Clouds 22 1012 83 10000 1.54 150 16:31 22.05.2022
3590 Clouds 22 1013 83 10000 2.57 140 14:48 22.05.2022
3591 Clouds 23 1013 79 10000 3.09 140 13:48 22.05.2022
3592 Clouds 23 1013 76 10000 3.6 140 12:52 22.05.2022
3593 Clouds 23 1013 78 10000 3.6 130 11:44 22.05.2022
3594 Clouds 22 1014 79 10000 1.54 0 09:45 22.05.2022
3595 Clouds 21 1014 82 10000 1.03 0 08:37 22.05.2022
3596 Clouds 20 1014 85 10000 1.54 310 07:22 22.05.2022
3597 Clouds 20 1014 85 10000 1.54 310 07:22 22.05.2022
3598 Clouds 20 1013 86 10000 1.54 320 06:23 22.05.2022
3599 Clouds 20 1015 85 10000 1.03 320 02:23 22.05.2022
3600 Clouds 21 1016 85 10000 2.06 360 00:44 22.05.2022
3601 Clouds 21 1016 88 10000 3.6 80 23:55 21.05.2022
3602 Clouds 21 1016 87 10000 4.63 80 23:21 21.05.2022
3603 Clouds 21 1016 86 10000 4.63 80 21:45 21.05.2022
3604 Clouds 21 1015 86 10000 4.63 80 21:26 21.05.2022
3605 Clouds 22 1015 83 10000 5.66 90 20:25 21.05.2022
3606 Clouds 22 1016 83 10000 4.63 100 19:37 21.05.2022
3607 Clouds 24 1017 74 10000 5.14 110 17:57 21.05.2022
3608 Clouds 23 1018 78 10000 4.12 110 16:55 21.05.2022
3609 Clouds 25 1019 71 10000 4.63 120 14:38 21.05.2022
3610 Clouds 24 1020 72 10000 4.63 120 13:53 21.05.2022
3611 Clouds 25 1019 71 10000 3.6 120 12:57 21.05.2022
3612 Clouds 24 1019 73 10000 3.09 120 12:37 21.05.2022
3613 Clouds 23 1020 75 10000 2.06 150 10:45 21.05.2022
3614 Clouds 22 1020 77 10000 1.03 0 09:49 21.05.2022
3615 Clouds 21 1020 77 10000 1.54 0 08:58 21.05.2022
3616 Clouds 20 1020 79 10000 1.03 0 08:35 21.05.2022
3617 Clouds 18 1020 85 10000 0.82 56 05:29 21.05.2022
3618 Clouds 19 1022 85 10000 1.54 70 01:24 21.05.2022
3619 Clouds 20 1022 86 10000 2.06 90 23:30 20.05.2022
3620 Clouds 20 1023 86 10000 2.06 110 22:26 20.05.2022
3621 Clouds 21 1023 86 10000 2.06 110 21:55 20.05.2022
3622 Clouds 21 1023 86 10000 2.06 110 21:55 20.05.2022
3623 Clouds 21 1023 85 10000 2.06 140 21:18 20.05.2022
3624 Clouds 22 1023 84 10000 2.06 140 20:44 20.05.2022
3625 Clouds 23 1023 78 10000 3.09 130 19:45 20.05.2022
3626 Clouds 24 1023 76 10000 2.06 130 18:48 20.05.2022
3627 Clouds 24 1024 74 10000 2.57 140 17:48 20.05.2022
3628 Clouds 25 1024 72 10000 2.57 140 16:22 20.05.2022
3629 Clouds 25 1025 69 10000 3.09 140 15:53 20.05.2022
3630 Clouds 25 1026 70 10000 3.09 130 14:32 20.05.2022
3631 Clouds 25 1026 69 10000 3.09 130 13:56 20.05.2022
3632 Clear 25 1026 66 10000 4.63 110 11:51 20.05.2022
3633 Clear 25 1026 53 10000 1.54 150 10:34 20.05.2022
3634 Clear 23 1026 55 10000 2.57 340 08:59 20.05.2022
3635 Clear 21 1027 56 10000 3.6 330 07:43 20.05.2022
3636 Clear 20 1025 59 10000 3.6 330 06:40 20.05.2022
3637 Clear 20 1025 61 10000 2.06 340 05:39 20.05.2022
3638 Clear 21 1025 60 10000 2.57 340 01:29 20.05.2022
3639 Clear 21 1025 59 10000 1.54 310 23:46 19.05.2022
3640 Clear 21 1024 64 10000 0 0 22:35 19.05.2022
3641 Clear 22 1024 65 10000 0 0 21:50 19.05.2022
3642 Clear 22 1024 69 10000 1.03 60 21:23 19.05.2022
3643 Clear 23 1024 69 10000 1.03 180 20:43 19.05.2022
3644 Clear 24 1023 64 10000 1.03 0 19:54 19.05.2022
3645 Clear 24 1023 64 10000 2.06 190 19:00 19.05.2022
3646 Clear 25 1023 62 10000 2.57 180 17:36 19.05.2022
3647 Clear 26 1024 48 10000 2.57 160 15:43 19.05.2022
3648 Clear 26 1024 44 10000 2.57 160 14:47 19.05.2022
3649 Clear 26 1024 43 10000 2.06 170 14:20 19.05.2022
3650 Clear 26 1025 39 10000 2.06 100 11:54 19.05.2022
3651 Clear 25 1024 49 10000 5.14 70 10:30 19.05.2022
3652 Clear 23 1024 58 10000 7.2 80 08:44 19.05.2022
3653 Clear 21 1024 60 10000 1.54 350 07:18 19.05.2022
3654 Clouds 20 1021 80 10000 1.54 0 03:41 19.05.2022
3655 Clear 22 1021 68 10000 1.54 40 00:58 19.05.2022
3656 Clear 21 1021 75 10000 0 0 23:40 18.05.2022
3657 Clear 21 1020 77 10000 0 0 22:43 18.05.2022
3658 Clear 22 1021 72 10000 0 0 21:43 18.05.2022
3659 Clear 22 1020 77 10000 1.03 0 21:23 18.05.2022
3660 Clear 22 1019 77 10000 2.57 100 20:21 18.05.2022
3661 Clear 22 1019 73 10000 1.54 80 18:56 18.05.2022
3662 Rain 23 1019 74 10000 1.03 0 17:57 18.05.2022
3663 Rain 23 1019 71 10000 2.06 110 17:36 18.05.2022
3664 Clear 24 1019 71 10000 2.06 110 17:18 18.05.2022
3665 Clear 25 1019 64 10000 2.06 160 15:58 18.05.2022
3666 Clear 25 1019 65 10000 2.06 160 15:35 18.05.2022
3667 Clear 25 1019 67 10000 2.06 160 14:21 18.05.2022
3668 Clear 24 1019 68 10000 3.6 110 12:55 18.05.2022
3669 Clear 24 1019 70 10000 3.6 110 12:25 18.05.2022
3670 Clear 24 1019 71 10000 2.06 120 11:33 18.05.2022
3671 Clear 23 1019 74 10000 1.54 110 10:48 18.05.2022
3672 Clear 20 1018 74 10000 1.03 0 08:25 18.05.2022
3673 Clouds 18 1018 78 10000 3.09 330 07:28 18.05.2022
3674 Clouds 18 1017 83 10000 3.6 80 04:26 18.05.2022
3675 Clear 18 1017 85 10000 1.03 150 00:52 18.05.2022
3676 Clear 19 1017 83 10000 1.54 200 23:41 17.05.2022
3677 Clear 20 1016 83 10000 1.03 200 21:23 17.05.2022
3678 Clear 21 1016 82 10000 0.51 160 20:44 17.05.2022
3679 Clouds 22 1016 75 10000 1.54 170 19:45 17.05.2022
3680 Clouds 23 1016 75 10000 1.54 170 19:24 17.05.2022
3681 Clouds 23 1016 73 10000 2.06 180 17:49 17.05.2022
3682 Clouds 24 1017 74 10000 2.06 140 16:58 17.05.2022
3683 Clouds 24 1017 72 10000 2.57 130 16:24 17.05.2022
3684 Clouds 24 1018 73 10000 3.09 110 14:56 17.05.2022
3685 Clouds 24 1018 74 10000 3.09 110 14:29 17.05.2022
3686 Clouds 23 1018 74 10000 3.6 110 13:30 17.05.2022
3687 Clear 22 1018 73 10000 2.57 130 10:43 17.05.2022
3688 Clear 20 1018 78 10000 1.54 320 08:53 17.05.2022
3689 Clear 18 1018 83 10000 2.57 350 07:57 17.05.2022
3690 Clear 17 1018 86 10000 3.09 330 06:27 17.05.2022
3691 Clouds 18 1019 84 10000 4.12 60 01:59 17.05.2022
3692 Clouds 18 1018 86 10000 7.2 80 23:59 16.05.2022
3693 Clear 19 1018 84 10000 2.57 70 22:40 16.05.2022
3694 Clear 20 1018 85 10000 1.54 80 21:33 16.05.2022
3695 Clear 21 1017 82 10000 1.54 70 20:44 16.05.2022
3696 Clouds 22 1018 77 10000 2.57 90 19:19 16.05.2022
3697 Clouds 23 1018 75 10000 2.57 120 17:58 16.05.2022
3698 Clouds 23 1019 72 10000 3.09 130 15:42 16.05.2022
3699 Clouds 23 1020 73 10000 2.57 140 13:48 16.05.2022
3700 Clouds 22 1020 75 10000 2.57 140 12:46 16.05.2022
3701 Clouds 21 1019 75 10000 2.06 160 10:52 16.05.2022
3702 Clouds 19 1019 77 10000 1.03 0 08:55 16.05.2022
3703 Clear 16 1018 82 10000 1.54 330 06:33 16.05.2022
3704 Clear 17 1019 83 10000 2.57 310 02:33 16.05.2022
3705 Clear 18 1018 86 10000 0 0 23:19 15.05.2022
3706 Clear 18 1018 85 10000 0 0 22:29 15.05.2022
3707 Clear 18 1018 84 10000 1.54 140 21:39 15.05.2022
3708 Clear 19 1018 82 10000 1.54 180 20:53 15.05.2022
3709 Clouds 21 1018 76 10000 2.06 180 19:24 15.05.2022
3710 Clouds 23 1018 69 10000 3.09 190 17:48 15.05.2022
3711 Clouds 23 1018 68 10000 2.57 140 15:56 15.05.2022
3712 Clouds 23 1019 70 10000 2.06 140 13:50 15.05.2022
3713 Clouds 22 1019 69 10000 2.57 150 12:23 15.05.2022
3714 Clouds 22 1019 71 10000 2.06 160 11:38 15.05.2022
3715 Clouds 20 1018 76 10000 1.54 130 10:23 15.05.2022
3716 Clouds 17 1018 81 10000 2.06 320 07:46 15.05.2022
3717 Clouds 16 1019 85 10000 1.54 0 06:57 15.05.2022
3718 Clear 16 1017 81 10000 2.06 340 05:33 15.05.2022
3719 Clouds 17 1019 80 10000 1.54 40 00:49 15.05.2022
3720 Clouds 17 1019 83 10000 0.51 90 23:38 14.05.2022
3721 Clear 17 1019 83 10000 0.51 100 22:45 14.05.2022
3722 Clear 18 1018 85 10000 1.54 160 21:28 14.05.2022
3723 Clear 18 1017 84 10000 1.03 0 20:51 14.05.2022
3724 Clear 20 1017 79 10000 1.54 120 19:38 14.05.2022
3725 Clear 20 1017 79 10000 1.54 120 19:19 14.05.2022
3726 Clouds 19 1018 80 10000 1.03 0 18:41 14.05.2022
3727 Clouds 20 1018 76 10000 2.57 140 16:38 14.05.2022
3728 Clouds 22 1019 71 10000 2.57 130 15:23 14.05.2022
3729 Clouds 22 1019 72 10000 2.06 130 14:33 14.05.2022
3730 Clouds 21 1019 75 10000 1.54 140 12:24 14.05.2022
3731 Clouds 20 1019 79 10000 3.6 120 10:58 14.05.2022
3732 Clouds 19 1019 82 10000 4.12 90 10:21 14.05.2022
3733 Clouds 19 1019 81 10000 5.14 90 09:53 14.05.2022
3734 Clouds 19 1018 79 10000 4.63 70 08:49 14.05.2022
3735 Clouds 16 1018 83 10000 2.06 340 06:41 14.05.2022
3736 Clouds 16 1018 82 10000 2.06 320 02:39 14.05.2022
3737 Clear 17 1018 84 10000 3.6 70 23:36 13.05.2022
3738 Clear 17 1018 84 10000 3.09 70 22:58 13.05.2022
3739 Clear 17 1018 84 10000 3.09 70 22:27 13.05.2022
3740 Clear 18 1018 82 10000 3.6 80 21:52 13.05.2022
3741 Clear 19 1018 79 10000 4.63 90 20:45 13.05.2022
3742 Clear 19 1018 77 10000 4.12 90 20:27 13.05.2022
3743 Clear 20 1018 75 10000 3.6 100 19:28 13.05.2022
3744 Clear 21 1018 71 10000 3.09 130 17:51 13.05.2022
3745 Clear 21 1018 71 10000 3.6 140 17:28 13.05.2022
3746 Clouds 22 1019 71 10000 2.57 120 16:20 13.05.2022
3747 Clouds 22 1019 75 10000 3.09 140 15:28 13.05.2022
3748 Clouds 21 1020 75 10000 3.09 130 13:48 13.05.2022
3749 Clouds 21 1020 79 10000 3.09 120 12:32 13.05.2022
3750 Clouds 20 1020 77 10000 2.06 130 11:22 13.05.2022
3751 Clouds 18 1020 82 10000 1.03 0 09:34 13.05.2022
3752 Clouds 17 1020 81 10000 0.51 0 08:44 13.05.2022
3753 Clouds 16 1021 85 10000 2.06 330 07:48 13.05.2022
3754 Clouds 15 1019 83 10000 2.06 330 06:33 13.05.2022
3755 Clouds 15 1019 83 10000 2.06 330 06:33 13.05.2022
3756 Clouds 15 1019 83 10000 2.06 330 06:33 13.05.2022
3757 Clouds 15 1019 83 10000 2.06 330 06:33 13.05.2022
3758 Clear 16 1020 83 10000 2.06 320 03:29 13.05.2022
3759 Clear 17 1020 82 10000 1.54 60 00:39 13.05.2022
3760 Clear 17 1020 83 10000 3.09 70 22:45 12.05.2022
3761 Clear 18 1020 85 10000 2.57 80 21:56 12.05.2022
3762 Clear 19 1020 82 10000 4.12 100 20:29 12.05.2022
3763 Clouds 21 1020 73 10000 3.6 110 18:59 12.05.2022
3764 Clouds 22 1021 69 10000 4.63 110 17:24 12.05.2022
3765 Clouds 22 1021 69 10000 4.63 120 16:23 12.05.2022
3766 Clouds 23 1022 70 10000 3.09 120 14:42 12.05.2022
3767 Clouds 22 1022 75 10000 3.09 130 13:47 12.05.2022
3768 Clouds 21 1022 73 10000 2.06 150 10:52 12.05.2022
3769 Clouds 19 1021 76 10000 1.03 0 09:31 12.05.2022
3770 Clouds 18 1021 75 10000 1.54 320 08:51 12.05.2022
3771 Clouds 16 1022 83 10000 2.06 320 07:40 12.05.2022
3772 Clouds 15 1020 78 10000 2.57 320 06:34 12.05.2022
3773 Clear 17 1020 76 10000 2.06 300 02:59 12.05.2022
3774 Clear 17 1021 81 10000 1.03 0 00:39 12.05.2022
3775 Clear 18 1020 83 10000 1.03 70 22:39 11.05.2022
3776 Clear 18 1020 86 10000 2.06 80 21:52 11.05.2022
3777 Clouds 18 1020 84 10000 2.06 90 21:24 11.05.2022
3778 Clouds 21 1020 77 10000 3.6 110 19:36 11.05.2022
3779 Clouds 22 1021 70 10000 3.6 120 16:59 11.05.2022
3780 Clear 22 1021 72 10000 2.57 120 15:50 11.05.2022
3781 Clouds 22 1021 73 10000 2.57 140 14:39 11.05.2022
3782 Clouds 22 1021 73 10000 2.57 140 14:39 11.05.2022
3783 Clouds 22 1021 72 10000 2.57 140 14:19 11.05.2022
3784 Clear 21 1021 73 10000 2.57 150 11:55 11.05.2022
3785 Clear 21 1021 73 10000 2.06 150 11:30 11.05.2022
3786 Clear 20 1021 72 10000 3.09 250 08:55 11.05.2022
3787 Clear 16 1019 76 10000 2.06 320 06:24 11.05.2022
3788 Clear 18 1019 72 10000 3.6 330 01:28 11.05.2022
3789 Clear 19 1019 74 10000 0.51 210 22:53 10.05.2022
3790 Clear 19 1019 74 10000 0.51 200 22:19 10.05.2022
3791 Clear 20 1019 68 10000 1.03 110 21:21 10.05.2022
3792 Clouds 21 1019 65 10000 2.06 100 20:21 10.05.2022
3793 Clear 24 1019 51 10000 2.37 194 18:36 10.05.2022
3794 Clouds 22 1020 60 10000 2.57 170 17:37 10.05.2022
3795 Clouds 23 1020 54 10000 2.57 140 15:56 10.05.2022
3796 Clouds 22 1021 62 10000 1.54 140 12:51 10.05.2022
3797 Clouds 22 1021 58 10000 3.09 170 11:53 10.05.2022
3798 Clouds 23 1021 52 10000 3.09 160 11:28 10.05.2022
3799 Clear 23 1021 55 10000 2.57 130 10:56 10.05.2022
3800 Clear 21 1021 54 10000 5.14 330 09:28 10.05.2022
3801 Clear 19 1021 59 10000 4.12 340 07:51 10.05.2022
3802 Clear 17 1020 63 10000 4.12 360 05:43 10.05.2022
3803 Clear 18 1021 64 10000 4.12 350 01:53 10.05.2022
3804 Clear 19 1021 61 10000 3.6 330 23:43 09.05.2022
3805 Clear 19 1021 64 10000 1.54 90 22:33 09.05.2022
3806 Clear 20 1020 61 10000 1.03 250 21:36 09.05.2022
3807 Clouds 22 1020 60 10000 3.09 200 19:52 09.05.2022
3808 Clouds 22 1020 60 10000 3.09 200 18:25 09.05.2022
3809 Clouds 23 1020 54 10000 3.09 200 17:25 09.05.2022
3810 Clouds 23 1020 51 10000 2.06 200 16:18 09.05.2022
3811 Clouds 23 1021 51 10000 2.06 190 15:47 09.05.2022
3812 Clouds 23 1021 49 10000 2.57 80 14:33 09.05.2022
3813 Rain 24 1022 46 10000 3.31 153 13:56 09.05.2022
3814 Clouds 23 1021 56 10000 2.57 90 12:55 09.05.2022
3815 Clouds 23 1021 58 10000 3.6 160 11:52 09.05.2022
3816 Clouds 21 1021 62 10000 3.09 150 10:47 09.05.2022
3817 Clouds 21 1021 62 10000 1.54 0 10:20 09.05.2022
3818 Clear 18 1020 67 10000 5.66 330 07:56 09.05.2022
3819 Clear 16 1019 72 10000 3.09 330 04:35 09.05.2022
3820 Clear 17 1019 67 10000 4.12 340 00:30 09.05.2022
3821 Clear 18 1018 66 10000 3.6 340 23:28 08.05.2022
3822 Clouds 18 1018 67 10000 3.6 340 22:29 08.05.2022
3823 Clouds 19 1017 67 10000 3.6 330 20:54 08.05.2022
3824 Clouds 20 1017 64 10000 3.6 330 20:22 08.05.2022
3825 Clouds 21 1016 58 10000 2.06 260 19:32 08.05.2022
3826 Clouds 21 1016 54 10000 1.54 310 18:35 08.05.2022
3827 Rain 21 1017 54 10000 1.54 240 17:36 08.05.2022
3828 Clouds 21 1017 63 10000 3.6 200 15:46 08.05.2022
3829 Clouds 21 1017 61 10000 3.09 240 15:21 08.05.2022
3830 Rain 19 1018 75 10000 2.06 70 12:46 08.05.2022
3831 Rain 19 1017 72 10000 3.6 90 10:59 08.05.2022
3832 Rain 19 1017 68 10000 2.06 10 10:22 08.05.2022
3833 Clouds 19 1016 70 10000 3.09 330 09:51 08.05.2022
3834 Clouds 16 1016 75 10000 5.66 330 07:43 08.05.2022
3835 Clouds 16 1015 74 10000 3.6 330 05:22 08.05.2022
3836 Clouds 16 1015 72 10000 3.09 330 03:21 08.05.2022
3837 Clouds 17 1015 70 10000 5.14 330 00:42 08.05.2022
3838 Clouds 17 1016 70 10000 2.06 350 23:55 07.05.2022
3839 Clouds 17 1016 70 10000 2.06 330 22:59 07.05.2022
3840 Clouds 18 1016 69 10000 2.57 330 22:35 07.05.2022
3841 Clouds 18 1015 71 10000 3.09 300 21:55 07.05.2022
3842 Clouds 18 1015 70 10000 3.6 270 21:20 07.05.2022
3843 Clouds 19 1015 67 10000 4.63 240 19:59 07.05.2022
3844 Clouds 20 1015 65 10000 5.14 210 18:41 07.05.2022
3845 Clouds 21 1015 61 10000 2.57 200 16:24 07.05.2022
3846 Clouds 21 1015 65 10000 4.12 200 14:51 07.05.2022
3847 Clouds 20 1016 63 10000 1.54 170 11:21 07.05.2022
3848 Clouds 18 1015 68 10000 3.09 340 09:39 07.05.2022
3849 Clouds 16 1015 72 10000 4.63 330 08:30 07.05.2022
3850 Clouds 15 1014 74 10000 2.06 330 06:44 07.05.2022
3851 Clouds 15 1014 73 10000 4.12 320 06:24 07.05.2022
3852 Clouds 16 1015 69 10000 3.09 330 03:54 07.05.2022
3853 Clouds 16 1016 77 10000 0 0 23:41 06.05.2022
3854 Clear 16 1016 80 10000 0 0 22:35 06.05.2022
3855 Clear 17 1016 78 10000 1.03 100 21:52 06.05.2022
3856 Clear 17 1016 77 10000 2.06 260 21:24 06.05.2022
3857 Clouds 18 1014 73 10000 3.6 210 19:43 06.05.2022
3858 Clouds 19 1014 69 10000 3.6 210 19:19 06.05.2022
3859 Clouds 19 1014 69 10000 5.14 210 18:29 06.05.2022
3860 Clouds 19 1014 70 10000 5.14 210 17:34 06.05.2022
3861 Clouds 19 1013 69 10000 4.12 200 15:51 06.05.2022
3862 Clouds 19 1013 65 10000 2.57 240 14:58 06.05.2022
3863 Rain 19 1015 63 10000 2.06 260 13:38 06.05.2022
3864 Rain 18 1015 69 10000 1.03 0 12:42 06.05.2022
3865 Clouds 18 1015 72 10000 1.54 190 11:58 06.05.2022
3866 Clouds 17 1014 70 10000 2.06 320 10:41 06.05.2022
3867 Clear 16 1014 74 10000 3.09 330 09:47 06.05.2022
3868 Clouds 15 1013 82 10000 2.57 330 08:59 06.05.2022
3869 Rain 14 1014 84 10000 2.57 320 07:27 06.05.2022
3870 Rain 14 1013 87 10000 2.06 320 06:24 06.05.2022
3871 Rain 14 1014 86 10000 3.09 320 02:54 06.05.2022
3872 Rain 14 1015 86 10000 3.6 300 01:57 06.05.2022
3873 Clouds 15 1016 85 10000 6.69 100 22:48 05.05.2022
3874 Clouds 15 1016 84 10000 3.6 60 21:45 05.05.2022
3875 Clouds 15 1016 84 10000 4.12 60 20:34 05.05.2022
3876 Rain 15 1016 88 10000 8.75 90 18:43 05.05.2022
3877 Rain 17 1016 76 10000 9.26 90 16:40 05.05.2022
3878 Clouds 18 1016 72 10000 8.23 90 14:55 05.05.2022
3879 Clouds 19 1016 64 10000 5.14 70 13:27 05.05.2022
3880 Clouds 18 1017 65 10000 1.54 60 12:55 05.05.2022
3881 Clouds 17 1017 72 10000 1.54 330 10:59 05.05.2022
3882 Rain 16 1017 75 10000 2.57 340 09:40 05.05.2022
3883 Rain 15 1017 77 10000 3.09 330 08:30 05.05.2022
3884 Clouds 14 1016 80 10000 3.6 320 05:44 05.05.2022
3885 Clear 16 1017 78 10000 2.06 350 02:20 05.05.2022
3886 Clear 15 1017 82 10000 2.06 330 01:35 05.05.2022
3887 Clear 16 1017 84 10000 0 0 23:57 04.05.2022
3888 Clouds 16 1017 84 10000 1.03 110 22:54 04.05.2022
3889 Clouds 16 1017 84 10000 1.03 0 21:59 04.05.2022
3890 Clouds 17 1017 83 10000 1.54 70 21:30 04.05.2022
3891 Clouds 17 1016 81 10000 1.54 70 20:42 04.05.2022
3892 Clouds 18 1016 77 10000 3.09 140 19:56 04.05.2022
3893 Clouds 18 1016 76 10000 3.6 140 19:35 04.05.2022
3894 Clouds 20 1015 69 10000 2.57 90 18:22 04.05.2022
3895 Clouds 21 1016 69 10000 2.57 90 17:59 04.05.2022
3896 Clouds 21 1015 68 10000 3.6 80 16:29 04.05.2022
3897 Clouds 21 1016 67 10000 4.12 100 15:32 04.05.2022
3898 Clouds 21 1016 66 10000 3.6 130 14:38 04.05.2022
3899 Clouds 21 1016 63 10000 3.6 130 14:18 04.05.2022
3900 Clouds 21 1017 61 10000 2.57 120 12:34 04.05.2022
3901 Clouds 20 1017 63 10000 2.06 120 11:25 04.05.2022
3902 Clear 19 1018 56 10000 1.03 0 09:50 04.05.2022
3903 Clear 18 1017 56 10000 4.63 340 08:56 04.05.2022
3904 Clear 15 1016 65 10000 3.6 350 07:33 04.05.2022
3905 Clear 14 1015 69 10000 4.12 340 04:34 04.05.2022
3906 Clear 14 1015 70 10000 4.12 340 02:33 04.05.2022
3907 Clear 16 1014 69 10000 1.54 0 22:59 03.05.2022
3908 Clear 16 1014 79 10000 0.51 270 21:50 03.05.2022
3909 Clouds 16 1014 79 10000 1.54 230 21:23 03.05.2022
3910 Clouds 17 1014 80 10000 2.57 210 20:46 03.05.2022
3911 Clouds 18 1013 78 10000 3.6 210 19:32 03.05.2022
3912 Clouds 18 1013 75 10000 3.6 210 18:43 03.05.2022
3913 Clouds 19 1014 71 10000 1.54 170 17:21 03.05.2022
3914 Clouds 19 1014 73 10000 1.54 180 15:57 03.05.2022
3915 Clouds 20 1014 71 10000 2.06 160 14:23 03.05.2022
3916 Clouds 20 1014 73 10000 3.09 130 12:35 03.05.2022
3917 Clouds 17 1014 86 10000 3.6 120 11:35 03.05.2022
3918 Clouds 19 1013 73 10000 3.09 110 10:44 03.05.2022
3919 Clear 16 1013 75 10000 2.06 50 08:19 03.05.2022
3920 Clouds 15 1012 75 10000 1.03 70 06:45 03.05.2022
3921 Clouds 16 1013 75 10000 3.09 260 02:39 03.05.2022
3922 Clear 16 1013 77 10000 2.57 250 23:32 02.05.2022
3923 Clear 16 1013 78 10000 1.54 220 22:29 02.05.2022
3924 Clear 16 1013 78 10000 1.54 220 22:29 02.05.2022
3925 Clear 16 1012 79 10000 1.54 220 21:47 02.05.2022
3926 Clear 18 1012 72 10000 3.09 190 19:30 02.05.2022
3927 Clear 19 1012 64 10000 1.54 160 18:26 02.05.2022
3928 Clear 20 1012 67 10000 2.06 170 17:41 02.05.2022
3929 Clear 20 1012 67 10000 2.06 170 17:41 02.05.2022
3930 Clouds 20 1012 66 10000 2.57 180 16:43 02.05.2022
3931 Clouds 20 1013 61 10000 3.09 160 15:41 02.05.2022
3932 Clouds 21 1013 58 10000 3.09 160 14:51 02.05.2022
3933 Clouds 20 1013 61 10000 3.09 140 13:42 02.05.2022
3934 Clear 19 1013 66 10000 2.57 140 11:41 02.05.2022
3935 Clear 18 1013 65 10000 3.09 340 09:59 02.05.2022
3936 Clear 15 1013 74 10000 3.6 340 08:31 02.05.2022
3937 Clear 13 1013 79 10000 3.6 340 06:56 02.05.2022
3938 Clear 15 1014 79 10000 3.6 310 00:47 02.05.2022
3939 Clear 15 1014 82 10000 4.12 320 00:47 02.05.2022
3940 Clear 15 1014 81 10000 4.12 320 00:22 02.05.2022
3941 Clear 15 1014 81 10000 2.57 290 23:40 01.05.2022
3942 Rain 16 1014 81 10000 2.06 240 21:45 01.05.2022
3943 Clouds 16 1014 78 10000 1.03 0 20:50 01.05.2022
3944 Clouds 16 1014 78 10000 3.6 290 19:27 01.05.2022
3945 Clouds 16 1014 75 10000 3.09 290 18:53 01.05.2022
3946 Clouds 17 1014 78 10000 3.09 70 17:51 01.05.2022
3947 Rain 18 1014 67 10000 4.63 80 16:42 01.05.2022
3948 Rain 18 1014 66 10000 6.17 90 16:18 01.05.2022
3949 Clouds 21 1015 53 10000 4.63 100 14:54 01.05.2022
3950 Clouds 20 1015 55 10000 4.63 90 13:23 01.05.2022
3951 Clouds 19 1015 61 10000 2.57 130 10:45 01.05.2022
3952 Clear 17 1014 62 10000 3.09 340 08:50 01.05.2022
3953 Clear 14 1015 67 10000 3.6 330 06:51 01.05.2022
3954 Clear 15 1015 68 10000 3.6 330 02:51 01.05.2022
3955 Clouds 15 1016 71 10000 3.6 10 22:52 30.04.2022
3956 Clouds 15 1016 72 10000 2.06 280 21:34 30.04.2022
3957 Rain 15 1016 74 10000 2.06 230 20:24 30.04.2022
3958 Rain 16 1016 66 10000 1.54 0 19:33 30.04.2022
3959 Clouds 20 1016 48 10000 3.09 120 17:38 30.04.2022
3960 Clouds 20 1017 47 10000 2.57 100 16:30 30.04.2022
3961 Clouds 20 1018 47 10000 2.06 100 15:19 30.04.2022
3962 Clouds 20 1018 51 10000 3.09 90 14:31 30.04.2022
3963 Clouds 19 1019 57 10000 5.66 100 12:36 30.04.2022
3964 Clouds 20 1019 55 10000 5.14 90 11:32 30.04.2022
3965 Clouds 19 1019 59 10000 4.63 90 10:31 30.04.2022
3966 Clouds 17 1019 62 10000 1.54 0 08:34 30.04.2022
3967 Clear 15 1019 56 10000 3.6 340 05:38 30.04.2022
3968 Clear 17 1020 52 10000 3.6 330 00:35 30.04.2022
3969 Clear 16 1020 53 10000 4.12 320 23:36 29.04.2022
3970 Clear 17 1020 54 10000 1.03 0 22:30 29.04.2022
3971 Clear 17 1019 61 10000 2.06 230 21:27 29.04.2022
3972 Clear 18 1019 57 10000 3.09 220 20:38 29.04.2022
3973 Clear 19 1019 51 10000 3.6 200 19:38 29.04.2022
3974 Clear 20 1020 55 10000 2.57 200 17:50 29.04.2022
3975 Clear 20 1020 57 10000 2.57 190 16:56 29.04.2022
3976 Clear 21 1021 53 10000 3.09 180 14:50 29.04.2022
3977 Clear 21 1022 51 10000 3.6 180 14:20 29.04.2022
3978 Clear 21 1022 47 10000 2.57 190 12:43 29.04.2022
3979 Clear 20 1023 46 10000 1.54 190 10:58 29.04.2022
3980 Clear 16 1023 52 10000 4.63 330 08:33 29.04.2022
3981 Clear 15 1022 61 10000 4.63 330 07:27 29.04.2022
3982 Clear 15 1022 62 10000 4.12 330 06:37 29.04.2022
3983 Clear 16 1022 57 10000 4.12 340 03:34 29.04.2022
3984 Clear 17 1022 54 10000 4.12 330 00:19 29.04.2022
3985 Clear 17 1021 49 10000 3.09 340 23:27 28.04.2022
3986 Clouds 17 1021 48 10000 2.57 320 22:41 28.04.2022
3987 Clouds 17 1021 50 10000 0.51 270 21:46 28.04.2022
3988 Clouds 18 1020 52 10000 0 0 20:57 28.04.2022
3989 Clouds 19 1020 49 10000 1.54 190 20:24 28.04.2022
3990 Clouds 20 1019 46 10000 1.54 190 19:41 28.04.2022
3991 Clear 21 1019 40 10000 1.54 190 19:21 28.04.2022
3992 Clear 20 1020 45 10000 1.54 160 18:35 28.04.2022
3993 Clouds 21 1019 40 10000 1.54 0 16:59 28.04.2022
3994 Clouds 21 1020 41 10000 1.54 0 16:40 28.04.2022
3995 Clouds 21 1021 39 10000 1.54 0 16:18 28.04.2022
3996 Clouds 21 1021 43 10000 1.54 110 15:27 28.04.2022
3997 Clouds 21 1021 43 10000 1.54 110 15:27 28.04.2022
3998 Clouds 22 1022 41 10000 2.57 100 13:44 28.04.2022
3999 Clouds 21 1021 49 10000 4.63 90 12:44 28.04.2022
4000 Clouds 21 1021 54 10000 3.6 100 11:56 28.04.2022
4001 Clear 20 1020 62 10000 1.54 0 10:46 28.04.2022
4002 Clear 19 1020 66 10000 1.54 80 09:54 28.04.2022
4003 Clear 17 1019 68 10000 3.09 340 08:31 28.04.2022
4004 Clear 15 1018 72 10000 2.57 340 07:19 28.04.2022
4005 Clear 15 1018 72 10000 2.06 360 05:56 28.04.2022
4006 Clear 15 1018 75 10000 2.06 350 05:38 28.04.2022
4007 Clear 15 1018 73 10000 1.03 10 04:39 28.04.2022
4008 Clouds 15 1018 76 10000 0.51 120 00:30 28.04.2022
4009 Clouds 16 1018 73 10000 0.51 110 22:40 27.04.2022
4010 Clouds 16 1018 75 10000 1.03 90 21:55 27.04.2022
4011 Clouds 16 1017 76 10000 1.03 120 21:18 27.04.2022
4012 Clouds 16 1017 78 10000 1.03 140 20:37 27.04.2022
4013 Clouds 18 1016 74 10000 1.54 120 19:38 27.04.2022
4014 Clouds 18 1016 73 10000 1.54 120 19:18 27.04.2022
4015 Clouds 18 1017 74 10000 2.06 140 18:22 27.04.2022
4016 Clouds 18 1017 74 10000 2.06 140 18:22 27.04.2022
4017 Clouds 18 1017 75 10000 2.06 140 18:22 27.04.2022
4018 Clouds 19 1017 73 10000 2.06 140 17:23 27.04.2022
4019 Clouds 19 1017 75 10000 3.09 110 15:21 27.04.2022
4020 Clouds 18 1017 76 10000 5.14 110 12:25 27.04.2022
4021 Clouds 18 1017 74 10000 5.14 100 11:21 27.04.2022
4022 Clouds 16 1016 79 10000 2.06 110 09:45 27.04.2022
4023 Clouds 14 1015 85 10000 4.12 70 07:19 27.04.2022
4024 Clouds 14 1015 88 10000 2.06 60 05:37 27.04.2022
4025 Clouds 14 1014 84 10000 6.17 80 01:35 27.04.2022
4026 Clouds 14 1014 85 10000 6.17 80 00:38 27.04.2022
4027 Clouds 15 1014 87 10000 4.63 90 23:57 26.04.2022
4028 Clouds 15 1014 88 10000 4.12 90 23:23 26.04.2022
4029 Clouds 15 1014 88 10000 4.12 90 22:41 26.04.2022
4030 Clouds 15 1013 88 10000 4.12 100 21:48 26.04.2022
4031 Clouds 15 1013 88 10000 4.12 100 20:54 26.04.2022
4032 Clouds 15 1013 87 10000 4.63 100 20:34 26.04.2022
4033 Clouds 16 1012 85 10000 5.14 110 19:33 26.04.2022
4034 Clouds 16 1012 84 10000 5.66 110 18:51 26.04.2022
4035 Clouds 17 1012 81 10000 5.14 110 18:18 26.04.2022
4036 Clouds 17 1012 81 10000 5.14 110 18:18 26.04.2022
4037 Clouds 18 1012 81 10000 4.12 90 17:32 26.04.2022
4038 Clouds 18 1013 79 10000 4.63 190 14:46 26.04.2022
4039 Clouds 17 1013 78 10000 3.6 180 13:34 26.04.2022
4040 Clouds 17 1013 76 10000 3.6 180 12:25 26.04.2022
4041 Clouds 16 1013 77 10000 1.54 170 10:46 26.04.2022
4042 Clouds 15 1013 77 10000 1.03 0 09:41 26.04.2022
4043 Clouds 13 1012 83 10000 3.09 330 07:59 26.04.2022
4044 Clouds 13 1012 84 10000 2.57 320 04:37 26.04.2022
4045 Clouds 13 1012 85 10000 2.57 320 02:20 26.04.2022
4046 Clouds 13 1011 86 10000 1.03 0 00:28 26.04.2022
4047 Clouds 14 1011 85 10000 4.63 80 22:50 25.04.2022
4048 Clear 14 1010 87 10000 5.66 90 21:44 25.04.2022
4049 Clear 15 1009 86 10000 6.17 90 20:46 25.04.2022
4050 Clouds 17 1009 78 10000 7.2 90 19:39 25.04.2022
4051 Clouds 18 1009 71 10000 7.72 90 18:25 25.04.2022
4052 Clouds 18 1009 68 10000 7.2 90 17:32 25.04.2022
4053 Clouds 18 1009 68 10000 4.12 90 15:38 25.04.2022
4054 Clouds 18 1010 68 10000 4.12 90 15:18 25.04.2022
4055 Clouds 18 1010 71 10000 3.6 110 13:43 25.04.2022
4056 Clouds 17 1009 75 10000 2.06 130 11:53 25.04.2022
4057 Clouds 15 1008 79 10000 1.54 0 10:27 25.04.2022
4058 Clouds 13 1007 83 10000 3.09 340 09:20 25.04.2022
4059 Clouds 10 1007 91 10000 3.09 330 07:19 25.04.2022
4060 Clouds 10 1006 89 10000 2.57 330 05:32 25.04.2022
4061 Clear 11 1007 87 10000 2.57 320 01:24 25.04.2022
4062 Clear 12 1007 88 10000 2.57 330 23:53 24.04.2022
4063 Clouds 12 1007 87 10000 5.14 80 22:53 24.04.2022
4064 Clouds 13 1007 85 10000 5.66 80 22:32 24.04.2022
4065 Clouds 13 1006 86 10000 5.14 70 21:54 24.04.2022
4066 Clouds 13 1006 86 10000 5.66 90 21:20 24.04.2022
4067 Clouds 14 1005 82 10000 6.69 100 20:38 24.04.2022
4068 Clouds 15 1005 81 10000 6.69 80 19:50 24.04.2022
4069 Clouds 15 1004 82 10000 6.69 80 18:28 24.04.2022
4070 Rain 16 1005 83 10000 3.6 100 17:40 24.04.2022
4071 Clouds 16 1005 83 10000 3.6 100 17:19 24.04.2022
4072 Clouds 16 1004 83 10000 3.6 170 16:49 24.04.2022
4073 Clouds 16 1004 79 10000 2.57 140 16:20 24.04.2022
4074 Clouds 15 1004 80 10000 3.09 200 15:32 24.04.2022
4075 Clouds 15 1004 77 10000 4.12 200 14:30 24.04.2022
4076 Clouds 15 1003 79 10000 3.09 190 13:26 24.04.2022
4077 Rain 15 1003 79 10000 3.6 130 12:38 24.04.2022
4078 Clouds 15 1002 77 10000 3.6 120 11:44 24.04.2022
4079 Clouds 13 1002 76 10000 1.54 350 10:32 24.04.2022
4080 Clouds 12 1002 82 10000 3.09 340 09:41 24.04.2022
4081 Rain 11 1002 88 10000 4.63 340 07:39 24.04.2022
4082 Rain 10 1002 85 10000 4.63 330 04:56 24.04.2022
4083 Clouds 11 1002 89 10000 5.14 330 01:50 24.04.2022
4084 Clouds 11 1002 89 10000 2.57 310 00:33 24.04.2022
4085 Clouds 11 1002 88 10000 2.06 330 23:45 23.04.2022
4086 Clouds 11 1002 87 10000 2.06 330 23:22 23.04.2022
4087 Clouds 12 1002 86 10000 7.2 200 21:55 23.04.2022
4088 Rain 12 1002 83 10000 8.23 190 21:35 23.04.2022
4089 Rain 12 1002 88 10000 3.59 233 20:57 23.04.2022
4090 Rain 12 1002 86 10000 8.23 200 19:54 23.04.2022
4091 Rain 13 1001 86 8000 8.75 120 19:19 23.04.2022
4092 Rain 12 1001 87 3000 10.29 100 18:53 23.04.2022
4093 Mist 13 1001 86 4000 6.17 80 18:28 23.04.2022
4094 Rain 13 1000 85 6000 5.66 60 17:43 23.04.2022
4095 Rain 13 1002 85 10000 4.63 50 16:43 23.04.2022
4096 Rain 13 1003 85 10000 3.09 50 15:32 23.04.2022
4097 Rain 15 1005 88 6000 5.14 80 12:50 23.04.2022
4098 Clouds 15 1005 89 10000 3.6 110 10:50 23.04.2022
4099 Clouds 14 1004 88 10000 5.66 130 09:38 23.04.2022
4100 Clouds 14 1005 92 10000 4.63 130 07:38 23.04.2022
4101 Clouds 13 1004 88 10000 0.51 30 03:54 23.04.2022
4102 Clouds 14 1004 88 10000 1.54 230 01:32 23.04.2022
4103 Clouds 14 1003 88 10000 2.06 220 23:32 22.04.2022
4104 Clouds 14 1003 88 7322 1.62 209 22:22 22.04.2022
4105 Clouds 14 1003 89 10000 3.09 220 21:44 22.04.2022
4106 Clouds 14 1003 88 10000 4.12 200 20:55 22.04.2022
4107 Clouds 15 1003 88 10000 4.63 200 20:28 22.04.2022
4108 Clouds 15 1002 86 10000 4.63 200 19:22 22.04.2022
4109 Clouds 15 1002 85 10000 6.17 200 18:46 22.04.2022
4110 Clouds 15 1002 83 10000 6.17 210 17:50 22.04.2022
4111 Clouds 16 1002 76 10000 7.72 200 16:46 22.04.2022
4112 Clouds 16 1001 76 10000 8.75 210 15:47 22.04.2022
4113 Clouds 16 1001 77 10000 8.23 210 15:21 22.04.2022
4114 Clouds 16 1000 77 10000 7.72 210 13:54 22.04.2022
4115 Clouds 16 1000 82 10000 7.2 220 13:27 22.04.2022
4116 Clouds 16 1000 81 10000 7.2 220 12:29 22.04.2022
4117 Clouds 16 999 77 10000 1.03 0 11:22 22.04.2022
4118 Clouds 16 999 77 10000 1.03 0 10:52 22.04.2022
4119 Clouds 16 999 77 10000 1.03 0 10:31 22.04.2022
4120 Clouds 15 999 76 10000 1.03 0 09:53 22.04.2022
4121 Clouds 15 998 78 10000 1.54 330 08:56 22.04.2022
4122 Clouds 14 998 76 10000 1.54 330 08:24 22.04.2022
4123 Rain 14 997 74 10000 1.54 0 05:20 22.04.2022
4124 Rain 14 998 74 10000 5.66 80 00:53 22.04.2022
4125 Rain 15 998 69 10000 8.75 110 23:28 21.04.2022
4126 Rain 16 998 60 10000 5.14 90 22:29 21.04.2022
4127 Rain 16 998 60 10000 5.14 90 22:29 21.04.2022
4128 Clouds 17 998 61 10000 6.17 80 20:55 21.04.2022
4129 Clouds 17 998 63 10000 7.72 90 20:27 21.04.2022
4130 Clouds 18 998 63 10000 9.26 90 18:48 21.04.2022
4131 Clouds 18 998 65 10000 9.26 70 18:19 21.04.2022
4132 Clouds 17 999 61 10000 10.29 90 16:53 21.04.2022
4133 Clouds 19 1000 56 10000 12.86 90 15:23 21.04.2022
4134 Clouds 19 1000 60 10000 11.32 80 14:51 21.04.2022
4135 Clouds 19 1001 57 10000 11.32 90 13:56 21.04.2022
4136 Clouds 19 1001 60 10000 10.8 90 13:20 21.04.2022
4137 Clouds 17 1003 68 10000 12.35 80 11:37 21.04.2022
4138 Clouds 15 1003 77 10000 2.57 70 09:23 21.04.2022
4139 Clouds 13 1003 82 10000 4.63 60 08:29 21.04.2022
4140 Clouds 13 1006 84 10000 5.66 60 06:26 21.04.2022
4141 Clouds 13 1006 81 10000 2.06 20 03:37 21.04.2022
4142 Clouds 13 1006 82 10000 2.06 20 03:18 21.04.2022
4143 Rain 13 1007 83 10000 2.57 50 02:43 21.04.2022
4144 Rain 14 1008 86 8000 8.75 110 00:27 21.04.2022
4145 Rain 15 1007 75 10000 5.66 90 23:24 20.04.2022
4146 Rain 16 1008 72 10000 6.69 100 22:58 20.04.2022
4147 Rain 16 1008 72 10000 7.72 80 22:32 20.04.2022
4148 Rain 15 1008 79 10000 5.66 70 21:35 20.04.2022
4149 Rain 15 1008 80 10000 6.69 80 20:43 20.04.2022
4150 Rain 15 1008 81 10000 5.66 70 20:20 20.04.2022
4151 Rain 15 1008 79 10000 6.69 90 19:38 20.04.2022
4152 Clouds 16 1008 75 10000 6.69 80 18:45 20.04.2022
4153 Clouds 16 1008 76 10000 8.75 70 17:18 20.04.2022
4154 Clouds 16 1009 79 10000 8.23 80 16:39 20.04.2022
4155 Clouds 15 1009 83 10000 7.2 90 14:55 20.04.2022
4156 Clouds 16 1010 82 10000 7.72 80 12:18 20.04.2022
4157 Clouds 16 1010 82 10000 7.72 80 11:40 20.04.2022
4158 Clouds 16 1009 83 10000 7.2 90 10:39 20.04.2022
4159 Clouds 16 1009 79 10000 5.66 90 09:28 20.04.2022
4160 Clouds 15 1009 84 10000 5.14 70 08:27 20.04.2022
4161 Clouds 14 1010 87 10000 4.12 70 07:44 20.04.2022
4162 Clouds 13 1008 83 10000 5.14 80 05:29 20.04.2022
4163 Clouds 14 1009 84 10000 1.03 100 01:35 20.04.2022
4164 Clouds 14 1009 85 10000 1.03 90 00:21 20.04.2022
4165 Clouds 15 1008 85 10000 1.54 90 22:53 19.04.2022
4166 Clouds 15 1008 86 10000 1.03 100 22:23 19.04.2022
4167 Clouds 14 1008 86 10000 1.54 80 21:48 19.04.2022
4168 Clouds 15 1007 85 10000 1.54 110 20:57 19.04.2022
4169 Clouds 15 1007 85 10000 2.06 100 20:37 19.04.2022
4170 Clouds 16 1007 81 10000 3.09 110 19:32 19.04.2022
4171 Clouds 16 1008 78 10000 3.09 110 18:30 19.04.2022
4172 Clouds 17 1008 77 10000 4.63 100 16:50 19.04.2022
4173 Clouds 17 1008 74 10000 4.63 90 16:25 19.04.2022
4174 Clouds 17 1008 75 10000 4.12 100 15:59 19.04.2022
4175 Clouds 17 1009 73 10000 4.63 120 14:46 19.04.2022
4176 Clouds 17 1010 71 10000 4.12 120 12:53 19.04.2022
4177 Clouds 17 1010 72 10000 4.12 110 12:34 19.04.2022
4178 Clouds 16 1011 72 10000 4.12 90 11:35 19.04.2022
4179 Clouds 15 1011 70 10000 1.03 0 09:51 19.04.2022
4180 Clouds 12 1011 74 10000 4.12 340 07:49 19.04.2022
4181 Clear 11 1011 76 10000 3.09 330 04:26 19.04.2022
4182 Clear 11 1012 76 10000 2.57 20 02:39 19.04.2022
4183 Clear 12 1012 76 10000 3.09 30 23:51 18.04.2022
4184 Clear 13 1012 72 10000 1.03 0 22:54 18.04.2022
4185 Clear 14 1012 71 10000 3.6 220 21:28 18.04.2022
4186 Clear 14 1012 69 10000 3.6 210 20:40 18.04.2022
4187 Clouds 15 1012 66 10000 3.6 220 20:22 18.04.2022
4188 Clouds 16 1012 63 10000 4.12 200 19:40 18.04.2022
4189 Clouds 17 1012 58 10000 4.63 200 18:52 18.04.2022
4190 Clear 18 1012 54 10000 4.63 200 17:49 18.04.2022
4191 Clear 18 1012 54 10000 4.63 200 17:49 18.04.2022
4192 Clear 18 1012 53 10000 4.63 200 17:20 18.04.2022
4193 Clear 18 1013 53 10000 4.63 200 16:40 18.04.2022
4194 Clear 18 1013 55 10000 4.63 190 15:43 18.04.2022
4195 Clouds 18 1014 55 10000 4.63 180 14:28 18.04.2022
4196 Clouds 17 1014 58 10000 4.12 170 13:25 18.04.2022
4197 Clouds 17 1015 57 10000 4.12 170 12:27 18.04.2022
4198 Clouds 17 1015 60 10000 3.6 170 11:20 18.04.2022
4199 Clouds 16 1015 61 10000 3.09 170 10:28 18.04.2022
4200 Clouds 15 1015 63 10000 2.57 170 09:30 18.04.2022
4201 Clouds 14 1016 68 10000 3.09 160 07:34 18.04.2022
4202 Clouds 14 1015 83 10000 3.6 130 04:40 18.04.2022
4203 Clouds 15 1015 64 10000 0 0 23:42 17.04.2022
4204 Clouds 16 1014 63 10000 2.57 240 22:40 17.04.2022
4205 Clouds 16 1014 64 10000 3.6 220 21:42 17.04.2022
4206 Clouds 16 1014 63 10000 4.12 200 21:21 17.04.2022
4207 Clouds 16 1014 62 10000 3.09 220 20:32 17.04.2022
4208 Clouds 16 1014 58 10000 2.57 240 19:21 17.04.2022
4209 Clouds 17 1015 55 10000 2.06 200 17:38 17.04.2022
4210 Clouds 18 1016 57 10000 2.57 190 15:38 17.04.2022
4211 Clouds 17 1016 63 10000 3.09 200 14:54 17.04.2022
4212 Clouds 17 1018 59 10000 2.57 160 13:47 17.04.2022
4213 Clouds 18 1017 59 10000 3.09 160 12:58 17.04.2022
4214 Clouds 18 1017 58 10000 4.12 110 11:53 17.04.2022
4215 Clouds 17 1017 65 10000 1.54 190 10:46 17.04.2022
4216 Clouds 16 1017 65 10000 3.09 200 10:27 17.04.2022
4217 Clouds 16 1017 67 10000 3.6 110 09:28 17.04.2022
4218 Clouds 15 1017 69 10000 4.12 90 08:42 17.04.2022
4219 Clouds 14 1017 69 10000 5.66 80 07:00 17.04.2022
4220 Clouds 16 1016 61 10000 9.77 80 03:53 17.04.2022
4221 Clouds 17 1015 59 10000 5.66 90 00:55 17.04.2022
4222 Clouds 18 1015 56 10000 9.77 80 23:50 16.04.2022
4223 Clouds 20 1014 40 10000 1.54 0 22:27 16.04.2022
4224 Clouds 20 1013 46 10000 1.54 280 21:31 16.04.2022
4225 Clouds 20 1012 45 10000 2.57 250 20:18 16.04.2022
4226 Clouds 21 1011 46 10000 0 0 18:55 16.04.2022
4227 Clouds 24 1013 40 10000 1.53 49 17:41 16.04.2022
4228 Clouds 22 1012 51 10000 1.54 0 16:38 16.04.2022
4229 Clouds 22 1013 49 10000 2.06 120 15:43 16.04.2022
4230 Clouds 22 1013 49 10000 2.06 100 14:55 16.04.2022
4231 Clouds 23 1014 43 10000 2.06 70 13:58 16.04.2022
4232 Clouds 21 1015 51 10000 2.06 80 13:32 16.04.2022
4233 Clouds 22 1014 47 10000 2.57 140 12:22 16.04.2022
4234 Clear 22 1014 39 10000 1.03 0 10:49 16.04.2022
4235 Clear 21 1014 41 10000 1.03 0 09:56 16.04.2022
4236 Clear 19 1014 52 10000 2.06 350 08:57 16.04.2022
4237 Clear 16 1014 65 10000 1.54 200 07:52 16.04.2022
4238 Clear 16 1013 57 10000 2.57 200 06:58 16.04.2022
4239 Clear 17 1014 54 10000 1.03 0 02:46 16.04.2022
4240 Clear 18 1015 36 10000 4.12 330 00:30 16.04.2022
4241 Clear 19 1016 40 10000 2.06 350 23:21 15.04.2022
4242 Clear 18 1016 55 10000 1.03 190 22:32 15.04.2022
4243 Clear 18 1016 52 10000 1.54 170 21:50 15.04.2022
4244 Clear 19 1015 43 10000 0.51 140 21:18 15.04.2022
4245 Clear 20 1015 45 10000 1.03 80 20:22 15.04.2022
4246 Clear 20 1015 43 10000 1.54 110 19:40 15.04.2022
4247 Clear 20 1016 48 10000 1.54 110 18:54 15.04.2022
4248 Clear 21 1015 41 10000 1.54 0 18:25 15.04.2022
4249 Clear 21 1015 41 10000 1.54 0 17:34 15.04.2022
4250 Clear 21 1016 42 10000 2.06 90 16:53 15.04.2022
4251 Clear 21 1016 41 10000 2.06 110 16:19 15.04.2022
4252 Clear 19 1017 55 10000 2.57 120 15:24 15.04.2022
4253 Clear 20 1017 48 10000 2.57 190 13:41 15.04.2022
4254 Clear 21 1017 53 10000 2.57 200 12:42 15.04.2022
4255 Clear 20 1018 49 10000 2.06 170 11:57 15.04.2022
4256 Clear 20 1018 49 10000 2.06 170 11:57 15.04.2022
4257 Clear 21 1018 47 10000 2.06 120 11:34 15.04.2022
4258 Clear 21 1018 37 10000 3.09 40 10:43 15.04.2022
4259 Clear 20 1018 39 10000 1.54 10 09:47 15.04.2022
4260 Clear 19 1017 40 10000 3.6 340 09:21 15.04.2022
4261 Clear 17 1018 39 10000 6.69 330 07:44 15.04.2022
4262 Clear 17 1017 40 10000 6.17 330 06:37 15.04.2022
4263 Clear 17 1017 41 10000 4.12 340 03:21 15.04.2022
4264 Clear 18 1017 39 10000 4.12 330 23:32 14.04.2022
4265 Clear 18 1017 38 10000 2.57 340 22:49 14.04.2022
4266 Clear 18 1017 39 10000 2.57 330 22:31 14.04.2022
4267 Clear 18 1017 41 10000 1.54 0 21:59 14.04.2022
4268 Clear 18 1017 41 10000 2.57 270 21:30 14.04.2022
4269 Clear 21 1016 40 10000 0 0 19:24 14.04.2022
4270 Clear 21 1016 41 10000 0 0 18:30 14.04.2022
4271 Clear 22 1016 37 10000 0 0 17:44 14.04.2022
4272 Clear 22 1017 35 10000 1.03 0 16:46 14.04.2022
4273 Clear 23 1017 34 10000 1.54 180 15:29 14.04.2022
4274 Clear 22 1016 39 10000 3.09 200 13:49 14.04.2022
4275 Clear 22 1017 41 10000 3.09 200 13:18 14.04.2022
4276 Clear 20 1016 48 10000 3.6 190 12:32 14.04.2022
4277 Clear 19 1016 50 10000 2.06 180 11:36 14.04.2022
4278 Clear 19 1015 42 10000 1.54 170 10:56 14.04.2022
4279 Clear 19 1015 43 10000 0.51 0 10:27 14.04.2022
4280 Clear 16 1015 49 10000 3.6 340 09:26 14.04.2022
4281 Clear 14 1016 44 10000 3.09 340 07:52 14.04.2022
4282 Clear 14 1015 49 10000 3.6 320 05:23 14.04.2022
4283 Clear 17 1015 42 10000 3.09 340 23:50 13.04.2022
4284 Clear 16 1015 48 10000 0.51 240 22:29 13.04.2022
4285 Clear 17 1015 51 10000 1.54 0 21:42 13.04.2022
4286 Clear 17 1015 47 10000 1.03 0 20:35 13.04.2022
4287 Clear 18 1015 46 10000 3.09 100 19:46 13.04.2022
4288 Clear 20 1015 41 10000 1.54 0 18:36 13.04.2022
4289 Clear 20 1016 42 10000 3.09 90 17:24 13.04.2022
4290 Clear 20 1016 41 10000 2.57 80 16:49 13.04.2022
4291 Clear 20 1016 41 10000 7.72 110 15:44 13.04.2022
4292 Clear 20 1015 45 10000 8.23 100 15:21 13.04.2022
4293 Clear 20 1015 47 10000 10.29 100 14:34 13.04.2022
4294 Clear 19 1015 51 10000 8.23 90 13:37 13.04.2022
4295 Clear 19 1015 53 10000 7.2 90 12:45 13.04.2022
4296 Clear 18 1016 57 10000 6.69 70 11:32 13.04.2022
4297 Clear 16 1015 61 10000 7.72 70 10:27 13.04.2022
4298 Clear 13 1015 63 10000 2.06 340 08:45 13.04.2022
4299 Clear 13 1016 66 10000 8.23 70 07:44 13.04.2022
4300 Clear 12 1014 71 10000 10.29 80 06:47 13.04.2022
4301 Clear 13 1014 71 10000 10.29 80 06:23 13.04.2022
4302 Clear 14 1015 60 10000 6.17 70 01:51 13.04.2022
4303 Clear 14 1016 55 10000 5.14 60 00:19 13.04.2022
4304 Clear 14 1016 59 10000 7.72 70 22:33 12.04.2022
4305 Clear 14 1015 61 10000 9.77 80 21:51 12.04.2022
4306 Clear 14 1015 60 10000 10.8 80 20:48 12.04.2022
4307 Clear 15 1015 60 10000 10.29 80 20:20 12.04.2022
4308 Clear 15 1015 64 10000 9.77 80 19:40 12.04.2022
4309 Clouds 15 1015 67 10000 8.75 80 18:56 12.04.2022
4310 Clouds 16 1016 65 10000 10.8 80 17:39 12.04.2022
4311 Clouds 16 1016 65 10000 11.32 90 16:47 12.04.2022
4312 Clouds 17 1017 67 10000 12.35 80 15:35 12.04.2022
4313 Clouds 16 1017 66 10000 12.35 80 14:53 12.04.2022
4314 Clouds 16 1017 66 10000 11.32 80 13:50 12.04.2022
4315 Clouds 16 1017 66 10000 11.32 80 13:25 12.04.2022
4316 Clouds 16 1018 66 10000 11.83 90 12:21 12.04.2022
4317 Clouds 16 1018 66 10000 11.83 90 11:39 12.04.2022
4318 Clouds 14 1018 62 10000 6.17 60 09:52 12.04.2022
4319 Clouds 11 1018 66 10000 3.6 330 08:51 12.04.2022
4320 Clouds 10 1018 67 10000 3.6 330 07:20 12.04.2022
4321 Clouds 10 1017 71 10000 3.09 330 05:41 12.04.2022
4322 Clouds 10 1019 75 10000 2.57 330 02:37 12.04.2022
4323 Clouds 11 1020 81 10000 6.69 80 23:25 11.04.2022
4324 Clouds 12 1020 83 10000 7.2 90 22:33 11.04.2022
4325 Clouds 12 1019 84 10000 7.72 90 21:23 11.04.2022
4326 Clouds 13 1019 82 10000 6.69 90 20:37 11.04.2022
4327 Clouds 13 1019 82 10000 6.69 90 20:19 11.04.2022
4328 Clouds 14 1019 80 10000 5.66 90 19:27 11.04.2022
4329 Clouds 15 1019 77 10000 6.17 90 18:56 11.04.2022
4330 Clouds 15 1019 72 10000 6.69 80 17:58 11.04.2022
4331 Clouds 15 1020 71 10000 6.17 80 17:39 11.04.2022
4332 Clouds 16 1020 66 10000 5.66 90 16:36 11.04.2022
4333 Clouds 17 1021 60 10000 6.17 100 15:21 11.04.2022
4334 Clouds 16 1021 56 10000 6.17 100 13:37 11.04.2022
4335 Clouds 16 1021 61 10000 5.66 100 12:40 11.04.2022
4336 Clouds 16 1021 62 10000 5.66 100 12:21 11.04.2022
4337 Clear 14 1021 61 10000 4.12 90 10:41 11.04.2022
4338 Clouds 12 1021 56 10000 2.06 20 09:58 11.04.2022
4339 Clouds 10 1020 55 10000 4.12 340 08:22 11.04.2022
4340 Clear 9 1019 57 10000 3.09 330 04:56 11.04.2022
4341 Clear 10 1019 65 10000 2.57 10 23:55 10.04.2022
4342 Clear 11 1018 65 10000 1.54 200 22:27 10.04.2022
4343 Clear 11 1018 59 10000 2.06 220 21:53 10.04.2022
4344 Clear 12 1018 54 10000 2.57 200 20:55 10.04.2022
4345 Clouds 13 1018 49 10000 2.09 164 20:18 10.04.2022
4346 Clear 14 1017 45 10000 2.57 190 19:36 10.04.2022
4347 Clear 15 1017 46 10000 2.06 180 18:50 10.04.2022
4348 Clear 15 1017 45 10000 2.57 200 18:26 10.04.2022
4349 Clear 15 1017 42 10000 2.57 190 17:44 10.04.2022
4350 Clear 15 1017 42 10000 4.63 210 16:59 10.04.2022
4351 Clear 16 1018 44 10000 4.63 190 15:40 10.04.2022
4352 Clear 16 1018 43 10000 5.66 200 14:42 10.04.2022
4353 Clouds 16 1018 46 10000 6.69 200 13:44 10.04.2022
4354 Clouds 15 1018 47 10000 5.66 200 12:32 10.04.2022
4355 Clouds 15 1018 44 10000 6.17 220 11:44 10.04.2022
4356 Clouds 15 1018 46 10000 6.17 220 11:18 10.04.2022
4357 Clear 14 1017 41 10000 3.09 320 10:31 10.04.2022
4358 Clear 13 1017 38 10000 5.14 330 09:41 10.04.2022
4359 Clear 11 1017 43 10000 7.2 330 08:28 10.04.2022
4360 Clear 10 1017 44 10000 7.2 330 07:57 10.04.2022
4361 Clear 10 1016 40 10000 6.17 330 06:59 10.04.2022
4362 Clear 11 1014 28 10000 4.12 340 03:37 10.04.2022
4363 Clear 12 1013 25 10000 1.54 330 02:19 10.04.2022
4364 Clear 14 1010 21 10000 3.09 50 23:53 09.04.2022
4365 Clear 14 1009 18 10000 2.57 330 22:56 09.04.2022
4366 Clear 14 1009 18 10000 6.17 340 22:33 09.04.2022
4367 Clouds 16 1007 19 10000 5.66 330 21:19 09.04.2022
4368 Clouds 17 1005 18 10000 6.17 330 20:30 09.04.2022
4369 Clouds 18 1005 17 10000 3.6 340 19:56 09.04.2022
4370 Clouds 18 1003 28 10000 2.06 300 19:38 09.04.2022
4371 Clouds 19 1002 26 10000 3.6 220 18:23 09.04.2022
4372 Clouds 19 1002 31 10000 3.09 100 17:49 09.04.2022
4373 Clouds 19 1001 37 10000 7.72 110 16:56 09.04.2022
4374 Clouds 19 1000 45 10000 8.23 110 16:38 09.04.2022
4375 Clouds 21 999 26 10000 2.57 0 15:49 09.04.2022
4376 Clouds 21 999 26 10000 2.57 0 15:49 09.04.2022
4377 Clouds 21 999 26 10000 2.57 0 15:49 09.04.2022
4378 Clouds 21 999 26 10000 2.57 0 15:49 09.04.2022
4379 Clouds 21 998 26 10000 9.26 310 15:25 09.04.2022
4380 Clouds 21 998 28 10000 13.38 270 14:25 09.04.2022
4381 Clear 21 999 26 10000 7.72 280 13:26 09.04.2022
4382 Clear 21 999 23 10000 4.12 250 12:54 09.04.2022
4383 Clear 18 999 40 10000 8.23 220 11:45 09.04.2022
4384 Clear 17 999 44 10000 7.72 230 10:52 09.04.2022
4385 Clear 17 999 37 10000 7.72 220 10:18 09.04.2022
4386 Clear 16 1000 48 10000 7.2 210 09:22 09.04.2022
4387 Clear 14 999 52 10000 9.26 230 08:18 09.04.2022
4388 Clear 18 1001 33 10000 10.29 290 04:37 09.04.2022
4389 Clear 19 1002 42 10000 8.75 280 00:35 09.04.2022
4390 Clear 19 1003 52 10000 8.23 260 23:23 08.04.2022
4391 Clear 18 1004 61 10000 8.23 220 21:49 08.04.2022
4392 Clouds 18 1004 62 10000 9.26 220 20:43 08.04.2022
4393 Clouds 19 1003 60 10000 11.32 220 19:50 08.04.2022
4394 Clouds 20 1003 56 10000 11.32 220 18:56 08.04.2022
4395 Clouds 20 1002 59 10000 11.83 220 18:22 08.04.2022
4396 Clouds 22 1003 48 10000 14.4 220 17:29 08.04.2022
4397 Clouds 22 1003 47 10000 14.4 210 16:58 08.04.2022
4398 Clouds 24 1003 38 10000 12.86 230 16:31 08.04.2022
4399 Clouds 23 1003 43 10000 13.38 250 15:37 08.04.2022
4400 Clouds 24 1003 37 10000 13.89 260 14:52 08.04.2022
4401 Clouds 24 1003 38 10000 14.92 250 14:20 08.04.2022
4402 Clouds 23 1004 43 10000 9.77 260 13:36 08.04.2022
4403 Clouds 23 1004 43 10000 9.77 260 13:18 08.04.2022
4404 Clear 22 1004 46 10000 9.77 270 11:41 08.04.2022
4405 Clear 19 1004 56 10000 3.09 40 10:20 08.04.2022
4406 Clear 16 1004 72 10000 2.57 0 09:20 08.04.2022
4407 Clear 14 1004 72 10000 2.57 70 07:58 08.04.2022
4408 Clear 14 1004 74 10000 3.09 0 06:46 08.04.2022
4409 Clear 16 1004 63 10000 9.77 220 03:48 08.04.2022
4410 Clear 16 1005 65 10000 10.8 220 00:31 08.04.2022
4411 Clear 16 1005 64 10000 12.35 220 23:53 07.04.2022
4412 Clouds 17 1006 61 10000 10.29 260 22:57 07.04.2022
4413 Clouds 17 1006 59 10000 9.77 260 22:37 07.04.2022
4414 Clouds 17 1006 59 10000 9.77 260 22:19 07.04.2022
4415 Clouds 18 1005 53 10000 6.69 290 21:33 07.04.2022
4416 Clouds 18 1005 51 10000 7.72 280 20:56 07.04.2022
4417 Clouds 18 1004 53 10000 7.72 250 20:28 07.04.2022
4418 Clear 19 1003 58 10000 8.23 80 17:51 07.04.2022
4419 Clear 19 1003 61 10000 8.23 80 17:24 07.04.2022
4420 Clear 18 1003 62 10000 9.26 80 16:42 07.04.2022
4421 Clear 18 1004 66 10000 9.77 80 15:58 07.04.2022
4422 Clear 18 1005 65 10000 7.72 80 14:31 07.04.2022
4423 Clear 18 1006 68 10000 6.69 90 13:41 07.04.2022
4424 Clear 16 1007 68 10000 2.06 120 12:28 07.04.2022
4425 Clear 13 1007 73 10000 0 0 10:57 07.04.2022
4426 Clear 11 1006 78 10000 2.06 340 09:36 07.04.2022
4427 Clear 10 1006 80 10000 3.6 330 08:35 07.04.2022
4428 Clear 9 1005 81 10000 2.57 330 06:42 07.04.2022
4429 Clear 9 1006 82 10000 2.57 330 02:43 07.04.2022
4430 Clear 9 1006 81 10000 2.57 340 01:52 07.04.2022
4431 Clear 10 1007 82 10000 2.06 330 23:57 06.04.2022
4432 Clear 11 1008 81 10000 1.03 0 22:46 06.04.2022
4433 Clear 11 1008 81 10000 1.03 280 22:25 06.04.2022
4434 Clouds 11 1007 78 10000 3.09 240 21:32 06.04.2022
4435 Clouds 12 1007 77 10000 2.57 230 20:28 06.04.2022
4436 Clouds 12 1007 77 10000 2.57 220 19:53 06.04.2022
4437 Clouds 13 1007 76 10000 1.54 210 18:51 06.04.2022
4438 Clouds 13 1007 74 10000 1.54 190 18:22 06.04.2022
4439 Clouds 13 1008 75 10000 2.06 170 17:35 06.04.2022
4440 Clouds 13 1008 75 10000 1.54 140 16:38 06.04.2022
4441 Clouds 13 1008 75 10000 2.06 120 15:48 06.04.2022
4442 Clouds 14 1009 73 10000 2.06 140 14:57 06.04.2022
4443 Clouds 15 1010 71 10000 3.09 140 13:23 06.04.2022
4444 Clouds 14 1010 71 10000 2.57 130 12:22 06.04.2022
4445 Clouds 14 1010 70 10000 2.18 74 10:47 06.04.2022
4446 Clouds 12 1011 72 10000 3.6 320 10:25 06.04.2022
4447 Clouds 11 1010 74 10000 3.6 330 09:40 06.04.2022
4448 Clouds 9 1010 78 10000 4.12 330 08:32 06.04.2022
4449 Clouds 8 1011 75 10000 4.63 330 07:49 06.04.2022
4450 Clear 8 1011 72 10000 3.6 330 03:54 06.04.2022
4451 Clear 10 1012 73 10000 2.57 330 23:53 05.04.2022
4452 Clear 10 1012 74 10000 3.09 320 22:57 05.04.2022
4453 Clear 11 1012 77 10000 1.14 208 21:23 05.04.2022
4454 Clear 12 1011 72 10000 2.57 210 20:26 05.04.2022
4455 Clear 13 1011 66 10000 2.06 200 19:47 05.04.2022
4456 Clear 15 1011 66 10000 2.57 180 18:18 05.04.2022
4457 Clear 15 1012 67 10000 3.6 190 16:54 05.04.2022
4458 Clear 15 1012 65 10000 3.6 180 15:57 05.04.2022
4459 Clear 15 1013 68 10000 4.12 180 15:35 05.04.2022
4460 Clear 15 1013 66 10000 4.12 180 14:37 05.04.2022
4461 Clear 14 1013 62 10000 3.6 190 13:37 05.04.2022
4462 Clear 14 1013 54 10000 2.06 180 11:51 05.04.2022
4463 Clear 14 1013 54 10000 2.06 180 11:51 05.04.2022
4464 Clear 14 1013 58 10000 1.54 150 11:33 05.04.2022
4465 Clear 13 1013 58 10000 1.54 110 10:52 05.04.2022
4466 Clear 9 1013 69 10000 3.6 340 08:55 05.04.2022
4467 Clear 6 1014 70 10000 3.09 330 07:24 05.04.2022
4468 Clear 8 1015 70 10000 4.63 330 02:39 05.04.2022
4469 Clear 9 1015 71 10000 3.09 320 23:18 04.04.2022
4470 Clear 9 1016 71 10000 2.57 320 22:29 04.04.2022
4471 Clear 10 1015 68 10000 2.06 260 21:22 04.04.2022
4472 Clouds 10 1015 69 10000 1.54 230 20:53 04.04.2022
4473 Clear 10 1015 72 10000 1.1 246 20:35 04.04.2022
4474 Clouds 11 1016 62 10000 1.54 210 19:26 04.04.2022
4475 Clouds 13 1015 58 10000 1.54 180 18:39 04.04.2022
4476 Clouds 13 1015 60 10000 2.06 150 17:19 04.04.2022
4477 Clouds 13 1016 61 10000 2.06 150 16:26 04.04.2022
4478 Clouds 13 1017 65 10000 2.57 130 15:33 04.04.2022
4479 Clouds 13 1017 61 10000 3.09 130 14:46 04.04.2022
4480 Clouds 13 1017 62 10000 4.63 120 13:58 04.04.2022
4481 Clouds 12 1018 67 10000 4.12 80 12:41 04.04.2022
4482 Clouds 12 1018 67 10000 5.14 80 11:29 04.04.2022
4483 Clouds 10 1017 69 10000 4.63 330 09:53 04.04.2022
4484 Clouds 6 1016 83 10000 4.63 330 05:34 04.04.2022
4485 Clouds 7 1016 82 10000 3.6 330 02:51 04.04.2022
4486 Rain 8 1015 81 10000 6.17 360 22:54 03.04.2022
4487 Rain 8 1014 82 10000 5.66 330 21:59 03.04.2022
4488 Rain 8 1014 80 10000 7.2 340 21:27 03.04.2022
4489 Clouds 10 1013 73 10000 4.12 120 20:30 03.04.2022
4490 Clouds 11 1013 67 10000 3.09 100 18:46 03.04.2022
4491 Clouds 12 1013 67 10000 3.6 120 17:56 03.04.2022
4492 Clouds 12 1012 67 10000 3.09 130 17:36 03.04.2022
4493 Clouds 12 1012 67 10000 3.09 160 16:50 03.04.2022
4494 Clouds 12 1013 65 10000 1.54 0 15:56 03.04.2022
4495 Rain 12 1013 68 10000 0 0 14:25 03.04.2022
4496 Rain 11 1013 74 10000 2.06 160 13:28 03.04.2022
4497 Clouds 12 1012 61 10000 3.09 120 11:50 03.04.2022
4498 Clouds 10 1011 63 10000 3.6 340 09:59 03.04.2022
4499 Clear 9 1010 68 10000 5.14 330 09:18 03.04.2022
4500 Clear 6 1009 77 10000 3.09 330 06:28 03.04.2022
4501 Clear 7 1008 77 10000 3.09 300 02:56 03.04.2022
4502 Clouds 8 1006 78 10000 1.54 250 23:50 02.04.2022
4503 Clouds 9 1006 72 10000 0 0 22:51 02.04.2022
4504 Clouds 9 1005 72 10000 1.54 290 21:56 02.04.2022
4505 Clouds 9 1005 72 10000 1.54 290 21:56 02.04.2022
4506 Clouds 9 1004 73 10000 3.6 270 21:26 02.04.2022
4507 Clouds 9 1003 72 10000 2.06 160 20:39 02.04.2022
4508 Clouds 10 1001 70 10000 3.6 130 18:51 02.04.2022
4509 Clouds 10 1001 71 10000 4.63 120 18:20 02.04.2022
4510 Clouds 11 1000 67 10000 5.66 110 17:43 02.04.2022
4511 Rain 10 999 63 10000 4.63 80 15:59 02.04.2022
4512 Rain 10 999 68 10000 4.12 110 15:20 02.04.2022
4513 Rain 11 999 63 10000 5.14 130 14:42 02.04.2022
4514 Rain 12 998 54 10000 5.14 190 13:34 02.04.2022
4515 Clouds 12 997 51 10000 5.66 220 12:34 02.04.2022
4516 Clouds 10 995 60 10000 2.06 240 10:50 02.04.2022
4517 Clouds 6 994 66 10000 3.09 310 08:44 02.04.2022
4518 Clouds 4 993 87 10000 2.06 270 06:43 02.04.2022
4519 Rain 5 993 80 10000 5.14 340 03:31 02.04.2022
4520 Clouds 8 990 46 10000 3.6 270 23:55 01.04.2022
4521 Clouds 8 990 45 10000 5.66 250 23:18 01.04.2022
4522 Clouds 9 989 46 10000 6.17 260 21:32 01.04.2022
4523 Clouds 9 988 42 10000 7.2 260 20:50 01.04.2022
4524 Clouds 11 988 41 10000 7.72 270 19:51 01.04.2022
4525 Clouds 12 987 39 10000 3.6 0 19:30 01.04.2022
4526 Clouds 14 987 38 10000 5.14 280 18:45 01.04.2022
4527 Clouds 14 987 38 10000 11.32 240 17:46 01.04.2022
4528 Clouds 15 988 40 10000 8.75 230 16:48 01.04.2022
4529 Clouds 16 989 43 10000 10.8 210 15:36 01.04.2022
4530 Clouds 16 989 44 10000 9.26 210 14:20 01.04.2022
4531 Clouds 16 990 47 10000 6.69 200 14:20 01.04.2022
4532 Clouds 16 990 52 10000 5.66 200 13:33 01.04.2022
4533 Clouds 15 990 53 10000 4.63 200 12:32 01.04.2022
4534 Clouds 15 990 53 10000 4.63 200 12:32 01.04.2022
4535 Clouds 14 990 54 10000 3.6 220 11:37 01.04.2022
4536 Clear 14 992 48 10000 2.57 270 10:18 01.04.2022
4537 Clear 10 991 59 10000 3.6 310 08:30 01.04.2022
4538 Clouds 10 990 70 10000 5.14 330 06:39 01.04.2022
4539 Clouds 10 990 79 10000 4.63 330 04:47 01.04.2022
4540 Clouds 10 990 78 10000 4.63 330 04:28 01.04.2022
4541 Clouds 11 990 80 10000 3.6 330 01:55 01.04.2022
4542 Clouds 12 990 81 10000 3.6 90 22:58 31.03.2022
4543 Clear 12 990 81 10000 3.09 110 21:50 31.03.2022
4544 Clear 12 990 82 10000 2.06 110 21:31 31.03.2022
4545 Clouds 13 989 80 10000 3.6 70 20:29 31.03.2022
4546 Clouds 14 989 78 10000 2.57 60 19:48 31.03.2022
4547 Clouds 16 989 74 10000 3.6 60 18:43 31.03.2022
4548 Clouds 16 989 74 10000 3.09 110 17:49 31.03.2022
4549 Clouds 16 990 72 10000 3.09 120 16:37 31.03.2022
4550 Clouds 16 990 72 10000 2.57 170 15:43 31.03.2022
4551 Clouds 16 990 73 10000 3.6 180 15:19 31.03.2022
4552 Clouds 16 991 71 10000 2.06 180 14:35 31.03.2022
4553 Clouds 15 992 73 10000 2.57 170 11:57 31.03.2022
4554 Clouds 15 992 74 10000 2.57 190 11:20 31.03.2022
4555 Clouds 13 992 74 10000 2.57 340 09:44 31.03.2022
4556 Clouds 10 993 86 10000 2.06 330 07:59 31.03.2022
4557 Clouds 11 993 86 10000 2.57 310 05:23 31.03.2022
4558 Rain 11 996 86 7000 2.06 290 23:43 30.03.2022
4559 Rain 12 997 89 8000 2.57 310 22:43 30.03.2022
4560 Rain 12 997 86 8000 6.17 80 21:39 30.03.2022
4561 Rain 12 997 86 8000 7.2 90 20:54 30.03.2022
4562 Rain 12 997 86 8000 8.75 90 20:20 30.03.2022
4563 Rain 12 997 86 8000 8.75 90 20:20 30.03.2022
4564 Rain 12 997 88 10000 8.23 80 19:28 30.03.2022
4565 Rain 13 998 88 10000 9.26 90 18:19 30.03.2022
4566 Rain 13 998 85 10000 6.69 80 17:45 30.03.2022
4567 Clouds 14 998 82 10000 10.29 80 16:57 30.03.2022
4568 Clouds 14 999 82 10000 10.29 90 16:33 30.03.2022
4569 Clouds 14 1000 78 10000 10.8 100 15:24 30.03.2022
4570 Clouds 16 1000 69 10000 4.63 80 13:42 30.03.2022
4571 Clouds 16 1001 60 10000 4.12 10 12:57 30.03.2022
4572 Clouds 14 1002 71 10000 2.06 10 11:27 30.03.2022
4573 Clouds 14 1002 71 10000 2.06 10 11:27 30.03.2022
4574 Rain 13 1003 77 10000 2.06 20 10:23 30.03.2022
4575 Clouds 13 1004 75 10000 2.57 330 09:24 30.03.2022
4576 Rain 12 1005 70 10000 2.57 320 07:33 30.03.2022
4577 Clouds 12 1004 69 10000 2.06 310 05:41 30.03.2022
4578 Rain 12 1005 66 10000 1.54 0 03:52 30.03.2022
4579 Clouds 12 1008 81 10000 1.03 300 00:41 30.03.2022
4580 Clouds 12 1009 81 10000 3.6 60 22:28 29.03.2022
4581 Clouds 13 1010 80 10000 3.09 80 21:45 29.03.2022
4582 Clouds 13 1010 79 10000 1.4 87 20:53 29.03.2022
4583 Clear 13 1009 77 10000 3.6 100 20:18 29.03.2022
4584 Clear 14 1010 77 10000 3.09 110 18:55 29.03.2022
4585 Clear 15 1010 75 10000 3.6 110 18:21 29.03.2022
4586 Clear 16 1011 72 10000 4.63 110 17:35 29.03.2022
4587 Clear 16 1011 70 10000 4.63 110 16:57 29.03.2022
4588 Clear 17 1012 65 10000 4.12 120 15:57 29.03.2022
4589 Clear 17 1013 68 10000 5.14 110 14:53 29.03.2022
4590 Clear 17 1014 67 10000 4.12 110 13:58 29.03.2022
4591 Clear 17 1015 60 10000 3.09 110 12:53 29.03.2022
4592 Clear 16 1015 51 10000 4.63 90 11:43 29.03.2022
4593 Clear 16 1015 51 10000 4.63 90 11:43 29.03.2022
4594 Clear 15 1015 53 10000 2.57 70 10:51 29.03.2022
4595 Clear 14 1016 46 10000 2.06 330 09:49 29.03.2022
4596 Clear 12 1016 38 10000 2.57 330 07:35 29.03.2022
4597 Clear 13 1016 38 10000 2.06 360 04:41 29.03.2022
4598 Clear 14 1019 34 10000 4.12 320 00:35 29.03.2022
4599 Clear 14 1019 35 10000 3.09 310 23:23 28.03.2022
4600 Clear 15 1019 33 10000 4.12 320 22:52 28.03.2022
4601 Clear 15 1019 34 10000 3.09 320 22:26 28.03.2022
4602 Clear 15 1019 45 10000 2.57 230 20:56 28.03.2022
4603 Clear 16 1019 37 10000 1.54 220 20:21 28.03.2022
4604 Clear 17 1019 43 10000 1.03 220 19:41 28.03.2022
4605 Clear 18 1020 42 10000 1.54 230 18:56 28.03.2022
4606 Clear 19 1020 45 10000 1.54 200 18:37 28.03.2022
4607 Clear 20 1022 33 10000 1.03 0 17:39 28.03.2022
4608 Clear 20 1022 33 10000 2.57 190 16:20 28.03.2022
4609 Clear 21 1024 35 10000 1.54 160 14:29 28.03.2022
4610 Clear 23 1024 19 10000 3.02 163 13:58 28.03.2022
4611 Clear 20 1024 36 10000 3.09 110 12:20 28.03.2022
4612 Clear 19 1024 26 10000 3.09 330 11:24 28.03.2022
4613 Clear 17 1024 28 10000 4.63 340 09:43 28.03.2022
4614 Clear 15 1024 25 10000 4.12 340 09:19 28.03.2022
4615 Clear 12 1025 27 10000 5.66 340 08:22 28.03.2022
4616 Clear 12 1025 25 10000 5.14 320 07:28 28.03.2022
4617 Clear 14 1025 23 10000 3.09 350 03:44 28.03.2022
4618 Clear 16 1025 24 10000 5.14 330 23:29 27.03.2022
4619 Clear 17 1024 26 10000 4.12 330 22:24 27.03.2022
4620 Clear 17 1024 28 10000 2.57 330 21:41 27.03.2022
4621 Clear 17 1023 38 10000 1.03 40 20:54 27.03.2022
4622 Clear 17 1023 38 10000 1.03 40 20:54 27.03.2022
4623 Clear 17 1023 38 10000 1.03 40 20:54 27.03.2022
4624 Clear 18 1023 41 10000 1.03 0 19:48 27.03.2022
4625 Clear 19 1023 38 10000 1.54 0 19:20 27.03.2022
4626 Clear 20 1023 34 10000 1.54 130 18:27 27.03.2022
4627 Clear 20 1023 40 10000 2.06 100 17:39 27.03.2022
4628 Clear 19 1023 46 10000 4.12 150 16:28 27.03.2022
4629 Clouds 22 1023 27 10000 2.29 101 15:18 27.03.2022
4630 Clouds 20 1024 32 10000 1.54 0 13:55 27.03.2022
4631 Clear 19 1024 42 10000 1.03 110 12:24 27.03.2022
4632 Clear 18 1024 36 10000 3.09 330 10:57 27.03.2022
4633 Clear 15 1024 40 10000 4.12 350 08:51 27.03.2022
4634 Clouds 14 1024 48 10000 4.12 330 05:54 27.03.2022
4635 Clear 15 1024 43 10000 7.72 90 00:48 27.03.2022
4636 Clear 15 1024 41 10000 4.12 50 23:42 26.03.2022
4637 Clear 15 1023 46 10000 8.23 80 22:36 26.03.2022
4638 Clouds 15 1023 50 10000 3.38 38 21:34 26.03.2022
4639 Clouds 15 1023 50 10000 3.37 38 20:52 26.03.2022
4640 Clear 16 1022 43 10000 8.75 90 19:21 26.03.2022
4641 Clear 18 1022 40 10000 8.75 70 17:53 26.03.2022
4642 Clear 18 1022 41 10000 10.29 90 17:32 26.03.2022
4643 Clear 19 1022 39 10000 9.77 90 16:27 26.03.2022
4644 Clear 19 1022 35 10000 12.35 100 14:57 26.03.2022
4645 Clear 19 1023 37 10000 12.35 100 13:53 26.03.2022
4646 Clear 19 1023 46 10000 11.83 120 12:51 26.03.2022
4647 Clear 16 1023 57 10000 10.8 100 11:41 26.03.2022
4648 Clear 16 1023 48 10000 9.26 70 10:22 26.03.2022
4649 Clear 15 1023 46 10000 7.72 70 08:35 26.03.2022
4650 Clear 10 1023 40 10000 5.14 330 05:54 26.03.2022
4651 Clear 11 1023 41 10000 5.14 330 04:23 26.03.2022
4652 Clear 11 1023 45 10000 3.6 340 00:22 26.03.2022
4653 Clear 12 1023 52 10000 1.54 350 21:49 25.03.2022
4654 Clear 12 1023 54 10000 2.57 60 20:46 25.03.2022
4655 Clear 13 1023 58 10000 3.09 80 19:38 25.03.2022
4656 Clear 15 1023 53 10000 2.57 110 18:47 25.03.2022
4657 Clear 16 1023 50 10000 3.09 110 17:47 25.03.2022
4658 Clear 16 1024 49 10000 4.63 110 17:26 25.03.2022
4659 Clear 17 1024 45 10000 6.17 110 16:18 25.03.2022
4660 Clear 18 1024 49 10000 6.69 90 14:26 25.03.2022
4661 Clear 18 1025 56 10000 6.17 90 12:48 25.03.2022
4662 Clear 16 1025 41 10000 1.03 0 10:22 25.03.2022
4663 Clear 14 1025 41 10000 1.03 0 09:27 25.03.2022
4664 Clear 12 1024 45 10000 3.6 340 07:54 25.03.2022
4665 Clear 11 1025 41 10000 3.6 340 07:27 25.03.2022
4666 Clear 10 1025 42 10000 3.6 340 05:55 25.03.2022
4667 Clear 11 1025 47 10000 4.12 330 00:46 25.03.2022
4668 Clear 12 1025 56 10000 3.09 330 22:39 24.03.2022
4669 Clear 12 1025 62 10000 3.09 320 21:45 24.03.2022
4670 Clear 12 1025 66 10000 0 0 20:26 24.03.2022
4671 Clear 13 1025 70 10000 1.54 170 19:47 24.03.2022
4672 Clear 17 1025 64 10000 2.57 100 17:47 24.03.2022
4673 Clear 18 1025 56 10000 1.94 121 17:19 24.03.2022
4674 Clear 18 1025 46 10000 3.09 120 15:45 24.03.2022
4675 Clear 17 1027 37 10000 1.54 0 14:48 24.03.2022
4676 Clear 18 1026 35 10000 1.54 0 14:18 24.03.2022
4677 Clear 18 1027 38 10000 1.54 0 12:52 24.03.2022
4678 Clear 17 1027 42 10000 3.09 130 11:47 24.03.2022
4679 Clear 16 1026 30 10000 5.14 330 09:55 24.03.2022
4680 Clear 14 1026 33 10000 5.66 330 08:42 24.03.2022
4681 Clear 10 1027 33 10000 6.17 340 06:49 24.03.2022
4682 Clear 11 1025 35 10000 5.66 340 03:57 24.03.2022
4683 Clear 12 1027 35 10000 5.14 330 23:20 23.03.2022
4684 Clear 13 1027 33 10000 3.6 330 21:40 23.03.2022
4685 Clear 12 1027 32 10000 3.6 330 21:18 23.03.2022
4686 Clear 13 1027 41 10000 2.06 270 19:46 23.03.2022
4687 Clear 14 1026 38 10000 0 0 18:45 23.03.2022
4688 Clear 16 1027 32 10000 1.54 180 17:37 23.03.2022
4689 Clear 17 1027 29 10000 1.03 0 16:39 23.03.2022
4690 Clear 18 1029 26 10000 1.03 0 14:51 23.03.2022
4691 Clear 17 1028 33 10000 0.51 0 14:26 23.03.2022
4692 Clear 17 1029 34 10000 1.03 0 12:54 23.03.2022
4693 Clear 14 1030 34 10000 5.66 330 09:45 23.03.2022
4694 Clear 7 1030 44 10000 5.66 330 06:48 23.03.2022
4695 Clear 9 1029 44 10000 4.63 340 05:23 23.03.2022
4696 Clear 9 1030 53 10000 3.6 340 00:35 23.03.2022
4697 Clear 9 1030 51 10000 3.6 340 23:41 22.03.2022
4698 Clear 10 1031 57 10000 3.09 330 21:30 22.03.2022
4699 Clear 10 1031 55 10000 1.03 0 20:49 22.03.2022
4700 Clear 11 1030 55 10000 1.54 90 19:51 22.03.2022
4701 Clear 11 1030 54 10000 1.54 100 19:23 22.03.2022
4702 Clear 12 1030 50 10000 1.54 110 18:45 22.03.2022
4703 Clear 14 1031 43 10000 2.06 120 17:38 22.03.2022
4704 Clear 15 1032 43 10000 2.06 120 16:28 22.03.2022
4705 Clear 16 1031 43 10000 2.06 170 15:23 22.03.2022
4706 Clear 15 1031 45 10000 2.06 150 14:59 22.03.2022
4707 Clear 15 1031 46 10000 2.06 150 14:41 22.03.2022
4708 Clear 15 1032 42 10000 3.6 140 13:36 22.03.2022
4709 Clouds 15 1032 41 10000 10.29 120 11:52 22.03.2022
4710 Clear 14 1032 45 10000 3.6 0 10:46 22.03.2022
4711 Clear 10 1032 46 10000 5.66 330 08:38 22.03.2022
4712 Clear 6 1033 49 10000 5.66 340 06:58 22.03.2022
4713 Clear 8 1031 46 10000 4.63 340 03:54 22.03.2022
4714 Clear 8 1032 50 10000 3.6 350 00:34 22.03.2022
4715 Clear 8 1032 56 10000 3.09 360 22:42 21.03.2022
4716 Clear 9 1032 52 10000 3.09 330 21:18 21.03.2022
4717 Clear 10 1032 52 10000 2.06 10 20:42 21.03.2022
4718 Clear 11 1031 53 10000 5.14 70 19:59 21.03.2022
4719 Clear 11 1031 50 10000 7.2 90 19:35 21.03.2022
4720 Clear 12 1031 49 10000 7.2 90 18:46 21.03.2022
4721 Clear 14 1031 44 10000 7.72 100 17:32 21.03.2022
4722 Clear 14 1032 40 10000 8.75 100 16:58 21.03.2022
4723 Clear 15 1031 42 10000 9.26 100 16:24 21.03.2022
4724 Clear 14 1032 41 10000 10.29 100 15:21 21.03.2022
4725 Clear 15 1032 41 10000 11.32 100 14:28 21.03.2022
4726 Clear 14 1032 47 10000 11.83 100 12:58 21.03.2022
4727 Clear 14 1033 47 10000 11.83 100 11:57 21.03.2022
4728 Clear 13 1033 45 10000 11.83 100 10:59 21.03.2022
4729 Clear 12 1033 46 10000 12.35 100 09:42 21.03.2022
4730 Clear 8 1033 52 10000 3.6 0 07:22 21.03.2022
4731 Clear 7 1032 56 10000 5.14 330 05:42 21.03.2022
4732 Clouds 11 1032 46 10000 4.12 330 00:46 21.03.2022
4733 Clouds 11 1032 51 10000 3.09 330 22:56 20.03.2022
4734 Clouds 10 1032 57 10000 4.12 330 22:22 20.03.2022
4735 Clear 12 1031 66 10000 6.17 80 21:31 20.03.2022
4736 Clouds 12 1031 63 10000 7.2 100 20:54 20.03.2022
4737 Clouds 12 1031 60 10000 7.72 110 20:27 20.03.2022
4738 Clouds 13 1031 58 10000 7.72 110 19:48 20.03.2022
4739 Rain 13 1030 56 10000 7.72 110 19:19 20.03.2022
4740 Rain 14 1030 54 10000 6.69 100 17:44 20.03.2022
4741 Clouds 14 1030 52 10000 7.2 100 17:24 20.03.2022
4742 Clouds 14 1030 49 10000 10.29 100 15:58 20.03.2022
4743 Clouds 14 1030 46 10000 10.29 100 14:38 20.03.2022
4744 Rain 15 1031 47 10000 12.35 100 13:38 20.03.2022
4745 Clouds 15 1031 46 10000 9.77 100 12:19 20.03.2022
4746 Clouds 13 1030 47 10000 4.63 100 09:59 20.03.2022
4747 Rain 11 1030 58 10000 4.12 330 08:20 20.03.2022
4748 Clear 11 1029 55 10000 7.72 70 06:37 20.03.2022
4749 Rain 11 1028 57 10000 3.6 330 03:18 20.03.2022
4750 Clouds 11 1028 56 10000 3.6 330 00:53 20.03.2022
4751 Clouds 11 1028 54 10000 3.6 330 00:34 20.03.2022
4752 Clouds 12 1028 69 10000 5.14 70 22:31 19.03.2022
4753 Clouds 12 1027 68 10000 6.17 90 21:26 19.03.2022
4754 Clouds 13 1026 57 10000 6.17 90 19:29 19.03.2022
4755 Clear 14 1026 51 10000 5.66 90 18:44 19.03.2022
4756 Clear 15 1026 52 10000 3.09 80 17:52 19.03.2022
4757 Clear 15 1025 51 10000 5.14 80 17:33 19.03.2022
4758 Clear 16 1026 46 10000 6.17 90 15:40 19.03.2022
4759 Clear 16 1026 43 10000 5.66 70 14:19 19.03.2022
4760 Clouds 16 1027 45 10000 5.14 70 12:56 19.03.2022
4761 Clouds 16 1027 46 10000 6.17 70 12:37 19.03.2022
4762 Clouds 15 1028 51 10000 6.17 80 11:46 19.03.2022
4763 Clouds 13 1028 59 10000 10.29 90 09:31 19.03.2022
4764 Clouds 11 1029 54 10000 1.54 360 05:44 19.03.2022
4765 Clear 13 1028 58 10000 8.75 80 02:34 19.03.2022
4766 Clear 13 1028 59 10000 10.8 80 00:32 19.03.2022
4767 Clear 13 1028 70 10000 9.26 80 23:19 18.03.2022
4768 Clear 13 1027 63 10000 9.26 80 22:22 18.03.2022
4769 Clear 14 1027 62 10000 10.29 90 20:40 18.03.2022
4770 Clear 14 1026 61 10000 4.63 50 19:45 18.03.2022
4771 Clear 14 1026 64 10000 4.63 60 19:18 18.03.2022
4772 Rain 16 1024 62 10000 7.2 80 17:27 18.03.2022
4773 Clear 16 1024 62 10000 5.66 70 16:42 18.03.2022
4774 Clear 17 1024 61 10000 2.06 210 14:29 18.03.2022
4775 Clear 17 1025 59 10000 5.66 80 13:41 18.03.2022
4776 Clear 16 1025 59 10000 5.66 70 12:18 18.03.2022
4777 Clear 14 1025 74 10000 3.09 290 10:27 18.03.2022
4778 Clear 14 1025 76 10000 2.06 330 09:20 18.03.2022
4779 Clear 13 1024 74 10000 2.57 340 07:43 18.03.2022
4780 Rain 13 1024 79 10000 3.6 330 05:39 18.03.2022
4781 Clear 13 1023 81 10000 1.54 0 01:55 18.03.2022
4782 Clear 13 1023 82 10000 2.57 330 00:21 18.03.2022
4783 Clear 13 1022 82 10000 0 0 22:54 17.03.2022
4784 Clear 13 1022 80 10000 2.06 320 22:21 17.03.2022
4785 Rain 13 1022 82 10000 1.54 10 21:46 17.03.2022
4786 Rain 13 1022 82 10000 2.57 100 21:18 17.03.2022
4787 Rain 14 1022 82 10000 2.06 100 20:30 17.03.2022
4788 Clear 14 1021 78 10000 3.09 290 19:39 17.03.2022
4789 Clear 14 1021 76 10000 1.03 0 18:55 17.03.2022
4790 Clear 15 1020 78 10000 3.09 70 17:47 17.03.2022
4791 Clear 15 1020 78 10000 5.66 100 16:34 17.03.2022
4792 Clear 16 1020 75 10000 5.66 100 15:44 17.03.2022
4793 Clear 16 1020 78 10000 6.69 90 15:21 17.03.2022
4794 Clear 16 1021 74 10000 6.69 80 13:48 17.03.2022
4795 Clear 16 1021 68 10000 1.54 110 12:49 17.03.2022
4796 Clear 16 1021 67 10000 1.03 0 11:53 17.03.2022
4797 Clear 16 1021 69 10000 2.06 330 11:22 17.03.2022
4798 Clear 14 1021 75 10000 2.06 340 09:48 17.03.2022
4799 Clear 13 1021 83 10000 2.06 330 08:31 17.03.2022
4800 Clouds 12 1022 83 10000 2.06 330 07:32 17.03.2022
4801 Clear 12 1021 79 10000 2.57 330 05:47 17.03.2022
4802 Clouds 13 1021 82 10000 4.63 50 00:45 17.03.2022
4803 Clouds 13 1021 83 10000 8.23 80 23:39 16.03.2022
4804 Clouds 13 1021 82 10000 8.75 80 22:44 16.03.2022
4805 Clouds 13 1021 83 10000 9.77 80 22:21 16.03.2022
4806 Clouds 13 1020 83 10000 9.77 80 21:34 16.03.2022
4807 Clouds 13 1019 83 10000 10.8 80 19:40 16.03.2022
4808 Clouds 14 1019 82 10000 10.8 80 19:19 16.03.2022
4809 Clouds 14 1019 81 10000 9.77 90 18:35 16.03.2022
4810 Clouds 14 1020 80 10000 9.26 80 17:41 16.03.2022
4811 Clouds 15 1020 77 10000 9.26 90 16:51 16.03.2022
4812 Clouds 15 1021 79 10000 10.29 90 15:55 16.03.2022
4813 Clouds 16 1021 78 10000 9.26 90 14:25 16.03.2022
4814 Clouds 17 1022 75 10000 10.29 90 13:24 16.03.2022
4815 Clear 16 1023 76 10000 9.26 90 11:53 16.03.2022
4816 Clear 16 1023 74 10000 8.23 80 11:20 16.03.2022
4817 Clear 15 1024 70 10000 2.06 330 10:22 16.03.2022
4818 Clear 12 1024 75 10000 3.6 330 08:51 16.03.2022
4819 Clear 10 1024 80 10000 3.6 340 04:45 16.03.2022
4820 Clear 10 1026 80 10000 3.6 320 00:48 16.03.2022
4821 Clear 11 1027 77 10000 2.57 330 22:38 15.03.2022
4822 Clear 12 1027 74 10000 3.09 330 21:52 15.03.2022
4823 Clear 13 1027 72 10000 3.09 50 20:18 15.03.2022
4824 Clear 13 1027 72 10000 8.23 80 18:54 15.03.2022
4825 Clear 15 1028 69 10000 9.77 90 16:55 15.03.2022
4826 Clear 15 1028 67 10000 8.75 90 16:20 15.03.2022
4827 Clear 16 1029 64 10000 9.77 80 14:57 15.03.2022
4828 Clear 16 1029 64 10000 9.77 80 14:39 15.03.2022
4829 Clear 16 1030 64 10000 9.77 90 13:28 15.03.2022
4830 Clear 15 1030 64 10000 9.77 80 12:21 15.03.2022
4831 Clear 15 1031 63 10000 10.29 80 11:31 15.03.2022
4832 Clear 14 1030 64 10000 7.2 70 09:40 15.03.2022
4833 Clear 13 1030 66 10000 6.69 70 08:42 15.03.2022
4834 Clear 13 1030 68 10000 7.2 60 07:50 15.03.2022
4835 Clear 13 1031 67 10000 7.2 70 07:28 15.03.2022
4836 Clear 14 1029 67 10000 8.75 90 03:30 15.03.2022
4837 Rain 14 1030 66 10000 6.17 60 23:40 14.03.2022
4838 Rain 14 1030 68 10000 6.17 70 23:21 14.03.2022
4839 Rain 14 1030 74 10000 6.17 80 22:26 14.03.2022
4840 Clouds 14 1029 75 10000 6.69 80 21:30 14.03.2022
4841 Rain 14 1029 74 10000 8.23 80 20:41 14.03.2022
4842 Clouds 14 1029 76 10000 6.69 80 20:19 14.03.2022
4843 Rain 13 1028 80 10000 7.2 80 18:42 14.03.2022
4844 Clouds 13 1028 79 10000 8.23 70 17:54 14.03.2022
4845 Clouds 13 1028 81 10000 10.29 80 16:58 14.03.2022
4846 Clouds 13 1028 78 10000 10.8 90 15:42 14.03.2022
4847 Clouds 14 1028 75 10000 9.26 80 14:40 14.03.2022
4848 Clouds 14 1028 76 10000 8.23 80 12:22 14.03.2022
4849 Clouds 13 1028 77 10000 2.06 40 10:51 14.03.2022
4850 Clouds 12 1027 83 10000 3.6 330 09:44 14.03.2022
4851 Clouds 11 1027 84 10000 3.6 330 09:21 14.03.2022
4852 Clouds 11 1027 87 10000 4.12 330 08:55 14.03.2022
4853 Clouds 10 1027 88 10000 3.09 320 07:28 14.03.2022
4854 Clouds 9 1026 92 10000 3.6 330 05:45 14.03.2022
4855 Rain 9 1025 87 10000 3.6 350 01:55 14.03.2022
4856 Rain 9 1024 87 10000 4.12 340 01:24 14.03.2022
4857 Clouds 9 1024 83 10000 5.14 360 22:43 13.03.2022
4858 Rain 8 1023 87 10000 4.12 340 21:29 13.03.2022
4859 Rain 9 1023 83 10000 4.12 360 20:55 13.03.2022
4860 Rain 9 1022 79 10000 4.12 20 20:30 13.03.2022
4861 Rain 10 1022 71 10000 8.23 70 19:49 13.03.2022
4862 Rain 10 1021 69 10000 8.75 70 19:28 13.03.2022
4863 Rain 10 1021 67 10000 9.77 70 18:59 13.03.2022
4864 Rain 10 1021 66 10000 10.8 70 18:31 13.03.2022
4865 Rain 10 1020 66 10000 9.26 60 17:41 13.03.2022
4866 Rain 10 1020 66 10000 9.26 60 17:19 13.03.2022
4867 Rain 10 1021 67 10000 9.26 70 16:30 13.03.2022
4868 Rain 10 1021 73 10000 10.29 70 15:47 13.03.2022
4869 Rain 10 1021 76 10000 9.77 70 14:56 13.03.2022
4870 Rain 10 1021 76 10000 10.8 70 13:45 13.03.2022
4871 Rain 10 1021 75 9000 13.89 80 12:55 13.03.2022
4872 Rain 11 1021 65 9000 12.35 80 11:52 13.03.2022
4873 Rain 11 1021 63 9000 12.86 90 11:32 13.03.2022
4874 Rain 12 1021 54 10000 12.35 80 10:47 13.03.2022
4875 Rain 12 1021 55 10000 12.35 80 10:24 13.03.2022
4876 Rain 12 1021 57 10000 12.35 80 09:41 13.03.2022
4877 Clouds 11 1020 60 10000 13.38 90 08:46 13.03.2022
4878 Clouds 11 1021 58 10000 12.35 90 07:42 13.03.2022
4879 Clouds 11 1021 59 10000 13.38 80 05:42 13.03.2022
4880 Clouds 12 1020 55 10000 13.38 90 02:43 13.03.2022
4881 Clouds 12 1021 55 10000 10.29 80 23:59 12.03.2022
4882 Clouds 12 1021 56 10000 10.29 90 22:31 12.03.2022
4883 Clouds 12 1021 53 10000 10.8 90 20:54 12.03.2022
4884 Clouds 12 1021 55 10000 11.32 80 19:50 12.03.2022
4885 Clouds 12 1020 56 10000 11.83 80 19:32 12.03.2022
4886 Clouds 12 1020 57 10000 12.35 90 18:27 12.03.2022
4887 Clouds 13 1020 56 10000 12.35 80 17:34 12.03.2022
4888 Clouds 13 1020 57 10000 12.86 90 16:24 12.03.2022
4889 Clouds 12 1020 56 10000 12.86 90 15:24 12.03.2022
4890 Clouds 12 1020 56 10000 14.4 90 14:50 12.03.2022
4891 Clouds 14 1020 53 10000 14.4 90 13:32 12.03.2022
4892 Clouds 13 1020 57 10000 15.43 100 11:56 12.03.2022
4893 Clouds 13 1021 56 10000 13.38 100 11:38 12.03.2022
4894 Clouds 13 1021 55 10000 13.89 90 10:58 12.03.2022
4895 Clouds 13 1021 56 10000 12.86 90 09:46 12.03.2022
4896 Clouds 12 1021 55 10000 10.29 80 08:56 12.03.2022
4897 Clouds 11 1021 54 10000 12.35 90 07:27 12.03.2022
4898 Clear 11 1020 54 10000 7.2 70 03:36 12.03.2022
4899 Clear 10 1021 51 10000 3.09 330 23:56 11.03.2022
4900 Clear 10 1021 51 10000 3.09 330 23:56 11.03.2022
4901 Clear 10 1021 51 10000 3.09 330 23:56 11.03.2022
4902 Clear 10 1021 51 10000 3.09 330 23:56 11.03.2022
4903 Clear 10 1021 51 10000 3.09 330 23:56 11.03.2022
4904 Clear 10 1021 51 10000 3.09 320 23:18 11.03.2022
4905 Clear 12 1021 52 10000 6.69 90 21:41 11.03.2022
4906 Clear 12 1021 55 10000 8.75 100 20:56 11.03.2022
4907 Clear 12 1020 54 10000 8.75 100 20:35 11.03.2022
4908 Clear 12 1020 56 10000 9.26 100 19:52 11.03.2022
4909 Clear 12 1020 54 10000 9.26 100 19:22 11.03.2022
4910 Clear 14 1019 57 10000 10.29 100 17:30 11.03.2022
4911 Clear 14 1022 54 10000 9.77 100 16:38 11.03.2022
4912 Clear 14 1022 52 10000 10.29 100 15:55 11.03.2022
4913 Clear 14 1022 52 10000 9.26 110 14:20 11.03.2022
4914 Clear 14 1024 57 10000 5.66 100 12:45 11.03.2022
4915 Clouds 14 1024 57 10000 3.6 90 12:21 11.03.2022
4916 Clouds 14 1023 60 10000 3.09 80 11:53 11.03.2022
4917 Clouds 12 1023 69 10000 5.14 80 09:59 11.03.2022
4918 Clouds 11 1022 79 10000 2.06 40 08:56 11.03.2022
4919 Clouds 10 1022 81 10000 3.09 20 08:24 11.03.2022
4920 Clouds 10 1022 81 10000 3.09 40 07:45 11.03.2022
4921 Clouds 10 1022 80 10000 2.57 50 05:44 11.03.2022
4922 Clouds 11 1021 82 10000 7.2 80 03:48 11.03.2022
4923 Clouds 11 1022 81 10000 0 0 23:38 10.03.2022
4924 Clouds 11 1022 83 10000 0 0 22:30 10.03.2022
4925 Clouds 12 1022 87 10000 1.03 0 21:40 10.03.2022
4926 Clouds 12 1022 81 10000 1.54 220 21:18 10.03.2022
4927 Clouds 12 1022 84 10000 0.52 244 19:45 10.03.2022
4928 Clouds 13 1022 81 10000 3.6 220 18:53 10.03.2022
4929 Clouds 13 1022 78 10000 5.14 210 17:28 10.03.2022
4930 Clouds 14 1022 68 10000 4.12 200 15:55 10.03.2022
4931 Clouds 14 1023 69 10000 3.6 180 14:48 10.03.2022
4932 Clouds 14 1023 66 10000 3.09 180 13:21 10.03.2022
4933 Clouds 13 1024 68 10000 1.54 0 11:58 10.03.2022
4934 Clouds 13 1024 65 10000 3.09 320 10:53 10.03.2022
4935 Clouds 10 1024 71 10000 5.66 330 09:21 10.03.2022
4936 Clouds 6 1025 70 10000 5.14 340 07:38 10.03.2022
4937 Clear 7 1023 80 10000 5.14 330 04:36 10.03.2022
4938 Clear 7 1023 81 10000 3.6 330 01:46 10.03.2022
4939 Clear 8 1023 79 10000 4.12 330 23:26 09.03.2022
4940 Clear 9 1023 75 10000 3.09 330 21:51 09.03.2022
4941 Clouds 9 1022 75 10000 3.09 340 21:31 09.03.2022
4942 Clear 11 1022 75 10000 5.66 220 19:44 09.03.2022
4943 Clear 11 1022 69 10000 6.17 220 18:33 09.03.2022
4944 Clear 13 1022 64 10000 5.66 210 17:27 09.03.2022
4945 Clouds 13 1022 59 10000 5.14 200 16:31 09.03.2022
4946 Clouds 13 1022 58 10000 4.12 200 15:19 09.03.2022
4947 Clouds 13 1023 56 10000 3.6 170 13:53 09.03.2022
4948 Clouds 12 1023 60 10000 4.12 140 12:47 09.03.2022
4949 Clouds 12 1024 63 10000 2.57 140 11:53 09.03.2022
4950 Clouds 12 1024 62 10000 1.54 130 11:35 09.03.2022
4951 Clouds 9 1024 69 10000 3.09 330 09:54 09.03.2022
4952 Clouds 7 1023 75 10000 3.6 340 08:51 09.03.2022
4953 Clouds 5 1023 75 10000 4.12 340 07:38 09.03.2022
4954 Clouds 8 1022 72 10000 2.57 320 02:46 09.03.2022
4955 Clouds 8 1022 71 10000 2.06 330 00:41 09.03.2022
4956 Clouds 8 1021 70 10000 1.03 0 22:47 08.03.2022
4957 Clouds 8 1021 67 10000 2.57 320 21:59 08.03.2022
4958 Clouds 8 1021 65 10000 2.57 320 21:23 08.03.2022
4959 Clouds 9 1021 58 10000 1.03 0 20:35 08.03.2022
4960 Clouds 9 1021 61 10000 2.06 110 19:35 08.03.2022
4961 Clouds 9 1020 61 10000 2.06 120 18:44 08.03.2022
4962 Clouds 9 1020 62 10000 3.6 130 17:30 08.03.2022
4963 Clouds 10 1020 60 10000 4.63 120 15:45 08.03.2022
4964 Clouds 10 1020 50 10000 5.14 100 14:19 08.03.2022
4965 Clouds 11 1020 63 10000 8.23 110 12:43 08.03.2022
4966 Clouds 10 1020 61 10000 2.57 0 11:45 08.03.2022
4967 Clouds 9 1020 65 10000 4.12 330 10:44 08.03.2022
4968 Clouds 8 1019 62 10000 5.14 330 09:43 08.03.2022
4969 Clouds 6 1018 72 10000 5.14 330 06:59 08.03.2022
4970 Clear 6 1017 74 10000 4.63 330 04:52 08.03.2022
4971 Clear 7 1016 68 10000 3.6 330 23:50 07.03.2022
4972 Clear 7 1016 73 10000 3.6 330 21:57 07.03.2022
4973 Clear 8 1016 68 10000 2.57 330 21:32 07.03.2022
4974 Clear 7 1016 71 10000 3.09 320 20:46 07.03.2022
4975 Clear 8 1016 72 10000 1.62 240 19:55 07.03.2022
4976 Clouds 9 1016 71 10000 2.2 212 19:31 07.03.2022
4977 Clouds 10 1016 61 10000 3.09 210 18:42 07.03.2022
4978 Clouds 11 1016 59 10000 3.09 200 17:48 07.03.2022
4979 Clouds 12 1015 54 10000 3.09 190 16:55 07.03.2022
4980 Clouds 12 1016 57 10000 3.43 183 15:35 07.03.2022
4981 Clouds 12 1016 51 10000 3.6 150 13:51 07.03.2022
4982 Clouds 11 1017 50 10000 2.57 140 12:27 07.03.2022
4983 Clouds 10 1017 59 10000 2.06 340 10:38 07.03.2022
4984 Clear 7 1017 63 10000 4.12 340 08:57 07.03.2022
4985 Clouds 5 1016 73 10000 4.12 340 04:43 07.03.2022
4986 Clouds 7 1016 71 10000 2.57 330 00:22 07.03.2022
4987 Clouds 8 1015 65 10000 2.06 340 23:35 06.03.2022
4988 Clouds 8 1015 66 10000 2.06 320 22:42 06.03.2022
4989 Clouds 8 1015 65 10000 1.54 0 21:58 06.03.2022
4990 Clouds 8 1015 65 10000 1.54 330 20:49 06.03.2022
4991 Clouds 8 1015 64 10000 2.06 330 20:22 06.03.2022
4992 Clouds 8 1014 70 10000 0.25 83 18:56 06.03.2022
4993 Clouds 9 1014 63 10000 2.06 190 18:23 06.03.2022
4994 Clouds 9 1014 61 10000 2.57 200 17:21 06.03.2022
4995 Clouds 10 1014 58 10000 3.09 190 16:42 06.03.2022
4996 Clouds 10 1014 58 10000 2.06 190 15:52 06.03.2022
4997 Clouds 10 1014 59 10000 3.09 230 14:49 06.03.2022
4998 Clouds 10 1015 62 10000 2.57 250 14:31 06.03.2022
4999 Clouds 9 1015 63 10000 1.03 0 13:29 06.03.2022
5000 Rain 9 1016 66 10000 3.09 20 12:35 06.03.2022
5001 Rain 8 1016 77 10000 2.57 10 10:59 06.03.2022
5002 Rain 7 1016 78 10000 3.09 340 10:27 06.03.2022
5003 Rain 6 1016 87 10000 2.57 330 08:30 06.03.2022
5004 Rain 6 1015 88 10000 3.6 320 07:35 06.03.2022
5005 Rain 7 1015 84 10000 4.63 310 05:40 06.03.2022
5006 Clouds 8 1015 80 10000 4.12 330 00:53 06.03.2022
5007 Clouds 8 1015 80 10000 3.09 330 00:31 06.03.2022
5008 Clouds 8 1015 80 10000 2.57 330 23:23 05.03.2022
5009 Clouds 8 1015 86 10000 1.54 330 22:53 05.03.2022
5010 Clouds 9 1014 77 10000 1.54 350 21:56 05.03.2022
5011 Clouds 8 1014 67 10000 2.57 20 21:23 05.03.2022
5012 Clouds 9 1014 75 10000 3.09 30 19:49 05.03.2022
5013 Clouds 9 1013 76 10000 3.09 30 18:56 05.03.2022
5014 Clouds 9 1013 75 10000 3.6 30 18:27 05.03.2022
5015 Clouds 9 1013 75 10000 1.03 0 16:49 05.03.2022
5016 Rain 9 1014 81 10000 2.57 310 15:31 05.03.2022
5017 Clouds 9 1014 78 10000 2.57 300 14:52 05.03.2022
5018 Clouds 9 1014 79 10000 3.6 280 14:33 05.03.2022
5019 Clouds 9 1015 76 10000 2.57 270 13:22 05.03.2022
5020 Rain 9 1015 78 10000 2.06 70 11:48 05.03.2022
5021 Rain 9 1015 78 10000 2.57 80 11:19 05.03.2022
5022 Rain 9 1015 81 10000 3.09 50 10:20 05.03.2022
5023 Clouds 8 1015 80 10000 3.6 60 09:26 05.03.2022
5024 Clouds 8 1015 76 10000 5.66 70 07:51 05.03.2022
5025 Clouds 8 1014 82 10000 2.06 360 05:43 05.03.2022
5026 Rain 8 1014 81 10000 2.06 20 03:49 05.03.2022
5027 Clouds 9 1013 85 8000 4.63 330 23:38 04.03.2022
5028 Rain 9 1013 88 8000 2.57 350 22:42 04.03.2022
5029 Rain 9 1014 91 8000 3.6 30 22:19 04.03.2022
5030 Rain 10 1013 85 10000 4.12 20 20:57 04.03.2022
5031 Rain 10 1012 81 10000 4.12 60 20:27 04.03.2022
5032 Rain 11 1012 80 10000 1.03 60 19:36 04.03.2022
5033 Clouds 11 1011 81 10000 1.54 0 18:45 04.03.2022
5034 Rain 11 1011 79 10000 0 0 18:20 04.03.2022
5035 Clouds 12 1011 79 10000 1.54 160 17:28 04.03.2022
5036 Clouds 13 1011 74 10000 2.06 140 15:31 04.03.2022
5037 Clouds 14 1011 72 10000 2.57 150 14:33 04.03.2022
5038 Clouds 14 1012 72 10000 3.6 110 13:27 04.03.2022
5039 Clouds 13 1012 75 10000 5.66 100 11:54 04.03.2022
5040 Clouds 13 1012 77 10000 6.69 80 10:57 04.03.2022
5041 Clouds 12 1011 73 10000 6.17 80 10:18 04.03.2022
5042 Clouds 10 1011 76 10000 2.57 340 08:40 04.03.2022
5043 Clouds 9 1011 77 10000 2.06 330 07:41 04.03.2022
5044 Clouds 9 1011 80 10000 3.09 330 04:59 04.03.2022
5045 Clouds 8 1011 87 10000 3.09 320 00:41 04.03.2022
5046 Clouds 9 1012 86 10000 4.12 320 22:53 03.03.2022
5047 Clouds 9 1012 87 10000 3.6 320 21:57 03.03.2022
5048 Clouds 9 1012 87 10000 2.57 320 21:34 03.03.2022
5049 Clouds 10 1013 86 10000 1.03 0 20:21 03.03.2022
5050 Clouds 11 1013 82 10000 1.54 0 18:57 03.03.2022
5051 Clouds 11 1013 82 10000 1.03 0 18:25 03.03.2022
5052 Clouds 11 1013 83 10000 1.54 30 17:31 03.03.2022
5053 Clouds 11 1014 84 10000 2.57 60 16:28 03.03.2022
5054 Clouds 12 1014 84 10000 4.63 120 15:41 03.03.2022
5055 Clouds 12 1014 80 10000 6.69 120 14:44 03.03.2022
5056 Clouds 13 1015 78 10000 6.17 120 14:25 03.03.2022
5057 Clouds 13 1016 66 10000 4.12 90 12:32 03.03.2022
5058 Clouds 13 1016 67 10000 2.57 20 10:58 03.03.2022
5059 Clouds 11 1016 70 10000 3.09 330 09:58 03.03.2022
5060 Clouds 9 1016 80 10000 3.6 330 08:42 03.03.2022
5061 Clouds 8 1017 76 10000 1.54 340 06:55 03.03.2022
5062 Clouds 8 1017 75 10000 3.6 340 05:22 03.03.2022
5063 Clouds 9 1018 76 10000 2.57 330 23:48 02.03.2022
5064 Clear 9 1018 76 10000 1.54 350 22:54 02.03.2022
5065 Clear 9 1018 74 10000 1.54 340 22:33 02.03.2022
5066 Clear 9 1018 77 10000 3.6 10 20:59 02.03.2022
5067 Clear 9 1018 76 10000 1.54 0 20:25 02.03.2022
5068 Clouds 10 1018 74 10000 3.09 240 19:38 02.03.2022
5069 Clouds 11 1018 74 10000 3.09 240 19:18 02.03.2022
5070 Clouds 11 1019 74 10000 6.17 210 18:35 02.03.2022
5071 Clouds 12 1019 71 10000 6.17 200 17:42 02.03.2022
5072 Clouds 12 1019 66 10000 5.66 210 16:53 02.03.2022
5073 Clouds 12 1020 65 10000 5.66 200 15:59 02.03.2022
5074 Rain 12 1021 62 10000 5.14 200 14:29 02.03.2022
5075 Clouds 12 1022 59 10000 5.66 200 12:58 02.03.2022
5076 Clouds 12 1023 56 10000 4.63 200 12:35 02.03.2022
5077 Clouds 11 1023 50 10000 2.06 210 11:28 02.03.2022
5078 Clouds 11 1024 53 10000 2.06 330 10:50 02.03.2022
5079 Clouds 8 1024 57 10000 4.63 330 09:37 02.03.2022
5080 Clouds 7 1025 60 10000 3.6 340 08:44 02.03.2022
5081 Clouds 5 1025 68 10000 4.12 340 07:24 02.03.2022
5082 Clouds 5 1026 65 10000 4.63 340 05:42 02.03.2022
5083 Clouds 7 1026 62 10000 4.12 340 00:42 02.03.2022
5084 Clouds 7 1027 63 10000 3.6 330 23:40 01.03.2022
5085 Clouds 7 1027 63 10000 3.09 330 22:42 01.03.2022
5086 Clouds 6 1027 63 10000 3.09 330 21:55 01.03.2022
5087 Clouds 7 1026 64 10000 0.75 64 20:44 01.03.2022
5088 Clear 7 1026 64 10000 1.09 130 20:23 01.03.2022
5089 Clear 8 1025 62 10000 1.43 152 19:21 01.03.2022
5090 Clear 9 1025 56 10000 1.89 154 18:26 01.03.2022
5091 Clear 11 1025 48 10000 4.12 140 17:55 01.03.2022
5092 Clouds 11 1026 50 10000 5.14 130 16:50 01.03.2022
5093 Clouds 12 1026 48 10000 7.2 120 15:51 01.03.2022
5094 Clouds 12 1027 46 10000 7.72 110 14:55 01.03.2022
5095 Clouds 13 1028 47 10000 7.72 120 14:34 01.03.2022
5096 Clouds 13 1028 43 10000 5.14 90 13:27 01.03.2022
5097 Clouds 12 1029 49 10000 5.66 100 12:39 01.03.2022
5098 Clouds 12 1028 49 10000 3.6 90 11:58 01.03.2022
5099 Clouds 10 1028 58 10000 2.57 330 10:26 01.03.2022
5100 Clouds 9 1028 65 10000 10.29 100 08:41 01.03.2022
5101 Clouds 9 1027 65 10000 13.89 100 07:36 01.03.2022
5102 Clouds 10 1024 67 10000 11.32 90 04:28 01.03.2022
5103 Clouds 8 1023 65 10000 2.57 10 01:43 01.03.2022
5104 Clear 8 1021 67 10000 3.6 330 23:48 28.02.2022
5105 Clear 9 1021 67 10000 3.6 340 22:58 28.02.2022
5106 Clear 9 1021 68 10000 3.6 340 21:50 28.02.2022
5107 Clear 9 1021 70 10000 3.09 350 21:24 28.02.2022
5108 Clear 10 1020 77 10000 5.66 30 19:52 28.02.2022
5109 Clear 10 1020 79 10000 4.12 30 19:26 28.02.2022
5110 Clear 12 1021 72 10000 2.06 210 18:38 28.02.2022
5111 Clear 14 1021 66 10000 5.14 220 17:24 28.02.2022
5112 Clear 14 1022 57 10000 6.69 210 16:33 28.02.2022
5113 Clear 15 1023 54 10000 5.66 200 15:23 28.02.2022
5114 Clear 14 1023 60 10000 4.12 200 14:31 28.02.2022
5115 Clear 14 1024 61 10000 4.12 200 13:47 28.02.2022
5116 Clear 13 1025 50 10000 3.09 170 12:41 28.02.2022
5117 Clear 12 1025 39 10000 2.06 230 11:55 28.02.2022
5118 Clear 10 1025 38 10000 4.63 330 10:48 28.02.2022
5119 Clear 10 1025 39 10000 4.63 330 10:20 28.02.2022
5120 Clear 8 1025 39 10000 5.66 340 09:32 28.02.2022
5121 Clear 6 1025 45 10000 5.14 340 08:29 28.02.2022
5122 Clear 4 1026 52 10000 5.14 340 07:28 28.02.2022
5123 Clear 5 1026 49 10000 3.6 340 04:55 28.02.2022
5124 Clear 5 1026 49 10000 4.63 340 04:26 28.02.2022
5125 Clear 6 1027 52 10000 6.17 330 23:44 27.02.2022
5126 Clear 6 1026 56 10000 4.63 330 22:35 27.02.2022
5127 Clear 7 1026 58 10000 5.14 330 21:51 27.02.2022
5128 Clear 7 1026 62 10000 5.14 330 21:21 27.02.2022
5129 Clear 7 1025 59 10000 3.6 320 20:32 27.02.2022
5130 Clear 8 1025 56 10000 3.09 320 19:58 27.02.2022
5131 Clear 9 1025 55 10000 2.57 340 19:27 27.02.2022
5132 Clouds 9 1025 49 10000 3.09 310 18:47 27.02.2022
5133 Clouds 10 1024 45 10000 0.51 0 17:56 27.02.2022
5134 Clouds 10 1024 44 10000 2.57 150 17:18 27.02.2022
5135 Clouds 10 1024 47 10000 0.89 150 16:21 27.02.2022
5136 Clouds 12 1024 40 10000 4.63 100 13:40 27.02.2022
5137 Clouds 11 1025 44 10000 5.66 100 12:33 27.02.2022
5138 Clouds 10 1025 49 10000 4.12 330 11:27 27.02.2022
5139 Clouds 9 1025 52 10000 4.63 330 10:20 27.02.2022
5140 Clouds 9 1025 52 10000 4.12 330 09:50 27.02.2022
5141 Clouds 8 1024 54 10000 5.14 330 09:20 27.02.2022
5142 Clouds 7 1024 55 10000 5.66 330 08:31 27.02.2022
5143 Clear 5 1024 56 10000 6.17 330 05:39 27.02.2022
5144 Clear 7 1023 51 10000 4.63 330 02:45 27.02.2022
5145 Clear 8 1023 43 10000 5.66 330 23:34 26.02.2022
5146 Clear 9 1023 44 10000 5.14 330 22:31 26.02.2022
5147 Clear 9 1023 40 10000 3.09 310 21:19 26.02.2022
5148 Clouds 10 1023 42 10000 4.12 300 20:33 26.02.2022
5149 Clouds 10 1023 41 10000 4.63 300 19:52 26.02.2022
5150 Clouds 11 1022 41 10000 5.14 290 19:33 26.02.2022
5151 Clear 13 1022 39 10000 3.09 210 17:58 26.02.2022
5152 Clear 14 1022 40 10000 5.14 210 17:31 26.02.2022
5153 Clear 15 1022 34 10000 6.69 230 16:36 26.02.2022
5154 Clear 15 1023 36 10000 7.2 140 15:27 26.02.2022
5155 Clear 15 1022 36 10000 7.2 170 14:59 26.02.2022
5156 Clear 15 1022 34 10000 7.2 170 14:41 26.02.2022
5157 Clear 15 1022 34 10000 6.17 160 13:46 26.02.2022
5158 Clear 15 1023 33 10000 6.17 150 12:53 26.02.2022
5159 Clear 14 1024 24 10000 2.57 90 11:45 26.02.2022
5160 Clear 14 1024 24 10000 2.57 90 11:24 26.02.2022
5161 Clear 10 1024 34 10000 5.14 330 09:28 26.02.2022
5162 Clear 8 1023 37 10000 6.69 330 08:26 26.02.2022
5163 Clouds 10 1021 47 10000 3.6 50 04:22 26.02.2022
5164 Clouds 11 1019 81 10000 4.12 320 23:50 25.02.2022
5165 Clouds 11 1019 84 10000 3.09 320 22:31 25.02.2022
5166 Clouds 11 1018 84 10000 1.54 320 21:31 25.02.2022
5167 Clouds 11 1018 84 10000 1.03 230 20:51 25.02.2022
5168 Clouds 11 1017 81 10000 0.51 70 20:25 25.02.2022
5169 Clouds 14 1015 73 10000 1.03 200 17:57 25.02.2022
5170 Clouds 15 1015 69 10000 1.54 180 16:54 25.02.2022
5171 Clouds 15 1015 69 10000 2.06 200 15:55 25.02.2022
5172 Clouds 15 1015 68 10000 1.54 180 15:23 25.02.2022
5173 Clouds 15 1015 69 10000 2.06 190 14:56 25.02.2022
5174 Clouds 15 1016 71 10000 2.57 210 14:27 25.02.2022
5175 Clouds 15 1016 72 10000 3.09 220 13:30 25.02.2022
5176 Clouds 14 1016 71 10000 1.54 0 12:33 25.02.2022
5177 Clouds 14 1016 65 10000 1.54 0 11:22 25.02.2022
5178 Clouds 12 1016 67 10000 4.63 330 10:23 25.02.2022
5179 Clear 10 1016 70 10000 5.14 330 09:51 25.02.2022
5180 Clouds 8 1016 72 10000 6.17 330 08:42 25.02.2022
5181 Clouds 7 1017 76 10000 5.14 330 07:35 25.02.2022
5182 Clear 6 1017 76 10000 3.6 350 05:43 25.02.2022
5183 Clear 9 1017 81 10000 5.14 330 02:48 25.02.2022
5184 Clear 9 1017 86 10000 2.57 280 22:55 24.02.2022
5185 Clear 10 1018 84 10000 2.06 320 21:51 24.02.2022
5186 Clear 10 1018 86 10000 3.6 320 21:31 24.02.2022
5187 Clear 11 1018 84 10000 1.54 0 20:53 24.02.2022
5188 Clouds 12 1018 84 10000 1.03 0 19:38 24.02.2022
5189 Clouds 13 1018 79 10000 5.14 220 18:37 24.02.2022
5190 Clouds 13 1018 79 10000 5.14 220 18:18 24.02.2022
5191 Clouds 14 1018 80 10000 7.72 210 17:33 24.02.2022
5192 Clouds 14 1019 78 10000 5.14 200 16:29 24.02.2022
5193 Clouds 14 1019 77 10000 4.12 190 15:46 24.02.2022
5194 Clouds 13 1020 79 10000 2.06 130 14:52 24.02.2022
5195 Clouds 14 1020 79 10000 2.57 110 14:24 24.02.2022
5196 Clouds 12 1022 84 10000 2.06 320 13:39 24.02.2022
5197 Clouds 13 1022 81 10000 0 0 12:33 24.02.2022
5198 Clouds 12 1023 61 10000 4.12 330 10:40 24.02.2022
5199 Clouds 9 1023 67 10000 4.63 330 08:58 24.02.2022
5200 Clear 9 1023 68 10000 4.63 340 08:39 24.02.2022
5201 Clear 8 1024 49 10000 4.63 330 05:52 24.02.2022
5202 Clouds 9 1025 68 10000 2.57 330 01:56 24.02.2022
5203 Clouds 9 1025 68 10000 2.57 330 01:56 24.02.2022
5204 Clear 10 1024 79 10000 4.63 330 22:38 23.02.2022
5205 Clear 10 1024 81 10000 3.6 330 21:40 23.02.2022
5206 Clear 10 1024 86 10000 2.06 320 20:31 23.02.2022
5207 Clear 11 1024 84 10000 1.03 270 19:46 23.02.2022
5208 Clear 13 1024 84 10000 2.57 190 18:32 23.02.2022
5209 Clear 14 1024 76 10000 2.57 190 17:36 23.02.2022
5210 Clear 15 1024 69 10000 2.57 170 14:44 23.02.2022
5211 Clear 16 1024 71 10000 2.57 120 12:45 23.02.2022
5212 Clear 15 1024 75 10000 3.09 110 11:59 23.02.2022
5213 Clear 13 1024 62 10000 2.06 350 10:31 23.02.2022
5214 Clouds 9 1023 66 10000 6.17 330 08:59 23.02.2022
5215 Clouds 9 1023 66 10000 6.17 330 08:59 23.02.2022
5216 Clouds 9 1023 66 10000 6.17 330 08:59 23.02.2022
5217 Clouds 8 1023 53 10000 5.14 330 08:23 23.02.2022
5218 Clear 8 1021 65 10000 4.63 340 05:49 23.02.2022
5219 Clear 10 1019 67 10000 2.57 340 00:40 23.02.2022
5220 Clear 10 1019 68 10000 3.6 330 23:38 22.02.2022
5221 Clear 10 1018 71 10000 3.6 340 22:41 22.02.2022
5222 Clear 10 1018 69 10000 2.57 350 21:49 22.02.2022
5223 Clear 10 1018 72 10000 3.6 20 21:31 22.02.2022
5224 Clear 10 1017 73 10000 3.6 20 20:57 22.02.2022
5225 Clear 11 1017 73 10000 4.12 40 20:30 22.02.2022
5226 Clear 11 1017 77 10000 4.63 50 19:47 22.02.2022
5227 Clear 12 1017 73 10000 4.63 70 19:28 22.02.2022
5228 Clear 13 1016 71 10000 2.06 100 18:21 22.02.2022
5229 Clear 15 1016 64 10000 1.03 0 17:24 22.02.2022
5230 Clear 16 1016 52 10000 2.06 170 16:41 22.02.2022
5231 Clear 16 1016 60 10000 2.57 180 15:56 22.02.2022
5232 Clear 16 1016 58 10000 3.6 170 14:45 22.02.2022
5233 Clear 16 1017 56 10000 2.57 200 12:48 22.02.2022
5234 Clear 15 1018 50 10000 2.06 70 10:53 22.02.2022
5235 Clear 11 1017 49 10000 4.12 340 08:53 22.02.2022
5236 Clear 9 1015 34 10000 4.63 320 07:27 22.02.2022
5237 Clear 10 1015 35 10000 2.57 280 06:30 22.02.2022
5238 Clear 13 1012 32 10000 13.38 340 02:45 22.02.2022
5239 Clear 13 1011 35 10000 8.75 320 22:53 21.02.2022
5240 Clear 13 1011 30 10000 4.12 320 21:56 21.02.2022
5241 Clear 13 1010 36 10000 7.72 270 20:37 21.02.2022
5242 Clear 14 1008 25 10000 2.24 201 18:47 21.02.2022
5243 Clear 15 1007 24 10000 8.75 290 17:39 21.02.2022
5244 Clouds 17 1004 21 10000 12.35 310 15:26 21.02.2022
5245 Clouds 17 1005 27 10000 11.83 280 14:22 21.02.2022
5246 Clouds 18 1006 30 10000 9.26 300 13:30 21.02.2022
5247 Clouds 17 1007 34 10000 14.92 290 12:24 21.02.2022
5248 Clouds 16 1007 46 10000 13.38 260 11:20 21.02.2022
5249 Clouds 15 1008 64 10000 5.14 290 09:54 21.02.2022
5250 Clear 9 1011 81 10000 3.6 320 05:35 21.02.2022
5251 Clear 10 1015 79 10000 3.6 330 00:19 21.02.2022
5252 Clear 11 1017 86 10000 2.06 330 22:28 20.02.2022
5253 Clear 10 1017 87 10000 2.06 330 21:43 20.02.2022
5254 Clear 11 1017 80 10000 1.54 0 21:19 20.02.2022
5255 Clear 11 1017 81 10000 2.57 20 20:41 20.02.2022
5256 Clear 12 1018 79 10000 1.54 0 19:42 20.02.2022
5257 Clear 13 1018 79 10000 4.12 230 18:54 20.02.2022
5258 Clear 14 1017 76 10000 4.63 220 18:34 20.02.2022
5259 Clear 15 1017 73 10000 4.63 220 17:53 20.02.2022
5260 Clear 17 1017 63 10000 5.66 220 16:18 20.02.2022
5261 Clear 17 1018 63 10000 6.69 200 14:52 20.02.2022
5262 Clear 17 1019 64 10000 5.66 200 13:53 20.02.2022
5263 Clouds 16 1019 64 10000 3.09 200 12:35 20.02.2022
5264 Clouds 14 1019 65 10000 3.6 320 10:47 20.02.2022
5265 Clouds 13 1019 66 10000 4.63 330 10:20 20.02.2022
5266 Clouds 11 1018 76 10000 5.14 330 08:58 20.02.2022
5267 Clouds 10 1016 90 10000 3.6 330 01:19 20.02.2022
5268 Clouds 11 1016 88 10000 3.09 320 00:30 20.02.2022
5269 Clouds 11 1016 87 10000 2.57 320 23:19 19.02.2022
5270 Clouds 12 1016 87 10000 2.57 320 22:23 19.02.2022
5271 Clouds 12 1015 87 10000 0 0 21:39 19.02.2022
5272 Clouds 13 1015 86 10000 1.03 50 19:58 19.02.2022
5273 Clouds 13 1015 85 10000 2.06 100 19:33 19.02.2022
5274 Clouds 13 1014 86 10000 2.57 70 18:38 19.02.2022
5275 Clouds 14 1014 85 10000 1.54 100 17:37 19.02.2022
5276 Clouds 14 1013 84 10000 1.03 0 16:44 19.02.2022
5277 Clouds 14 1013 81 10000 1.03 0 15:20 19.02.2022
5278 Clouds 14 1013 83 10000 2.06 140 14:52 19.02.2022
5279 Clouds 15 1013 78 10000 1.03 0 13:47 19.02.2022
5280 Clouds 14 1014 79 10000 1.03 0 11:40 19.02.2022
5281 Clouds 13 1013 82 10000 2.57 330 10:30 19.02.2022
5282 Clouds 10 1012 86 10000 3.09 330 08:31 19.02.2022
5283 Clouds 10 1012 87 10000 3.09 330 06:30 19.02.2022
5284 Clouds 12 1014 85 10000 0 0 23:55 18.02.2022
5285 Clouds 12 1014 87 10000 1.54 90 22:24 18.02.2022
5286 Clouds 13 1014 88 10000 1.54 80 20:57 18.02.2022
5287 Clouds 13 1014 88 10000 2.06 90 19:55 18.02.2022
5288 Clouds 13 1014 88 10000 1.54 130 18:50 18.02.2022
5289 Clouds 13 1014 85 10000 2.06 130 18:24 18.02.2022
5290 Clouds 14 1014 83 10000 2.06 150 17:55 18.02.2022
5291 Clouds 15 1014 81 10000 3.6 190 15:35 18.02.2022
5292 Clouds 16 1015 75 10000 3.09 180 13:56 18.02.2022
5293 Clouds 16 1015 75 10000 2.57 180 13:25 18.02.2022
5294 Clouds 15 1016 73 10000 1.54 190 12:40 18.02.2022
5295 Clouds 14 1017 73 10000 1.03 0 11:55 18.02.2022
5296 Clouds 12 1016 79 10000 4.12 330 10:24 18.02.2022
5297 Clear 8 1015 88 10000 3.6 330 06:58 18.02.2022
5298 Clear 9 1015 86 10000 4.12 330 05:41 18.02.2022
5299 Clear 10 1015 84 10000 3.6 330 23:53 17.02.2022
5300 Clear 10 1014 85 10000 2.06 320 21:50 17.02.2022
5301 Clear 10 1014 85 10000 2.06 340 21:26 17.02.2022
5302 Clear 11 1013 83 10000 1.54 330 20:40 17.02.2022
5303 Clear 11 1014 84 10000 2.06 330 19:52 17.02.2022
5304 Clear 12 1013 84 10000 1.03 270 18:57 17.02.2022
5305 Clear 14 1013 78 10000 1.54 0 17:59 17.02.2022
5306 Clear 15 1013 74 10000 1.54 0 16:43 17.02.2022
5307 Clear 15 1013 69 10000 1.03 0 15:40 17.02.2022
5308 Clear 15 1013 66 10000 0 0 14:28 17.02.2022
5309 Clear 15 1014 64 10000 1.54 0 12:51 17.02.2022
5310 Clouds 13 1014 75 10000 1.03 0 11:30 17.02.2022
5311 Clouds 10 1013 79 10000 5.14 330 09:38 17.02.2022
5312 Clouds 8 1012 81 10000 4.12 340 06:37 17.02.2022
5313 Clear 9 1015 78 10000 4.63 330 23:21 16.02.2022
5314 Clear 9 1015 74 10000 4.12 330 22:27 16.02.2022
5315 Clear 9 1014 81 10000 3.09 20 20:21 16.02.2022
5316 Clouds 10 1014 79 10000 0.82 22 18:50 16.02.2022
5317 Clear 12 1013 70 10000 6.69 90 17:56 16.02.2022
5318 Clear 14 1013 58 10000 4.12 100 16:44 16.02.2022
5319 Clear 14 1014 52 10000 3.09 140 15:21 16.02.2022
5320 Clear 14 1015 49 10000 2.06 190 13:38 16.02.2022
5321 Clear 13 1016 55 10000 2.57 230 12:21 16.02.2022
5322 Clear 12 1016 57 10000 2.57 300 11:45 16.02.2022
5323 Clear 11 1016 54 10000 4.63 330 10:34 16.02.2022
5324 Clear 10 1016 58 10000 4.12 340 09:34 16.02.2022
5325 Clear 8 1016 61 10000 4.63 340 06:43 16.02.2022
5326 Clear 8 1015 54 10000 3.6 350 00:37 16.02.2022
5327 Clear 8 1015 66 10000 4.63 320 22:34 15.02.2022
5328 Clear 8 1014 75 10000 3.6 320 21:50 15.02.2022
5329 Clear 8 1014 85 10000 4.12 320 21:29 15.02.2022
5330 Clear 8 1014 84 10000 3.09 330 20:58 15.02.2022
5331 Clear 8 1014 84 10000 2.57 340 20:22 15.02.2022
5332 Clear 10 1014 81 10000 0.51 0 19:43 15.02.2022
5333 Clouds 11 1013 77 10000 1.03 200 18:25 15.02.2022
5334 Clouds 11 1012 77 10000 2.06 100 17:53 15.02.2022
5335 Clouds 12 1012 76 10000 2.57 90 17:28 15.02.2022
5336 Clouds 13 1011 73 10000 2.06 150 15:43 15.02.2022
5337 Clouds 12 1011 76 10000 2.06 140 13:57 15.02.2022
5338 Clouds 12 1011 79 10000 2.06 120 13:25 15.02.2022
5339 Clouds 11 1011 74 10000 0.51 0 11:41 15.02.2022
5340 Clouds 8 1011 79 10000 4.12 320 10:19 15.02.2022
5341 Clouds 7 1010 85 10000 3.09 350 08:42 15.02.2022
5342 Clouds 6 1009 85 10000 4.63 330 06:45 15.02.2022
5343 Clouds 8 1011 80 10000 5.14 330 23:35 14.02.2022
5344 Clouds 8 1011 78 10000 3.6 360 21:56 14.02.2022
5345 Clouds 8 1010 85 10000 5.14 360 20:53 14.02.2022
5346 Clouds 8 1011 85 10000 4.63 360 19:49 14.02.2022
5347 Drizzle 8 1011 87 10000 4.12 360 19:29 14.02.2022
5348 Rain 9 1011 87 3900 8.23 70 18:23 14.02.2022
5349 Rain 9 1011 85 4500 10.29 80 17:28 14.02.2022
5350 Rain 9 1011 86 3000 10.8 80 16:33 14.02.2022
5351 Rain 9 1012 86 10000 8.23 70 15:22 14.02.2022
5352 Rain 9 1014 85 10000 7.72 80 13:34 14.02.2022
5353 Clouds 8 1015 86 10000 3.6 40 12:58 14.02.2022
5354 Clouds 8 1016 86 10000 2.57 10 12:32 14.02.2022
5355 Clouds 8 1016 89 10000 3.09 340 11:38 14.02.2022
5356 Clouds 8 1017 89 10000 3.6 340 10:21 14.02.2022
5357 Rain 7 1017 87 10000 3.09 340 08:18 14.02.2022
5358 Clouds 7 1017 87 10000 3.6 340 07:26 14.02.2022
5359 Clouds 8 1021 75 10000 2.57 340 22:49 13.02.2022
5360 Clouds 8 1021 73 10000 3.09 330 22:30 13.02.2022
5361 Rain 9 1021 65 10000 2.57 330 21:59 13.02.2022
5362 Clouds 9 1021 61 10000 2.57 340 21:24 13.02.2022
5363 Clouds 10 1021 61 10000 3.09 90 20:28 13.02.2022
5364 Clouds 10 1021 59 10000 3.09 110 19:23 13.02.2022
5365 Clouds 10 1021 58 10000 3.09 110 18:41 13.02.2022
5366 Clouds 11 1021 48 10000 3.6 110 17:32 13.02.2022
5367 Clouds 12 1022 48 10000 4.12 120 15:53 13.02.2022
5368 Clouds 13 1022 46 10000 4.12 110 14:50 13.02.2022
5369 Clear 13 1024 45 10000 2.06 130 13:39 13.02.2022
5370 Clear 13 1024 48 10000 2.06 130 12:44 13.02.2022
5371 Clear 11 1025 53 10000 4.12 330 10:46 13.02.2022
5372 Clear 10 1025 57 10000 3.6 350 10:27 13.02.2022
5373 Clear 7 1025 63 10000 4.12 340 08:59 13.02.2022
5374 Clear 7 1025 65 10000 4.12 330 05:27 13.02.2022
5375 Clouds 8 1026 62 10000 3.09 330 00:34 13.02.2022
5376 Clouds 9 1026 61 10000 3.6 320 22:58 12.02.2022
5377 Clouds 9 1026 62 10000 3.6 330 22:33 12.02.2022
5378 Clouds 10 1026 59 10000 1.54 0 21:18 12.02.2022
5379 Clouds 10 1025 59 10000 1.54 340 20:25 12.02.2022
5380 Clear 11 1025 60 10000 7.2 90 19:18 12.02.2022
5381 Clear 11 1025 61 10000 6.69 100 18:41 12.02.2022
5382 Clear 12 1025 62 10000 6.69 90 18:23 12.02.2022
5383 Clouds 14 1024 58 10000 8.23 80 16:55 12.02.2022
5384 Clouds 14 1024 57 10000 9.77 90 16:25 12.02.2022
5385 Clear 14 1024 54 10000 10.29 110 15:32 12.02.2022
5386 Clear 15 1025 51 10000 8.75 100 14:30 12.02.2022
5387 Clear 15 1026 53 10000 8.23 100 12:55 12.02.2022
5388 Clear 12 1026 61 10000 3.09 330 10:35 12.02.2022
5389 Clear 10 1026 64 10000 4.63 330 09:38 12.02.2022
5390 Clear 8 1025 75 10000 4.12 330 08:48 12.02.2022
5391 Clear 8 1024 78 10000 4.63 330 07:50 12.02.2022
5392 Clear 8 1024 85 10000 5.66 330 05:33 12.02.2022
5393 Clear 9 1024 86 10000 4.12 330 02:20 12.02.2022
5394 Clear 9 1024 84 10000 3.6 330 01:44 12.02.2022
5395 Clouds 11 1023 85 10000 3.09 50 22:28 11.02.2022
5396 Clouds 11 1023 83 10000 5.14 70 21:47 11.02.2022
5397 Clouds 12 1022 82 10000 8.23 90 20:39 11.02.2022
5398 Clouds 12 1022 84 10000 7.72 90 19:35 11.02.2022
5399 Clouds 12 1021 82 10000 7.2 90 18:59 11.02.2022
5400 Clouds 13 1021 81 10000 5.66 90 17:48 11.02.2022
5401 Clouds 13 1021 79 10000 6.17 90 17:22 11.02.2022
5402 Clouds 14 1020 76 10000 3.6 110 15:56 11.02.2022
5403 Clouds 14 1020 76 10000 2.57 120 14:43 11.02.2022
5404 Clouds 14 1020 77 10000 2.57 140 14:21 11.02.2022
5405 Clouds 14 1020 77 10000 2.57 130 13:57 11.02.2022
5406 Clouds 14 1021 74 10000 2.57 140 13:39 11.02.2022
5407 Clouds 14 1022 71 10000 1.03 0 11:41 11.02.2022
5408 Clouds 11 1022 74 10000 5.66 330 09:57 11.02.2022
5409 Clouds 9 1022 78 10000 6.17 330 08:49 11.02.2022
5410 Clouds 9 1023 76 10000 5.66 340 08:26 11.02.2022
5411 Clouds 9 1022 82 10000 5.14 330 07:18 11.02.2022
5412 Clouds 9 1022 82 10000 4.63 330 02:26 11.02.2022
5413 Clear 9 1023 81 10000 4.63 330 00:52 11.02.2022
5414 Clear 9 1023 83 10000 4.63 330 22:51 10.02.2022
5415 Clear 10 1023 82 10000 4.12 30 21:46 10.02.2022
5416 Clear 10 1023 82 10000 4.12 30 21:18 10.02.2022
5417 Clouds 11 1023 84 10000 5.66 60 20:38 10.02.2022
5418 Clouds 12 1023 83 10000 5.14 70 19:26 10.02.2022
5419 Clouds 13 1023 81 10000 2.06 110 18:46 10.02.2022
5420 Clouds 15 1023 77 10000 6.69 210 17:27 10.02.2022
5421 Clouds 16 1023 73 10000 7.2 210 16:55 10.02.2022
5422 Clouds 16 1023 69 10000 9.26 200 15:51 10.02.2022
5423 Clouds 17 1023 68 10000 9.26 200 15:31 10.02.2022
5424 Clear 17 1023 66 10000 6.69 200 14:49 10.02.2022
5425 Clear 17 1023 57 10000 2.06 80 14:26 10.02.2022
5426 Clear 16 1024 59 10000 3.09 80 13:30 10.02.2022
5427 Clear 14 1025 60 10000 2.06 100 12:51 10.02.2022
5428 Clear 12 1026 58 10000 2.57 270 11:34 10.02.2022
5429 Clear 12 1027 51 10000 1.54 310 10:56 10.02.2022
5430 Clear 10 1027 55 10000 3.6 320 10:18 10.02.2022
5431 Clear 9 1026 67 10000 4.12 320 09:25 10.02.2022
5432 Clear 7 1026 78 10000 3.09 320 07:36 10.02.2022
5433 Clear 7 1026 74 10000 3.09 320 05:51 10.02.2022
5434 Clear 8 1027 81 10000 4.12 330 01:52 10.02.2022
5435 Clear 8 1028 82 10000 3.6 310 00:50 10.02.2022
5436 Clear 8 1028 83 10000 3.09 300 00:28 10.02.2022
5437 Clear 9 1028 85 10000 3.09 300 23:24 09.02.2022
5438 Clear 9 1028 83 10000 3.09 320 22:36 09.02.2022
5439 Clear 10 1028 84 10000 1.54 310 21:52 09.02.2022
5440 Clear 10 1028 84 10000 2.57 330 21:30 09.02.2022
5441 Clear 11 1028 84 10000 1.54 310 20:48 09.02.2022
5442 Clear 11 1028 85 10000 1.54 310 20:29 09.02.2022
5443 Clear 11 1028 84 10000 2.57 10 19:56 09.02.2022
5444 Clear 13 1028 81 10000 2.06 310 19:32 09.02.2022
5445 Clouds 14 1028 81 10000 8.23 210 17:38 09.02.2022
5446 Clouds 15 1028 79 10000 8.75 210 16:52 09.02.2022
5447 Clouds 16 1028 76 10000 8.75 200 15:51 09.02.2022
5448 Clear 16 1029 76 10000 8.23 200 14:42 09.02.2022
5449 Clear 13 1031 64 10000 1.54 0 12:28 09.02.2022
5450 Clear 11 1031 56 10000 2.57 320 10:55 09.02.2022
5451 Clear 11 1031 56 10000 2.57 320 10:55 09.02.2022
5452 Clear 10 1032 46 10000 4.12 320 10:30 09.02.2022
5453 Clear 8 1032 53 10000 4.12 320 09:40 09.02.2022
5454 Clear 8 1031 62 10000 4.12 330 09:19 09.02.2022
5455 Clear 7 1031 62 10000 4.63 320 07:55 09.02.2022
5456 Clear 8 1031 61 10000 5.14 320 05:30 09.02.2022
5457 Clear 8 1031 66 10000 5.14 330 03:50 09.02.2022
5458 Clear 9 1031 68 10000 5.14 330 00:53 09.02.2022
5459 Clear 9 1031 67 10000 5.14 330 23:33 08.02.2022
5460 Clear 9 1031 73 10000 5.14 330 22:47 08.02.2022
5461 Clear 10 1031 71 10000 4.63 330 22:22 08.02.2022
5462 Clear 10 1031 74 10000 4.63 330 21:49 08.02.2022
5463 Clear 10 1030 75 10000 3.6 320 21:21 08.02.2022
5464 Clear 10 1030 76 10000 3.6 320 20:45 08.02.2022
5465 Clear 11 1030 81 10000 2.57 310 19:46 08.02.2022
5466 Clear 13 1029 82 10000 5.14 220 18:48 08.02.2022
5467 Clear 14 1029 77 10000 3.6 220 17:43 08.02.2022
5468 Clear 15 1029 70 10000 6.69 220 16:30 08.02.2022
5469 Clear 15 1029 59 10000 6.17 220 15:30 08.02.2022
5470 Clear 15 1030 53 10000 5.14 200 14:38 08.02.2022
5471 Clear 15 1030 56 10000 2.06 190 13:29 08.02.2022
5472 Clear 15 1031 44 10000 1.54 0 11:55 08.02.2022
5473 Clear 11 1030 57 10000 4.12 330 10:23 08.02.2022
5474 Clear 11 1030 57 10000 4.12 330 10:23 08.02.2022
5475 Clear 10 1030 60 10000 4.63 340 09:45 08.02.2022
5476 Clear 8 1028 59 10000 5.66 330 07:55 08.02.2022
5477 Clear 8 1027 49 10000 4.63 340 05:41 08.02.2022
5478 Clear 9 1027 49 10000 5.14 340 04:39 08.02.2022
5479 Clear 9 1027 49 10000 5.14 340 04:21 08.02.2022
5480 Clear 9 1027 50 10000 4.63 340 03:36 08.02.2022
5481 Clear 9 1027 51 10000 4.63 340 03:18 08.02.2022
5482 Clear 9 1027 51 10000 4.63 340 02:59 08.02.2022
5483 Clear 9 1026 52 10000 4.12 340 02:36 08.02.2022
5484 Clear 9 1026 55 10000 5.14 330 02:18 08.02.2022
5485 Clear 9 1026 56 10000 5.14 330 01:44 08.02.2022
5486 Clear 9 1026 57 10000 4.63 330 01:24 08.02.2022
5487 Clear 9 1026 56 10000 5.14 330 00:55 08.02.2022
5488 Clear 10 1026 65 10000 2.57 340 23:58 07.02.2022
5489 Clear 10 1025 65 10000 4.12 330 23:40 07.02.2022
5490 Clear 10 1025 64 10000 4.12 330 23:18 07.02.2022
5491 Clear 11 1025 61 10000 3.09 330 22:54 07.02.2022
5492 Clear 11 1024 57 10000 3.09 320 22:18 07.02.2022
5493 Clear 11 1024 55 10000 3.09 320 21:44 07.02.2022
5494 Clear 11 1023 52 10000 2.57 50 21:25 07.02.2022
5495 Clear 12 1023 45 10000 2.57 10 20:41 07.02.2022
5496 Clear 12 1021 45 10000 5.66 310 19:56 07.02.2022
5497 Clear 12 1021 43 10000 6.17 300 19:38 07.02.2022
5498 Clear 14 1019 53 10000 1.03 0 18:21 07.02.2022
5499 Clouds 15 1017 63 10000 2.06 240 16:53 07.02.2022
5500 Clouds 15 1017 70 10000 2.06 250 16:20 07.02.2022
5501 Clouds 15 1016 70 10000 2.06 240 15:48 07.02.2022
5502 Clouds 15 1013 73 10000 2.66 110 13:36 07.02.2022
5503 Clear 15 1013 69 10000 4.63 100 13:18 07.02.2022
5504 Clear 14 1011 75 10000 4.12 90 11:58 07.02.2022
5505 Clear 14 1011 75 10000 4.12 90 11:58 07.02.2022
5506 Clear 14 1011 68 10000 1.54 0 11:37 07.02.2022
5507 Clear 14 1010 64 10000 3.09 330 10:52 07.02.2022
5508 Clear 13 1010 65 10000 4.12 330 10:32 07.02.2022
5509 Clear 11 1009 69 10000 4.63 330 09:53 07.02.2022
5510 Clear 8 1009 76 10000 5.66 330 09:18 07.02.2022
5511 Clear 8 1009 76 10000 5.66 330 08:43 07.02.2022
5512 Clouds 8 1008 76 10000 6.17 330 07:26 07.02.2022
5513 Clouds 8 1008 76 10000 4.63 330 06:34 07.02.2022
5514 Clouds 8 1010 79 10000 5.66 330 03:48 07.02.2022
5515 Clouds 9 1013 82 10000 3.6 330 00:46 07.02.2022
5516 Clouds 10 1014 84 10000 3.09 330 23:49 06.02.2022
5517 Clear 10 1014 82 10000 3.09 330 22:55 06.02.2022
5518 Clear 9 1014 82 10000 3.6 330 22:34 06.02.2022
5519 Clear 10 1014 81 10000 2.57 320 21:36 06.02.2022
5520 Clear 10 1014 82 10000 2.06 320 20:56 06.02.2022
5521 Clear 10 1015 82 10000 2.57 320 20:36 06.02.2022
5522 Clear 11 1015 82 10000 0.51 0 19:45 06.02.2022
5523 Clear 12 1015 79 10000 4.63 60 18:49 06.02.2022
5524 Clear 12 1015 81 10000 5.66 50 18:24 06.02.2022
5525 Clear 14 1016 77 10000 1.54 180 17:26 06.02.2022
5526 Clear 14 1017 75 10000 3.6 200 16:48 06.02.2022
5527 Clouds 16 1017 70 10000 4.63 200 15:50 06.02.2022
5528 Clouds 16 1018 77 10000 6.17 190 15:27 06.02.2022
5529 Clouds 15 1018 80 10000 5.66 200 14:50 06.02.2022
5530 Clear 15 1019 66 10000 5.14 210 13:51 06.02.2022
5531 Clear 14 1020 66 10000 4.12 210 13:20 06.02.2022
5532 Clear 13 1021 60 10000 3.09 320 11:39 06.02.2022
5533 Clear 11 1022 50 10000 4.63 330 10:31 06.02.2022
5534 Clear 10 1021 72 10000 5.14 330 09:26 06.02.2022
5535 Clear 9 1021 74 10000 6.17 330 08:41 06.02.2022
5536 Clear 9 1021 74 10000 3.6 350 06:19 06.02.2022
5537 Clear 9 1021 74 10000 4.63 340 04:51 06.02.2022
5538 Clear 9 1022 77 10000 4.63 330 02:25 06.02.2022
5539 Clear 9 1022 81 10000 4.12 330 00:30 06.02.2022
5540 Clear 9 1021 84 10000 4.63 320 23:27 05.02.2022
5541 Clear 10 1021 84 10000 4.63 320 21:43 05.02.2022
5542 Clear 11 1020 85 10000 1.54 310 20:26 05.02.2022
5543 Clear 10 1020 85 10000 1.54 310 19:51 05.02.2022
5544 Clear 11 1020 85 10000 0 0 19:33 05.02.2022
5545 Clear 12 1019 80 10000 0.51 0 18:26 05.02.2022
5546 Clear 14 1019 76 10000 1.54 0 17:34 05.02.2022
5547 Clear 15 1018 72 10000 2.57 180 15:43 05.02.2022
5548 Clear 15 1017 73 10000 2.57 180 15:25 05.02.2022
5549 Clear 15 1018 70 10000 3.6 150 13:24 05.02.2022
5550 Clear 15 1018 67 10000 2.57 160 12:42 05.02.2022
5551 Clear 13 1018 67 10000 2.57 340 11:29 05.02.2022
5552 Clear 12 1017 69 10000 3.09 340 10:43 05.02.2022
5553 Clouds 11 1017 70 10000 4.12 340 09:49 05.02.2022
5554 Clouds 10 1016 73 10000 3.09 340 08:34 05.02.2022
5555 Clouds 9 1015 76 10000 4.12 330 06:58 05.02.2022
5556 Clouds 10 1015 77 10000 3.6 330 05:44 05.02.2022
5557 Clouds 10 1015 79 10000 3.09 330 02:31 05.02.2022
5558 Clouds 10 1015 79 10000 3.09 330 01:18 05.02.2022
5559 Clouds 10 1014 79 10000 2.57 330 00:36 05.02.2022
5560 Clouds 10 1014 82 10000 2.57 340 23:33 04.02.2022
5561 Clouds 11 1014 81 10000 2.06 330 22:37 04.02.2022
5562 Clouds 11 1015 78 10000 2.06 330 21:36 04.02.2022
5563 Clouds 11 1015 85 10000 1.7 34 21:18 04.02.2022
5564 Clouds 12 1015 81 10000 1.03 0 20:29 04.02.2022
5565 Clouds 12 1014 84 10000 1.27 92 18:35 04.02.2022
5566 Clouds 13 1015 75 10000 2.57 180 16:22 04.02.2022
5567 Clouds 14 1015 68 10000 3.6 190 15:18 04.02.2022
5568 Clouds 14 1015 71 10000 2.06 160 14:40 04.02.2022
5569 Clouds 14 1017 69 10000 2.06 180 12:43 04.02.2022
5570 Clouds 14 1017 67 10000 2.06 320 11:45 04.02.2022
5571 Clouds 13 1017 69 10000 2.57 330 10:55 04.02.2022
5572 Clouds 12 1017 72 10000 2.57 330 09:56 04.02.2022
5573 Clouds 11 1016 76 10000 4.12 330 07:56 04.02.2022
5574 Clouds 11 1018 81 10000 2.57 330 03:31 04.02.2022
5575 Clouds 11 1018 84 10000 3.6 320 02:34 04.02.2022
5576 Clouds 12 1019 84 10000 3.09 60 23:40 03.02.2022
5577 Clouds 12 1019 89 10000 2.57 70 22:50 03.02.2022
5578 Clouds 12 1020 85 10000 3.09 140 21:52 03.02.2022
5579 Clouds 12 1020 89 10000 3.6 140 21:22 03.02.2022
5580 Clouds 12 1020 83 10000 3.6 110 20:22 03.02.2022
5581 Clouds 12 1020 83 10000 3.6 110 20:22 03.02.2022
5582 Clouds 12 1019 83 10000 3.09 80 19:42 03.02.2022
5583 Clouds 13 1020 83 10000 3.09 90 18:56 03.02.2022
5584 Clouds 13 1020 82 10000 3.09 100 17:59 03.02.2022
5585 Clouds 14 1020 83 10000 3.6 90 16:55 03.02.2022
5586 Clouds 14 1020 80 10000 3.6 100 15:34 03.02.2022
5587 Clouds 16 1020 76 10000 3.6 110 13:50 03.02.2022
5588 Clouds 15 1021 75 10000 4.63 110 12:22 03.02.2022
5589 Clouds 11 1019 65 10000 3.6 340 08:56 03.02.2022
5590 Clear 11 1018 58 10000 5.66 340 07:43 03.02.2022
5591 Clear 12 1017 58 10000 2.57 320 00:49 03.02.2022
5592 Clear 11 1016 67 10000 3.6 330 00:22 03.02.2022
5593 Clear 11 1016 62 10000 3.09 330 22:39 02.02.2022
5594 Clear 11 1015 63 10000 1.03 0 21:51 02.02.2022
5595 Clear 11 1015 63 10000 2.06 350 21:29 02.02.2022
5596 Clear 12 1014 67 10000 1.03 0 20:27 02.02.2022
5597 Clear 12 1014 67 10000 1.54 350 19:46 02.02.2022
5598 Clear 13 1013 67 10000 0 0 18:56 02.02.2022
5599 Clear 13 1013 65 10000 1.03 250 18:24 02.02.2022
5600 Clear 15 1012 70 10000 2.57 210 17:20 02.02.2022
5601 Clear 16 1012 60 10000 2.06 200 16:56 02.02.2022
5602 Clear 17 1012 47 10000 2.06 120 15:29 02.02.2022
5603 Clear 15 1012 53 10000 1.54 0 12:31 02.02.2022
5604 Clear 15 1012 49 10000 1.03 0 11:49 02.02.2022
5605 Clear 14 1012 47 10000 3.09 340 11:30 02.02.2022
5606 Clear 9 1011 53 10000 6.17 330 08:48 02.02.2022
5607 Clear 9 1011 57 10000 4.12 330 02:44 02.02.2022
5608 Clear 8 1014 58 10000 3.6 330 22:33 01.02.2022
5609 Clear 9 1014 58 10000 3.6 340 20:55 01.02.2022
5610 Clear 9 1014 60 10000 2.57 330 19:29 01.02.2022
5611 Clear 13 1014 49 10000 1.54 120 17:34 01.02.2022
5612 Clear 14 1014 48 10000 2.57 190 16:21 01.02.2022
5613 Clear 14 1014 45 10000 1.03 0 13:27 01.02.2022
5614 Clear 14 1014 42 10000 3.09 340 12:28 01.02.2022
5615 Clear 9 1013 30 10000 3.09 360 08:52 01.02.2022
5616 Clear 7 1010 66 10000 5.14 330 02:21 01.02.2022
5617 Clear 8 1009 73 10000 7.2 320 23:38 31.01.2022
5618 Clear 9 1008 78 10000 3.58 280 22:42 31.01.2022
5619 Clouds 9 1008 84 10000 3.6 320 21:36 31.01.2022
5620 Clouds 9 1006 85 10000 3.09 350 20:35 31.01.2022
5621 Clear 8 1006 84 10000 2.06 360 19:59 31.01.2022
5622 Clear 9 1004 82 10000 1.03 330 18:54 31.01.2022
5623 Clouds 10 1003 77 10000 1.54 0 18:18 31.01.2022
5624 Clouds 11 1003 74 10000 1.54 110 17:24 31.01.2022
5625 Clouds 12 1003 72 10000 2.06 110 16:25 31.01.2022
5626 Clouds 13 1005 69 10000 1.03 0 14:54 31.01.2022
5627 Clouds 12 1006 71 10000 0 0 13:43 31.01.2022
5628 Clouds 11 1008 70 10000 3.6 330 12:38 31.01.2022
5629 Clouds 10 1009 71 10000 4.12 330 11:34 31.01.2022
5630 Clouds 10 1010 77 10000 0.7 163 10:49 31.01.2022
5631 Clouds 9 1012 77 10000 5.66 330 09:38 31.01.2022
5632 Clouds 8 1012 78 10000 6.17 320 08:57 31.01.2022
5633 Clouds 8 1013 78 10000 5.66 330 08:38 31.01.2022
5634 Clouds 8 1013 79 10000 5.66 330 08:19 31.01.2022
5635 Clouds 8 1015 78 10000 5.66 330 06:18 31.01.2022
5636 Clouds 10 1018 81 10000 4.12 330 00:44 31.01.2022
5637 Clouds 10 1019 81 10000 4.12 330 22:34 30.01.2022
5638 Clouds 10 1019 83 10000 4.12 330 21:56 30.01.2022
5639 Clouds 10 1019 83 10000 3.6 320 21:37 30.01.2022
5640 Clouds 10 1019 83 10000 3.6 320 21:18 30.01.2022
5641 Clouds 10 1019 82 10000 3.6 320 20:43 30.01.2022
5642 Clouds 10 1019 82 10000 3.09 320 20:25 30.01.2022
5643 Clouds 11 1018 78 10000 2.06 60 19:24 30.01.2022
5644 Clouds 11 1018 78 10000 3.09 100 18:35 30.01.2022
5645 Clouds 12 1018 75 10000 3.09 80 17:53 30.01.2022
5646 Clouds 13 1018 74 10000 2.06 100 17:20 30.01.2022
5647 Clouds 13 1018 72 10000 2.57 110 16:37 30.01.2022
5648 Clouds 13 1018 72 10000 2.57 110 16:19 30.01.2022
5649 Clouds 13 1018 71 10000 2.57 120 15:49 30.01.2022
5650 Clouds 14 1018 70 10000 3.6 120 15:30 30.01.2022
5651 Clouds 14 1018 70 10000 3.6 110 14:45 30.01.2022
5652 Clouds 14 1020 68 10000 1.54 80 12:46 30.01.2022
5653 Clouds 13 1021 66 10000 3.09 330 11:53 30.01.2022
5654 Clouds 10 1021 69 10000 5.14 330 10:29 30.01.2022
5655 Clouds 9 1021 71 10000 5.66 330 09:50 30.01.2022
5656 Clouds 8 1021 74 10000 5.14 330 08:52 30.01.2022
5657 Clouds 8 1021 77 10000 5.14 330 07:28 30.01.2022
5658 Clouds 9 1024 80 10000 5.14 330 01:56 30.01.2022
5659 Clouds 9 1024 80 10000 5.14 330 01:56 30.01.2022
5660 Clear 9 1025 79 10000 4.12 330 00:22 30.01.2022
5661 Clear 8 1025 85 10000 4.12 330 22:58 29.01.2022
5662 Clear 9 1025 85 10000 4.63 330 21:49 29.01.2022
5663 Clear 9 1025 85 10000 4.12 330 21:24 29.01.2022
5664 Clouds 10 1026 84 10000 2.57 340 20:28 29.01.2022
5665 Clouds 11 1026 84 10000 2.57 270 19:34 29.01.2022
5666 Clouds 11 1026 84 10000 3.09 250 18:52 29.01.2022
5667 Clouds 12 1026 83 10000 4.12 250 18:23 29.01.2022
5668 Clouds 13 1027 78 10000 7.2 230 17:29 29.01.2022
5669 Clouds 14 1027 72 10000 6.17 220 15:57 29.01.2022
5670 Clouds 15 1028 67 10000 6.17 200 14:23 29.01.2022
5671 Clear 14 1029 63 10000 2.06 170 13:44 29.01.2022
5672 Clear 14 1029 64 10000 2.06 170 13:24 29.01.2022
5673 Clear 13 1030 47 10000 3.6 320 11:49 29.01.2022
5674 Clear 12 1029 52 10000 5.66 320 11:24 29.01.2022
5675 Clear 9 1029 65 10000 7.2 330 08:57 29.01.2022
5676 Clear 8 1028 68 10000 6.17 330 06:55 29.01.2022
5677 Clear 10 1027 60 10000 6.17 330 00:36 29.01.2022
5678 Clear 9 1027 70 10000 5.66 330 23:52 28.01.2022
5679 Clear 9 1027 74 10000 4.63 330 22:51 28.01.2022
5680 Clear 9 1027 73 10000 4.12 330 22:22 28.01.2022
5681 Clear 10 1026 74 10000 3.6 340 21:37 28.01.2022
5682 Clear 10 1026 74 10000 4.12 330 20:30 28.01.2022
5683 Clear 10 1026 76 10000 3.09 320 19:31 28.01.2022
5684 Clear 10 1025 79 10000 0.51 280 18:43 28.01.2022
5685 Clear 13 1025 72 10000 1.54 0 16:54 28.01.2022
5686 Clear 14 1025 68 10000 3.09 110 15:20 28.01.2022
5687 Clear 14 1025 66 10000 3.09 100 13:52 28.01.2022
5688 Clear 13 1025 61 10000 2.57 330 12:30 28.01.2022
5689 Clear 12 1025 65 10000 4.63 330 11:25 28.01.2022
5690 Clouds 9 1025 70 10000 5.66 340 09:52 28.01.2022
5691 Clouds 8 1025 78 10000 6.17 340 08:22 28.01.2022
5692 Clouds 8 1024 78 10000 4.63 340 07:34 28.01.2022
5693 Clouds 7 1024 83 10000 5.14 330 05:23 28.01.2022
5694 Clouds 8 1024 83 10000 3.6 330 03:44 28.01.2022
5695 Clouds 8 1025 82 10000 3.6 340 02:22 28.01.2022
5696 Clouds 8 1025 82 10000 4.63 330 01:32 28.01.2022
5697 Clouds 8 1025 82 10000 3.6 330 22:52 27.01.2022
5698 Clouds 9 1025 82 10000 3.6 320 21:49 27.01.2022
5699 Clouds 9 1025 83 10000 3.09 320 21:29 27.01.2022
5700 Clouds 10 1025 78 10000 1.54 280 20:26 27.01.2022
5701 Clouds 11 1025 79 10000 2.06 240 18:40 27.01.2022
5702 Clouds 11 1025 78 10000 1.03 0 17:56 27.01.2022
5703 Clouds 13 1026 67 10000 1.54 160 14:42 27.01.2022
5704 Clouds 13 1026 66 10000 1.03 0 13:35 27.01.2022
5705 Clouds 12 1027 65 10000 2.06 320 12:40 27.01.2022
5706 Clouds 9 1027 72 10000 6.17 330 10:23 27.01.2022
5707 Clouds 7 1026 78 10000 6.69 330 08:56 27.01.2022
5708 Clouds 7 1026 78 10000 6.69 330 08:31 27.01.2022
5709 Clouds 7 1026 80 10000 6.17 330 05:59 27.01.2022
5710 Clear 8 1026 81 10000 5.66 330 02:43 27.01.2022
5711 Clear 7 1027 81 10000 5.14 330 23:32 26.01.2022
5712 Clear 8 1026 82 10000 4.12 330 21:59 26.01.2022
5713 Clear 8 1026 81 10000 4.12 330 21:35 26.01.2022
5714 Clear 8 1026 81 10000 4.63 330 20:36 26.01.2022
5715 Clear 8 1026 81 10000 4.63 330 20:36 26.01.2022
5716 Clear 8 1026 83 10000 3.09 330 19:59 26.01.2022
5717 Clear 8 1026 81 10000 2.06 340 19:20 26.01.2022
5718 Clear 9 1026 81 10000 1.03 0 18:45 26.01.2022
5719 Clear 10 1026 74 10000 0 0 17:50 26.01.2022
5720 Clear 12 1026 70 10000 0 0 17:23 26.01.2022
5721 Clear 13 1026 68 10000 1.03 0 16:31 26.01.2022
5722 Clear 13 1026 68 10000 2.06 140 15:49 26.01.2022
5723 Clear 13 1027 66 10000 1.54 160 13:58 26.01.2022
5724 Clear 12 1028 62 10000 2.57 330 11:48 26.01.2022
5725 Clear 9 1027 72 10000 5.66 330 10:28 26.01.2022
5726 Clear 8 1027 75 10000 6.69 330 09:46 26.01.2022
5727 Clear 6 1027 80 10000 6.17 330 07:44 26.01.2022
5728 Clear 8 1028 80 10000 6.17 330 03:31 26.01.2022
5729 Clear 8 1029 84 10000 3.6 340 23:57 25.01.2022
5730 Clear 8 1029 83 10000 2.06 340 22:57 25.01.2022
5731 Clear 8 1029 83 10000 3.6 330 22:21 25.01.2022
5732 Clear 9 1029 83 10000 3.6 330 21:58 25.01.2022
5733 Clouds 9 1029 84 10000 2.57 330 20:46 25.01.2022
5734 Clouds 9 1030 84 10000 2.57 330 20:28 25.01.2022
5735 Clouds 9 1030 84 10000 2.57 330 20:28 25.01.2022
5736 Clouds 9 1030 84 10000 2.57 330 20:28 25.01.2022
5737 Clouds 9 1030 84 10000 2.06 330 19:52 25.01.2022
5738 Clouds 11 1029 79 10000 2.57 250 18:37 25.01.2022
5739 Clouds 11 1029 78 10000 3.09 230 17:44 25.01.2022
5740 Clouds 12 1029 74 10000 2.57 200 16:45 25.01.2022
5741 Clouds 12 1029 74 10000 2.57 200 16:21 25.01.2022
5742 Clouds 13 1029 74 10000 2.57 180 15:38 25.01.2022
5743 Clouds 13 1029 73 10000 3.09 180 14:57 25.01.2022
5744 Clouds 13 1030 70 10000 2.06 180 13:42 25.01.2022
5745 Clouds 11 1032 72 10000 4.12 340 10:51 25.01.2022
5746 Clouds 9 1031 72 10000 4.63 330 08:37 25.01.2022
5747 Clouds 9 1031 74 10000 5.14 330 07:29 25.01.2022
5748 Clouds 9 1031 73 10000 5.14 330 06:49 25.01.2022
5749 Clouds 9 1031 71 10000 3.09 330 05:22 25.01.2022
5750 Clouds 9 1031 77 10000 4.63 330 23:37 24.01.2022
5751 Clouds 9 1031 77 10000 4.63 330 23:18 24.01.2022
5752 Clouds 9 1031 77 10000 5.14 320 22:59 24.01.2022
5753 Clouds 9 1031 78 10000 5.14 320 22:41 24.01.2022
5754 Clouds 9 1031 80 10000 4.12 330 21:53 24.01.2022
5755 Clouds 8 1030 81 10000 3.6 330 21:29 24.01.2022
5756 Clouds 8 1030 83 10000 3.09 330 20:30 24.01.2022
5757 Clouds 8 1030 84 10000 3.09 330 19:50 24.01.2022
5758 Clouds 9 1030 81 10000 1.03 0 19:24 24.01.2022
5759 Clear 10 1029 76 10000 1.03 0 18:18 24.01.2022
5760 Clear 12 1028 71 10000 1.03 0 17:24 24.01.2022
5761 Clear 13 1028 69 10000 1.03 0 16:55 24.01.2022
5762 Clear 13 1028 68 10000 1.54 180 16:19 24.01.2022
5763 Clear 13 1028 65 10000 2.57 180 14:43 24.01.2022
5764 Clear 13 1028 63 10000 2.06 200 13:26 24.01.2022
5765 Clear 13 1028 58 10000 3.6 320 12:30 24.01.2022
5766 Clear 10 1028 64 10000 6.69 330 10:46 24.01.2022
5767 Clear 8 1028 68 10000 5.66 330 09:48 24.01.2022
5768 Clear 7 1028 76 10000 6.69 330 08:54 24.01.2022
5769 Clear 7 1028 79 10000 6.17 330 06:41 24.01.2022
5770 Clear 8 1028 81 10000 5.14 330 01:31 24.01.2022
5771 Clear 7 1028 81 10000 5.14 330 00:45 24.01.2022
5772 Clear 7 1028 84 10000 4.63 330 00:26 24.01.2022
5773 Clear 7 1028 84 10000 4.12 330 22:43 23.01.2022
5774 Clear 8 1028 83 10000 3.6 330 21:50 23.01.2022
5775 Clear 7 1028 84 10000 4.12 330 21:26 23.01.2022
5776 Clouds 8 1028 84 10000 4.12 330 20:48 23.01.2022
5777 Clear 8 1028 84 10000 4.12 320 19:55 23.01.2022
5778 Clear 9 1028 88 10000 0.51 280 18:52 23.01.2022
5779 Clouds 10 1027 77 10000 1.03 190 17:52 23.01.2022
5780 Clouds 12 1027 73 10000 2.06 180 16:48 23.01.2022
5781 Clouds 13 1027 70 10000 2.06 180 15:18 23.01.2022
5782 Clouds 13 1028 69 10000 2.57 180 14:33 23.01.2022
5783 Clear 13 1028 69 10000 3.09 160 13:27 23.01.2022
5784 Clear 13 1029 65 10000 3.6 80 12:36 23.01.2022
5785 Clear 12 1029 63 10000 2.06 340 12:18 23.01.2022
5786 Clear 11 1029 63 10000 4.12 330 11:24 23.01.2022
5787 Clear 10 1029 61 10000 4.12 330 10:57 23.01.2022
5788 Clear 9 1028 64 10000 5.14 330 10:23 23.01.2022
5789 Clear 8 1028 69 10000 5.66 330 09:25 23.01.2022
5790 Clear 7 1026 67 10000 5.14 330 05:59 23.01.2022
5791 Clear 8 1026 65 10000 4.12 330 03:20 23.01.2022
5792 Clear 8 1026 69 10000 4.12 330 01:36 23.01.2022
5793 Clear 8 1026 68 10000 4.63 320 00:42 23.01.2022
5794 Clear 8 1026 69 10000 3.09 340 23:58 22.01.2022
5795 Clear 7 1026 74 10000 5.14 320 22:48 22.01.2022
5796 Clear 8 1026 74 10000 5.14 320 22:19 22.01.2022
5797 Clear 8 1026 77 10000 5.14 330 20:29 22.01.2022
5798 Clear 8 1026 79 10000 4.63 320 19:41 22.01.2022
5799 Clear 10 1026 76 10000 3.6 230 18:37 22.01.2022
5800 Clear 10 1026 76 10000 3.6 230 18:37 22.01.2022
5801 Clear 10 1025 73 10000 1.21 244 17:45 22.01.2022
5802 Clear 11 1025 67 10000 2.06 220 17:19 22.01.2022
5803 Clear 12 1025 65 10000 3.09 200 16:54 22.01.2022
5804 Clear 13 1025 61 10000 2.57 200 15:45 22.01.2022
5805 Clear 13 1025 59 10000 2.57 170 14:52 22.01.2022
5806 Clear 13 1026 56 10000 1.03 0 13:30 22.01.2022
5807 Clear 12 1026 55 10000 3.6 330 12:37 22.01.2022
5808 Clear 12 1026 55 10000 3.6 330 12:19 22.01.2022
5809 Clear 10 1026 62 10000 5.14 330 10:54 22.01.2022
5810 Clear 9 1026 63 10000 5.14 340 10:23 22.01.2022
5811 Clear 6 1026 70 10000 5.14 340 08:59 22.01.2022
5812 Clear 6 1026 70 10000 4.63 340 08:39 22.01.2022
5813 Clear 6 1025 70 10000 4.12 350 06:46 22.01.2022
5814 Clear 7 1025 68 10000 2.54 348 02:40 22.01.2022
5815 Clear 7 1024 66 10000 5.14 330 23:52 21.01.2022
5816 Clear 7 1024 68 10000 4.63 340 23:21 21.01.2022
5817 Clear 7 1024 72 10000 4.63 330 21:45 21.01.2022
5818 Clear 9 1022 68 10000 2.57 280 19:48 21.01.2022
5819 Clear 10 1021 65 10000 1.3 240 17:53 21.01.2022
5820 Clear 13 1021 56 10000 5.66 210 16:54 21.01.2022
5821 Clear 13 1020 57 10000 6.17 210 15:24 21.01.2022
5822 Clear 13 1022 38 10000 2.57 320 12:51 21.01.2022
5823 Clear 11 1021 52 10000 5.14 330 11:42 21.01.2022
5824 Clear 10 1021 57 10000 6.17 330 11:23 21.01.2022
5825 Clear 7 1019 67 10000 6.17 330 09:26 21.01.2022
5826 Clear 6 1019 69 10000 4.63 340 08:21 21.01.2022
5827 Clear 6 1017 75 10000 4.63 330 04:37 21.01.2022
5828 Clear 7 1018 79 10000 4.12 330 22:53 20.01.2022
5829 Clear 7 1017 81 10000 4.12 330 21:49 20.01.2022
5830 Clear 7 1017 80 10000 3.6 340 21:31 20.01.2022
5831 Clear 8 1017 81 10000 3.09 330 20:21 20.01.2022
5832 Clear 9 1017 82 10000 0.85 20 19:19 20.01.2022
5833 Clear 10 1017 79 10000 1.05 155 17:46 20.01.2022
5834 Clear 12 1017 69 10000 2.57 200 16:40 20.01.2022
5835 Clear 13 1018 67 10000 2.57 180 15:40 20.01.2022
5836 Clear 13 1019 63 10000 1.54 180 14:40 20.01.2022
5837 Clear 13 1019 61 10000 2.57 130 13:32 20.01.2022
5838 Clear 13 1020 56 10000 4.12 330 12:31 20.01.2022
5839 Clouds 11 1020 61 10000 5.14 330 11:36 20.01.2022
5840 Clear 9 1020 66 10000 5.14 340 10:38 20.01.2022
5841 Clouds 8 1020 72 10000 6.17 330 09:34 20.01.2022
5842 Clear 6 1019 75 10000 5.66 330 07:33 20.01.2022
5843 Clear 7 1021 84 10000 4.12 300 00:44 20.01.2022
5844 Clouds 8 1022 85 10000 2.57 330 22:54 19.01.2022
5845 Clouds 9 1023 87 10000 2.06 320 21:48 19.01.2022
5846 Clouds 10 1023 85 10000 2.06 320 21:23 19.01.2022
5847 Clouds 9 1024 87 10000 2.57 310 20:46 19.01.2022
5848 Clouds 10 1024 84 10000 2.57 280 19:42 19.01.2022
5849 Clouds 11 1025 81 10000 4.12 220 18:18 19.01.2022
5850 Clouds 12 1025 76 10000 2.57 190 17:44 19.01.2022
5851 Clouds 12 1026 74 10000 3.09 190 16:47 19.01.2022
5852 Clouds 13 1027 68 10000 2.06 130 14:42 19.01.2022
5853 Clouds 13 1029 59 10000 3.6 320 12:42 19.01.2022
5854 Clear 12 1030 71 10000 1.07 150 11:41 19.01.2022
5855 Clear 10 1030 70 10000 5.66 340 10:23 19.01.2022
5856 Clouds 8 1030 76 10000 5.66 340 09:34 19.01.2022
5857 Clouds 7 1030 78 10000 6.69 330 06:45 19.01.2022
5858 Clouds 8 1031 80 10000 5.66 330 02:38 19.01.2022
5859 Clouds 8 1032 80 10000 4.63 330 23:19 18.01.2022
5860 Clouds 9 1032 81 10000 4.12 330 22:19 18.01.2022
5861 Clouds 9 1031 85 10000 4.63 320 20:59 18.01.2022
5862 Clear 9 1031 83 10000 4.12 320 19:55 18.01.2022
5863 Clouds 9 1031 83 10000 3.09 320 19:36 18.01.2022
5864 Clouds 10 1031 81 10000 1.54 330 18:51 18.01.2022
5865 Clouds 11 1030 79 10000 1.03 0 17:58 18.01.2022
5866 Clouds 12 1030 73 10000 1.03 0 16:58 18.01.2022
5867 Clouds 13 1030 73 10000 1.54 0 15:47 18.01.2022
5868 Clouds 13 1030 71 10000 2.06 160 15:22 18.01.2022
5869 Clouds 14 1030 69 10000 2.57 90 12:49 18.01.2022
5870 Clear 12 1030 79 10000 1.21 60 10:47 18.01.2022
5871 Clouds 9 1029 69 10000 7.2 330 09:21 18.01.2022
5872 Clouds 8 1028 67 10000 6.17 330 07:55 18.01.2022
5873 Clear 8 1026 68 10000 5.14 330 02:35 18.01.2022
5874 Clear 8 1025 68 10000 4.63 330 23:47 17.01.2022
5875 Clear 9 1025 71 10000 5.66 330 22:27 17.01.2022
5876 Clear 8 1025 75 10000 5.14 330 21:35 17.01.2022
5877 Clear 9 1025 76 10000 4.12 330 20:27 17.01.2022
5878 Clear 10 1025 80 10000 3.09 230 18:31 17.01.2022
5879 Clear 12 1025 77 10000 2.06 230 17:44 17.01.2022
5880 Clear 13 1025 76 10000 2.57 200 16:44 17.01.2022
5881 Clear 14 1025 66 10000 3.6 200 15:23 17.01.2022
5882 Clear 14 1025 72 10000 3.09 190 14:57 17.01.2022
5883 Clear 14 1027 53 10000 2.06 320 13:27 17.01.2022
5884 Clear 14 1027 55 10000 3.6 320 12:56 17.01.2022
5885 Clear 12 1027 58 10000 4.63 330 11:49 17.01.2022
5886 Clear 9 1027 64 10000 6.17 330 10:25 17.01.2022
5887 Clear 9 1027 64 10000 6.17 330 10:25 17.01.2022
5888 Clear 9 1027 63 10000 5.66 340 09:35 17.01.2022
5889 Clear 7 1025 70 10000 4.63 340 07:43 17.01.2022
5890 Clear 7 1025 71 10000 6.69 330 07:18 17.01.2022
5891 Clear 8 1025 81 10000 5.66 330 00:56 17.01.2022
5892 Clear 8 1024 82 10000 4.63 330 22:30 16.01.2022
5893 Clear 8 1023 80 10000 4.12 330 20:38 16.01.2022
5894 Clear 8 1023 78 10000 3.09 10 18:53 16.01.2022
5895 Clear 9 1022 70 10000 2.06 70 17:59 16.01.2022
5896 Clear 11 1022 66 10000 1.54 90 17:25 16.01.2022
5897 Clear 12 1022 63 10000 1.03 0 16:45 16.01.2022
5898 Clear 13 1023 63 10000 1.54 190 14:50 16.01.2022
5899 Clear 13 1023 68 10000 2.57 180 14:27 16.01.2022
5900 Clear 13 1024 69 10000 1.54 0 12:49 16.01.2022
5901 Clouds 11 1024 66 10000 4.12 320 11:47 16.01.2022
5902 Clouds 10 1025 69 10000 5.66 330 10:55 16.01.2022
5903 Clouds 9 1024 73 10000 5.66 330 10:26 16.01.2022
5904 Clouds 9 1024 76 10000 6.17 330 09:54 16.01.2022
5905 Clouds 8 1024 77 10000 5.66 340 09:22 16.01.2022
5906 Clouds 8 1024 78 10000 6.69 330 08:38 16.01.2022
5907 Clouds 8 1024 79 10000 5.66 330 03:21 16.01.2022
5908 Clouds 9 1024 82 10000 5.14 330 23:50 15.01.2022
5909 Clouds 10 1024 81 10000 4.12 330 22:19 15.01.2022
5910 Clouds 11 1025 79 10000 3.6 330 21:19 15.01.2022
5911 Clouds 11 1024 81 10000 2.57 330 20:40 15.01.2022
5912 Clouds 12 1023 79 10000 2.06 90 19:30 15.01.2022
5913 Clouds 12 1023 81 10000 2.57 100 18:47 15.01.2022
5914 Clouds 12 1023 81 10000 2.57 110 17:30 15.01.2022
5915 Clouds 14 1023 75 10000 2.57 110 15:59 15.01.2022
5916 Clouds 15 1023 82 10000 2.57 120 13:56 15.01.2022
5917 Clouds 14 1024 56 10000 2.57 320 12:20 15.01.2022
5918 Clear 11 1025 57 10000 5.14 330 10:43 15.01.2022
5919 Clear 8 1024 60 10000 5.14 330 08:32 15.01.2022
5920 Clear 9 1026 57 10000 4.12 340 00:35 15.01.2022
5921 Clear 9 1026 71 10000 3.09 340 21:52 14.01.2022
5922 Clear 10 1027 54 10000 5.14 330 20:41 14.01.2022
5923 Clear 10 1027 50 10000 5.14 330 20:21 14.01.2022
5924 Clear 10 1027 53 10000 4.12 320 18:49 14.01.2022
5925 Clear 11 1027 63 10000 2.06 250 18:20 14.01.2022
5926 Clear 13 1028 52 10000 2.57 230 16:50 14.01.2022
5927 Clear 14 1028 47 10000 3.09 230 15:48 14.01.2022
5928 Clear 15 1029 48 10000 2.57 220 14:42 14.01.2022
5929 Clear 14 1030 50 10000 2.57 200 13:36 14.01.2022
5930 Clear 13 1031 38 10000 3.6 310 12:29 14.01.2022
5931 Clear 9 1032 34 10000 6.69 320 10:57 14.01.2022
5932 Clear 8 1031 38 10000 7.2 320 09:44 14.01.2022
5933 Clear 7 1032 45 10000 6.69 330 08:44 14.01.2022
5934 Clear 7 1032 52 10000 7.2 330 06:45 14.01.2022
5935 Clear 8 1033 44 10000 6.69 330 01:20 14.01.2022
5936 Clear 7 1034 50 10000 0.45 211 23:19 13.01.2022
5937 Clear 8 1034 54 10000 6.69 330 21:38 13.01.2022
5938 Clear 8 1034 54 10000 0.89 242 21:19 13.01.2022
5939 Clear 8 1033 57 10000 5.66 320 19:40 13.01.2022
5940 Clear 8 1033 60 10000 5.14 320 19:22 13.01.2022
5941 Clear 10 1033 53 10000 0 0 17:52 13.01.2022
5942 Clear 13 1033 47 10000 1.54 0 16:21 13.01.2022
5943 Clear 13 1033 46 10000 2.57 140 15:37 13.01.2022
5944 Clear 14 1032 42 10000 1.54 0 14:47 13.01.2022
5945 Clear 13 1033 39 10000 3.6 320 12:45 13.01.2022
5946 Clear 8 1033 39 10000 6.69 330 10:25 13.01.2022
5947 Clear 7 1032 41 10000 7.2 330 09:20 13.01.2022
5948 Clear 6 1032 39 10000 7.72 330 08:27 13.01.2022
5949 Clear 6 1031 37 10000 7.2 330 07:24 13.01.2022
5950 Clear 6 1031 37 10000 7.72 330 05:59 13.01.2022
5951 Clear 6 1031 42 10000 8.23 330 05:19 13.01.2022
5952 Clear 7 1030 43 10000 7.2 330 02:33 13.01.2022
5953 Clear 8 1030 43 10000 5.66 340 00:56 13.01.2022
5954 Clear 8 1030 44 10000 6.69 330 23:49 12.01.2022
5955 Clear 8 1029 40 10000 5.14 340 23:24 12.01.2022
5956 Clear 8 1029 43 10000 5.14 340 21:58 12.01.2022
5957 Clear 8 1028 44 10000 5.14 340 21:23 12.01.2022
5958 Clear 8 1028 40 10000 5.14 340 20:57 12.01.2022
5959 Clear 9 1028 43 10000 4.63 330 19:57 12.01.2022
5960 Clear 10 1027 46 10000 4.12 330 18:43 12.01.2022
5961 Clear 10 1027 50 10000 2.06 280 17:50 12.01.2022
5962 Clear 13 1026 40 10000 2.57 210 16:39 12.01.2022
5963 Clear 14 1026 47 10000 3.09 210 14:49 12.01.2022
5964 Clear 14 1027 36 10000 3.09 320 13:34 12.01.2022
5965 Clear 12 1027 36 10000 4.63 320 12:35 12.01.2022
5966 Clear 6 1026 45 10000 8.23 330 08:50 12.01.2022
5967 Clear 5 1025 48 10000 6.69 330 07:52 12.01.2022
5968 Clear 5 1025 46 10000 8.23 330 07:32 12.01.2022
5969 Clear 7 1023 42 10000 4.63 340 01:26 12.01.2022
5970 Clear 8 1022 36 10000 5.66 340 23:25 11.01.2022
5971 Clear 8 1022 39 10000 5.66 340 22:24 11.01.2022
5972 Clear 8 1021 42 10000 4.63 330 21:28 11.01.2022
5973 Clear 8 1021 44 10000 5.14 340 20:35 11.01.2022
5974 Clear 8 1021 45 10000 4.63 330 19:23 11.01.2022
5975 Clear 12 1020 39 10000 4.63 230 17:46 11.01.2022
5976 Clear 14 1019 37 10000 4.12 220 16:39 11.01.2022
5977 Clear 14 1019 51 10000 0.45 222 16:18 11.01.2022
5978 Clear 14 1019 30 10000 2.57 250 14:48 11.01.2022
5979 Clear 15 1019 26 10000 2.06 310 14:30 11.01.2022
5980 Clear 14 1019 28 10000 4.63 330 13:46 11.01.2022
5981 Clear 14 1019 29 10000 4.63 330 13:25 11.01.2022
5982 Clear 14 1019 36 10000 0.1 261 12:25 11.01.2022
5983 Clear 9 1019 30 10000 7.72 330 10:31 11.01.2022
5984 Clear 7 1018 32 10000 4.63 340 07:50 11.01.2022
5985 Clear 6 1017 33 10000 5.66 340 03:51 11.01.2022
5986 Clear 7 1016 37 10000 7.2 330 00:27 11.01.2022
5987 Clear 6 1015 44 10000 5.66 340 23:39 10.01.2022
5988 Clear 7 1015 51 10000 5.14 330 22:20 10.01.2022
5989 Clear 7 1015 54 10000 5.14 330 21:57 10.01.2022
5990 Clear 7 1015 57 10000 4.12 340 21:33 10.01.2022
5991 Clear 7 1014 54 10000 5.14 330 20:59 10.01.2022
5992 Clear 7 1014 55 10000 4.63 330 20:41 10.01.2022
5993 Clear 7 1014 57 10000 4.63 330 20:19 10.01.2022
5994 Clouds 8 1013 63 10000 3.09 350 19:38 10.01.2022
5995 Clouds 8 1013 64 10000 3.09 350 19:19 10.01.2022
5996 Clouds 8 1012 66 10000 4.63 320 18:46 10.01.2022
5997 Clouds 12 1011 52 10000 3.09 230 16:48 10.01.2022
5998 Clouds 12 1010 51 10000 3.09 230 16:27 10.01.2022
5999 Clouds 12 1009 54 10000 3.6 220 14:44 10.01.2022
6000 Clouds 12 1009 58 10000 2.12 241 13:35 10.01.2022
6001 Clouds 11 1009 51 10000 5.14 330 11:56 10.01.2022
6002 Clouds 10 1008 50 10000 5.66 330 10:49 10.01.2022
6003 Clouds 8 1007 55 10000 6.69 330 09:40 10.01.2022
6004 Clear 7 1005 53 10000 6.69 330 05:52 10.01.2022
6005 Clear 8 1004 44 10000 3.6 350 02:38 10.01.2022
6006 Clear 8 1004 44 10000 4.12 330 01:21 10.01.2022
6007 Clear 9 1004 41 10000 2.57 280 00:21 10.01.2022
6008 Clear 9 1004 39 10000 2.57 250 22:48 09.01.2022
6009 Clear 9 1003 40 10000 2.57 340 22:21 09.01.2022
6010 Clear 10 1003 39 10000 0.45 39 21:42 09.01.2022
6011 Clear 10 1003 36 10000 0.89 110 21:22 09.01.2022
6012 Clear 10 1003 37 10000 0.45 271 20:47 09.01.2022
6013 Clear 10 1003 38 10000 0.89 300 20:29 09.01.2022
6014 Clear 10 1003 37 10000 1.34 217 19:42 09.01.2022
6015 Clear 10 1003 38 10000 0.45 315 19:21 09.01.2022
6016 Clear 11 1003 39 10000 0.89 298 18:49 09.01.2022
6017 Clear 11 1002 41 10000 0.89 250 18:30 09.01.2022
6018 Clear 11 1002 38 10000 1.34 294 17:30 09.01.2022
6019 Clear 12 1002 35 10000 9.26 280 16:51 09.01.2022
6020 Clear 13 1001 35 10000 0.45 227 15:56 09.01.2022
6021 Clear 14 1001 33 10000 0.45 227 15:34 09.01.2022
6022 Clear 14 1002 28 10000 1.34 262 14:40 09.01.2022
6023 Clear 14 1002 29 10000 0.45 226 13:50 09.01.2022
6024 Clear 13 1003 31 10000 1.34 207 12:44 09.01.2022
6025 Clear 13 1003 29 10000 1.34 246 11:48 09.01.2022
6026 Clear 11 1003 38 10000 2.06 60 09:59 09.01.2022
6027 Clear 11 1002 40 10000 2.06 60 09:41 09.01.2022
6028 Clear 8 1002 62 10000 3.09 290 08:31 09.01.2022
6029 Clouds 8 1005 69 10000 3.6 330 02:48 09.01.2022
6030 Clouds 8 1007 73 10000 3.6 330 01:21 09.01.2022
6031 Clouds 8 1009 83 10000 2.06 20 23:38 08.01.2022
6032 Clear 9 1009 77 10000 4.63 330 22:59 08.01.2022
6033 Clear 8 1010 81 10000 4.12 320 21:33 08.01.2022
6034 Clear 9 1010 81 10000 3.6 330 20:58 08.01.2022
6035 Clear 9 1010 81 10000 3.09 340 20:39 08.01.2022
6036 Clear 8 1010 81 10000 3.09 340 20:19 08.01.2022
6037 Clear 9 1011 78 10000 0 0 18:21 08.01.2022
6038 Clouds 10 1012 74 10000 1.03 0 17:22 08.01.2022
6039 Clouds 12 1012 70 10000 3.09 120 15:51 08.01.2022
6040 Clear 13 1012 66 10000 3.09 90 14:43 08.01.2022
6041 Clear 13 1012 62 10000 2.57 100 13:25 08.01.2022
6042 Clear 10 1013 61 10000 0.51 0 11:25 08.01.2022
6043 Clear 8 1013 60 10000 2.57 330 10:25 08.01.2022
6044 Clear 8 1013 62 10000 3.09 330 09:47 08.01.2022
6045 Clear 7 1012 61 10000 1.03 0 07:50 08.01.2022
6046 Clear 6 1015 70 10000 6.69 330 02:50 08.01.2022
6047 Clear 6 1015 68 10000 5.66 330 00:41 08.01.2022
6048 Clear 6 1014 61 10000 4.63 340 22:47 07.01.2022
6049 Clear 7 1013 59 10000 5.14 330 21:18 07.01.2022
6050 Clear 7 1013 59 10000 3.6 340 20:19 07.01.2022
6051 Clouds 8 1013 56 10000 3.6 330 19:23 07.01.2022
6052 Clouds 9 1014 52 10000 3.6 250 18:44 07.01.2022
6053 Clouds 11 1014 48 10000 5.66 230 17:28 07.01.2022
6054 Clouds 12 1014 48 10000 0.45 263 16:41 07.01.2022
6055 Clouds 13 1015 48 10000 2.57 280 14:29 07.01.2022
6056 Clear 12 1016 42 10000 2.06 320 13:41 07.01.2022
6057 Clear 11 1017 41 10000 4.63 330 12:49 07.01.2022
6058 Clear 6 1018 52 10000 5.14 330 09:46 07.01.2022
6059 Clear 6 1017 51 10000 5.66 340 02:57 07.01.2022
6060 Clear 6 1016 49 10000 7.72 330 01:56 07.01.2022
6061 Clear 6 1016 53 10000 6.17 330 01:28 07.01.2022
6062 Clear 7 1016 51 10000 5.66 340 00:59 07.01.2022
6063 Clear 7 1016 52 10000 5.14 330 00:28 07.01.2022
6064 Clear 7 1014 57 10000 5.14 330 21:39 06.01.2022
6065 Clear 8 1014 59 10000 4.63 330 20:36 06.01.2022
6066 Clear 8 1013 58 10000 4.12 330 19:54 06.01.2022
6067 Clear 8 1013 58 10000 3.6 330 19:28 06.01.2022
6068 Clear 10 1012 59 10000 4.12 300 17:51 06.01.2022
6069 Clear 11 1012 54 10000 3.6 290 17:19 06.01.2022
6070 Clear 12 1011 46 10000 4.12 280 16:21 06.01.2022
6071 Clear 14 1010 40 10000 1.54 220 15:40 06.01.2022
6072 Clear 14 1010 40 10000 1.54 220 15:19 06.01.2022
6073 Clear 13 1009 43 10000 2.57 260 14:19 06.01.2022
6074 Clouds 11 1009 47 10000 3.6 330 12:59 06.01.2022
6075 Clouds 10 1010 55 10000 5.14 330 11:58 06.01.2022
6076 Clouds 10 1009 56 10000 4.63 330 11:29 06.01.2022
6077 Clear 7 1008 64 10000 4.12 340 09:33 06.01.2022
6078 Rain 8 1003 90 10000 4.12 340 01:57 06.01.2022
6079 Clouds 9 1001 82 10000 5.14 330 23:56 05.01.2022
6080 Clouds 9 1000 85 10000 6.69 330 23:21 05.01.2022
6081 Rain 9 1000 86 10000 6.17 310 22:41 05.01.2022
6082 Rain 9 1000 85 10000 5.14 330 22:18 05.01.2022
6083 Rain 10 1000 87 5000 2.57 360 21:23 05.01.2022
6084 Clouds 12 999 75 10000 6.69 120 20:30 05.01.2022
6085 Clouds 12 998 78 10000 10.29 110 19:29 05.01.2022
6086 Clouds 12 996 82 10000 6.65 96 18:20 05.01.2022
6087 Clouds 13 995 81 10000 2.57 60 16:56 05.01.2022
6088 Clouds 14 995 82 10000 1.03 0 16:18 05.01.2022
6089 Clouds 14 996 83 10000 2.57 150 14:56 05.01.2022
6090 Clouds 15 997 81 10000 2.06 110 13:34 05.01.2022
6091 Clouds 14 998 77 10000 1.03 0 12:20 05.01.2022
6092 Clouds 11 1000 78 10000 4.63 330 08:35 05.01.2022
6093 Clouds 12 1000 77 10000 4.12 330 06:46 05.01.2022
6094 Clouds 12 1005 81 10000 2.06 340 01:46 05.01.2022
6095 Clouds 12 1006 86 10000 4.12 320 23:43 04.01.2022
6096 Clouds 12 1006 86 10000 4.12 320 23:21 04.01.2022
6097 Clouds 12 1007 83 10000 2.57 330 21:41 04.01.2022
6098 Clouds 12 1007 82 10000 3.09 330 20:42 04.01.2022
6099 Clouds 12 1008 83 10000 1.54 330 18:41 04.01.2022
6100 Clouds 12 1008 81 10000 2.06 330 17:33 04.01.2022
6101 Clouds 13 1008 83 10000 1.54 320 16:38 04.01.2022
6102 Clouds 13 1009 81 10000 2.06 330 15:25 04.01.2022
6103 Clouds 12 1010 83 10000 2.06 340 14:38 04.01.2022
6104 Clouds 12 1010 81 10000 1.54 330 13:57 04.01.2022
6105 Clouds 12 1011 80 10000 3.09 320 12:24 04.01.2022
6106 Clouds 10 1012 86 10000 0.89 224 10:24 04.01.2022
6107 Clouds 8 1012 87 10000 5.66 330 08:57 04.01.2022
6108 Clear 9 1012 86 10000 5.66 330 06:46 04.01.2022
6109 Clouds 10 1015 87 10000 4.12 340 00:44 04.01.2022
6110 Clouds 10 1015 88 10000 5.66 330 23:56 03.01.2022
6111 Clouds 10 1016 85 10000 5.14 330 22:28 03.01.2022
6112 Clouds 10 1016 84 10000 5.14 320 21:41 03.01.2022
6113 Clouds 10 1016 86 10000 3.09 340 20:42 03.01.2022
6114 Clouds 10 1016 84 10000 4.63 320 19:44 03.01.2022
6115 Clouds 11 1016 84 10000 3.6 60 18:32 03.01.2022
6116 Clouds 12 1016 84 10000 4.63 80 17:34 03.01.2022
6117 Clouds 13 1016 84 10000 3.6 90 16:56 03.01.2022
6118 Clouds 14 1016 77 10000 1.54 100 14:54 03.01.2022
6119 Clouds 14 1018 76 10000 1.03 310 13:25 03.01.2022
6120 Clouds 14 1019 74 10000 4.12 320 12:33 03.01.2022
6121 Clear 12 1020 78 10000 4.63 330 11:31 03.01.2022
6122 Clouds 10 1020 85 10000 6.69 330 09:42 03.01.2022
6123 Clouds 9 1020 87 10000 4.63 340 08:28 03.01.2022
6124 Clouds 9 1020 85 10000 5.14 330 06:47 03.01.2022
6125 Clouds 9 1023 85 10000 4.63 330 23:47 02.01.2022
6126 Clouds 9 1023 88 10000 4.63 330 23:18 02.01.2022
6127 Clouds 9 1023 88 10000 4.63 330 22:42 02.01.2022
6128 Clouds 10 1023 84 10000 4.12 330 21:32 02.01.2022
6129 Clouds 9 1023 87 10000 3.6 330 20:31 02.01.2022
6130 Clouds 10 1023 85 10000 4.12 320 19:52 02.01.2022
6131 Clouds 10 1023 84 10000 2.57 320 19:25 02.01.2022
6132 Clouds 11 1023 84 10000 1.54 310 18:33 02.01.2022
6133 Clouds 11 1024 84 10000 1.54 310 17:43 02.01.2022
6134 Clouds 12 1024 79 10000 2.06 330 17:21 02.01.2022
6135 Clouds 12 1024 77 10000 2.06 250 16:33 02.01.2022
6136 Clouds 13 1024 78 10000 3.09 240 15:51 02.01.2022
6137 Clouds 12 1025 75 10000 2.57 320 13:58 02.01.2022
6138 Clouds 12 1026 77 10000 4.12 330 12:34 02.01.2022
6139 Clouds 12 1026 77 10000 4.63 320 11:56 02.01.2022
6140 Clouds 12 1026 81 10000 0.08 33 10:59 02.01.2022
6141 Clouds 12 1026 78 10000 5.14 330 10:26 02.01.2022
6142 Clouds 10 1027 79 10000 5.14 330 08:27 02.01.2022
6143 Clouds 11 1028 82 10000 3.6 330 03:22 02.01.2022
6144 Clouds 12 1027 82 10000 3.6 330 23:56 01.01.2022
6145 Clouds 12 1027 84 10000 3.09 330 23:36 01.01.2022
6146 Clouds 12 1027 83 10000 3.09 330 22:44 01.01.2022
6147 Clouds 12 1027 80 10000 3.09 330 22:18 01.01.2022
6148 Clouds 12 1027 80 10000 3.09 320 21:43 01.01.2022
6149 Clouds 12 1026 83 10000 2.57 320 20:52 01.01.2022
6150 Clouds 12 1026 80 10000 0.51 0 19:55 01.01.2022
6151 Clouds 12 1026 80 10000 1.54 340 18:58 01.01.2022
6152 Clouds 13 1026 80 10000 1.03 330 17:56 01.01.2022
6153 Clouds 13 1025 76 10000 1.03 330 16:35 01.01.2022
6154 Clouds 13 1025 77 10000 0 0 15:57 01.01.2022
6155 Clouds 13 1025 76 10000 1.54 330 14:57 01.01.2022
6156 Clouds 13 1026 76 10000 1.54 330 13:42 01.01.2022
6157 Clouds 13 1026 73 10000 3.6 330 12:49 01.01.2022
6158 Clouds 12 1026 78 10000 4.12 330 11:47 01.01.2022
6159 Clouds 12 1027 76 10000 5.14 330 11:21 01.01.2022
6160 Clouds 11 1026 80 10000 5.14 330 10:26 01.01.2022
6161 Clouds 11 1026 80 10000 5.66 330 09:41 01.01.2022
6162 Clouds 9 1027 76 10000 4.63 330 08:25 01.01.2022
6163 Clouds 10 1025 81 10000 3.6 350 07:43 01.01.2022
6164 Clouds 10 1025 84 10000 4.12 330 06:46 01.01.2022
6165 Clouds 11 1025 83 10000 4.63 330 05:26 01.01.2022
6166 Clouds 10 1026 81 10000 4.63 330 04:37 01.01.2022
6167 Clouds 11 1025 81 10000 3.6 330 01:28 01.01.2022
6168 Clouds 12 1026 81 10000 1.54 340 23:35 31.12.2021
6169 Clouds 12 1026 84 10000 2.57 340 21:53 31.12.2021
6170 Clouds 12 1026 84 10000 2.57 340 20:37 31.12.2021
6171 Clouds 12 1025 87 10000 2.57 340 19:30 31.12.2021
6172 Clouds 12 1026 94 10000 2.57 330 18:35 31.12.2021
6173 Clouds 13 1025 84 10000 2.06 320 17:38 31.12.2021
6174 Clouds 13 1025 84 10000 2.06 320 17:18 31.12.2021
6175 Clouds 13 1025 84 10000 0.51 0 16:25 31.12.2021
6176 Clouds 13 1024 84 10000 1.03 0 15:57 31.12.2021
6177 Clouds 13 1025 94 10000 1.03 90 15:28 31.12.2021
6178 Clouds 13 1025 87 10000 1.03 0 14:56 31.12.2021
6179 Clouds 13 1025 87 10000 2.06 150 14:30 31.12.2021
6180 Clouds 15 1026 94 10000 0.51 0 13:36 31.12.2021
6181 Clouds 14 1026 100 10000 0 0 12:45 31.12.2021
6182 Clouds 13 1026 100 10000 0 0 11:51 31.12.2021
6183 Fog 13 1026 100 500 1.03 210 11:30 31.12.2021
6184 Fog 10 1026 100 350 1.03 0 10:38 31.12.2021
6185 Fog 10 1026 100 350 1.03 0 10:20 31.12.2021
6186 Fog 9 1025 100 350 2.06 280 09:33 31.12.2021
6187 Fog 9 1025 100 500 2.57 260 08:43 31.12.2021
6188 Fog 8 1024 100 10000 3.09 260 07:31 31.12.2021
6189 Clear 12 1022 84 10000 1.03 290 23:35 30.12.2021
6190 Clear 12 1022 84 10000 2.57 30 22:38 30.12.2021
6191 Clear 13 1022 84 10000 2.57 30 22:20 30.12.2021
6192 Clear 12 1022 84 10000 1.03 0 21:37 30.12.2021
6193 Clear 12 1021 84 10000 2.06 320 20:48 30.12.2021
6194 Clear 13 1021 82 10000 2.57 330 20:28 30.12.2021
6195 Clouds 13 1021 81 10000 2.57 320 19:48 30.12.2021
6196 Clouds 13 1021 85 10000 3.09 330 19:18 30.12.2021
6197 Clouds 14 1020 86 10000 0.51 60 18:21 30.12.2021
6198 Clouds 15 1020 86 10000 1.54 150 16:37 30.12.2021
6199 Clear 16 1019 84 10000 2.57 120 15:53 30.12.2021
6200 Clear 17 1018 81 10000 4.63 110 14:49 30.12.2021
6201 Clear 17 1018 81 10000 3.09 100 14:30 30.12.2021
6202 Clear 16 1018 81 10000 1.54 100 13:24 30.12.2021
6203 Clear 14 1018 78 10000 1.03 0 11:35 30.12.2021
6204 Clear 12 1017 80 10000 4.12 320 10:27 30.12.2021
6205 Clear 11 1016 84 10000 4.63 330 09:27 30.12.2021
6206 Clear 11 1015 83 10000 5.14 320 06:56 30.12.2021
6207 Clear 10 1015 93 10000 3.6 320 04:56 30.12.2021
6208 Clear 10 1014 93 10000 2.57 330 03:40 30.12.2021
6209 Clear 10 1013 81 10000 2.06 340 02:19 30.12.2021
6210 Clear 11 1012 82 10000 2.57 330 23:37 29.12.2021
6211 Clear 11 1012 86 10000 3.09 330 22:35 29.12.2021
6212 Clouds 11 1012 82 10000 3.6 320 21:55 29.12.2021
6213 Clouds 11 1012 85 10000 2.57 300 20:57 29.12.2021
6214 Clear 11 1011 82 10000 1.54 20 20:29 29.12.2021
6215 Clear 12 1010 83 10000 2.06 340 19:31 29.12.2021
6216 Clear 12 1010 82 10000 2.06 20 18:36 29.12.2021
6217 Clear 13 1010 83 10000 3.6 70 17:49 29.12.2021
6218 Clear 13 1010 84 10000 4.63 70 17:26 29.12.2021
6219 Clear 15 1009 81 10000 4.63 100 16:21 29.12.2021
6220 Clear 16 1008 80 10000 4.12 110 15:21 29.12.2021
6221 Clear 15 1009 78 10000 1.03 0 12:57 29.12.2021
6222 Clear 15 1009 76 10000 1.03 0 12:35 29.12.2021
6223 Clear 13 1009 78 10000 3.09 330 11:23 29.12.2021
6224 Clear 10 1009 84 10000 4.12 330 09:35 29.12.2021
6225 Clear 9 1008 86 10000 4.12 330 07:47 29.12.2021
6226 Clear 9 1008 85 10000 4.12 330 06:36 29.12.2021
6227 Clear 9 1007 85 10000 4.63 330 05:57 29.12.2021
6228 Clear 9 1007 85 10000 4.63 330 05:27 29.12.2021
6229 Clear 9 1006 87 10000 3.6 330 01:27 29.12.2021
6230 Clear 9 1006 83 10000 3.09 340 23:59 28.12.2021
6231 Clear 9 1005 84 10000 2.06 350 22:57 28.12.2021
6232 Clear 9 1005 88 10000 3.6 330 22:25 28.12.2021
6233 Clear 10 1006 85 10000 3.6 340 21:56 28.12.2021
6234 Clear 10 1006 85 10000 3.09 320 21:35 28.12.2021
6235 Clouds 10 1006 86 10000 2.57 330 20:32 28.12.2021
6236 Clouds 11 1006 84 10000 1.54 0 18:56 28.12.2021
6237 Clouds 11 1007 81 10000 0.51 0 18:28 28.12.2021
6238 Clouds 12 1006 81 10000 2.57 80 17:42 28.12.2021
6239 Clouds 13 1007 81 10000 1.54 0 16:25 28.12.2021
6240 Clouds 14 1006 78 10000 3.09 100 15:41 28.12.2021
6241 Clouds 14 1006 78 10000 3.09 100 15:19 28.12.2021
6242 Clouds 13 1006 80 10000 4.12 90 14:45 28.12.2021
6243 Clouds 13 1006 83 10000 5.66 80 14:20 28.12.2021
6244 Clouds 13 1006 81 10000 5.14 90 13:42 28.12.2021
6245 Clouds 13 1006 81 10000 4.12 80 13:24 28.12.2021
6246 Clouds 12 1007 81 10000 3.09 330 12:39 28.12.2021
6247 Clouds 11 1007 81 10000 2.57 340 11:27 28.12.2021
6248 Clouds 8 1006 84 10000 5.66 320 07:40 28.12.2021
6249 Rain 8 1007 81 10000 5.66 320 06:40 28.12.2021
6250 Clouds 9 1008 82 10000 4.12 340 23:42 27.12.2021
6251 Clouds 9 1007 84 10000 3.6 340 22:58 27.12.2021
6252 Clouds 9 1007 82 10000 3.09 330 21:33 27.12.2021
6253 Clouds 9 1007 83 10000 3.6 340 20:46 27.12.2021
6254 Clouds 9 1006 84 10000 4.12 330 19:58 27.12.2021
6255 Clouds 9 1006 83 10000 3.09 350 19:39 27.12.2021
6256 Clouds 10 1006 79 10000 4.63 320 18:23 27.12.2021
6257 Clouds 10 1005 78 10000 3.6 330 17:46 27.12.2021
6258 Rain 11 1004 79 10000 3.6 10 16:38 27.12.2021
6259 Rain 11 1005 78 10000 3.09 10 15:51 27.12.2021
6260 Rain 10 1005 85 10000 4.12 360 14:32 27.12.2021
6261 Rain 10 1006 83 6000 5.66 330 13:39 27.12.2021
6262 Rain 10 1006 85 10000 5.14 330 12:19 27.12.2021
6263 Clouds 10 1008 71 10000 4.63 330 10:31 27.12.2021
6264 Rain 9 1007 71 10000 5.14 340 09:47 27.12.2021
6265 Clouds 10 1006 80 10000 5.66 330 07:38 27.12.2021
6266 Clouds 10 1006 80 10000 5.66 330 07:20 27.12.2021
6267 Clouds 10 1007 80 10000 4.12 340 02:19 27.12.2021
6268 Clouds 9 1008 81 10000 4.12 330 23:58 26.12.2021
6269 Clouds 9 1008 87 10000 3.09 340 23:36 26.12.2021
6270 Clouds 11 1007 86 10000 4.12 330 22:23 26.12.2021
6271 Clouds 11 1006 86 10000 3.09 320 20:59 26.12.2021
6272 Clouds 12 1006 85 10000 2.57 350 19:47 26.12.2021
6273 Clouds 12 1006 84 10000 0.93 88 18:24 26.12.2021
6274 Clouds 13 1005 84 10000 5.14 90 16:55 26.12.2021
6275 Clouds 14 1005 84 10000 3.09 90 14:29 26.12.2021
6276 Clouds 14 1004 81 10000 0.51 0 13:40 26.12.2021
6277 Clouds 14 1004 79 10000 1.03 0 13:20 26.12.2021
6278 Clouds 13 1005 76 10000 3.6 330 12:33 26.12.2021
6279 Clouds 13 1005 76 10000 3.6 330 12:33 26.12.2021
6280 Clouds 11 1005 76 10000 4.12 330 10:42 26.12.2021
6281 Clouds 9 1006 76 10000 4.12 330 09:28 26.12.2021
6282 Clouds 9 1006 76 10000 4.12 330 08:44 26.12.2021
6283 Clouds 10 1005 77 10000 3.09 340 07:59 26.12.2021
6284 Clouds 11 1005 75 10000 3.6 330 01:30 26.12.2021
6285 Clouds 11 1005 78 10000 3.09 330 23:58 25.12.2021
6286 Clouds 11 1005 78 10000 3.09 340 23:27 25.12.2021
6287 Clouds 11 1005 78 10000 1.54 10 22:28 25.12.2021
6288 Clouds 11 1005 78 10000 4.12 340 21:18 25.12.2021
6289 Clouds 12 1005 78 10000 2.57 340 19:28 25.12.2021
6290 Clouds 12 1005 81 10000 3.09 90 18:57 25.12.2021
6291 Clouds 12 1005 81 10000 4.12 90 18:21 25.12.2021
6292 Clouds 13 1004 73 10000 2.06 340 16:42 25.12.2021
6293 Clouds 13 1004 75 10000 3.6 320 15:26 25.12.2021
6294 Clouds 11 1004 81 4000 5.66 340 13:43 25.12.2021
6295 Rain 12 1005 74 10000 0.78 346 11:54 25.12.2021
6296 Rain 12 1006 75 10000 1.62 343 10:32 25.12.2021
6297 Rain 12 1006 76 10000 2.3 359 09:48 25.12.2021
6298 Clouds 11 1008 71 10000 4.63 320 05:39 25.12.2021
6299 Clouds 11 1009 80 10000 4.63 330 01:31 25.12.2021
6300 Clouds 11 1009 82 6000 5.14 330 00:18 25.12.2021
6301 Clouds 11 1010 74 10000 4.12 330 21:46 24.12.2021
6302 Clouds 12 1011 76 10000 4.63 330 19:26 24.12.2021
6303 Clouds 12 1011 74 10000 4.12 320 18:34 24.12.2021
6304 Clouds 12 1011 72 10000 4.12 330 16:43 24.12.2021
6305 Clouds 12 1012 76 10000 3.09 320 15:50 24.12.2021
6306 Rain 13 1012 81 10000 2.57 310 15:20 24.12.2021
6307 Clouds 12 1012 74 10000 4.12 330 14:33 24.12.2021
6308 Clouds 13 1012 84 10000 2.96 250 13:50 24.12.2021
6309 Clouds 13 1013 84 10000 2.96 250 13:32 24.12.2021
6310 Clouds 12 1013 83 10000 3.35 251 12:39 24.12.2021
6311 Clouds 12 1014 65 10000 4.63 330 11:43 24.12.2021
6312 Clouds 12 1014 65 10000 0.45 226 11:24 24.12.2021
6313 Clouds 11 1015 65 10000 0.45 212 10:35 24.12.2021
6314 Clouds 11 1015 61 10000 0.45 219 08:48 24.12.2021
6315 Clouds 10 1015 62 10000 0.45 240 07:58 24.12.2021
6316 Clouds 10 1015 63 10000 6.17 330 07:31 24.12.2021
6317 Clouds 10 1017 56 10000 6.17 330 00:47 24.12.2021
6318 Clouds 9 1018 58 10000 6.69 330 23:50 23.12.2021
6319 Clouds 8 1019 53 10000 6.17 330 22:53 23.12.2021
6320 Clouds 8 1019 57 10000 5.66 330 22:24 23.12.2021
6321 Clouds 8 1019 57 10000 6.69 330 21:47 23.12.2021
6322 Clouds 9 1018 70 10000 3.6 340 20:31 23.12.2021
6323 Clouds 9 1018 70 10000 4.63 330 19:30 23.12.2021
6324 Clouds 9 1018 75 10000 4.63 320 18:28 23.12.2021
6325 Clouds 11 1018 78 10000 3.09 230 17:46 23.12.2021
6326 Clouds 12 1018 72 10000 4.12 220 16:27 23.12.2021
6327 Clouds 13 1018 71 10000 4.12 220 15:54 23.12.2021
6328 Clouds 13 1018 71 10000 0.51 0 15:30 23.12.2021
6329 Clouds 13 1018 67 10000 0 0 14:42 23.12.2021
6330 Clouds 12 1019 66 10000 2.06 320 13:49 23.12.2021
6331 Clouds 12 1020 67 10000 0.42 194 12:39 23.12.2021
6332 Clouds 8 1022 65 10000 5.66 340 10:36 23.12.2021
6333 Clouds 7 1021 69 10000 5.14 340 09:34 23.12.2021
6334 Clouds 6 1022 71 10000 5.14 340 08:58 23.12.2021
6335 Clear 7 1022 69 10000 6.17 330 06:23 23.12.2021
6336 Clear 6 1024 73 10000 5.66 340 03:28 23.12.2021
6337 Clouds 7 1023 75 10000 5.14 340 22:55 22.12.2021
6338 Clouds 7 1024 77 10000 4.63 340 22:23 22.12.2021
6339 Clouds 7 1024 77 10000 4.12 340 21:53 22.12.2021
6340 Clear 7 1024 76 10000 5.14 330 21:27 22.12.2021
6341 Clear 7 1024 80 10000 5.14 330 20:41 22.12.2021
6342 Clear 7 1024 77 10000 4.12 330 19:59 22.12.2021
6343 Clouds 7 1024 80 10000 4.12 330 19:19 22.12.2021
6344 Clear 9 1022 77 10000 2.87 80 17:39 22.12.2021
6345 Clouds 11 1022 65 10000 2.06 110 16:36 22.12.2021
6346 Clouds 13 1021 62 10000 2.06 150 15:36 22.12.2021
6347 Clouds 13 1022 59 10000 2.57 320 13:23 22.12.2021
6348 Clouds 12 1022 59 10000 4.12 330 12:31 22.12.2021
6349 Clouds 10 1022 65 10000 4.12 350 09:53 22.12.2021
6350 Clouds 10 1021 65 10000 4.12 340 09:33 22.12.2021
6351 Clouds 9 1020 69 10000 3.6 340 07:22 22.12.2021
6352 Clouds 9 1020 74 10000 4.63 330 05:41 22.12.2021
6353 Clouds 9 1020 73 10000 5.14 330 05:22 22.12.2021
6354 Clouds 9 1020 75 10000 5.14 330 04:45 22.12.2021
6355 Clouds 9 1020 75 10000 4.63 330 04:22 22.12.2021
6356 Clouds 10 1020 74 10000 4.63 330 03:32 22.12.2021
6357 Clouds 9 1020 75 10000 5.14 330 00:29 22.12.2021
6358 Clouds 9 1020 76 10000 4.12 340 22:51 21.12.2021
6359 Clouds 9 1020 76 10000 3.6 330 22:27 21.12.2021
6360 Clouds 9 1020 76 10000 3.6 340 21:43 21.12.2021
6361 Clouds 9 1020 76 10000 3.6 340 20:54 21.12.2021
6362 Clouds 9 1020 76 10000 4.63 330 20:20 21.12.2021
6363 Clouds 9 1020 72 10000 4.12 330 19:41 21.12.2021
6364 Clouds 10 1020 73 10000 4.12 330 18:43 21.12.2021
6365 Clouds 10 1020 73 10000 3.6 330 18:21 21.12.2021
6366 Clouds 10 1020 73 10000 4.12 330 17:40 21.12.2021
6367 Clouds 11 1020 69 10000 4.63 330 15:55 21.12.2021
6368 Clouds 11 1020 68 10000 5.14 330 15:20 21.12.2021
6369 Clouds 11 1020 68 10000 5.14 330 13:50 21.12.2021
6370 Clouds 11 1020 78 10000 1.85 99 13:29 21.12.2021
6371 Clouds 10 1021 71 10000 5.66 330 11:36 21.12.2021
6372 Clouds 10 1021 73 10000 6.17 330 10:21 21.12.2021
6373 Clouds 9 1021 75 10000 6.17 330 09:19 21.12.2021
6374 Clouds 9 1020 75 10000 6.69 330 07:55 21.12.2021
6375 Clouds 8 1020 76 10000 6.69 330 07:26 21.12.2021
6376 Clouds 8 1019 75 10000 6.69 330 05:31 21.12.2021
6377 Clouds 9 1019 75 10000 6.17 330 02:40 21.12.2021
6378 Clouds 7 1019 79 10000 5.14 330 23:58 20.12.2021
6379 Clouds 7 1018 80 10000 5.66 330 23:27 20.12.2021
6380 Clear 8 1018 80 10000 5.14 330 22:28 20.12.2021
6381 Clear 8 1018 80 10000 5.14 330 22:28 20.12.2021
6382 Clear 8 1017 78 10000 4.63 330 21:47 20.12.2021
6383 Clear 8 1017 78 10000 4.63 330 21:23 20.12.2021
6384 Clear 8 1017 78 10000 4.63 330 20:44 20.12.2021
6385 Clear 8 1017 79 10000 4.63 330 19:53 20.12.2021
6386 Clear 8 1016 81 10000 4.12 330 19:31 20.12.2021
6387 Clear 9 1016 78 10000 4.12 30 18:54 20.12.2021
6388 Clear 10 1016 72 10000 5.14 90 17:52 20.12.2021
6389 Clear 10 1016 69 10000 4.63 90 17:25 20.12.2021
6390 Clear 11 1016 67 10000 5.14 90 16:40 20.12.2021
6391 Clear 13 1015 63 10000 1.54 90 15:51 20.12.2021
6392 Clear 13 1015 61 10000 1.54 120 14:51 20.12.2021
6393 Clear 13 1016 64 10000 2.57 220 12:53 20.12.2021
6394 Clear 10 1017 60 10000 5.14 330 11:19 20.12.2021
6395 Clear 8 1017 65 10000 5.66 330 09:48 20.12.2021
6396 Clear 7 1017 64 10000 4.63 330 09:29 20.12.2021
6397 Clear 7 1017 64 10000 5.66 330 08:42 20.12.2021
6398 Clear 7 1017 64 10000 5.66 330 07:50 20.12.2021
6399 Clear 7 1017 62 10000 4.63 330 07:30 20.12.2021
6400 Clear 7 1018 66 10000 6.17 330 04:24 20.12.2021
6401 Clear 8 1019 68 10000 5.66 330 23:58 19.12.2021
6402 Clear 8 1020 70 10000 5.66 330 22:45 19.12.2021
6403 Clear 8 1020 73 10000 5.14 330 21:50 19.12.2021
6404 Clear 8 1020 73 10000 4.63 330 21:30 19.12.2021
6405 Clear 8 1020 73 10000 4.63 330 20:32 19.12.2021
6406 Clear 9 1020 74 10000 4.12 330 19:51 19.12.2021
6407 Clear 9 1020 75 10000 4.63 330 19:22 19.12.2021
6408 Clear 9 1020 72 10000 3.6 330 18:29 19.12.2021
6409 Clear 10 1020 72 10000 2.06 360 17:53 19.12.2021
6410 Clear 11 1021 67 10000 1.54 30 17:19 19.12.2021
6411 Clear 13 1021 63 10000 0 0 16:26 19.12.2021
6412 Clear 13 1021 63 10000 0 0 16:26 19.12.2021
6413 Clear 14 1021 61 10000 1.54 200 15:43 19.12.2021
6414 Clear 14 1021 59 10000 2.57 200 15:20 19.12.2021
6415 Clear 14 1021 59 10000 3.09 200 14:42 19.12.2021
6416 Clear 14 1023 60 10000 2.06 260 13:22 19.12.2021
6417 Clear 14 1024 54 10000 1.54 280 12:42 19.12.2021
6418 Clear 13 1024 53 10000 3.09 320 12:18 19.12.2021
6419 Clear 12 1025 58 10000 5.14 330 11:19 19.12.2021
6420 Clear 10 1025 64 10000 6.17 330 10:26 19.12.2021
6421 Clear 9 1025 68 10000 6.17 330 09:42 19.12.2021
6422 Clear 8 1025 69 10000 6.17 330 08:35 19.12.2021
6423 Clear 8 1027 71 10000 6.69 330 04:45 19.12.2021
6424 Clear 9 1029 70 10000 6.17 330 01:33 19.12.2021
6425 Clear 9 1029 69 10000 5.14 330 00:52 19.12.2021
6426 Clear 9 1029 68 10000 5.14 330 22:37 18.12.2021
6427 Clear 10 1029 68 10000 5.14 330 21:58 18.12.2021
6428 Clear 9 1029 69 10000 5.66 330 21:35 18.12.2021
6429 Clear 10 1030 71 10000 5.14 330 20:44 18.12.2021
6430 Clear 9 1030 74 10000 5.14 340 20:18 18.12.2021
6431 Clear 10 1029 74 10000 4.63 330 19:25 18.12.2021
6432 Clear 10 1029 75 10000 4.12 320 18:22 18.12.2021
6433 Clear 11 1029 80 10000 0 0 17:48 18.12.2021
6434 Clear 14 1029 71 10000 2.57 180 16:26 18.12.2021
6435 Clear 15 1029 67 10000 1.54 180 15:27 18.12.2021
6436 Clear 15 1029 63 10000 2.06 190 14:51 18.12.2021
6437 Clear 15 1029 62 10000 3.09 330 13:28 18.12.2021
6438 Clouds 12 1029 65 10000 5.66 330 11:23 18.12.2021
6439 Clouds 9 1029 70 10000 6.17 330 09:40 18.12.2021
6440 Clouds 8 1028 72 10000 6.69 330 08:47 18.12.2021
6441 Clouds 8 1028 72 10000 6.69 330 08:24 18.12.2021
6442 Clear 9 1027 68 10000 4.63 330 03:58 18.12.2021
6443 Clear 10 1026 65 10000 3.6 310 00:30 18.12.2021
6444 Clear 11 1026 64 10000 3.6 330 23:46 17.12.2021
6445 Clear 11 1027 64 10000 4.63 320 21:58 17.12.2021
6446 Clear 11 1027 66 10000 3.09 340 21:20 17.12.2021
6447 Clear 11 1027 67 10000 5.66 340 20:41 17.12.2021
6448 Clear 11 1027 62 10000 4.63 330 19:45 17.12.2021
6449 Clear 11 1028 69 10000 4.63 320 18:39 17.12.2021
6450 Clear 12 1028 76 10000 1.54 240 17:40 17.12.2021
6451 Clear 14 1028 73 10000 2.57 210 16:50 17.12.2021
6452 Clear 15 1028 70 10000 3.09 200 16:25 17.12.2021
6453 Clear 16 1028 65 10000 3.6 190 15:25 17.12.2021
6454 Clear 16 1028 65 10000 3.09 200 14:41 17.12.2021
6455 Clear 16 1029 61 10000 2.06 210 13:30 17.12.2021
6456 Clear 15 1030 51 10000 3.6 320 12:21 17.12.2021
6457 Clear 12 1031 44 10000 5.66 330 10:39 17.12.2021
6458 Clear 10 1030 62 10000 6.69 330 09:44 17.12.2021
6459 Clear 9 1030 63 10000 6.69 330 08:31 17.12.2021
6460 Clear 9 1030 63 10000 5.66 330 07:20 17.12.2021
6461 Clear 10 1029 65 10000 5.66 330 04:40 17.12.2021
6462 Clear 9 1029 73 10000 5.66 330 23:58 16.12.2021
6463 Clear 10 1028 72 10000 4.63 330 22:24 16.12.2021
6464 Clear 10 1028 71 10000 3.6 330 21:51 16.12.2021
6465 Clear 10 1028 68 10000 4.12 330 21:30 16.12.2021
6466 Clear 11 1027 65 10000 3.09 340 20:31 16.12.2021
6467 Clear 10 1026 67 10000 4.12 330 19:51 16.12.2021
6468 Clear 12 1026 66 10000 3.6 330 18:41 16.12.2021
6469 Clear 13 1026 65 10000 2.57 310 17:57 16.12.2021
6470 Clear 13 1026 68 10000 3.6 210 17:31 16.12.2021
6471 Clear 15 1025 67 10000 2.57 210 16:23 16.12.2021
6472 Clear 16 1025 59 10000 2.57 260 14:54 16.12.2021
6473 Clear 16 1026 49 10000 2.06 290 13:43 16.12.2021
6474 Clear 14 1028 50 10000 5.14 330 11:46 16.12.2021
6475 Clear 14 1028 53 10000 5.14 330 11:18 16.12.2021
6476 Clear 12 1028 61 10000 6.69 330 10:27 16.12.2021
6477 Clear 10 1027 58 10000 7.2 330 08:37 16.12.2021
6478 Clear 9 1027 55 10000 7.2 330 06:22 16.12.2021
6479 Clear 10 1027 66 10000 5.66 340 02:54 16.12.2021
6480 Clear 10 1027 69 10000 5.14 330 23:35 15.12.2021
6481 Clear 10 1027 70 10000 5.14 330 22:48 15.12.2021
6482 Clear 10 1027 73 10000 6.17 330 21:58 15.12.2021
6483 Clear 10 1027 76 10000 5.66 330 21:28 15.12.2021
6484 Clear 10 1027 81 10000 5.66 330 20:31 15.12.2021
6485 Clear 10 1027 82 10000 5.14 320 19:52 15.12.2021
6486 Clouds 11 1027 84 10000 2.06 330 18:39 15.12.2021
6487 Clouds 12 1026 84 10000 2.06 80 17:57 15.12.2021
6488 Clouds 12 1026 83 10000 1.54 100 17:39 15.12.2021
6489 Clouds 13 1026 82 10000 1.03 110 16:35 15.12.2021
6490 Clouds 14 1025 82 10000 1.54 110 15:47 15.12.2021
6491 Clouds 14 1025 82 10000 1.54 110 15:47 15.12.2021
6492 Clouds 14 1025 82 10000 2.57 130 15:29 15.12.2021
6493 Clouds 15 1025 79 10000 3.6 130 14:43 15.12.2021
6494 Clouds 15 1025 75 10000 5.14 90 12:52 15.12.2021
6495 Clear 13 1026 61 10000 3.09 330 10:49 15.12.2021
6496 Clear 11 1025 63 10000 3.6 330 09:28 15.12.2021
6497 Clear 10 1024 64 10000 4.63 330 07:47 15.12.2021
6498 Clear 10 1023 66 10000 5.14 320 02:40 15.12.2021
6499 Clear 10 1023 69 10000 6.17 330 23:44 14.12.2021
6500 Clear 10 1023 70 10000 5.14 330 22:49 14.12.2021
6501 Clear 10 1023 70 10000 5.14 330 22:49 14.12.2021
6502 Clear 10 1023 70 10000 5.14 330 22:49 14.12.2021
6503 Clear 10 1023 75 10000 5.14 320 22:30 14.12.2021
6504 Clear 10 1023 74 10000 4.63 330 21:24 14.12.2021
6505 Clear 10 1024 80 10000 5.66 320 19:44 14.12.2021
6506 Clear 11 1024 79 10000 4.12 320 19:21 14.12.2021
6507 Clear 10 1024 80 10000 4.63 320 19:21 14.12.2021
6508 Clear 10 1023 81 10000 3.6 320 18:34 14.12.2021
6509 Clear 11 1023 84 10000 1.03 250 17:50 14.12.2021
6510 Clear 13 1023 74 10000 1.03 230 16:43 14.12.2021
6511 Clear 15 1023 71 10000 1.54 0 15:52 14.12.2021
6512 Clear 15 1024 66 10000 1.03 0 13:33 14.12.2021
6513 Clear 15 1024 67 10000 2.06 330 12:41 14.12.2021
6514 Clear 12 1025 67 10000 3.09 330 11:24 14.12.2021
6515 Clear 11 1025 69 10000 4.63 330 10:28 14.12.2021
6516 Clouds 10 1025 74 10000 5.14 330 09:53 14.12.2021
6517 Clouds 8 1025 76 10000 5.66 330 08:40 14.12.2021
6518 Clouds 8 1025 78 10000 5.66 330 08:20 14.12.2021
6519 Clear 8 1024 80 10000 5.66 330 06:27 14.12.2021
6520 Clouds 8 1025 76 10000 5.14 330 23:42 13.12.2021
6521 Clear 8 1025 75 10000 5.14 330 22:18 13.12.2021
6522 Clear 8 1025 77 10000 4.63 330 21:34 13.12.2021
6523 Clear 9 1025 77 10000 4.12 330 20:51 13.12.2021
6524 Clear 9 1025 77 10000 3.6 340 20:20 13.12.2021
6525 Clouds 9 1024 79 10000 5.14 330 19:49 13.12.2021
6526 Clouds 11 1024 79 10000 1.03 0 17:27 13.12.2021
6527 Clear 13 1023 73 10000 2.57 210 16:24 13.12.2021
6528 Clear 14 1023 70 10000 2.06 200 15:43 13.12.2021
6529 Clear 15 1023 58 10000 2.57 200 14:30 13.12.2021
6530 Clear 15 1024 46 10000 1.54 180 13:36 13.12.2021
6531 Clear 14 1024 45 10000 1.03 0 12:39 13.12.2021
6532 Clear 13 1024 45 10000 2.57 330 11:50 13.12.2021
6533 Clear 12 1025 45 10000 3.09 330 11:29 13.12.2021
6534 Clear 10 1025 49 10000 5.14 330 10:21 13.12.2021
6535 Clear 9 1024 49 10000 6.69 330 08:43 13.12.2021
6536 Clear 8 1023 47 10000 5.66 330 06:54 13.12.2021
6537 Clear 8 1023 50 10000 6.69 330 04:52 13.12.2021
6538 Clear 9 1024 51 10000 6.17 330 23:55 12.12.2021
6539 Clear 9 1024 55 10000 5.66 320 21:57 12.12.2021
6540 Clear 9 1024 56 10000 5.14 330 20:50 12.12.2021
6541 Clear 9 1023 55 10000 5.14 330 19:35 12.12.2021
6542 Clear 10 1023 55 10000 4.12 320 17:58 12.12.2021
6543 Clear 13 1022 57 10000 1.54 230 16:29 12.12.2021
6544 Clear 14 1022 52 10000 1.03 170 15:55 12.12.2021
6545 Clear 14 1022 48 10000 1.03 0 15:28 12.12.2021
6546 Clear 14 1022 47 10000 0.51 0 14:46 12.12.2021
6547 Clear 14 1022 43 10000 3.6 330 13:56 12.12.2021
6548 Clear 14 1022 42 10000 4.63 330 12:48 12.12.2021
6549 Clear 12 1022 51 10000 5.14 330 11:45 12.12.2021
6550 Clear 11 1022 52 10000 5.14 330 11:27 12.12.2021
6551 Clear 11 1022 45 10000 5.14 320 10:44 12.12.2021
6552 Clear 9 1021 49 10000 5.14 340 09:58 12.12.2021
6553 Clear 7 1020 52 10000 5.14 340 08:44 12.12.2021
6554 Clear 7 1019 52 10000 5.14 340 07:25 12.12.2021
6555 Clear 7 1018 51 10000 4.63 340 05:29 12.12.2021
6556 Clear 7 1017 49 10000 4.63 340 04:19 12.12.2021
6557 Clear 7 1016 56 10000 7.72 340 00:57 12.12.2021
6558 Clear 7 1015 53 10000 5.14 330 22:56 11.12.2021
6559 Clear 6 1016 54 10000 5.66 340 22:20 11.12.2021
6560 Clear 6 1015 53 10000 4.63 340 21:35 11.12.2021
6561 Clear 8 1013 51 10000 4.12 340 20:18 11.12.2021
6562 Clear 7 1013 57 10000 4.63 330 19:21 11.12.2021
6563 Clear 8 1013 58 10000 4.63 330 18:45 11.12.2021
6564 Clear 9 1012 54 10000 2.57 330 17:54 11.12.2021
6565 Clear 12 1010 42 10000 2.57 220 16:37 11.12.2021
6566 Clear 13 1009 45 10000 3.09 210 15:41 11.12.2021
6567 Clear 14 1008 41 10000 3.09 220 14:36 11.12.2021
6568 Clear 13 1008 44 10000 3.6 280 12:41 11.12.2021
6569 Clear 10 1007 48 10000 4.12 330 10:58 11.12.2021
6570 Clear 8 1006 56 10000 4.63 340 09:44 11.12.2021
6571 Clear 5 1002 74 10000 4.63 330 03:58 11.12.2021
6572 Clouds 7 999 69 10000 4.12 330 00:50 11.12.2021
6573 Clouds 7 999 77 10000 4.12 330 23:44 10.12.2021
6574 Clouds 7 998 76 10000 3.6 330 22:50 10.12.2021
6575 Clouds 6 998 80 10000 2.57 320 21:51 10.12.2021
6576 Rain 8 997 72 10000 1.54 0 20:35 10.12.2021
6577 Clouds 9 997 66 10000 3.6 170 19:19 10.12.2021
6578 Clouds 9 997 62 10000 2.57 170 17:54 10.12.2021
6579 Clouds 10 996 62 10000 5.66 110 16:55 10.12.2021
6580 Clouds 11 995 67 10000 8.23 100 15:47 10.12.2021
6581 Clouds 11 995 67 10000 7.72 110 15:29 10.12.2021
6582 Clouds 11 994 68 10000 5.66 90 14:57 10.12.2021
6583 Clouds 11 994 64 10000 2.57 360 13:50 10.12.2021
6584 Clouds 10 995 72 10000 1.54 240 13:20 10.12.2021
6585 Clouds 8 997 72 10000 0.51 0 12:23 10.12.2021
6586 Clouds 7 1000 74 10000 1.54 310 11:28 10.12.2021
6587 Clouds 6 1001 78 10000 3.6 310 09:54 10.12.2021
6588 Rain 7 1001 54 10000 5.66 330 08:30 10.12.2021
6589 Rain 7 1003 52 10000 6.69 330 05:57 10.12.2021
6590 Clear 7 1004 56 10000 5.14 340 02:48 10.12.2021
6591 Clear 7 1005 56 10000 5.66 360 23:46 09.12.2021
6592 Clear 7 1005 55 10000 5.14 350 23:20 09.12.2021
6593 Clear 7 1005 58 10000 4.63 340 22:24 09.12.2021
6594 Clear 7 1005 56 10000 3.6 340 21:50 09.12.2021
6595 Clear 8 1004 52 10000 5.14 360 20:41 09.12.2021
6596 Clear 8 1004 52 10000 4.63 340 20:41 09.12.2021
6597 Clear 8 1004 51 10000 5.14 360 20:21 09.12.2021
6598 Clear 9 1004 53 10000 3.6 340 19:21 09.12.2021
6599 Clear 9 1003 57 10000 2.57 330 18:36 09.12.2021
6600 Clear 9 1003 58 10000 3.09 10 17:51 09.12.2021
6601 Clear 10 1002 53 10000 1.54 300 17:25 09.12.2021
6602 Clear 11 1002 53 10000 0.51 280 16:53 09.12.2021
6603 Clear 13 1001 53 10000 2.57 240 15:34 09.12.2021
6604 Clear 13 1001 54 10000 4.12 220 14:46 09.12.2021
6605 Clear 13 1001 49 10000 2.57 240 13:20 09.12.2021
6606 Clear 12 1001 46 10000 3.6 330 12:40 09.12.2021
6607 Clear 10 1001 51 10000 3.09 320 11:24 09.12.2021
6608 Clear 7 1000 68 10000 6.17 330 09:21 09.12.2021
6609 Clear 6 999 78 10000 6.17 330 06:44 09.12.2021
6610 Clouds 6 999 86 10000 4.63 330 03:40 09.12.2021
6611 Clouds 7 998 86 10000 3.6 340 23:44 08.12.2021
6612 Clouds 7 998 85 10000 3.6 330 23:21 08.12.2021
6613 Rain 7 998 87 10000 2.57 330 22:48 08.12.2021
6614 Clouds 7 998 86 10000 4.12 320 21:42 08.12.2021
6615 Clouds 7 998 86 10000 4.12 320 21:24 08.12.2021
6616 Clouds 8 998 84 10000 3.6 320 19:58 08.12.2021
6617 Clouds 8 997 84 10000 3.09 330 19:34 08.12.2021
6618 Clouds 8 997 80 10000 2.06 300 18:46 08.12.2021
6619 Clouds 9 997 78 10000 5.14 280 17:37 08.12.2021
6620 Clouds 11 996 69 10000 2.57 300 15:57 08.12.2021
6621 Clouds 12 996 69 10000 3.6 240 15:29 08.12.2021
6622 Clouds 11 996 75 10000 3.6 240 14:40 08.12.2021
6623 Rain 9 999 84 10000 5.14 350 11:36 08.12.2021
6624 Clouds 9 999 87 6000 5.14 330 10:32 08.12.2021
6625 Rain 9 1000 84 10000 2.57 0 09:25 08.12.2021
6626 Rain 8 1001 85 4000 3.09 20 07:26 08.12.2021
6627 Rain 8 1004 84 10000 5.14 20 04:57 08.12.2021
6628 Rain 9 1009 68 10000 2.57 330 23:34 07.12.2021
6629 Clear 10 1010 68 10000 1.54 30 21:55 07.12.2021
6630 Clear 10 1010 67 10000 1.54 330 21:23 07.12.2021
6631 Clear 10 1010 67 10000 1.54 330 21:23 07.12.2021
6632 Clear 9 1010 71 10000 3.09 320 20:24 07.12.2021
6633 Clear 10 1010 69 10000 2.57 270 18:47 07.12.2021
6634 Rain 11 1010 67 10000 3.09 330 17:53 07.12.2021
6635 Rain 11 1011 67 10000 2.06 320 17:20 07.12.2021
6636 Rain 11 1011 65 10000 1.03 250 16:34 07.12.2021
6637 Clouds 12 1012 62 10000 0 0 15:34 07.12.2021
6638 Clouds 13 1012 59 10000 2.06 110 14:36 07.12.2021
6639 Clouds 14 1012 54 10000 3.09 80 1